GFSSW_sfc_wetblb_000.txt.gz
Wetbulb
58.86 58.64 58.68 58.80 58.82 59.02 59.29 59.45 59.42 59.39 59.57 59.69 60.02 60.22 60.32 60.25 59.76 51.86 46.78 53.77 55.18 63.72 58.13 51.26 50.12 48.45 47.91 46.43 45.60 41.97 36.30 32.28 35.03 35.33 38.67 40.43 39.92 42.94 41.07 41.10 39.89 43.28 42.01 42.83 41.62
58.54 58.38 58.44 58.57 58.71 58.74 58.87 58.95 58.87 59.00 59.23 59.42 59.54 59.79 59.97 59.76 52.27 48.42 56.47 62.45 64.91 63.03 51.01 49.25 46.86 47.05 44.38 44.26 44.60 41.77 34.11 36.10 38.47 37.93 39.51 40.43 40.54 41.53 42.08 40.29 38.92 40.82 42.38 40.45 41.19
58.43 58.26 58.34 58.46 58.55 58.74 58.56 58.36 58.30 58.45 58.71 58.92 59.22 59.30 59.46 57.53 44.99 44.96 62.16 64.03 65.78 60.90 51.43 48.97 47.88 46.94 41.96 44.09 43.53 40.66 38.34 39.32 41.65 42.42 42.24 41.47 39.93 41.18 39.25 40.10 41.11 41.96 43.23 41.31 40.44
58.43 58.33 58.22 58.32 58.46 58.69 58.65 58.43 58.17 58.11 58.25 58.40 58.73 58.84 58.67 51.69 37.93 45.87 63.74 65.27 65.02 52.63 50.20 47.72 45.67 42.85 40.98 41.05 43.48 39.63 42.24 42.09 42.78 43.52 41.80 41.47 41.76 40.36 40.94 46.47 45.26 44.08 43.53 40.50 40.63
58.76 58.59 58.50 58.36 58.53 58.71 58.66 58.49 58.53 58.22 58.10 58.16 58.32 58.46 51.04 41.27 44.43 54.01 63.17 63.05 53.74 50.54 48.34 46.15 43.88 42.52 39.79 40.36 40.67 39.67 41.35 43.67 43.91 42.28 43.18 42.72 43.15 41.73 40.22 44.74 44.16 43.36 42.33 41.76 40.95
59.15 58.90 58.79 58.77 58.79 58.80 58.61 58.54 58.48 58.42 58.20 58.02 57.96 57.67 44.95 38.29 47.47 55.60 55.99 52.84 50.55 48.26 46.03 45.89 44.46 44.89 41.29 40.89 41.03 39.86 40.83 41.45 41.36 42.27 42.49 42.28 44.07 41.68 43.53 42.55 43.85 41.54 42.25 41.23 40.45
59.47 59.21 58.85 58.79 59.01 58.63 58.54 58.68 58.56 58.43 58.29 58.27 57.61 55.26 44.11 43.44 48.61 52.26 52.26 49.51 48.94 47.79 44.91 45.02 44.96 43.05 41.13 38.84 40.83 40.27 38.88 38.74 38.68 39.72 40.00 40.47 39.05 38.02 44.99 41.42 42.74 41.89 40.78 40.75 40.83
59.29 58.77 58.49 58.47 58.51 58.45 58.49 58.60 58.64 58.50 58.29 58.19 57.36 49.75 39.74 47.72 48.21 48.73 47.98 45.72 46.27 45.85 45.37 44.99 45.36 43.83 40.94 40.88 39.50 35.15 35.06 32.43 36.75 37.59 38.74 39.95 33.88 41.78 41.42 38.79 40.54 41.12 41.39 41.20 42.58
58.58 58.08 58.09 58.14 57.98 57.93 58.19 58.24 57.61 57.95 57.21 57.10 49.95 43.18 39.85 50.79 46.12 47.36 46.88 45.39 45.36 44.69 44.51 48.01 44.48 40.41 38.77 34.84 32.86 30.85 29.59 30.07 34.02 39.04 37.95 37.07 34.47 40.44 39.63 39.02 39.91 40.57 41.66 41.90 44.81
58.19 57.87 57.89 57.94 57.86 57.90 58.03 56.91 56.39 55.44 55.69 55.70 51.06 39.83 42.76 42.16 46.13 46.19 45.29 46.34 43.77 43.58 42.56 41.66 38.57 36.16 33.71 32.95 28.88 29.76 27.67 29.84 30.40 37.07 34.55 33.94 35.21 39.92 41.52 40.50 39.96 41.24 43.02 43.90 44.26
58.25 58.04 58.04 57.96 58.08 58.24 52.30 46.80 42.33 40.19 44.71 42.35 42.06 40.08 41.33 45.12 47.20 44.95 46.28 45.47 42.99 40.26 36.72 36.89 33.96 32.66 36.90 35.69 35.29 30.77 30.26 30.08 33.17 37.18 33.15 36.84 37.42 39.10 40.63 39.82 41.67 42.73 42.73 43.02 44.18
58.65 58.29 58.18 57.97 57.96 55.91 46.88 44.16 41.94 43.24 37.83 43.27 43.01 43.81 44.35 45.15 41.71 43.36 45.82 42.57 40.03 36.46 35.70 33.78 31.55 38.24 36.73 35.21 34.44 32.51 31.99 33.03 36.17 37.99 33.38 34.70 35.33 39.12 40.32 41.02 41.80 42.45 43.28 43.30 43.55
58.58 58.09 57.84 57.54 56.74 50.06 44.38 42.99 47.40 45.67 36.13 39.84 41.52 40.79 41.66 44.28 40.89 41.40 44.16 40.47 37.91 35.01 34.89 35.31 37.59 38.46 36.41 33.48 33.62 31.11 30.34 33.50 32.47 33.70 32.78 31.03 32.63 33.02 37.25 37.62 40.54 41.30 42.80 40.76 41.22
58.76 58.36 57.60 56.86 52.05 47.42 44.95 46.68 47.58 43.93 34.05 36.81 37.65 39.81 41.79 41.05 36.48 40.33 41.29 39.78 36.21 36.24 34.02 33.77 37.15 36.86 32.73 33.35 34.60 32.70 35.54 34.87 33.22 29.35 27.16 31.00 27.08 30.63 35.72 37.22 38.11 39.96 38.28 39.08 40.04
57.91 58.17 57.79 56.06 49.79 47.93 47.28 47.72 45.57 39.43 28.97 39.04 37.16 43.45 41.35 37.69 36.41 36.96 39.22 38.52 35.22 35.26 33.94 33.73 32.30 31.89 32.14 34.75 34.99 33.86 34.92 32.72 29.92 28.21 26.27 26.05 24.33 29.69 32.10 34.02 36.79 38.30 39.08 38.54 39.37
56.50 57.33 56.71 53.66 50.69 50.14 48.84 47.48 42.10 35.04 30.52 36.74 36.66 35.96 35.69 36.56 35.82 36.46 36.99 37.76 36.31 33.36 32.37 34.21 33.95 35.42 35.79 35.29 35.68 34.20 31.54 29.77 27.92 27.35 22.63 28.51 27.41 33.64 30.36 32.72 35.08 38.64 42.31 39.77 39.82
53.76 55.30 55.19 54.19 51.12 49.89 48.79 48.09 40.37 33.59 39.91 35.75 33.34 34.76 33.35 33.39 34.58 34.15 33.98 32.85 32.73 29.80 28.70 30.74 32.18 33.42 35.28 31.90 31.84 31.67 28.65 22.20 19.79 18.71 22.24 26.75 24.95 34.17 36.90 39.30 37.42 38.03 38.32 38.84 38.59
51.73 53.86 55.12 54.38 52.46 50.45 51.02 44.80 33.78 36.99 36.85 38.61 37.36 35.93 35.49 35.76 36.17 33.32 30.85 30.89 32.69 30.83 27.88 28.82 31.75 32.15 33.80 34.76 32.54 30.11 31.57 23.81 19.65 17.87 26.68 23.97 24.31 35.24 38.27 38.79 38.80 36.83 37.58 36.53 37.87
51.56 54.49 54.15 54.81 51.37 52.78 48.21 37.85 36.05 36.52 40.14 39.33 40.23 35.22 34.37 34.79 36.65 31.34 29.95 31.00 35.06 33.91 33.46 27.35 28.83 31.68 33.43 33.51 34.40 28.99 28.10 33.49 27.67 29.36 23.07 30.01 31.70 36.95 40.03 36.10 35.02 34.24 35.60 36.61 38.05
45.49 50.11 51.40 54.30 52.26 51.03 43.81 38.87 37.88 42.07 42.15 41.64 37.79 39.80 33.87 33.19 33.93 33.02 32.28 33.11 34.01 34.78 35.88 34.87 30.13 33.74 32.05 32.37 32.80 32.78 33.13 26.18 25.41 20.80 19.85 25.44 28.49 31.04 36.72 39.62 37.57 36.42 35.78 38.92 38.12
45.32 44.18 48.31 52.03 52.62 45.93 37.77 38.53 42.17 45.28 44.94 41.38 39.85 39.62 38.76 37.64 37.15 37.36 38.25 38.24 35.54 34.50 34.53 34.85 33.16 31.55 31.75 30.06 31.96 30.81 28.70 28.76 29.25 28.28 24.60 23.36 28.72 37.28 39.10 40.13 34.96 35.59 38.11 38.20 35.26
44.71 37.46 50.20 52.49 42.14 42.57 39.02 40.66 42.94 42.80 44.22 42.13 42.76 41.32 39.25 39.28 37.52 36.88 36.74 38.84 40.22 39.20 34.65 35.66 36.51 31.63 32.75 34.90 34.73 33.07 34.04 32.41 27.70 26.16 27.33 27.56 27.78 38.97 38.17 38.90 35.46 32.02 32.23 33.61 33.51
39.92 39.25 50.46 50.28 35.67 37.61 40.51 40.44 42.67 41.26 41.75 41.52 40.31 41.23 41.79 38.69 35.51 38.44 38.50 41.08 41.92 40.16 38.41 39.38 34.15 28.21 28.88 30.69 32.49 31.59 34.14 34.96 34.71 31.96 28.44 25.44 26.95 39.53 36.66 28.55 30.75 28.79 28.34 29.46 30.81
38.83 30.72 40.42 44.83 42.03 38.94 36.33 36.60 37.17 41.96 41.64 42.16 40.90 41.53 38.97 37.01 38.70 36.33 36.40 38.12 37.54 37.77 40.83 40.22 34.04 31.48 26.32 28.74 32.99 31.87 33.33 34.48 33.46 29.10 28.42 28.65 30.24 35.02 25.61 25.40 25.19 27.60 27.20 28.03 29.15
33.13 30.96 35.10 28.88 34.13 36.66 37.32 35.90 33.86 33.64 37.83 40.10 38.26 37.80 36.56 33.78 35.01 34.74 36.58 36.39 35.23 37.21 35.51 36.43 30.74 32.43 32.72 34.31 33.21 31.40 29.84 29.53 28.38 29.99 26.44 28.48 29.56 27.53 21.81 23.39 24.89 27.70 27.70 27.50 28.31
29.21 30.47 32.39 30.36 31.25 31.51 32.77 32.09 32.98 33.96 34.79 34.02 33.61 34.97 35.30 32.62 33.49 31.98 33.08 31.04 30.85 32.53 32.28 34.28 26.99 28.02 23.92 27.14 26.85 25.80 27.99 27.77 28.14 27.69 28.06 28.69 25.63 22.82 24.32 26.08 25.52 26.53 26.62 26.10 27.41
32.16 33.41 33.65 28.52 27.45 26.04 26.05 28.74 29.78 30.54 32.02 31.51 30.04 31.33 30.59 32.06 32.69 32.42 31.68 31.21 30.93 28.54 27.70 28.35 26.89 23.77 19.15 23.82 22.87 17.72 23.11 25.42 26.83 28.80 24.63 20.76 19.47 21.53 21.55 23.58 24.75 26.00 27.06 25.76 26.76

GFSSW_sfc_wetblb_003.txt.gz
Wetbulb
59.01 58.93 59.11 59.30 59.41 59.43 59.57 59.48 59.37 59.39 59.60 59.85 60.00 59.97 60.06 60.02 59.33 53.56 46.51 53.29 55.00 64.23 58.19 52.06 51.32 50.18 50.24 48.77 47.93 45.47 39.10 35.46 38.16 37.56 40.69 43.66 42.62 44.10 44.53 44.53 44.26 45.91 46.00 47.89 46.32
58.89 58.87 59.10 59.23 59.27 59.38 59.27 58.98 58.78 58.91 59.15 59.29 59.53 59.73 59.75 59.47 52.18 48.20 56.26 62.15 65.13 62.05 51.00 49.49 47.89 48.29 46.16 46.63 46.83 43.63 37.28 38.21 40.38 40.08 41.79 43.56 43.11 44.37 44.09 44.07 43.14 44.25 45.76 45.42 45.52
58.93 58.94 59.00 59.21 59.36 59.39 59.34 59.12 58.89 58.76 58.69 58.74 58.95 59.27 59.20 57.09 44.46 44.35 61.96 63.48 65.35 59.16 51.16 49.51 48.66 47.84 44.64 45.45 45.21 42.56 40.12 40.93 42.01 42.01 43.24 43.41 42.50 44.18 42.88 42.68 44.33 44.73 46.17 45.49 44.41
59.35 59.21 59.25 59.25 59.46 59.66 59.53 59.25 59.18 59.01 58.87 58.65 58.64 58.78 58.59 51.27 38.33 44.56 62.70 65.38 64.48 52.19 50.53 48.37 47.27 44.70 43.00 42.51 44.64 40.88 42.91 42.64 44.30 44.31 43.19 43.13 43.37 42.56 42.85 47.73 48.27 46.09 46.33 45.51 44.19
59.55 59.46 59.57 59.53 59.61 59.81 59.54 59.30 59.48 59.23 58.95 58.84 58.53 58.39 51.15 40.54 44.18 55.67 63.98 63.98 52.60 50.83 48.89 46.81 45.23 43.79 41.61 41.70 42.10 41.19 42.20 43.96 43.93 43.42 43.68 43.74 44.14 43.06 42.50 45.86 46.27 45.27 44.17 44.44 43.65
59.83 59.56 59.56 59.62 59.63 59.71 59.45 59.30 59.31 59.27 59.04 58.97 58.59 57.91 43.64 38.83 47.96 57.91 57.04 52.57 50.63 48.85 46.92 46.83 45.58 45.37 42.22 41.56 41.92 41.44 41.93 41.74 41.67 42.87 42.69 42.85 44.15 42.49 44.10 45.24 45.04 43.35 45.04 44.14 42.81
59.93 59.66 59.36 59.30 59.54 59.33 59.21 59.29 59.17 58.87 58.80 58.93 57.96 54.74 42.65 42.94 49.19 53.68 53.08 49.75 49.66 47.94 45.48 45.57 45.80 44.66 43.16 40.01 42.07 40.74 39.26 39.50 39.13 40.39 40.45 41.15 39.32 39.34 45.24 42.14 43.93 45.21 43.61 43.19 42.96
59.46 59.05 58.74 58.75 58.93 59.03 59.16 59.20 59.00 58.15 58.03 58.09 57.45 49.70 39.14 47.33 49.06 49.52 46.85 45.54 47.11 46.44 45.99 45.15 45.44 44.53 42.58 42.17 39.95 36.60 35.78 33.71 38.44 38.63 39.32 41.12 36.38 42.02 43.29 40.88 41.41 41.81 43.74 42.48 45.31
58.76 58.41 58.39 58.48 58.44 58.49 58.80 58.60 57.32 56.96 56.73 57.02 48.26 41.46 39.57 50.89 45.74 46.39 46.13 45.02 45.02 44.79 45.41 46.84 44.79 40.79 39.69 35.91 33.55 32.92 30.67 30.85 34.19 39.26 38.51 38.26 35.85 40.20 40.82 40.08 40.51 42.26 43.72 45.33 46.30
58.55 58.19 58.32 58.44 58.38 58.45 58.05 55.91 56.46 55.45 55.19 55.48 50.38 39.34 42.63 42.13 46.16 46.07 45.33 45.96 43.82 43.58 42.93 42.13 38.41 36.52 33.59 33.77 29.99 30.83 28.79 29.98 31.39 38.16 35.33 35.04 35.17 40.21 41.17 41.49 42.10 43.22 43.97 43.91 44.19
58.85 58.67 58.64 58.52 58.56 58.37 51.36 45.52 43.24 40.55 43.83 41.57 41.68 39.86 40.48 44.47 46.71 44.87 46.19 45.22 43.05 41.15 36.88 37.34 34.34 32.85 36.33 35.70 34.47 32.37 30.73 29.85 32.76 36.68 34.21 36.97 37.06 38.69 40.88 39.76 41.39 42.70 43.52 43.78 43.81
59.40 59.06 59.01 58.54 58.31 55.78 46.75 43.27 41.43 42.27 37.03 42.62 43.10 43.67 44.15 44.70 41.16 43.17 45.90 42.53 40.20 36.64 35.86 33.97 32.38 38.42 37.06 35.30 34.46 32.73 31.46 32.08 34.80 37.17 33.44 34.41 35.76 39.49 40.78 41.46 42.34 42.55 42.98 42.15 42.34
59.09 58.91 58.82 58.41 57.11 50.30 44.44 43.59 48.05 46.14 35.54 40.31 41.29 40.58 41.13 44.18 40.43 40.91 43.78 40.31 37.63 34.83 34.20 34.04 36.52 37.75 36.36 33.53 33.28 31.23 30.84 33.01 31.88 33.15 33.67 31.38 31.83 33.30 38.74 38.00 39.81 41.27 41.36 41.17 40.70
58.71 58.82 58.54 58.02 52.70 47.58 45.79 47.03 47.47 43.57 34.90 37.91 37.66 39.12 41.28 40.32 35.78 40.51 41.44 39.60 36.25 35.60 34.13 33.88 36.42 36.43 33.26 33.79 33.83 30.82 35.01 33.89 32.00 29.93 27.11 32.67 26.64 31.24 37.12 37.84 38.57 39.44 39.24 39.42 40.37
57.30 57.93 58.61 57.07 51.56 49.04 47.26 47.40 46.32 39.64 31.94 39.48 36.40 42.96 41.01 37.38 36.22 37.45 39.18 38.52 34.24 34.70 34.28 34.36 33.53 32.24 32.18 34.78 34.84 33.66 33.80 31.95 31.05 29.12 27.29 27.72 24.97 30.36 33.18 34.77 37.07 38.80 40.54 40.48 39.94
53.98 55.99 56.27 54.08 51.98 49.79 48.10 47.24 41.84 37.89 31.79 37.94 36.01 35.22 35.20 35.96 35.51 36.66 37.25 37.93 36.21 33.37 32.83 33.76 34.71 35.30 35.74 34.48 35.00 34.32 32.29 29.91 28.79 28.44 23.10 28.66 28.11 30.06 32.01 35.05 35.54 38.70 41.15 39.79 40.02
51.61 52.75 55.75 54.98 52.08 49.55 48.62 49.43 39.11 34.12 41.09 36.93 33.27 34.03 32.51 31.69 33.85 33.80 33.37 32.63 32.16 29.41 29.25 30.58 31.85 33.02 34.54 31.58 31.80 33.12 29.97 23.61 21.35 19.73 22.21 27.08 25.59 31.85 36.17 39.85 37.88 39.32 38.15 37.96 39.00
50.29 52.26 55.38 54.87 51.80 49.57 50.90 44.85 34.01 37.22 37.81 39.02 37.83 36.54 35.68 36.18 34.81 33.37 32.23 31.20 32.76 31.49 27.99 29.76 32.14 32.70 34.02 34.73 32.53 30.14 31.15 26.46 20.29 20.98 26.90 23.92 26.30 35.48 37.46 39.61 38.59 36.73 36.69 37.90 37.17
49.92 51.70 53.04 54.60 51.68 52.66 48.30 36.89 34.57 36.08 40.14 38.97 39.95 35.13 33.08 34.91 36.20 32.55 30.51 30.79 33.42 33.88 33.75 29.03 28.13 31.32 32.47 33.34 35.13 29.09 27.81 33.32 27.80 26.47 25.06 30.14 31.80 38.27 40.71 36.49 35.12 33.90 31.96 31.44 32.76
44.44 47.78 49.29 53.97 52.36 50.92 44.02 37.94 38.24 41.18 42.49 41.92 35.90 38.86 33.16 35.12 36.51 34.99 34.31 34.26 33.36 35.45 38.54 34.59 31.20 33.31 32.50 32.39 32.00 32.41 33.45 26.59 25.38 19.03 20.32 26.31 29.23 31.15 35.87 31.16 29.57 29.50 28.93 29.59 30.95
44.64 42.34 47.45 52.61 52.78 46.25 36.36 37.86 40.82 44.45 44.48 41.85 40.09 38.95 39.00 37.86 37.32 35.74 38.01 38.36 37.13 35.04 35.49 33.88 33.04 31.29 33.08 30.19 30.29 29.16 28.18 28.68 29.32 27.05 23.60 22.57 27.96 35.43 28.27 28.36 27.28 26.28 26.91 27.95 29.46
42.87 34.42 50.15 53.07 42.51 42.74 38.09 40.30 42.47 41.94 43.65 42.70 42.57 40.99 38.50 38.63 37.15 36.73 35.94 38.29 39.86 36.44 33.58 35.67 34.49 28.67 31.11 35.62 33.71 32.93 33.21 33.29 28.42 26.41 26.75 28.47 27.80 28.26 26.70 27.03 26.49 24.57 26.77 28.31 29.68
38.50 38.54 49.69 50.41 35.12 37.28 39.11 39.69 42.08 40.32 40.49 41.41 39.71 40.74 39.80 37.56 34.37 37.28 38.30 39.97 40.94 39.92 37.53 38.02 32.09 26.45 26.78 30.28 32.63 32.04 32.73 33.25 33.55 31.94 27.73 24.52 27.63 28.56 25.14 25.69 26.67 27.22 26.57 27.62 28.89
34.99 29.50 38.19 44.80 41.34 38.25 35.55 35.28 35.77 40.18 40.30 41.29 39.95 40.22 37.48 35.83 37.84 35.65 36.42 38.76 37.34 37.98 40.33 39.57 34.04 31.52 25.31 26.91 30.65 29.23 30.96 32.30 32.22 27.87 27.14 28.52 30.39 31.96 23.76 22.78 24.77 26.82 27.72 27.00 27.67
31.36 29.07 34.59 31.31 32.01 34.42 35.87 34.75 31.95 32.06 36.92 37.60 35.24 36.57 34.79 32.86 32.63 32.68 35.69 35.96 36.60 37.28 34.44 35.93 30.39 31.92 32.15 32.55 31.01 28.70 27.50 26.90 25.29 27.04 23.56 26.67 25.92 30.37 20.30 21.87 24.25 25.95 28.44 26.92 26.31
28.12 26.54 30.23 31.12 32.09 30.09 33.38 30.48 31.30 33.07 34.01 32.42 31.53 32.75 32.87 30.92 32.80 31.28 34.33 33.12 32.48 31.02 30.04 32.99 28.22 25.93 20.58 26.97 26.13 24.73 25.85 26.01 25.86 25.92 25.93 26.82 26.84 22.65 23.97 24.83 23.78 24.60 27.62 25.35 24.93
30.65 32.01 30.71 26.56 26.79 25.51 25.27 28.86 28.03 29.53 30.45 27.99 28.14 28.66 28.10 28.86 30.35 30.74 31.62 31.42 30.95 29.51 28.74 28.91 27.59 22.63 20.56 23.21 22.41 18.20 21.02 23.87 24.91 26.48 24.22 20.42 18.84 19.64 20.26 22.49 22.79 22.82 27.40 24.74 24.67

GFSSW_sfc_wetblb_006.txt.gz
Wetbulb
59.38 59.48 59.66 59.74 59.78 59.80 59.81 59.51 59.34 59.27 59.48 59.69 59.97 60.13 60.28 60.23 59.33 57.18 50.71 56.45 57.93 63.66 60.03 56.91 56.63 55.57 55.88 54.21 53.49 52.38 47.60 44.68 44.90 44.59 46.28 49.81 48.48 49.09 50.51 50.23 50.20 51.72 52.52 54.98 53.09
59.16 59.27 59.44 59.64 59.74 59.80 59.76 59.63 59.47 59.44 59.37 59.25 59.38 59.60 59.91 59.61 56.09 52.92 60.25 61.73 64.64 62.14 55.98 54.70 53.25 54.22 53.03 52.35 53.27 51.11 47.00 46.06 48.26 48.39 47.53 49.26 49.00 50.01 49.25 50.36 51.03 51.11 53.55 53.67 52.41
59.15 59.24 59.47 59.62 59.78 59.95 59.86 59.66 59.53 59.51 59.42 59.22 59.18 59.24 59.28 59.01 51.57 50.04 62.14 64.00 65.20 60.63 56.53 55.05 55.02 53.39 50.62 51.87 51.65 50.21 47.04 49.61 48.51 48.85 48.47 48.25 48.94 50.06 49.42 48.30 51.06 50.74 52.29 53.97 52.68
59.51 59.52 59.67 59.80 59.84 60.07 59.97 59.68 59.69 59.59 59.41 59.29 59.12 59.00 58.88 56.69 44.30 50.98 62.78 65.45 63.88 57.62 55.46 54.12 53.29 51.01 49.86 48.83 50.95 47.01 49.93 49.99 50.37 49.31 48.71 48.24 50.21 48.67 49.71 50.31 52.51 53.11 53.65 53.02 52.44
59.82 59.69 59.79 59.80 59.79 60.04 59.98 59.83 60.01 59.86 59.45 59.33 59.04 58.69 55.86 48.55 49.87 60.07 63.72 64.67 57.42 55.48 54.21 53.06 51.44 50.83 48.04 48.84 48.27 47.24 49.15 49.96 50.35 49.18 49.14 50.13 48.68 48.96 49.37 51.94 52.95 52.90 52.21 51.40 51.95
59.95 59.68 59.62 59.60 59.67 59.82 59.82 59.84 59.89 59.78 59.27 59.20 58.94 58.00 51.36 43.71 53.58 62.39 62.17 56.00 55.90 55.06 53.45 53.18 51.74 52.14 49.02 48.07 47.59 48.35 47.87 48.27 48.37 48.23 48.73 46.88 47.99 47.93 48.91 51.51 50.69 50.89 51.10 51.83 51.81
59.85 59.61 59.25 59.13 59.48 59.50 59.63 59.68 59.57 59.04 58.55 58.84 58.55 56.22 48.54 48.36 55.03 60.00 56.79 55.34 54.78 54.32 51.66 51.96 52.19 50.92 49.82 46.93 47.90 46.59 44.54 46.76 47.13 46.75 45.88 47.23 44.46 45.03 49.79 49.99 48.82 49.57 50.64 51.10 51.25
59.37 58.97 58.72 58.71 58.97 59.24 59.47 59.54 58.80 57.30 56.71 57.75 57.81 54.86 47.56 51.30 56.56 55.17 53.40 51.58 53.32 52.28 51.46 51.27 51.81 50.36 48.37 47.98 45.95 43.67 43.16 40.82 46.34 44.30 45.19 46.17 41.39 47.08 49.45 47.44 47.40 48.69 49.55 50.18 51.13
58.81 58.49 58.55 58.63 58.59 58.67 58.98 58.16 56.87 56.83 57.32 57.44 53.95 50.02 46.66 53.30 49.92 51.24 52.17 50.34 50.56 50.28 50.56 49.95 50.92 47.98 46.57 43.87 42.22 42.45 39.30 40.76 42.10 45.10 43.87 44.14 42.09 46.41 48.42 47.21 46.64 47.80 48.74 49.49 50.26
58.78 58.38 58.61 58.69 58.54 58.56 57.84 55.13 57.21 56.88 56.41 56.09 52.60 46.31 47.91 46.26 49.73 49.57 50.24 50.65 48.61 49.45 48.45 48.18 47.51 45.19 43.44 42.61 37.78 40.75 40.33 40.51 39.62 44.39 43.87 41.90 41.64 44.62 46.46 45.89 45.76 46.89 48.09 48.96 49.44
59.21 59.07 59.17 58.89 58.76 58.68 54.50 53.09 53.26 50.28 49.71 47.86 48.24 46.33 45.85 49.09 50.56 48.51 49.56 48.54 48.53 47.30 44.18 44.57 42.86 41.38 44.49 44.61 44.47 41.60 39.96 39.40 42.06 44.49 41.87 41.22 41.93 43.64 45.75 46.15 45.93 46.64 47.80 48.43 49.25
59.78 59.57 59.76 59.24 58.66 55.87 52.98 49.83 47.59 47.28 45.40 48.12 46.65 46.94 47.60 49.54 46.05 46.83 49.50 46.58 45.30 42.79 42.30 41.73 40.22 45.33 43.65 42.33 40.97 40.95 38.81 39.16 42.64 43.53 39.88 41.28 40.61 43.45 45.05 45.46 46.67 46.69 47.16 47.81 47.61
59.00 59.04 59.26 59.03 57.74 55.48 50.46 48.73 51.88 50.17 43.82 46.89 45.69 44.92 45.77 48.05 45.10 44.97 47.32 45.86 44.02 40.61 40.69 41.77 44.30 44.30 41.43 41.66 39.47 40.33 38.43 39.77 39.51 41.04 41.96 39.49 40.91 41.67 45.55 44.66 45.73 46.08 46.65 46.62 46.39
58.59 58.71 58.70 58.41 55.66 53.47 52.10 50.47 51.76 49.32 43.87 44.81 43.26 44.06 45.81 45.90 41.90 44.43 46.23 45.29 43.12 41.17 40.61 40.82 41.77 40.23 39.52 39.07 41.23 37.41 42.61 40.17 38.22 36.94 36.11 39.49 34.35 42.10 44.12 44.11 44.62 45.63 46.30 46.05 45.63
57.27 57.98 58.89 57.64 57.19 54.72 52.26 51.15 50.95 46.68 34.36 44.85 41.58 48.29 45.85 42.57 42.41 42.10 45.09 45.57 41.34 40.66 40.61 40.92 38.58 37.64 37.58 39.95 40.78 39.77 39.49 37.54 36.47 36.41 35.16 37.08 33.82 41.06 40.86 40.37 43.20 44.23 43.65 44.75 43.35
53.67 56.46 56.37 56.02 55.10 52.89 51.47 50.68 48.20 42.44 33.43 42.85 41.81 41.30 41.67 41.90 40.71 42.15 42.90 44.87 42.92 40.60 40.04 41.25 40.64 40.61 41.76 40.09 40.00 39.08 38.37 36.99 36.35 36.14 31.83 37.33 35.46 38.57 40.15 41.05 42.44 41.73 40.70 40.24 40.59
51.53 52.93 56.19 56.75 54.58 52.07 51.38 52.45 41.66 34.56 44.92 42.28 40.07 39.85 38.93 38.23 39.19 40.06 40.29 39.85 40.15 37.89 39.58 40.48 38.70 40.40 40.20 38.76 38.61 38.65 36.91 33.59 31.72 31.74 31.44 36.05 33.10 38.00 42.37 40.24 40.05 38.82 38.20 38.47 39.45
50.22 52.19 55.57 55.28 52.72 52.04 53.32 48.18 33.79 40.16 41.97 43.43 42.49 42.17 42.17 42.33 40.70 38.54 39.18 40.86 39.98 38.30 38.32 36.81 35.81 38.83 40.19 41.05 41.63 37.68 38.16 33.73 26.48 29.08 33.02 30.75 31.53 39.13 41.95 39.09 38.09 37.71 37.19 37.11 37.43
49.60 53.10 54.74 55.94 52.49 53.96 50.39 38.34 36.88 40.08 43.88 42.87 43.02 40.57 41.20 41.20 41.16 39.30 37.96 39.74 40.33 40.28 38.16 38.18 37.87 38.23 37.69 39.38 40.45 36.15 33.53 39.09 32.88 33.00 29.45 34.72 38.81 43.10 42.62 36.36 36.16 34.76 35.13 34.33 35.14
47.81 50.89 50.91 54.87 53.63 52.36 45.10 37.83 39.77 43.75 44.88 44.58 39.23 41.83 37.95 40.30 38.74 39.30 38.91 40.89 39.73 40.47 41.07 39.73 34.47 40.99 39.74 38.32 38.87 37.58 39.70 32.70 32.75 24.86 24.34 30.82 33.37 35.50 38.20 34.85 33.37 32.21 32.13 33.07 34.36
47.51 43.29 49.57 53.26 54.00 46.92 37.04 38.39 40.99 45.57 46.28 42.91 41.37 40.17 40.37 39.18 40.06 38.94 38.87 42.32 42.46 42.81 40.34 41.27 37.91 37.58 37.78 37.60 36.93 36.60 33.76 33.62 33.38 31.54 25.93 24.94 30.71 37.70 34.95 32.21 30.95 30.37 31.03 32.04 33.09
46.46 37.11 51.29 53.55 42.55 43.81 38.55 40.43 42.37 42.37 45.09 43.48 43.68 42.38 40.40 40.60 38.19 37.78 37.41 40.47 44.80 42.32 38.57 41.15 35.76 32.01 35.36 41.41 39.81 38.70 36.77 36.67 30.67 28.54 31.95 30.13 29.78 33.80 32.71 31.07 29.93 28.42 29.44 30.93 32.41
42.43 41.83 50.20 51.01 35.87 37.86 41.38 40.59 42.37 41.26 41.53 41.20 40.12 42.01 42.00 38.64 34.97 38.02 39.04 43.12 43.24 41.79 39.96 40.46 35.34 30.13 31.43 34.99 36.14 34.85 36.70 37.01 36.83 34.25 30.14 27.34 28.97 32.78 31.90 31.03 30.23 30.87 30.18 30.28 31.03
40.44 34.41 41.27 45.89 44.77 39.56 37.54 37.29 38.15 42.43 41.45 42.32 40.78 42.15 39.81 37.54 39.77 36.28 36.75 40.50 40.48 40.15 40.70 40.17 35.39 32.39 27.39 31.56 35.40 32.13 34.04 35.78 34.13 28.60 29.17 30.09 32.15 37.07 33.49 32.08 31.02 30.47 30.74 31.16 30.28
37.49 33.34 37.21 35.47 37.07 37.95 37.94 37.04 34.35 34.26 38.94 40.29 37.00 38.28 35.63 32.45 33.19 33.29 36.24 36.95 38.41 38.05 37.95 37.33 31.52 33.16 33.96 34.36 34.55 33.37 32.85 32.79 30.89 30.92 26.10 29.64 29.84 33.56 36.19 31.67 29.47 29.08 29.32 30.05 28.60
33.54 33.59 35.42 34.02 34.21 35.05 36.09 33.97 33.18 34.53 35.43 33.69 33.43 35.47 35.08 31.52 32.65 30.83 33.57 33.85 32.30 35.84 34.81 35.56 29.23 30.60 26.83 31.76 31.37 28.83 30.93 31.23 30.06 29.14 28.42 28.64 28.09 35.54 28.10 28.31 27.76 27.82 27.86 29.19 28.30
36.33 37.06 34.72 30.23 30.41 30.83 31.22 32.36 31.10 33.06 31.83 31.17 31.35 31.30 30.47 32.53 32.63 33.43 33.73 33.15 33.43 30.81 30.57 30.84 29.20 27.01 22.71 28.70 26.41 21.94 25.59 27.71 29.16 31.35 30.29 25.27 28.33 26.46 24.64 26.34 27.68 27.88 28.01 28.97 28.36

GFSSW_sfc_wetblb_009.txt.gz
Wetbulb
59.46 59.58 59.77 59.94 59.93 59.99 59.99 59.82 59.72 59.73 59.70 59.73 59.86 59.87 60.01 60.16 59.87 59.88 53.50 58.42 59.55 63.27 61.43 58.03 57.53 56.89 57.18 55.59 55.83 55.35 48.13 45.83 47.02 46.42 47.24 51.18 49.39 51.85 53.37 51.26 52.32 53.48 53.14 55.04 56.30
59.17 59.37 59.65 59.80 59.89 60.01 59.95 59.85 59.78 59.83 59.80 59.64 59.68 59.72 59.69 59.52 57.78 55.10 60.65 61.89 65.07 62.61 57.56 56.01 54.69 55.47 54.33 54.02 54.55 51.60 48.24 47.53 50.19 49.75 48.52 49.88 49.87 50.48 50.35 50.33 50.69 52.24 54.89 55.99 56.00
59.18 59.44 59.69 59.86 59.95 60.16 60.12 59.95 59.88 59.91 59.76 59.73 59.62 59.60 59.38 59.31 54.73 51.98 61.53 63.92 65.34 61.92 58.15 57.39 55.88 54.70 51.99 53.44 53.14 51.84 47.50 49.91 50.45 51.31 51.12 49.51 49.16 51.19 49.52 48.35 50.43 50.19 51.98 53.68 54.54
59.54 59.60 59.80 59.91 59.98 60.16 60.26 60.14 60.17 60.10 59.91 59.68 59.63 59.40 59.30 58.59 45.82 54.80 63.25 65.58 64.41 59.66 56.87 55.09 54.16 51.66 50.26 49.59 52.38 48.71 50.44 50.84 51.44 51.59 50.27 48.96 50.82 49.41 50.05 50.47 53.05 53.38 53.74 53.62 53.34
60.01 59.83 59.82 59.81 59.83 60.11 60.27 60.23 60.56 60.34 59.91 59.66 59.51 59.22 58.31 50.92 50.97 60.87 63.56 64.50 58.62 57.03 54.88 53.80 52.24 51.51 48.56 49.39 50.59 48.88 49.69 50.43 51.30 51.20 50.96 51.01 49.11 49.26 49.53 52.26 53.27 53.26 52.82 52.68 53.13
60.16 59.83 59.71 59.59 59.64 59.96 60.14 60.18 60.26 59.85 59.39 59.13 59.25 58.48 54.87 46.81 55.82 62.41 62.27 60.09 56.96 55.86 54.76 54.70 52.41 53.04 50.27 49.14 48.51 50.10 49.23 49.29 49.85 49.59 49.83 48.11 48.57 49.35 49.93 52.08 51.64 51.51 51.50 52.08 52.51
59.95 59.66 59.34 59.29 59.69 59.84 59.92 59.91 59.63 58.73 58.03 57.42 59.02 57.67 51.14 51.67 57.31 61.39 60.14 57.59 57.21 56.31 54.08 55.48 54.52 51.78 51.31 48.56 50.83 48.69 45.26 47.69 48.42 49.07 47.96 48.44 45.32 46.34 50.78 51.07 49.87 49.97 50.75 51.39 51.86
59.53 59.15 58.92 58.94 59.26 59.51 59.65 59.66 58.56 57.23 57.23 57.62 58.45 56.40 49.42 52.77 58.02 57.03 56.72 54.77 56.26 55.29 54.63 54.32 54.44 52.33 50.09 50.31 48.15 45.29 46.05 42.40 47.93 47.22 47.62 46.67 42.24 48.08 50.05 49.25 48.58 49.67 50.27 50.79 51.51
59.23 58.91 58.96 58.97 58.90 58.92 59.17 58.06 56.38 56.98 57.39 57.64 56.50 54.25 48.65 53.40 51.05 53.36 54.61 51.94 53.59 53.09 52.43 52.03 53.01 50.18 49.28 45.13 43.86 45.89 40.95 42.85 44.37 48.43 46.27 45.25 42.79 47.39 49.46 48.60 47.82 48.98 49.71 50.08 50.93
59.34 58.98 59.19 59.20 58.95 58.86 58.31 55.36 57.34 56.93 57.20 56.99 54.29 48.28 48.33 47.90 51.04 51.58 52.71 53.17 50.77 51.06 49.43 49.45 49.07 46.07 46.18 44.35 38.82 42.68 42.94 43.88 42.94 47.26 45.71 45.10 44.24 46.85 48.67 48.73 48.63 49.33 50.02 50.40 50.38
59.61 59.57 59.79 59.55 59.29 59.19 57.28 56.89 56.00 53.52 52.60 50.87 52.36 48.83 53.08 51.07 52.39 50.42 51.28 50.40 50.92 49.19 44.89 47.32 43.67 41.75 45.80 47.16 46.02 44.80 42.97 41.85 44.52 47.35 45.33 43.75 43.60 45.42 48.19 48.48 48.83 49.64 49.41 49.21 48.50
59.86 59.86 60.17 59.82 59.20 58.08 56.96 54.47 50.23 49.58 48.37 55.33 53.65 51.72 51.13 51.59 47.65 48.81 51.11 47.48 46.77 43.83 45.94 43.16 40.73 46.14 47.65 44.88 43.66 43.40 41.66 41.51 44.91 46.51 43.02 43.24 42.89 45.78 47.50 47.82 48.41 47.68 48.11 47.72 47.90
59.58 59.51 59.61 59.50 58.96 58.35 55.15 52.11 53.45 51.98 47.15 51.38 50.42 48.82 48.96 49.67 48.51 48.68 49.31 48.28 45.66 44.23 43.64 42.76 46.41 47.42 45.20 44.06 42.07 42.44 40.74 41.29 41.38 43.69 44.55 42.72 41.32 45.68 47.79 48.80 47.40 47.29 47.62 46.78 44.86
59.18 59.16 59.13 59.06 56.20 58.76 56.22 53.12 54.10 52.23 44.69 46.80 46.33 46.26 46.96 48.03 44.86 46.94 48.98 47.74 45.74 43.80 45.78 44.09 46.01 42.80 42.15 41.10 42.83 39.16 44.96 42.85 41.08 38.96 37.19 42.06 34.34 42.47 46.18 46.22 45.15 45.43 45.31 43.93 43.83
57.89 58.28 58.90 58.37 59.34 57.09 53.58 53.69 53.76 50.71 34.25 46.54 43.52 50.18 47.82 44.30 44.32 43.91 47.75 46.88 43.37 43.77 43.02 42.62 41.19 40.35 40.32 41.79 44.01 41.70 41.82 40.64 39.84 38.52 38.29 39.36 36.03 41.20 44.60 43.15 42.98 43.49 42.85 42.97 43.02
54.94 57.33 57.78 57.80 59.57 56.05 54.51 52.91 52.22 42.82 34.16 44.55 44.16 43.38 43.13 43.77 42.99 44.73 45.08 47.11 45.63 42.86 43.59 43.08 43.25 42.77 43.55 43.53 42.95 41.59 40.48 40.98 40.71 38.85 33.03 39.43 38.86 38.81 41.65 42.52 41.18 41.26 41.25 41.60 42.08
51.84 54.55 56.00 57.58 55.02 55.81 55.04 54.78 42.90 35.89 46.54 43.66 42.05 42.07 42.02 40.71 41.00 41.95 42.31 41.21 41.93 39.37 40.39 43.39 42.78 43.57 42.60 40.58 41.54 40.04 38.48 33.85 33.52 33.53 31.89 40.79 36.08 39.58 43.67 42.29 43.20 40.84 39.72 40.62 41.42
50.30 52.84 56.01 55.75 52.92 52.22 54.80 46.82 34.78 40.39 42.31 46.29 44.70 44.87 42.77 44.39 42.33 41.48 42.21 42.07 45.63 41.68 40.21 38.18 36.62 42.41 42.53 41.81 41.09 41.40 40.40 34.87 28.10 30.37 34.47 35.30 33.72 39.48 41.54 41.13 40.49 39.90 39.30 39.34 39.16
50.28 53.22 54.87 58.00 55.72 55.46 50.70 37.97 37.87 41.63 44.28 43.51 43.72 40.12 41.24 43.46 42.66 43.43 43.42 42.05 43.55 44.07 38.43 38.07 38.15 42.63 41.59 42.67 41.85 39.39 35.32 39.47 32.03 33.45 30.67 35.02 39.77 43.99 39.98 38.39 38.29 37.43 37.41 36.82 37.42
50.56 50.72 50.43 55.67 54.86 54.49 44.89 38.21 41.28 44.96 44.60 44.59 38.55 42.11 38.79 41.52 40.73 40.96 40.80 43.74 42.16 42.80 43.28 41.20 34.70 42.70 40.85 40.71 41.62 40.32 43.15 33.95 32.95 25.23 24.50 32.10 34.17 35.90 40.90 38.98 36.76 35.70 35.75 36.16 36.99
48.39 42.12 49.29 53.66 54.89 48.24 37.05 39.21 42.38 45.73 46.63 43.30 40.76 40.22 41.10 39.74 40.51 39.77 39.88 43.41 44.82 43.73 42.62 41.59 38.26 37.49 41.57 38.87 37.38 37.06 34.92 35.90 35.92 32.97 26.45 25.27 31.09 40.86 39.03 38.89 36.82 34.89 34.20 34.74 35.25
46.68 38.31 52.56 54.38 43.61 43.55 40.03 41.24 42.63 42.69 45.88 43.63 43.51 42.19 40.08 39.94 38.18 38.80 38.14 41.21 45.94 44.43 39.31 42.20 36.63 32.43 35.35 41.82 43.26 40.42 37.52 37.40 30.32 28.32 32.18 30.00 30.10 43.57 37.88 37.47 35.13 33.47 33.02 33.53 34.08
42.15 43.23 51.32 51.61 36.82 38.59 41.92 40.73 42.45 41.14 41.97 41.90 41.43 42.94 43.16 39.93 35.58 38.76 40.08 43.98 44.23 42.38 40.09 40.88 34.70 29.27 30.82 35.90 38.08 36.20 37.86 38.07 37.59 34.99 29.84 26.93 29.55 39.92 35.91 34.06 34.42 34.52 33.52 33.35 32.87
42.29 35.58 43.61 45.48 45.12 40.37 38.27 38.44 38.46 43.62 41.44 42.34 41.21 42.54 40.32 38.23 40.16 36.56 37.19 41.25 42.46 41.99 40.71 41.41 35.37 31.85 27.24 30.56 35.55 32.63 34.54 36.31 34.31 29.69 30.07 30.64 32.68 37.58 37.71 35.93 37.56 35.88 34.82 34.34 33.54
40.67 36.53 40.39 35.63 38.71 39.70 39.63 38.30 36.16 35.95 40.84 41.07 38.79 38.73 37.22 33.52 34.83 34.63 37.74 38.56 39.97 39.26 39.42 38.78 30.94 32.75 33.14 34.31 34.39 32.86 31.64 32.03 30.80 32.10 27.15 30.28 30.81 34.80 36.86 37.14 37.25 37.92 33.33 32.18 32.03
35.80 35.33 37.99 38.34 39.68 38.62 37.98 35.79 35.16 36.52 36.74 35.16 35.24 36.86 37.55 33.82 34.58 31.59 34.26 34.59 33.61 36.34 35.54 36.66 28.48 30.42 26.48 30.59 30.52 28.00 30.44 31.09 31.52 31.85 31.69 31.63 30.43 37.16 36.78 32.35 31.52 31.87 30.41 29.99 31.71
39.26 39.28 37.37 34.73 35.07 35.13 36.13 35.98 34.76 37.24 35.75 35.28 35.58 34.26 33.13 34.63 35.35 34.91 35.51 35.88 35.43 32.62 31.17 30.86 28.98 25.23 20.46 27.01 26.72 21.69 26.55 28.68 30.27 32.25 31.09 26.14 29.18 28.76 29.43 29.15 29.96 30.48 30.58 29.37 30.97

GFSSW_sfc_wetblb_012.txt.gz
Wetbulb
59.56 59.67 59.91 60.07 60.14 60.21 60.16 60.12 60.17 60.16 60.09 60.11 60.14 60.16 60.14 60.15 59.95 59.20 54.90 59.52 59.71 64.03 62.60 57.35 56.27 55.97 56.86 55.12 54.46 52.63 43.36 41.24 43.43 43.16 44.14 48.10 45.35 47.64 48.80 46.85 47.84 49.32 48.25 50.39 53.31
59.27 59.59 59.95 60.12 60.18 60.41 60.48 60.36 60.29 60.38 60.28 60.21 60.22 60.22 60.12 59.69 57.47 55.11 61.44 64.76 64.50 63.86 57.07 54.78 53.49 54.37 51.69 53.09 52.22 47.52 43.52 44.57 47.26 45.94 44.89 47.19 46.06 45.87 45.75 45.83 46.34 47.04 49.72 50.94 50.73
59.42 59.68 59.97 60.16 60.31 60.46 60.67 60.59 60.56 60.56 60.47 60.31 60.15 60.28 60.06 58.76 54.92 54.13 62.86 64.36 64.18 62.42 58.28 56.67 55.14 53.93 50.16 51.17 50.23 48.65 43.72 47.28 47.36 49.04 48.71 47.40 46.31 47.21 45.29 44.03 46.96 46.65 48.62 49.96 49.52
59.74 59.81 59.93 60.07 60.16 60.30 60.61 60.71 60.89 60.97 60.50 60.20 60.00 60.11 59.61 58.05 45.43 57.04 62.41 64.79 64.49 59.14 56.41 54.68 52.85 49.97 48.02 46.91 50.74 45.11 48.46 48.24 49.08 49.39 47.80 45.88 47.95 45.96 46.21 46.66 49.85 49.50 49.73 48.90 48.46
60.21 60.04 59.93 59.85 59.87 60.22 60.48 60.75 60.89 60.80 60.19 59.96 59.73 59.84 57.82 51.71 51.53 60.33 63.59 64.28 59.40 56.93 53.89 52.68 50.49 49.70 46.16 47.29 47.77 46.08 47.86 49.29 49.11 48.28 47.35 48.58 46.31 45.72 46.42 48.74 50.01 49.72 49.53 48.48 48.07
60.22 59.90 59.74 59.63 59.79 60.12 60.30 60.46 60.45 60.21 59.36 58.98 59.03 58.82 55.26 46.45 56.54 60.87 60.45 59.42 56.25 54.82 53.07 52.98 51.10 50.81 48.00 46.85 45.42 47.30 47.06 46.81 47.21 47.07 47.15 45.95 45.20 44.98 46.75 48.41 47.77 48.18 47.37 47.34 47.76
60.08 59.70 59.41 59.37 59.83 60.04 60.18 60.16 59.97 58.63 58.03 58.08 58.36 57.44 52.18 50.34 58.20 61.11 59.79 56.88 56.01 54.90 52.41 53.87 53.22 50.33 49.18 46.20 47.63 46.64 42.16 44.60 46.02 46.42 45.08 45.54 41.32 42.42 47.06 46.69 46.20 45.96 46.08 46.99 47.84
59.70 59.32 59.12 59.21 59.52 59.81 59.97 59.96 58.77 57.26 57.84 57.92 58.89 56.11 48.58 53.70 57.40 57.28 56.75 54.85 55.98 55.22 53.48 52.80 53.30 50.61 48.20 48.62 46.26 42.34 41.59 37.37 44.74 44.94 43.70 43.48 37.51 44.64 47.17 45.59 46.06 46.04 45.19 46.24 47.34
59.40 59.14 59.22 59.31 59.33 59.31 59.49 59.35 56.59 57.21 57.67 58.13 56.45 54.26 47.92 54.50 51.38 53.44 53.99 52.37 52.95 52.64 51.76 52.14 51.92 47.52 46.65 41.38 38.68 40.67 35.48 38.72 41.88 45.40 43.20 41.32 38.19 44.73 46.48 45.67 45.29 44.89 45.51 45.51 45.33
59.53 59.35 59.55 59.61 59.41 59.24 59.32 58.88 57.09 56.80 56.81 57.27 55.32 48.43 48.40 48.08 50.83 52.04 52.13 53.00 50.66 49.84 48.71 48.15 46.14 42.17 41.28 39.10 33.02 37.18 37.63 39.65 38.39 43.15 42.54 39.47 39.23 44.16 45.83 45.35 44.15 45.08 44.25 44.44 43.61
59.72 59.77 59.97 60.01 59.73 59.78 58.31 55.76 53.83 51.91 51.86 50.68 52.18 48.06 52.21 50.73 52.37 50.43 51.66 49.88 49.97 47.42 41.94 44.67 39.39 37.03 40.55 42.51 42.89 41.01 39.50 38.09 40.50 44.17 40.63 40.49 39.95 42.30 45.06 45.91 43.48 41.54 43.32 43.21 42.80
60.04 60.00 60.44 60.16 59.83 59.45 57.22 54.07 50.01 49.60 46.58 54.32 54.48 54.65 53.29 51.83 47.89 48.49 50.60 45.80 45.11 41.03 43.65 40.32 36.96 43.42 45.16 44.41 41.55 39.76 37.68 37.20 41.17 43.56 39.35 39.74 39.23 42.90 44.88 45.09 43.22 43.05 41.93 41.45 41.58
60.07 59.70 59.78 59.81 59.26 58.27 55.90 51.77 54.02 52.65 45.03 50.44 51.59 50.92 49.82 49.93 48.33 47.16 48.16 46.40 43.34 41.50 41.75 39.54 43.32 46.14 43.83 41.85 40.75 39.53 37.18 37.54 37.75 40.89 39.17 37.85 36.46 39.69 44.35 44.14 44.01 43.24 42.22 41.55 40.26
60.06 60.30 59.41 59.40 56.49 58.74 54.28 53.56 54.41 52.65 41.75 45.22 45.95 45.87 47.50 48.12 44.38 47.55 48.91 46.14 44.63 41.61 42.64 41.30 44.75 42.58 40.25 39.87 40.36 36.58 41.25 40.30 38.63 34.74 30.55 37.63 29.05 37.58 42.01 39.65 41.19 40.37 38.94 38.77 38.87
58.81 59.29 59.02 58.44 57.92 56.11 53.53 54.35 53.99 50.02 31.89 46.18 43.28 50.62 47.91 44.44 43.85 43.82 46.93 45.14 40.91 42.34 39.99 40.34 38.90 37.66 38.22 39.90 41.36 38.52 39.25 37.16 36.49 33.93 32.75 33.72 29.63 35.05 39.35 36.84 38.13 38.23 38.84 38.52 38.41
56.75 57.65 58.05 57.31 58.36 55.82 55.11 53.26 51.66 40.79 32.41 42.36 44.15 43.53 42.65 43.12 42.91 44.41 44.37 44.67 43.58 40.78 41.44 40.92 39.93 40.02 40.56 41.34 40.99 40.11 37.52 36.96 35.34 33.75 26.36 33.95 33.81 32.69 35.45 37.50 35.97 37.36 37.88 38.60 38.41
52.86 56.15 56.43 57.13 53.75 55.38 54.67 52.74 41.66 34.86 46.23 41.82 40.94 42.21 41.46 40.13 40.65 41.30 40.66 37.94 37.39 34.33 34.49 38.78 39.24 40.04 40.70 36.75 37.97 37.14 34.63 27.44 25.53 24.62 25.28 34.67 31.36 34.82 37.41 39.13 38.43 36.63 36.00 36.77 37.17
50.86 55.32 55.68 55.74 52.53 52.48 51.57 44.28 34.39 40.91 42.02 45.27 44.35 43.92 42.69 43.28 41.22 40.93 40.22 39.23 42.83 38.58 35.17 34.85 32.84 39.62 39.96 38.56 37.00 37.58 36.87 30.00 23.51 21.82 25.64 32.17 27.34 35.25 37.44 37.78 37.78 37.09 35.89 36.01 35.18
50.91 51.99 54.71 57.52 55.45 54.64 50.47 37.90 38.29 40.89 44.40 43.30 43.38 39.38 39.51 42.25 42.38 41.08 40.38 40.11 42.32 41.93 36.63 35.28 35.09 38.31 40.39 40.28 40.05 35.77 32.50 37.58 29.06 25.47 24.31 29.71 34.95 38.45 36.54 35.01 34.71 34.29 34.37 33.15 33.84
51.12 49.63 49.42 56.17 55.08 53.58 44.84 38.97 41.18 45.10 44.48 43.69 37.89 40.34 35.80 39.11 38.50 38.99 38.69 41.05 40.82 41.55 41.44 38.96 32.95 40.01 37.93 38.66 38.17 36.55 39.78 30.31 30.78 23.56 19.74 26.68 28.89 31.60 33.80 33.33 33.60 32.67 32.27 32.88 33.58
47.24 43.80 50.20 53.67 54.12 47.26 36.79 38.73 42.17 45.72 45.36 41.73 39.36 38.62 39.22 38.94 40.09 38.97 38.62 40.12 42.45 40.04 40.81 39.33 36.96 34.98 38.42 36.30 35.46 34.41 32.09 35.08 34.29 29.75 21.61 21.46 25.51 34.83 35.03 35.41 33.06 33.10 33.21 32.36 31.89
45.59 37.99 51.42 54.26 41.23 42.22 38.26 40.75 43.40 42.75 44.59 43.37 42.71 40.88 39.28 39.82 38.36 37.43 37.20 39.81 43.58 42.07 37.31 39.43 35.83 29.07 32.62 38.87 40.19 36.94 35.34 34.69 28.57 26.94 29.21 28.39 27.98 40.40 36.17 34.36 34.67 31.95 32.32 31.14 31.81
41.94 42.64 51.94 51.69 36.75 38.04 40.94 40.82 42.63 40.80 41.04 40.99 39.77 41.01 40.78 38.16 35.10 37.44 38.28 41.99 43.12 41.11 38.50 38.98 31.77 25.62 25.26 31.25 34.61 33.58 34.28 34.58 33.95 30.33 26.86 24.51 25.38 38.10 32.78 31.85 33.12 32.59 31.39 31.76 32.67
41.51 35.87 43.23 45.08 43.87 39.47 37.97 37.84 37.60 42.34 40.90 41.52 40.47 41.69 39.55 37.10 38.93 35.83 36.03 39.96 40.97 41.18 41.12 41.15 33.83 28.11 22.65 26.22 31.69 28.64 31.14 32.90 31.91 27.51 26.17 26.48 29.01 33.60 35.93 36.48 37.59 34.48 33.28 32.23 31.51
40.57 35.42 40.27 34.72 37.57 38.87 39.35 38.07 35.85 36.01 40.87 41.06 38.55 38.66 37.37 34.08 34.45 33.93 35.99 36.52 39.86 39.39 38.36 36.87 25.86 29.16 30.94 32.17 31.56 29.89 28.82 29.78 27.99 28.94 25.16 27.03 26.91 30.93 33.01 31.35 28.87 31.61 32.27 30.40 30.88
35.97 34.32 37.24 36.26 38.38 38.53 37.96 35.55 34.99 36.30 37.40 36.01 35.09 36.37 36.79 33.30 34.35 29.97 32.56 32.70 31.82 34.08 33.57 34.52 21.60 26.04 20.34 27.46 27.40 25.01 26.91 27.28 27.20 27.23 26.82 27.54 27.03 32.69 28.69 28.74 28.83 29.85 29.71 27.66 27.75
38.36 38.58 36.37 35.49 34.08 34.67 35.19 35.62 35.61 36.84 37.43 36.01 35.59 34.24 33.08 33.01 33.53 33.57 33.77 33.48 33.33 30.43 28.40 26.61 21.79 13.77 16.47 23.38 22.50 13.53 22.64 24.85 26.24 28.62 27.99 22.92 24.82 23.33 24.58 26.72 26.00 25.92 27.75 27.49 26.71

GFSSW_sfc_wetblb_015.txt.gz
Wetbulb
59.57 59.83 60.14 60.24 60.32 60.53 60.62 60.50 60.48 60.59 60.48 60.55 60.57 60.54 60.48 60.39 59.73 58.19 53.87 58.01 58.00 64.47 61.44 54.82 52.92 51.90 52.09 50.32 49.84 47.12 38.70 36.05 38.56 39.77 40.17 44.53 43.01 45.00 45.78 43.92 44.53 47.60 45.55 46.84 50.03
59.29 59.66 60.07 60.30 60.35 60.48 60.67 60.61 60.57 60.66 60.76 60.69 60.53 60.44 60.45 60.03 56.17 52.52 61.48 65.04 64.87 64.65 54.38 51.48 49.36 50.58 46.98 48.49 47.98 43.21 38.01 40.36 42.56 40.90 41.29 44.58 42.87 42.28 42.67 43.25 43.35 43.51 45.75 46.96 50.03
59.54 59.70 59.97 60.18 60.34 60.45 60.74 60.90 60.95 60.84 60.88 60.70 60.52 60.34 60.29 58.84 51.65 51.44 62.46 65.25 64.50 63.06 55.81 53.48 51.75 50.38 45.37 46.43 45.89 44.44 39.76 43.75 45.42 46.12 45.39 44.52 44.65 44.37 41.79 40.57 44.75 44.26 45.43 47.90 45.82
59.97 59.96 59.96 60.07 60.13 60.36 60.73 61.07 61.01 61.11 60.83 60.49 60.34 60.38 59.81 55.22 39.66 54.57 62.29 63.61 63.62 57.11 54.06 51.61 49.03 45.18 43.39 42.80 47.36 41.29 45.92 45.49 46.81 47.13 45.38 43.57 45.21 44.72 43.76 45.45 47.35 46.70 47.15 45.43 46.62
59.82 59.72 59.75 59.87 59.92 60.26 60.66 60.99 61.13 61.03 60.58 60.09 59.74 59.87 55.06 47.95 48.48 59.01 63.07 63.55 57.65 54.57 50.90 49.75 46.67 45.57 41.90 43.19 44.32 41.99 44.11 46.99 47.10 46.17 44.93 45.59 44.06 43.70 44.80 47.53 47.55 47.49 46.94 45.30 45.82
59.81 59.51 59.37 59.45 59.85 60.23 60.58 60.79 60.88 60.78 59.66 58.91 58.74 58.75 51.04 43.06 56.12 59.72 59.00 56.86 54.17 52.15 49.97 49.72 48.02 48.01 44.31 43.32 41.85 43.37 43.45 43.81 44.94 45.26 44.27 43.77 42.30 42.76 45.22 45.19 44.95 44.97 44.28 44.17 44.31
59.83 59.44 59.17 59.24 59.75 60.25 60.56 60.66 60.53 59.45 58.08 58.55 58.25 56.75 49.74 47.46 57.12 58.90 58.19 54.37 53.77 52.46 50.07 50.81 50.19 47.65 46.07 43.24 45.73 43.83 40.34 41.93 43.18 43.29 43.11 43.78 39.96 40.75 45.18 44.58 44.13 41.98 44.12 43.23 43.22
59.45 59.01 58.87 59.08 59.55 59.98 60.26 60.35 60.10 57.48 58.41 58.28 58.26 53.09 44.37 51.25 53.26 56.30 54.20 51.81 53.10 51.94 50.72 50.10 50.29 47.97 45.25 45.69 44.08 40.05 37.57 34.69 42.36 42.73 42.32 40.97 36.34 43.03 45.14 43.24 44.57 42.43 41.81 41.02 42.11
58.96 58.63 58.93 59.26 59.40 59.42 59.71 59.77 58.03 57.27 57.81 58.62 53.43 49.29 44.65 53.14 49.65 50.50 50.36 50.32 50.07 49.72 48.65 51.22 48.80 44.40 43.34 38.56 35.40 35.73 32.16 34.80 38.95 43.20 41.65 38.94 36.22 42.79 44.50 43.75 41.96 41.40 40.32 40.82 40.84
59.02 58.92 59.19 59.62 59.41 59.39 59.62 59.21 56.68 56.23 56.70 56.99 54.60 43.79 45.89 45.59 48.29 49.57 48.46 50.84 47.96 46.73 45.73 45.19 42.79 38.40 37.21 35.51 30.07 33.36 32.59 36.10 35.05 40.68 39.70 37.50 37.58 40.63 43.42 44.12 41.26 38.76 38.41 39.59 39.34
59.40 59.65 59.95 60.07 59.89 60.11 57.83 52.46 50.21 48.65 49.17 47.73 47.29 44.64 47.02 48.39 49.88 47.82 49.00 47.54 47.27 43.63 38.18 40.82 36.13 33.39 36.69 38.43 37.86 35.86 35.12 34.23 37.43 42.09 37.99 39.25 37.79 40.71 42.73 42.58 40.56 38.54 38.98 39.04 38.88
59.91 60.09 60.48 60.09 59.90 59.57 55.77 49.18 47.35 48.36 45.39 50.80 51.76 51.78 49.76 49.15 45.58 46.20 48.32 43.22 42.26 37.99 39.79 36.92 33.82 39.82 40.99 40.60 39.40 37.52 35.14 34.26 37.98 40.94 37.96 37.92 37.69 40.04 42.46 42.28 40.37 38.57 37.98 38.21 38.31
60.04 59.58 59.93 59.64 59.15 56.90 51.87 48.92 51.00 48.16 42.16 47.30 48.69 48.05 47.04 48.55 45.23 44.07 45.98 43.49 39.96 38.10 38.10 35.46 39.83 42.80 41.06 38.98 38.10 36.43 34.96 34.46 35.55 38.03 37.45 34.88 33.66 38.16 41.11 39.45 40.00 39.37 39.31 38.80 37.52
60.04 59.44 59.45 58.98 55.15 55.05 50.81 51.18 51.58 47.89 37.44 42.39 44.08 43.85 45.54 45.69 41.72 45.26 46.19 43.61 40.99 38.52 38.04 37.22 41.93 40.81 38.33 38.19 38.53 34.16 38.85 37.87 36.92 32.65 29.42 35.68 26.86 34.63 38.12 36.41 36.97 36.69 35.83 36.09 36.65
59.19 59.11 58.97 58.27 54.47 53.42 51.61 51.59 50.61 46.33 28.49 42.34 41.52 48.15 44.99 42.36 42.07 41.68 44.59 42.33 38.35 39.24 38.07 37.73 37.16 36.07 36.28 37.98 39.47 36.55 37.57 35.49 34.48 31.45 30.15 30.46 27.67 32.10 35.64 33.36 34.28 34.60 35.41 35.36 35.80
58.07 58.20 58.19 57.13 55.62 54.24 52.50 50.39 48.47 37.85 30.19 39.00 41.15 40.92 39.60 40.19 40.32 41.79 41.28 41.55 41.08 37.69 37.53 37.40 38.36 38.12 38.42 38.99 38.84 38.60 35.59 34.52 34.24 31.86 24.58 30.80 30.21 29.95 31.77 34.80 33.69 34.77 35.37 35.95 35.57
56.76 57.05 56.69 57.11 53.71 53.51 52.77 50.73 40.27 34.08 43.54 38.15 37.33 39.32 38.62 37.35 37.80 39.05 37.18 34.85 34.84 31.66 30.64 36.24 36.72 37.67 39.15 35.45 37.25 36.28 33.32 27.09 24.24 22.51 24.18 32.12 28.94 32.71 34.40 36.17 35.80 34.29 33.74 34.33 34.44
54.62 56.60 55.75 55.56 52.58 53.08 51.35 43.76 33.97 40.46 39.57 42.27 41.31 40.43 39.62 38.03 37.77 37.65 36.03 34.20 37.41 36.00 32.50 32.28 30.88 36.73 38.69 37.57 35.92 34.33 35.41 29.48 23.54 21.32 23.75 30.58 26.91 32.90 33.52 34.66 34.98 34.81 33.87 34.94 34.90
54.41 53.95 54.82 56.21 53.08 53.83 48.72 36.40 36.96 40.85 43.54 41.50 40.90 37.36 37.09 40.32 41.12 36.67 35.33 36.29 40.68 39.96 36.04 34.32 34.01 37.85 38.66 38.80 40.15 34.51 32.12 35.82 28.78 21.42 22.90 28.53 31.61 34.12 34.31 32.85 33.29 32.90 33.13 32.27 32.49
50.61 48.97 50.13 55.99 54.34 52.63 43.89 39.32 39.58 44.06 43.04 41.47 35.95 38.42 33.77 36.80 37.26 35.81 36.37 38.01 38.10 39.50 39.18 36.51 30.93 38.00 36.52 38.01 37.58 36.69 39.13 30.05 29.62 18.14 16.26 24.40 26.53 28.64 31.57 31.08 31.51 30.55 30.19 31.01 32.02
47.52 44.10 49.61 53.75 54.27 47.63 37.55 39.84 42.07 45.04 44.43 40.55 36.78 36.02 35.43 35.96 37.91 36.10 37.88 38.45 39.48 37.17 39.11 37.77 35.63 33.21 36.05 34.10 33.72 33.62 31.25 33.99 33.45 28.61 19.99 17.17 23.85 32.59 33.80 32.97 31.04 30.68 31.07 30.23 29.78
45.90 40.45 50.85 53.23 40.49 41.59 38.26 40.69 42.95 41.95 43.91 42.55 40.91 39.42 37.44 37.37 37.02 36.61 36.37 38.45 41.65 39.96 36.14 37.46 34.53 25.62 31.96 36.24 37.13 35.90 33.83 33.34 28.71 24.49 25.43 28.35 26.68 33.48 31.42 31.50 31.51 30.35 31.25 30.67 30.52
42.04 43.17 50.98 50.66 35.70 37.40 41.01 40.78 42.58 40.83 41.13 41.08 39.37 39.73 39.42 37.12 35.50 36.61 37.07 39.90 41.95 39.84 38.05 39.15 31.03 21.84 24.52 29.25 34.34 32.01 33.07 32.85 33.44 31.20 27.31 24.66 25.59 32.31 30.84 30.99 31.49 30.51 30.93 31.94 31.98
40.88 36.85 42.80 45.59 41.06 38.14 38.39 37.63 37.39 41.43 39.75 40.22 38.83 39.84 37.78 35.88 37.56 34.63 34.96 38.59 39.73 39.03 41.74 41.31 34.49 26.77 22.79 23.87 29.38 27.26 28.79 30.14 30.63 26.03 22.92 24.79 26.87 31.49 32.10 31.45 31.50 32.15 32.78 30.05 30.43
39.99 35.26 39.11 35.10 36.95 38.64 38.61 37.65 36.36 35.71 39.49 40.24 37.20 37.26 36.36 34.09 33.92 33.79 36.58 36.91 38.15 40.43 37.68 36.29 25.69 29.37 29.68 30.33 29.24 28.43 27.85 28.59 26.37 27.60 23.09 26.01 25.47 29.60 31.31 25.91 26.44 27.49 30.36 30.23 29.25
34.52 33.87 35.87 35.87 37.93 38.40 37.72 35.25 35.18 35.65 37.31 35.63 35.49 37.18 37.68 34.69 34.99 28.66 32.17 32.08 31.34 32.92 32.57 34.12 22.40 25.68 19.04 27.34 27.28 24.60 25.94 25.97 26.12 26.04 25.44 25.97 24.88 31.57 26.02 26.92 26.24 27.75 27.93 26.82 27.41
36.10 36.78 35.68 34.08 32.81 34.80 34.90 35.45 35.15 36.93 35.84 35.32 36.76 35.23 33.01 31.18 32.81 32.80 33.01 32.52 32.36 30.19 28.43 28.07 22.19 15.46 14.71 24.10 21.51 12.56 21.70 23.71 24.49 26.02 24.06 20.37 24.68 21.74 23.26 25.49 24.05 23.82 24.95 25.17 25.54

GFSSW_sfc_wetblb_018.txt.gz
Wetbulb
59.55 59.83 60.15 60.27 60.26 60.51 60.76 60.84 60.80 60.80 60.94 60.96 60.91 60.64 60.64 60.56 59.53 57.04 50.71 56.50 56.78 64.13 60.56 53.21 51.51 50.94 50.53 48.85 48.43 44.33 37.64 34.66 37.22 37.33 39.00 42.91 42.14 43.97 43.18 41.93 42.45 45.22 44.55 44.67 48.33
59.09 59.46 59.90 60.21 60.30 60.43 60.63 60.83 60.77 60.82 61.11 61.17 60.98 60.70 60.48 60.25 54.71 51.73 60.10 65.06 65.36 64.79 52.91 49.93 47.75 48.90 46.15 46.98 46.78 41.49 35.92 38.11 41.21 40.25 39.69 43.04 41.37 41.78 41.78 42.01 40.99 41.49 45.28 45.68 47.37
59.19 59.51 59.85 60.07 60.22 60.36 60.71 60.88 61.02 60.99 61.18 61.19 60.78 60.59 60.37 58.64 48.83 49.70 61.47 64.93 64.98 61.35 53.69 51.91 50.28 48.67 43.81 44.96 44.06 42.16 38.26 41.48 43.78 43.97 43.51 43.56 43.41 42.67 40.49 41.45 43.70 42.82 44.31 45.87 44.52
59.79 59.71 59.78 59.85 59.99 60.29 60.68 61.06 61.13 61.20 61.17 60.82 60.48 60.31 59.89 54.15 38.29 52.35 61.99 63.99 64.13 55.66 52.36 50.08 47.56 44.24 41.88 41.41 45.39 39.91 44.78 44.49 45.93 45.66 43.61 42.00 44.45 43.27 42.90 44.87 46.80 45.40 44.25 44.47 43.47
59.61 59.55 59.61 59.71 59.79 60.20 60.73 61.20 61.34 61.31 61.08 60.28 59.66 59.65 53.98 46.19 47.08 57.91 62.40 62.54 55.11 53.09 49.44 48.24 45.85 44.84 40.89 41.90 42.42 41.15 42.55 45.04 46.29 44.99 43.62 43.87 43.01 42.00 43.71 45.69 45.73 44.72 43.39 42.06 41.82
59.64 59.41 59.27 59.36 59.76 60.25 60.74 61.09 61.37 61.14 60.06 58.77 58.84 58.80 49.13 42.32 55.51 59.09 57.11 54.50 52.97 51.14 48.62 48.69 46.66 46.76 43.30 42.01 41.10 42.46 43.11 43.41 43.85 43.95 43.10 42.70 40.39 41.39 44.75 42.98 43.63 44.01 41.14 40.32 40.66
59.73 59.42 59.11 59.13 59.66 60.23 60.71 60.96 61.00 60.72 58.23 58.81 58.47 56.50 49.17 46.73 56.13 57.06 55.42 52.46 51.99 50.81 48.49 49.09 48.40 45.69 44.12 41.28 44.20 42.11 39.80 41.21 41.28 41.63 41.63 42.46 38.97 40.50 45.18 43.27 42.21 39.76 38.17 39.73 40.06
59.49 59.06 58.83 58.99 59.48 60.01 60.37 60.45 60.35 59.53 58.61 58.40 58.24 52.28 43.65 50.02 52.66 55.20 52.75 50.63 51.84 50.59 49.63 48.75 48.82 46.90 43.79 43.80 42.40 37.91 36.29 34.05 40.74 41.38 40.70 40.10 36.45 42.88 44.31 42.01 40.00 37.38 36.50 38.16 38.99
58.86 58.49 58.73 59.03 59.30 59.45 59.72 59.94 59.34 57.12 57.94 58.97 52.12 47.64 43.37 52.64 48.63 49.58 49.71 49.12 48.69 48.29 47.67 50.74 47.49 43.25 42.35 37.20 34.12 33.91 30.96 32.93 37.77 41.57 40.28 38.35 35.91 42.28 44.05 41.76 37.82 36.16 37.13 37.87 37.52
58.57 58.50 58.84 59.27 59.36 59.53 59.75 58.22 56.82 55.87 56.55 56.55 54.51 44.02 45.06 43.91 47.15 48.23 47.39 49.50 46.77 45.48 44.86 44.28 41.14 37.34 35.73 34.06 28.75 31.73 31.11 33.69 34.16 38.51 38.06 36.42 36.99 40.16 42.88 40.84 37.09 36.09 36.25 36.17 36.29
58.60 58.84 59.35 59.67 59.93 60.18 58.18 52.47 49.59 48.07 49.60 46.59 44.85 43.54 45.36 47.00 48.69 46.54 47.81 46.91 46.04 42.86 36.72 39.38 35.45 32.77 35.82 37.84 36.18 34.57 33.51 33.24 35.75 40.32 37.18 37.47 36.52 39.40 41.94 38.13 35.96 35.99 36.44 36.20 36.21
58.87 59.45 60.28 60.19 59.99 59.68 55.55 49.11 47.27 47.75 44.98 50.10 49.38 49.23 48.19 47.79 44.56 45.05 47.70 42.57 41.34 37.16 38.65 36.03 32.90 38.77 38.74 38.02 37.24 35.15 33.20 33.51 36.49 39.43 36.90 36.35 36.52 39.50 39.52 39.55 37.74 36.76 35.84 35.74 35.57
59.08 59.58 60.35 59.74 59.14 56.51 51.66 48.77 50.04 47.37 42.72 46.46 48.05 48.10 46.42 47.27 44.39 44.03 45.40 42.37 39.17 36.74 37.04 34.81 38.83 40.97 39.19 36.99 36.03 34.41 33.43 33.02 34.88 36.59 36.08 33.53 32.79 37.10 36.46 36.93 37.58 37.13 36.78 36.13 34.63
59.35 59.29 59.66 58.98 54.79 54.48 49.83 50.39 50.56 47.48 37.03 41.14 43.51 43.21 44.43 45.69 41.19 44.22 44.97 42.39 38.83 37.29 36.45 35.79 40.13 39.18 36.72 36.90 37.40 33.32 38.33 37.57 35.70 31.90 28.78 33.13 25.59 32.60 35.74 33.87 34.56 34.39 33.58 33.54 33.65
59.02 59.05 58.84 58.63 53.94 52.82 51.29 50.60 49.65 45.87 29.17 41.63 40.85 46.91 43.64 42.74 41.43 40.51 43.45 41.34 37.76 38.14 37.33 36.49 35.92 34.99 35.70 37.12 38.51 36.24 36.37 34.58 33.08 30.36 27.89 29.15 26.65 30.39 33.61 31.05 32.31 32.33 33.23 33.08 33.25
58.26 58.43 58.27 57.89 54.60 53.81 50.86 50.53 48.22 38.87 31.02 37.54 40.02 39.47 38.07 38.91 39.25 40.41 40.03 40.64 40.10 36.83 36.03 36.91 37.69 37.71 37.59 37.33 36.98 37.40 34.94 33.81 31.76 29.77 23.64 29.46 29.00 27.78 30.47 33.15 32.03 32.93 33.08 33.58 33.07
57.93 57.74 57.27 57.41 53.29 52.22 51.75 50.14 39.23 33.70 41.81 36.67 36.30 38.58 37.47 35.93 36.40 37.55 35.48 33.78 33.77 30.90 30.65 34.71 35.54 37.24 38.22 34.99 35.08 34.31 32.05 25.92 23.99 21.73 23.62 29.95 26.74 30.89 32.86 33.58 35.06 32.75 32.07 32.63 32.40
57.66 57.48 56.28 56.36 53.02 52.96 52.50 45.44 33.37 40.08 38.15 40.10 37.94 36.90 35.31 37.00 35.95 36.08 34.47 32.88 35.80 34.59 31.28 31.80 30.85 35.68 37.49 36.84 34.77 32.70 33.60 28.25 23.56 20.23 23.41 28.15 26.13 31.40 31.59 32.72 33.92 33.83 32.77 32.92 33.93
57.11 56.35 55.07 54.53 53.48 54.67 48.91 37.31 38.16 40.76 43.28 40.27 39.73 36.46 36.65 36.53 37.48 33.94 33.10 33.42 37.40 36.73 34.38 30.89 32.23 35.87 36.55 36.92 38.43 33.19 30.70 34.71 29.27 21.24 20.92 27.36 29.36 31.08 32.26 30.87 31.37 31.20 31.77 31.41 31.91
52.38 51.37 52.54 53.74 55.01 53.22 45.15 39.69 40.73 44.53 42.72 41.44 36.31 38.44 33.41 36.09 37.11 33.97 34.72 36.93 37.62 38.98 38.90 35.98 30.44 35.68 35.28 37.06 36.33 34.53 37.56 28.72 28.11 19.16 15.88 23.75 25.47 27.63 29.14 29.04 30.05 29.75 29.80 30.35 30.68
48.56 45.24 50.25 54.59 54.72 47.93 39.89 39.27 42.74 44.70 44.15 40.20 37.39 36.38 35.22 34.52 37.20 34.59 35.52 37.45 38.61 36.36 38.65 37.34 35.19 32.00 34.37 33.26 33.11 31.78 30.80 32.61 32.04 26.84 19.35 15.83 22.92 30.93 32.22 31.56 30.08 29.50 30.42 29.99 30.04
47.19 41.52 50.25 53.33 43.71 43.32 40.24 42.18 43.51 42.53 43.27 41.72 40.14 38.63 36.26 36.75 35.22 35.41 35.50 37.85 40.20 38.84 35.85 36.90 33.63 25.58 31.16 34.39 35.85 34.28 32.78 32.09 25.99 23.53 25.34 25.24 25.99 33.53 33.59 32.81 31.57 30.35 31.09 31.09 31.69
44.03 43.12 50.45 50.13 38.38 37.89 41.07 41.33 42.31 40.77 40.24 39.96 39.37 39.95 39.84 37.57 35.15 35.93 36.33 38.94 40.13 38.80 36.81 38.00 30.43 19.92 26.02 29.80 33.91 31.32 32.30 32.02 31.56 28.63 21.34 22.25 24.30 32.30 29.98 30.67 31.64 30.80 30.21 31.01 30.57
42.59 36.92 43.02 45.81 42.98 40.39 39.01 38.80 39.03 42.60 40.28 41.13 39.70 39.60 37.56 35.21 37.54 33.55 34.65 37.49 38.74 40.38 42.26 41.76 33.42 28.70 26.47 25.81 29.73 27.40 28.53 29.23 29.77 24.23 22.72 24.43 26.14 29.30 29.79 30.74 31.16 31.03 31.18 29.96 29.61
41.00 37.83 40.70 35.13 37.93 39.39 40.27 39.18 37.92 36.65 41.44 40.83 37.67 37.52 36.74 33.38 33.94 33.58 35.31 35.96 37.02 39.87 37.38 37.08 27.86 30.34 30.41 30.63 29.89 29.20 28.59 28.06 26.77 27.01 22.74 26.23 24.45 28.91 29.09 28.70 28.68 29.27 29.47 30.04 27.96
37.17 35.15 37.31 37.44 39.59 38.28 38.41 36.13 35.31 37.86 37.67 36.51 36.42 36.98 36.82 35.00 34.58 31.62 35.19 34.30 34.45 35.58 34.87 33.88 25.30 25.94 19.56 27.92 27.77 24.64 26.58 26.51 27.28 27.13 26.18 27.13 26.24 32.90 28.81 25.84 25.50 27.19 26.95 26.96 27.35
38.07 37.92 37.21 36.23 35.75 35.69 35.08 36.13 36.27 37.54 37.01 36.68 37.51 36.28 34.99 36.82 34.91 33.50 34.13 33.75 33.12 31.15 29.10 28.86 24.92 18.41 14.84 23.05 21.47 13.57 19.68 24.54 25.90 26.04 24.49 20.18 23.85 21.21 24.45 26.15 24.96 24.58 25.37 25.57 25.10

GFSSW_sfc_wetblb_021.txt.gz
Wetbulb
59.26 59.56 59.92 60.18 60.18 60.43 60.70 60.77 60.80 60.85 61.07 61.37 61.31 60.95 60.81 60.48 59.19 55.12 47.23 54.85 56.22 63.72 59.73 51.44 50.26 49.86 49.23 47.70 46.93 42.38 36.17 33.25 35.41 35.70 38.51 41.95 41.77 42.19 42.35 40.20 41.95 43.60 45.43 43.78 47.47
58.92 59.33 59.79 60.05 60.20 60.28 60.53 60.78 60.77 60.84 61.24 61.35 61.13 60.82 60.62 60.14 53.22 50.13 58.40 64.42 65.07 64.04 51.20 48.10 46.34 47.81 45.33 45.69 45.32 39.96 34.24 36.22 39.85 39.59 39.27 41.70 40.24 41.08 41.67 41.96 39.77 40.60 44.92 45.27 45.52
58.94 59.25 59.63 59.83 59.99 60.16 60.55 60.76 60.93 61.01 61.26 61.38 60.87 60.54 60.18 58.21 46.67 47.34 61.39 64.31 64.87 60.48 51.86 50.57 48.98 47.17 42.26 45.32 43.55 40.15 36.98 40.26 42.37 42.99 42.42 41.63 40.44 41.75 39.64 40.76 41.56 41.32 43.90 44.21 41.48
59.55 59.46 59.55 59.64 59.77 60.11 60.52 60.93 61.14 61.30 61.37 61.11 60.32 59.81 59.60 52.89 39.18 50.55 61.94 63.26 64.12 54.03 51.22 48.99 46.41 42.73 39.98 39.70 43.69 40.02 42.70 42.29 44.40 44.49 42.46 41.17 41.92 41.83 41.47 44.03 44.27 41.94 41.74 40.09 40.32
59.44 59.30 59.46 59.51 59.61 60.01 60.59 61.07 61.40 61.41 61.22 60.09 59.25 59.29 53.15 44.81 46.70 56.94 61.96 61.30 53.69 51.47 48.42 47.18 44.62 43.41 39.98 41.02 41.43 40.38 41.41 43.33 45.02 43.87 42.40 42.65 42.02 40.96 42.47 43.79 43.05 42.45 41.59 39.64 39.24
59.34 59.24 59.16 59.17 59.50 60.01 60.59 61.05 61.41 61.18 60.91 58.65 58.95 58.72 47.07 41.41 54.17 57.46 55.30 51.95 51.26 49.33 47.62 47.87 46.19 46.20 42.53 40.49 39.80 40.95 41.64 42.16 43.00 42.90 41.65 41.34 38.98 39.81 42.86 42.43 40.84 40.70 38.30 37.99 38.41
59.47 59.31 59.07 59.03 59.44 60.05 60.47 60.89 60.98 60.75 59.59 58.75 58.66 55.85 47.25 45.93 54.96 56.10 53.75 51.21 51.19 49.88 47.31 47.76 47.27 44.72 42.80 39.95 42.56 40.82 38.46 39.59 40.44 39.98 40.11 41.16 37.15 39.41 42.95 41.55 39.41 37.58 36.41 37.54 37.92
59.30 59.05 58.83 58.82 59.19 59.71 60.25 60.35 60.32 60.19 58.35 58.12 58.19 51.65 44.38 49.22 52.68 53.91 51.33 49.96 50.22 49.35 48.65 47.68 47.63 45.92 42.57 42.46 40.84 37.11 35.47 32.64 38.94 39.59 39.63 39.65 36.30 41.49 42.37 40.33 37.11 35.84 34.93 36.04 37.02
58.74 58.47 58.53 58.66 58.85 59.28 59.67 59.96 58.27 58.00 58.49 58.92 50.81 46.07 43.53 52.33 48.31 48.86 49.05 48.34 47.67 47.07 47.19 50.08 46.51 41.67 41.23 36.24 33.35 33.10 29.62 31.14 36.68 40.14 38.68 36.97 35.56 41.21 40.98 39.84 35.46 34.54 35.28 35.82 35.67
58.42 58.21 58.34 58.72 58.98 59.29 59.77 59.09 57.07 55.85 56.14 55.93 53.41 43.73 44.79 43.12 46.10 47.13 46.90 48.45 45.56 44.63 44.27 43.64 39.85 36.38 34.95 33.35 29.32 30.24 29.98 31.97 32.97 37.02 36.89 35.25 36.17 39.27 41.14 39.37 35.81 34.29 33.83 34.28 34.76
58.28 58.25 58.56 58.93 59.43 60.21 57.76 52.47 48.65 47.86 49.45 45.60 44.06 43.46 44.11 45.77 47.52 45.07 46.90 46.34 44.79 41.67 36.56 38.30 34.86 32.69 35.29 36.56 34.66 33.29 32.35 32.51 34.01 38.50 35.27 36.15 35.36 38.34 38.90 36.31 34.06 33.78 33.78 33.84 34.31
58.29 58.44 58.99 59.54 60.11 59.72 55.30 49.60 48.13 47.49 44.77 49.37 48.20 46.40 47.15 46.81 43.50 44.03 46.86 41.88 39.83 36.18 37.32 35.15 32.19 38.13 37.58 36.89 36.05 33.22 31.04 32.00 35.11 37.65 36.31 35.46 35.30 38.44 37.39 35.90 35.36 34.52 33.43 33.54 33.22
58.07 58.29 59.00 59.89 58.80 56.58 52.40 49.64 49.38 47.08 43.10 46.02 47.68 47.73 45.90 46.55 44.33 44.17 45.11 41.60 38.34 35.68 35.76 33.82 37.75 39.45 37.88 35.32 34.15 32.84 31.96 31.47 33.64 35.49 34.42 32.45 31.22 35.26 34.20 35.12 35.75 35.15 34.52 33.55 32.25
58.15 58.23 58.92 58.63 56.37 54.37 49.83 50.41 49.76 47.92 37.17 40.52 43.05 43.58 43.94 45.38 41.27 44.15 44.06 41.74 37.61 36.73 35.67 34.89 38.54 38.23 34.88 35.11 35.44 31.71 36.60 36.15 34.81 31.52 28.56 32.02 25.50 31.06 33.63 32.13 32.96 32.64 31.62 31.44 31.68
58.07 58.40 58.80 58.84 53.09 51.65 52.23 50.35 48.73 45.99 28.38 40.96 40.34 45.80 42.68 42.97 40.58 39.52 42.82 40.85 36.97 37.12 36.24 35.69 35.65 34.25 34.21 36.01 37.77 35.30 35.59 34.19 32.01 29.45 27.00 28.13 25.87 29.40 32.35 30.01 30.57 30.91 31.42 31.08 31.20
57.56 58.11 58.28 57.57 55.96 53.78 50.52 50.25 47.62 37.36 29.71 36.43 39.15 38.19 37.70 37.79 38.14 39.22 39.05 40.33 39.44 36.27 35.07 36.36 36.82 36.55 37.43 36.25 37.24 36.74 34.07 32.88 30.61 28.73 22.86 29.03 28.76 26.60 29.97 32.00 30.47 31.19 31.52 31.78 31.36
57.29 57.69 57.63 58.22 54.14 52.41 51.05 49.37 39.16 33.60 40.52 35.88 34.83 36.81 35.38 34.50 35.32 36.53 35.10 33.63 32.58 29.78 29.72 32.87 34.93 35.98 36.87 33.50 33.85 33.39 31.46 25.47 23.56 21.58 23.29 28.12 25.61 30.26 31.54 31.60 32.89 31.74 30.88 31.04 30.99
57.22 57.56 57.76 58.04 54.61 51.88 51.54 45.30 33.53 38.61 38.29 38.40 36.12 35.69 34.27 35.62 34.47 35.05 32.62 31.47 34.29 32.88 29.90 30.55 30.30 34.84 36.53 36.19 33.46 31.58 32.34 26.37 20.02 19.93 23.08 27.29 25.60 31.18 30.07 31.01 33.24 33.35 32.22 31.14 30.33
57.22 57.34 57.59 57.52 53.42 53.48 49.47 38.07 38.10 39.60 41.84 38.64 38.14 32.88 33.02 36.11 35.01 32.55 32.00 32.12 35.65 35.34 34.40 30.21 31.69 34.39 35.38 36.38 37.19 31.61 29.19 33.44 28.47 16.91 20.04 27.05 28.59 29.53 30.47 29.64 30.21 30.27 30.47 30.02 30.48
56.06 55.39 55.24 56.77 53.77 52.52 46.44 41.08 41.26 44.86 43.40 41.39 34.61 37.70 32.89 35.77 34.63 32.11 31.68 35.84 36.77 36.70 37.67 35.35 30.24 34.49 33.92 35.65 34.71 33.76 36.02 28.28 26.88 18.57 16.32 23.94 25.05 27.62 27.62 28.65 29.44 29.45 30.03 29.85 30.53
53.79 48.54 51.86 54.52 53.91 48.81 41.22 41.30 42.44 45.40 43.81 41.07 38.28 36.53 35.48 35.08 35.58 31.95 34.57 36.07 37.96 36.02 38.41 36.36 34.34 30.95 33.14 32.28 31.87 31.55 30.44 31.23 30.64 26.95 20.49 16.31 24.07 30.11 30.78 30.15 29.66 30.35 30.70 29.88 29.86
49.35 45.10 51.28 54.12 44.66 45.61 43.13 42.81 44.16 43.71 44.10 42.26 40.56 39.58 36.92 35.75 34.23 33.86 34.44 36.53 39.09 38.01 35.86 37.29 33.26 25.60 30.47 33.44 33.51 32.28 32.06 32.41 28.11 24.37 24.41 24.72 26.92 32.32 32.87 31.95 31.57 30.69 31.04 30.63 30.79
45.37 43.69 50.22 50.38 41.04 39.64 41.52 42.04 43.16 41.08 41.25 40.97 39.50 40.12 38.92 36.52 34.33 34.55 35.28 38.37 38.58 38.22 36.39 37.97 30.23 21.14 28.41 29.70 31.25 30.26 30.61 30.82 30.69 28.61 23.13 22.75 25.30 32.07 30.28 31.01 31.65 30.89 30.30 30.80 31.11
43.18 37.93 43.05 45.04 43.15 41.87 39.77 39.65 39.37 42.73 40.97 41.76 40.36 40.20 38.26 36.77 37.67 35.30 35.06 37.52 37.79 37.79 41.94 41.40 33.23 31.05 27.76 27.47 29.54 27.75 28.74 29.24 29.12 24.13 27.66 28.21 27.65 27.55 29.95 30.50 30.75 30.87 30.92 30.63 30.31
40.91 38.36 40.48 35.38 38.18 40.56 41.93 40.54 39.11 37.16 41.38 41.65 38.18 39.02 37.20 34.01 33.81 34.21 35.37 35.95 36.70 38.43 36.23 37.53 29.20 29.21 29.90 28.96 30.07 29.17 28.39 27.91 27.04 26.32 23.66 25.49 24.61 27.77 29.87 30.65 30.57 31.68 31.26 29.78 30.25
37.51 36.58 38.50 37.89 40.69 39.31 39.94 37.74 38.76 39.66 38.97 38.36 38.62 38.77 38.70 37.03 36.51 33.25 35.61 35.02 33.51 32.54 33.78 32.76 25.45 27.09 24.50 29.23 30.15 29.44 29.95 29.38 30.29 30.01 27.90 28.50 26.99 32.88 28.94 28.92 25.82 27.56 27.72 27.77 28.34
38.49 38.59 38.54 35.65 36.61 37.69 37.17 38.28 38.36 39.84 38.03 38.72 39.55 38.18 36.67 38.21 39.82 35.45 36.09 35.74 35.88 33.21 31.10 30.85 25.99 24.71 26.03 23.85 24.44 20.98 21.96 25.33 27.20 27.56 26.91 23.43 27.58 20.91 24.45 25.92 25.47 25.23 26.05 26.01 25.72

GFSSW_sfc_wetblb_024.txt.gz
Wetbulb
58.90 59.13 59.59 59.92 60.03 60.24 60.43 60.69 60.78 60.91 61.29 61.61 61.52 61.09 60.83 60.44 58.93 53.58 45.24 53.71 55.36 63.39 59.52 50.00 49.53 48.71 48.53 46.71 45.15 40.53 34.99 32.19 35.69 35.34 37.52 40.11 39.93 40.95 41.25 41.65 41.68 42.09 44.72 42.39 45.06
58.56 58.89 59.37 59.77 59.95 60.07 60.46 60.77 60.81 61.04 61.37 61.62 61.25 60.86 60.50 59.88 51.84 47.89 57.42 63.34 64.63 63.32 49.42 46.78 45.22 46.73 44.63 44.67 43.97 38.40 32.89 34.82 38.23 40.19 40.02 40.22 39.92 40.31 41.17 40.65 41.22 40.52 43.58 42.89 41.86
58.75 58.95 59.32 59.64 59.80 60.10 60.50 60.79 60.96 61.25 61.52 61.40 60.72 60.17 59.85 57.71 45.56 45.69 61.14 63.28 64.53 59.77 50.34 49.38 48.14 46.04 41.64 44.25 43.22 39.13 35.27 37.84 40.77 41.41 41.15 40.38 39.34 40.45 41.17 38.15 39.41 41.27 41.49 40.58 40.17
59.40 59.21 59.32 59.47 59.61 60.00 60.42 60.94 61.27 61.43 61.42 61.24 59.56 59.45 59.36 51.73 39.85 48.83 61.38 63.37 63.92 52.74 49.86 48.00 46.39 42.53 38.84 40.16 42.26 38.79 41.06 41.02 43.29 42.88 41.47 39.81 40.81 39.72 40.23 40.28 41.95 39.46 39.36 38.62 38.41
59.35 59.15 59.22 59.33 59.47 59.83 60.41 60.92 61.37 61.29 61.13 60.29 59.10 59.23 51.93 43.78 46.43 56.02 61.30 60.12 52.68 50.09 47.37 45.94 43.54 41.88 37.55 39.61 40.12 40.30 39.89 41.68 42.96 42.59 42.18 41.66 40.52 40.23 41.58 41.01 40.80 40.55 39.57 37.80 37.40
59.18 58.96 59.07 59.18 59.38 59.80 60.39 60.91 61.32 61.10 60.82 59.25 59.21 58.82 45.51 41.13 52.93 55.51 53.05 50.66 50.29 48.40 46.08 46.21 44.64 45.08 41.71 39.27 38.69 39.23 40.19 41.01 41.70 40.80 40.36 40.39 37.76 39.30 38.89 39.12 39.15 38.75 36.68 36.42 36.79
59.27 59.07 59.02 59.07 59.38 59.75 60.23 60.74 60.71 60.59 60.24 58.77 58.78 55.17 45.18 46.56 54.54 54.41 52.17 49.33 49.55 48.52 46.33 46.67 46.66 44.05 42.41 39.39 41.68 39.56 37.49 38.73 38.99 38.48 38.99 40.07 36.51 37.88 39.77 39.54 37.41 36.17 35.11 35.86 36.13
58.98 58.78 58.77 58.84 59.01 59.41 60.01 60.21 60.31 59.55 58.49 57.99 58.08 49.76 44.63 48.22 52.83 52.84 50.20 49.09 48.75 48.47 47.99 46.72 46.81 45.10 41.87 41.26 39.54 36.30 34.41 32.37 37.27 38.61 38.31 38.25 35.91 39.38 40.21 39.49 35.94 35.19 33.60 34.55 35.59
58.30 58.20 58.50 58.57 58.51 58.87 59.57 59.94 57.28 57.91 58.77 58.56 49.82 45.21 43.43 51.93 48.53 48.59 48.10 47.88 46.69 46.26 46.90 48.92 45.47 40.44 40.28 35.92 32.98 32.48 30.62 29.98 35.60 38.96 37.50 36.34 35.74 38.67 38.57 38.09 34.84 33.75 33.72 34.46 34.05
57.97 58.01 58.29 58.39 58.49 58.95 59.47 59.40 56.91 55.41 55.56 55.10 51.70 43.40 44.62 42.78 45.22 46.33 46.49 47.47 44.53 44.17 43.74 42.95 39.07 35.84 33.99 33.53 29.69 30.17 28.86 30.70 31.80 35.21 35.43 33.17 35.74 39.03 39.56 38.29 34.65 32.76 32.32 32.72 32.81
57.98 58.11 58.30 58.36 58.74 60.06 57.87 52.34 48.11 46.67 47.76 45.58 43.92 43.46 43.51 44.80 46.40 44.10 46.13 45.44 43.52 40.84 36.32 37.06 34.52 32.63 35.03 35.76 34.15 32.63 30.91 31.89 32.78 36.62 34.85 35.72 35.14 38.50 38.72 34.90 32.56 31.73 32.10 32.06 32.21
58.12 58.26 58.38 58.61 59.50 59.51 56.45 49.46 47.69 47.48 44.55 48.85 47.48 45.13 45.92 45.42 41.90 42.71 46.14 41.27 38.73 35.35 36.22 34.18 32.02 37.55 37.02 36.28 34.82 32.35 30.65 30.86 34.05 35.96 35.29 34.59 34.12 37.29 35.56 34.45 33.84 32.74 31.77 31.83 31.23
57.91 57.90 58.10 58.84 59.27 57.80 53.35 50.80 48.84 47.01 43.18 45.76 47.33 46.88 47.12 45.96 43.29 43.00 44.97 40.67 36.81 34.81 34.52 32.96 36.70 37.91 36.80 33.82 33.07 31.76 31.26 30.20 32.61 33.70 33.54 31.39 30.90 34.11 33.06 33.82 33.94 33.38 32.66 31.84 30.81
57.98 57.72 57.77 58.84 56.44 54.61 51.60 52.62 49.16 47.66 37.85 40.29 42.73 43.65 43.53 45.21 41.54 43.74 43.62 41.54 36.77 36.38 34.79 33.81 37.29 37.44 33.59 33.75 34.10 29.85 34.83 34.67 33.10 30.94 28.17 30.92 24.95 30.16 31.75 31.01 31.68 31.31 30.31 30.17 30.30
57.86 57.65 57.87 58.55 53.62 51.64 52.48 49.89 47.93 46.78 27.82 40.25 40.61 45.16 42.29 42.77 40.37 40.05 42.36 40.63 36.17 36.22 35.82 35.56 34.49 33.29 33.64 34.82 35.94 33.95 35.31 33.71 31.77 29.20 26.43 27.11 25.19 29.34 31.47 30.27 29.94 30.16 29.96 29.61 29.34
57.39 57.35 57.67 57.62 55.51 53.26 50.17 49.70 47.87 38.31 29.06 36.62 38.56 37.73 38.62 37.85 37.27 38.63 38.91 40.60 39.43 36.11 34.57 35.35 36.39 36.41 36.57 34.99 36.14 35.78 33.66 32.02 29.27 28.09 22.07 28.93 28.53 26.49 28.77 31.17 29.69 30.63 30.48 30.51 30.13
57.09 57.07 57.13 58.73 53.92 51.55 50.43 49.15 38.78 33.09 39.47 35.06 34.47 35.94 35.74 34.44 35.46 35.53 34.77 33.48 32.55 30.31 30.13 32.68 34.45 35.57 36.13 33.06 32.85 32.46 30.62 25.21 23.07 21.27 23.19 27.29 24.88 29.04 30.48 30.88 31.57 31.70 30.38 30.08 30.05
56.93 56.91 56.83 58.57 55.19 51.71 50.62 44.41 33.32 38.16 37.20 37.04 35.82 34.10 33.79 34.67 33.91 34.30 32.47 31.33 33.85 31.65 28.66 29.31 29.05 34.51 36.48 36.17 32.73 30.94 31.58 26.24 19.90 19.61 23.08 26.52 24.72 30.65 29.73 30.67 31.40 32.89 31.24 30.36 29.30
56.72 56.33 56.49 58.18 53.88 53.13 48.29 38.26 37.48 38.24 41.14 36.07 35.32 31.29 31.27 34.14 33.59 32.17 30.64 30.63 34.18 34.06 33.38 29.68 31.40 33.57 34.32 35.28 36.69 30.69 28.65 32.34 26.95 14.88 18.82 26.58 28.62 29.31 29.93 29.04 29.27 29.28 29.83 29.05 29.12
55.36 54.47 54.12 59.09 54.18 51.91 45.16 40.85 40.24 43.44 41.87 38.23 35.53 35.72 30.42 33.55 32.35 31.13 30.35 33.81 35.30 35.86 37.09 35.08 30.06 33.27 32.92 35.18 33.93 33.02 34.91 27.71 26.25 18.44 17.41 23.80 24.61 28.26 28.95 29.15 28.42 28.48 28.88 29.16 29.59
54.74 49.99 55.10 58.69 54.33 48.05 40.49 41.92 44.42 45.37 44.31 39.77 37.65 35.49 33.80 33.90 33.71 30.31 32.59 34.63 36.88 35.49 37.12 35.27 34.03 29.95 32.48 31.13 30.71 31.24 29.74 30.34 30.06 27.15 22.43 17.06 24.81 29.51 30.38 29.59 28.71 29.41 30.59 29.84 29.91
52.98 45.99 55.12 55.31 45.86 46.08 41.90 43.52 45.11 44.56 44.99 42.36 41.42 39.54 37.66 36.58 33.32 32.66 33.21 36.70 38.87 37.72 34.64 36.55 32.33 25.66 30.13 32.04 32.91 31.67 31.60 31.75 28.29 24.27 23.43 24.61 27.96 30.33 30.19 30.54 31.27 30.60 31.13 30.76 30.72
47.31 46.04 52.91 54.58 42.10 42.39 44.10 45.04 44.96 42.93 43.20 41.04 39.70 41.30 38.94 36.77 35.64 34.68 35.29 38.89 38.25 38.23 36.85 37.55 30.95 21.82 26.07 29.98 29.89 29.63 30.53 30.78 30.16 28.39 23.12 25.25 26.32 31.05 29.01 29.74 31.33 31.11 30.74 31.01 31.03
44.23 38.71 43.29 45.01 46.44 45.24 42.70 41.58 40.82 43.31 42.66 42.72 40.93 40.55 38.88 37.01 38.41 35.73 34.85 36.99 38.07 38.24 41.97 40.84 31.93 28.50 26.96 27.16 30.45 28.10 29.46 29.76 31.31 28.86 29.95 28.98 30.67 28.44 30.30 31.46 31.16 30.84 30.82 30.37 29.99
42.00 38.89 40.90 37.52 41.36 42.99 44.67 42.05 40.28 38.63 41.60 42.53 38.98 40.38 40.16 36.05 36.04 35.59 36.24 35.34 36.66 39.03 37.69 38.47 28.84 29.83 30.08 29.27 29.22 29.17 29.23 28.09 28.02 30.16 29.36 30.98 29.13 29.56 32.66 31.78 31.07 31.05 30.55 29.16 29.32
38.38 37.52 39.02 37.82 40.82 41.11 42.58 40.52 40.10 40.58 39.77 38.13 38.34 39.53 40.60 38.03 37.66 33.82 35.80 35.76 34.77 33.63 35.44 34.29 31.42 29.59 24.33 29.58 28.70 27.35 29.46 28.03 30.36 30.26 28.28 27.51 27.73 33.23 31.84 29.38 27.69 30.36 30.40 28.44 28.41
38.85 39.25 39.51 36.78 37.21 38.27 38.28 40.21 40.10 41.63 38.80 40.71 41.11 39.37 38.80 40.02 39.75 36.35 38.31 37.93 37.90 35.08 33.29 31.67 27.82 23.14 25.94 23.66 25.19 24.78 27.01 28.88 29.11 29.02 30.77 27.36 31.19 23.85 25.52 27.29 27.13 26.63 26.44 27.11 27.50

GFSSW_sfc_wetblb_027.txt.gz
Wetbulb
58.80 59.05 59.46 59.71 59.83 60.04 60.45 60.76 60.79 61.09 61.45 61.67 61.40 61.10 60.83 60.46 59.03 53.22 45.05 53.93 55.21 63.04 59.40 50.38 50.54 49.69 49.86 48.17 46.56 43.61 36.79 34.90 37.91 38.07 40.64 43.57 43.38 44.81 45.13 44.64 45.38 45.98 45.35 43.70 44.29
58.47 58.69 59.15 59.46 59.63 59.93 60.43 60.77 60.88 61.35 61.69 61.66 61.20 60.52 60.24 59.81 51.38 47.30 57.95 62.77 64.41 62.96 49.66 47.62 46.47 47.64 45.89 46.61 45.47 40.00 35.28 37.04 40.63 40.43 41.01 42.99 42.87 43.70 44.13 43.68 44.60 45.46 45.01 43.79 43.37
58.51 58.69 59.04 59.35 59.54 59.95 60.33 60.79 61.08 61.40 61.54 61.47 60.19 59.88 59.68 57.27 45.66 45.83 61.26 62.95 64.10 58.97 50.71 49.79 48.86 47.04 43.55 44.92 43.79 41.13 37.39 39.45 42.13 43.24 43.88 43.08 42.69 44.14 43.15 42.16 44.65 45.20 43.64 42.07 41.51
59.13 58.97 58.99 59.26 59.48 59.85 60.31 60.90 61.33 61.39 61.29 61.27 59.71 59.92 59.21 50.32 40.05 48.55 61.35 63.26 63.24 52.44 50.34 48.29 46.93 43.19 40.51 40.24 44.10 39.71 41.90 41.75 44.63 44.00 43.16 42.23 43.58 43.14 43.13 44.39 42.99 41.18 41.02 40.03 39.40
59.23 59.02 59.02 59.15 59.29 59.72 60.32 60.86 61.43 61.28 61.15 60.99 59.68 59.71 50.62 44.37 46.43 55.23 60.77 60.59 52.29 49.92 47.66 46.63 44.35 43.17 39.42 41.34 41.79 41.43 41.42 42.58 43.64 43.05 42.76 42.59 42.45 42.76 42.72 40.56 40.88 40.66 39.56 38.44 38.31
59.04 58.78 58.79 59.05 59.21 59.54 60.10 60.69 61.14 60.97 60.81 60.18 59.41 58.92 45.05 41.88 52.94 54.17 51.70 50.48 49.91 48.43 46.40 46.73 45.40 45.27 42.27 40.69 40.48 41.01 41.26 41.41 41.99 42.10 41.69 41.51 40.31 41.20 40.70 39.64 39.15 38.52 37.12 37.28 37.32
59.21 58.88 58.76 58.96 59.28 59.44 59.89 60.50 60.58 60.59 60.01 59.06 58.81 54.47 44.63 47.45 53.94 53.18 51.32 48.76 49.32 48.37 46.63 46.98 46.82 44.87 43.63 40.48 42.32 40.55 38.74 39.84 40.28 40.05 40.61 41.32 37.97 39.21 40.99 40.11 37.66 36.68 36.32 36.62 36.70
58.98 58.62 58.55 58.73 58.96 59.08 59.64 60.10 60.26 58.83 58.58 57.99 57.96 48.70 44.96 47.80 53.40 52.41 50.13 48.70 48.33 48.22 47.99 47.21 47.37 45.38 43.02 42.20 39.73 37.40 36.44 34.96 39.22 39.74 39.71 40.37 37.68 40.62 40.17 39.93 37.60 36.27 35.53 35.67 35.73
58.17 57.97 58.18 58.50 58.45 58.54 59.39 59.24 58.52 57.97 58.72 58.34 48.99 44.52 43.67 51.80 48.98 48.70 48.35 47.49 46.51 46.51 46.98 48.18 45.50 41.30 41.12 36.99 34.60 34.20 32.75 32.29 36.31 39.62 38.90 38.62 38.01 40.66 39.88 39.34 36.61 35.55 35.33 35.43 35.02
57.76 57.64 57.97 58.37 58.30 58.59 59.42 59.56 57.04 55.07 55.18 54.24 50.47 43.78 44.32 42.80 45.16 46.32 46.13 47.09 44.85 44.49 44.34 43.39 39.28 36.38 34.42 35.03 31.04 32.13 31.12 31.85 33.20 36.95 37.15 35.74 37.39 39.16 39.81 38.65 36.26 34.50 34.02 34.01 33.81
57.74 57.76 58.01 58.26 58.35 59.48 58.13 52.29 48.12 45.97 47.10 45.59 44.07 43.16 43.23 44.26 45.85 44.22 45.93 45.05 43.08 41.36 37.17 37.62 35.60 33.77 35.68 36.28 35.51 34.13 32.32 33.18 33.93 37.36 36.63 36.41 35.84 39.36 38.55 36.30 33.96 33.09 33.45 33.25 33.35
57.24 57.89 58.20 58.38 58.73 59.62 57.13 49.29 47.07 46.95 44.01 48.41 46.98 44.84 44.86 45.11 41.13 42.34 45.94 41.37 39.03 35.38 36.36 34.56 32.65 37.37 37.18 36.13 35.05 32.87 31.85 31.98 34.56 36.31 36.16 35.19 35.28 38.63 38.15 36.63 35.63 33.94 32.95 32.81 32.80
57.55 57.69 58.04 58.22 58.86 57.81 55.08 51.26 48.97 46.95 43.03 45.66 46.82 46.42 46.48 45.22 42.30 41.58 44.77 40.64 36.32 34.14 34.24 32.87 36.40 37.21 36.77 33.88 33.38 32.28 31.79 30.90 33.21 34.29 34.55 33.01 32.78 34.96 35.26 34.95 34.17 34.15 33.59 32.74 32.16
57.74 57.56 57.57 58.01 55.83 56.05 53.82 55.78 49.19 47.73 37.63 39.88 42.69 45.28 43.71 44.89 41.04 43.55 43.78 41.66 36.73 35.60 34.10 33.73 36.74 37.04 33.42 33.45 33.86 29.96 34.45 34.20 33.15 31.81 29.17 32.83 27.56 32.77 33.22 32.72 32.48 31.57 31.08 31.11 31.31
57.61 57.54 57.51 58.52 53.16 53.40 53.33 50.34 47.71 46.49 27.24 39.91 40.37 44.54 42.76 43.25 40.69 39.90 42.43 41.22 36.25 36.69 36.57 36.26 34.45 33.73 33.62 34.70 35.45 34.20 34.36 33.30 32.78 31.06 29.16 29.68 27.46 30.90 31.92 32.53 31.28 30.85 30.64 30.93 31.14
57.27 57.30 57.25 57.19 55.17 52.84 49.87 49.05 47.98 37.52 28.47 36.43 38.29 37.24 38.96 37.95 37.20 38.67 39.26 40.93 39.63 35.77 34.48 35.88 36.45 36.59 36.98 35.22 35.57 35.16 33.51 31.95 30.03 28.97 23.10 29.32 29.62 28.84 30.98 32.91 31.51 31.54 31.19 31.18 30.81
57.04 57.00 56.47 57.96 53.81 51.01 50.43 48.09 38.45 32.15 38.71 34.43 34.60 36.01 36.85 34.50 35.38 36.71 35.21 33.48 33.43 30.82 30.79 32.86 34.43 35.05 36.02 33.09 33.27 32.11 31.02 25.48 23.84 22.52 23.85 27.75 26.10 30.59 33.52 33.33 33.71 32.62 31.16 30.87 31.03
56.89 56.85 56.30 57.73 54.02 51.67 50.00 43.46 33.55 37.40 36.54 35.56 35.01 34.40 34.46 34.86 33.97 33.99 32.76 31.66 34.04 32.08 29.53 29.73 28.53 34.59 36.58 34.96 32.36 30.60 31.50 26.88 20.85 20.65 24.20 25.99 25.09 31.29 32.25 31.64 32.01 33.07 32.38 31.10 30.17
56.64 56.10 55.70 56.93 53.92 53.51 47.61 38.03 35.99 37.58 40.11 35.14 34.73 31.17 30.67 33.18 33.37 31.87 31.72 31.73 35.58 34.39 33.31 28.96 29.90 33.04 33.68 34.34 35.93 30.97 29.01 32.49 26.37 15.56 21.30 27.34 29.57 33.24 31.15 30.75 30.39 30.17 30.35 30.10 30.32
54.76 54.01 53.66 57.65 54.80 53.03 44.67 39.78 39.68 42.56 39.31 36.83 35.97 35.31 30.33 31.24 31.37 30.65 30.05 33.50 34.52 36.49 37.54 34.69 29.91 32.67 32.87 34.94 34.30 33.11 34.83 28.34 26.63 18.39 16.02 24.21 26.61 30.21 30.15 30.91 29.59 28.95 29.54 30.10 30.19
54.47 49.48 54.62 57.91 54.28 49.46 40.31 40.51 43.32 44.41 42.32 38.01 37.65 35.49 32.63 32.01 32.59 29.39 31.27 33.02 35.96 34.45 38.39 35.79 34.41 30.69 32.62 31.32 31.23 31.29 29.56 30.09 30.42 27.66 21.66 18.33 25.17 31.28 32.76 32.23 30.66 30.40 30.99 31.04 30.86
52.84 45.92 55.41 56.50 45.88 46.31 42.67 41.79 44.96 45.50 45.04 42.57 40.11 38.62 36.12 35.70 33.15 31.59 31.34 34.73 37.83 37.33 34.44 37.21 33.57 26.70 29.77 31.79 32.64 32.09 31.57 31.72 27.56 24.31 23.81 24.78 27.76 31.63 31.35 32.34 32.24 31.18 31.68 31.77 32.30
49.28 48.65 55.54 54.01 41.42 42.09 44.26 43.90 44.49 43.53 44.66 43.65 41.61 40.73 39.59 36.68 34.87 33.72 32.89 38.20 38.55 38.00 35.97 37.11 31.86 24.81 27.42 30.40 30.24 29.87 30.69 31.16 30.31 28.47 23.51 23.48 25.40 31.05 30.28 30.51 31.37 31.28 31.07 32.18 32.42
45.25 40.38 44.27 49.86 49.17 44.86 42.05 41.93 41.69 45.71 44.34 44.01 41.97 41.35 38.31 37.50 39.95 35.07 34.33 36.88 37.58 38.04 42.04 41.35 32.73 30.58 31.11 29.56 31.12 28.41 29.57 30.25 31.25 24.23 26.28 29.27 31.36 28.76 30.84 31.76 30.79 31.12 31.82 31.28 31.46
43.49 39.72 41.44 40.11 41.54 44.92 44.78 42.86 41.17 40.62 44.57 44.95 40.17 41.28 40.49 37.70 37.63 37.04 36.46 35.63 36.72 39.66 38.27 39.14 31.88 29.38 30.38 30.14 30.66 30.98 30.05 29.08 29.06 31.47 29.52 31.68 30.69 30.71 32.73 32.38 31.94 31.37 30.84 30.33 30.49
38.97 37.69 39.46 37.89 40.26 41.55 43.05 42.54 41.07 42.54 40.70 40.01 41.04 41.62 42.57 40.58 40.40 37.53 38.05 35.88 35.47 35.30 35.84 36.30 32.97 30.04 26.81 29.79 29.21 27.89 29.12 29.66 31.48 31.26 30.30 31.51 30.13 33.71 33.95 31.40 30.48 31.21 30.90 30.05 30.04
39.25 40.09 40.51 38.29 37.23 37.65 39.22 41.10 42.29 44.27 41.42 43.10 42.62 42.41 40.46 42.67 40.85 37.91 41.25 39.47 38.71 35.97 34.43 34.56 30.57 30.75 29.56 24.81 28.01 26.69 28.59 28.69 29.61 29.49 32.09 26.48 33.41 29.27 29.46 30.61 30.10 29.92 30.22 30.24 29.37

GFSSW_sfc_wetblb_030.txt.gz
Wetbulb
58.85 59.04 59.53 59.81 59.93 60.25 60.78 60.97 61.12 61.53 61.87 61.95 61.89 61.13 60.90 60.56 59.80 57.57 50.80 57.10 59.55 63.05 60.24 56.09 55.88 55.31 56.41 53.78 52.18 50.16 46.77 44.41 45.35 45.17 46.65 48.94 48.11 49.44 50.35 49.67 50.23 49.72 49.53 48.27 49.70
58.49 58.70 59.09 59.45 59.63 60.07 60.57 60.90 61.11 61.61 61.80 61.84 61.46 60.33 60.12 59.96 55.89 53.30 59.84 62.58 64.09 63.29 54.92 53.53 52.48 53.47 53.00 52.21 52.56 49.49 46.82 44.44 47.98 48.13 47.93 48.78 48.62 49.12 48.63 48.91 48.44 49.08 48.47 48.82 49.64
58.58 58.56 58.91 59.16 59.30 59.84 60.36 60.86 61.25 61.50 61.62 61.76 61.22 60.45 60.07 59.26 52.84 51.27 61.73 62.96 64.38 60.64 55.56 55.18 54.19 52.24 49.97 51.79 50.43 47.97 45.93 45.44 47.10 48.37 49.39 48.66 48.54 49.63 48.69 47.59 49.13 49.07 48.04 47.52 48.16
59.09 59.00 58.90 59.04 59.13 59.53 60.15 60.83 61.33 61.46 61.42 61.58 61.13 60.40 59.54 56.17 47.53 53.63 61.93 63.40 62.82 57.03 55.51 53.74 52.66 49.58 48.22 46.96 50.03 46.63 47.45 47.63 48.76 49.28 48.26 47.96 49.46 48.63 49.38 49.05 47.72 47.48 47.10 46.57 46.43
59.32 59.12 58.98 58.98 59.13 59.40 60.06 60.70 61.31 61.34 61.29 61.27 60.59 60.03 56.23 52.50 52.42 58.80 60.67 62.44 57.49 55.13 53.50 52.18 49.97 49.35 46.30 47.69 48.36 47.77 47.80 47.94 48.97 48.28 48.37 47.84 48.41 48.43 48.39 46.94 46.66 45.95 45.79 45.38 45.17
59.12 58.84 58.73 58.95 59.08 59.36 59.83 60.47 61.03 61.01 60.92 60.59 60.09 59.14 53.74 50.05 57.26 57.51 55.29 54.57 55.13 54.36 52.63 52.55 50.78 50.97 48.37 47.48 46.91 47.35 46.91 47.38 47.78 47.34 47.24 46.48 46.86 47.00 46.49 46.55 45.51 45.67 44.97 44.41 43.57
59.20 58.86 58.68 58.81 59.18 59.27 59.63 60.31 60.63 60.49 59.56 59.13 58.69 56.76 52.34 53.17 58.42 57.58 54.85 53.57 54.52 53.76 51.93 52.50 52.95 50.80 49.95 46.74 47.51 46.36 45.21 47.24 47.52 45.98 46.04 46.94 43.52 44.84 46.48 45.89 44.88 43.73 43.57 42.63 42.33
59.05 58.70 58.51 58.63 58.98 59.08 59.35 59.94 59.47 58.69 58.64 59.03 58.42 54.29 52.03 52.39 59.79 55.83 55.19 53.24 53.60 53.64 53.22 53.17 53.37 50.76 49.03 47.91 46.14 44.64 44.31 43.37 45.51 45.20 44.96 45.77 44.29 46.45 45.57 45.57 45.13 43.85 43.51 42.63 41.26
58.30 58.09 58.15 58.30 58.46 58.53 59.14 59.08 59.00 57.68 58.87 58.71 54.93 51.91 50.36 55.53 54.32 54.65 54.66 52.23 51.86 52.12 52.12 51.56 52.01 48.35 47.79 45.39 43.49 43.08 42.41 41.80 43.48 45.02 44.59 44.50 44.77 45.41 45.54 45.73 45.26 44.97 43.79 42.39 41.70
57.85 57.63 57.79 58.13 58.35 58.37 58.94 59.54 58.48 56.39 56.57 55.43 53.34 49.99 49.36 47.89 50.56 51.28 52.44 52.20 50.77 50.84 50.23 49.87 48.50 46.05 45.03 44.08 40.12 41.92 40.47 40.56 42.00 43.69 43.51 43.72 44.36 45.15 44.93 45.12 46.29 45.05 42.76 41.86 40.77
57.75 57.58 57.74 57.99 58.36 58.89 59.63 57.87 53.34 51.18 52.30 51.30 50.86 49.87 47.49 48.75 50.51 49.70 51.10 50.13 49.72 48.85 45.19 44.98 44.09 41.55 44.89 45.52 44.63 43.02 41.71 41.96 42.46 42.96 42.44 44.02 44.14 46.60 46.14 44.64 44.63 44.13 42.42 41.30 39.37
57.72 57.77 57.97 58.19 58.62 59.07 59.19 54.84 52.91 52.18 48.79 52.25 50.98 48.84 48.35 49.62 45.20 47.77 50.70 47.97 46.73 43.83 43.83 42.77 41.17 46.38 43.82 43.12 42.12 40.87 41.02 41.52 42.36 41.57 41.81 42.69 41.72 45.31 45.74 44.99 45.51 44.69 42.15 40.62 39.17
57.36 56.95 57.60 58.10 58.33 58.38 56.75 55.67 53.28 52.55 49.52 49.82 50.68 50.14 48.54 48.05 46.46 46.04 48.69 46.19 44.00 41.25 42.30 42.74 43.06 43.29 42.27 40.26 39.54 40.33 40.12 41.00 40.20 40.19 41.28 40.27 41.16 43.71 44.33 41.08 40.36 41.75 42.30 40.46 40.03
57.23 57.06 57.36 57.87 55.81 56.84 54.42 58.35 55.64 53.05 44.54 45.12 46.17 49.80 46.94 48.34 44.99 46.68 48.83 46.54 42.66 42.08 41.43 42.06 42.49 40.65 39.95 40.00 41.48 38.73 41.89 40.64 39.17 38.17 36.84 40.40 37.13 42.39 42.89 40.54 38.74 38.52 39.55 39.25 38.75
57.14 57.18 57.44 58.05 56.64 53.85 55.54 58.36 55.49 52.31 32.86 45.16 43.93 48.13 46.56 47.39 45.01 43.01 46.82 45.85 41.70 40.47 41.80 42.16 38.91 38.87 39.43 40.99 41.27 40.94 40.47 39.86 39.12 38.35 36.94 37.81 36.40 41.22 38.85 39.37 38.88 38.32 38.79 38.85 39.18
56.85 56.91 57.14 56.80 56.09 56.00 52.61 52.47 52.45 41.38 32.62 40.19 42.06 40.85 43.09 42.22 40.89 42.54 43.55 45.97 44.85 41.05 40.83 42.60 42.15 42.01 42.45 39.49 41.26 39.86 38.92 38.16 37.77 37.21 31.96 37.84 37.53 39.18 40.81 41.45 39.99 39.38 38.17 37.97 37.70
56.66 56.67 56.31 57.56 53.34 53.38 51.58 50.13 40.90 35.47 43.43 37.89 38.74 40.33 41.31 37.77 38.17 40.32 39.60 39.44 39.98 37.12 37.86 38.92 40.15 40.87 40.84 38.01 38.70 39.46 38.79 33.54 31.15 30.42 31.03 33.78 33.86 40.01 43.06 40.18 40.60 39.27 38.09 37.73 37.47
56.69 56.72 56.12 57.38 56.20 52.28 51.21 45.38 35.43 41.42 41.75 39.79 38.18 39.36 39.22 38.73 37.82 37.08 37.69 38.17 40.86 39.55 37.60 36.51 35.18 38.91 40.75 41.96 39.06 37.76 40.16 35.99 28.74 28.82 33.00 30.71 30.94 38.33 37.79 37.37 37.53 39.12 39.39 37.72 36.96
56.53 55.93 55.60 57.08 53.85 52.89 47.47 38.53 38.80 42.21 45.66 38.45 37.53 36.65 37.43 37.57 38.69 36.97 37.01 39.32 41.76 40.25 38.70 35.74 36.13 38.87 38.29 39.75 42.61 36.42 34.19 39.85 31.88 25.83 31.23 36.00 36.75 40.31 35.90 35.99 35.98 36.69 37.18 36.43 36.66
54.55 53.73 53.50 57.73 54.65 51.62 44.04 40.09 42.34 46.31 45.47 41.45 38.78 40.35 36.44 36.10 36.52 36.74 36.05 40.54 39.27 41.12 42.98 40.73 35.76 36.81 37.03 40.37 39.57 38.73 40.58 33.16 34.08 28.93 27.65 32.56 33.81 38.13 35.43 37.03 35.67 34.79 35.88 36.55 36.83
54.11 49.23 54.42 57.78 55.11 47.85 39.07 40.77 44.12 46.60 44.25 41.59 41.00 40.14 39.96 36.60 38.64 36.11 37.92 39.18 42.19 39.20 42.40 41.07 39.04 34.59 36.71 36.12 37.14 35.26 35.30 35.40 36.48 34.71 30.98 30.59 34.84 40.85 41.61 40.23 37.58 38.18 37.54 37.72 37.40
52.56 45.38 55.38 56.42 45.09 45.66 41.19 43.72 45.31 46.18 45.68 45.22 44.07 44.32 39.78 38.67 37.39 37.15 37.13 41.92 41.71 40.21 36.82 41.09 37.98 33.45 34.57 37.01 37.11 40.27 38.48 37.28 34.50 29.92 31.76 30.67 34.87 36.98 38.55 40.65 40.53 40.28 38.34 39.16 39.02
48.88 49.08 55.37 53.93 40.75 41.08 43.97 43.89 45.51 44.20 45.26 44.90 42.54 43.64 43.51 40.03 37.31 38.65 39.04 42.21 41.53 40.88 39.38 40.48 36.71 33.22 33.24 34.70 35.16 34.34 35.57 37.86 39.34 34.79 33.46 31.80 34.20 36.04 36.28 37.25 38.64 39.78 38.80 38.22 38.38
48.20 42.69 47.56 50.17 48.60 43.80 41.61 41.43 41.72 46.14 44.90 46.12 45.07 45.79 42.29 40.29 41.08 39.77 38.56 40.08 41.11 42.00 42.63 43.36 38.24 36.35 33.84 37.08 38.41 33.31 34.34 35.71 36.75 33.73 34.46 33.86 36.38 35.03 36.81 36.98 38.38 38.17 39.28 38.81 37.52
44.48 41.34 42.95 41.17 44.39 44.86 43.99 43.15 41.22 40.81 44.65 45.80 42.66 43.73 42.94 39.23 40.18 39.32 41.30 38.21 38.79 40.55 40.70 40.97 35.11 37.88 39.02 38.23 37.62 36.65 36.09 34.37 34.47 37.28 34.48 37.42 35.74 37.97 38.77 38.32 40.47 40.82 39.11 37.89 37.11
38.21 38.06 40.56 38.57 40.95 44.61 43.95 41.61 41.01 42.74 42.50 40.83 41.64 43.44 43.26 40.45 42.10 40.46 42.54 41.57 38.79 37.78 37.72 39.49 35.71 37.62 33.49 36.04 35.15 33.28 36.10 35.34 35.76 37.40 37.46 37.67 36.91 42.63 41.83 41.19 38.39 37.66 36.98 36.30 36.94
40.43 41.20 40.34 38.92 37.61 37.89 42.25 42.78 41.81 44.06 44.63 45.75 44.17 42.95 41.37 43.36 46.38 46.06 44.76 44.64 42.97 38.51 36.06 36.32 36.14 32.52 31.79 33.11 30.53 28.80 32.75 34.39 35.38 37.88 37.43 33.03 38.58 37.62 36.57 36.43 38.20 38.20 37.23 36.99 37.51

GFSSW_sfc_wetblb_033.txt.gz
Wetbulb
59.00 58.96 59.35 59.49 59.72 60.22 60.78 60.99 61.24 61.72 61.91 62.07 62.18 61.34 60.79 60.52 60.49 59.61 53.41 58.32 60.59 63.23 60.49 57.19 57.00 56.64 57.10 54.72 54.48 53.41 47.43 45.48 46.37 46.87 48.41 50.73 49.31 51.51 52.53 51.10 51.46 51.64 51.68 50.99 52.18
58.73 58.60 58.95 59.26 59.34 59.90 60.50 60.99 61.18 61.53 61.73 61.83 61.87 61.13 60.51 60.17 58.94 54.91 59.75 62.81 63.78 63.95 56.37 54.58 52.92 54.13 53.24 52.98 53.99 50.79 47.35 46.10 49.65 50.00 49.33 50.46 50.28 50.66 49.79 49.86 50.07 50.12 50.99 51.49 52.39
58.67 58.59 58.73 58.92 59.08 59.59 60.21 60.81 61.17 61.43 61.61 61.76 61.77 61.25 60.59 59.66 55.64 53.42 61.38 62.96 64.30 60.42 56.69 56.24 55.01 52.89 50.53 52.48 51.50 50.16 46.78 47.56 48.87 50.11 51.06 50.19 49.68 51.34 49.73 48.78 50.80 50.50 50.69 50.48 51.09
58.93 58.89 58.88 58.92 59.04 59.39 60.04 60.63 61.15 61.40 61.45 61.62 61.71 60.73 59.72 58.80 48.11 55.98 61.81 63.30 63.17 58.56 56.70 55.08 53.18 50.23 49.09 48.37 51.30 47.68 48.60 48.91 50.10 50.58 49.88 49.44 51.25 49.76 50.63 50.83 51.33 51.17 51.17 50.38 49.79
59.40 59.13 58.84 58.84 59.04 59.30 59.90 60.47 61.04 61.25 61.30 61.29 61.23 60.37 58.94 54.36 54.41 59.89 60.85 62.60 58.77 56.65 54.97 52.79 50.32 49.99 47.70 48.68 49.73 48.59 49.05 49.73 50.79 50.04 50.11 50.36 49.58 49.79 50.17 50.38 49.97 49.19 49.34 48.85 48.58
59.22 58.92 58.80 58.74 58.97 59.27 59.68 60.18 60.89 60.98 60.42 59.99 60.18 58.89 56.21 50.96 58.53 58.47 56.86 56.91 56.71 55.65 53.84 53.35 51.06 51.95 49.49 48.69 48.23 49.53 49.12 49.24 49.81 49.78 49.61 47.69 48.98 48.66 50.52 50.24 48.81 48.70 48.39 47.84 47.12
59.23 58.87 58.69 58.75 58.94 59.15 59.34 59.85 60.32 60.34 59.26 58.99 58.90 58.23 54.86 54.26 59.60 58.63 55.87 55.07 55.94 55.22 52.78 54.10 54.18 51.54 51.17 48.18 49.85 48.84 46.20 48.68 49.13 48.95 47.83 48.65 46.11 45.47 50.77 48.93 48.07 48.14 47.92 47.02 46.15
58.74 58.68 58.51 58.59 58.89 59.00 59.04 59.45 58.75 59.57 58.91 59.54 59.49 56.73 53.05 55.14 60.97 57.02 56.59 54.58 55.53 55.56 54.81 54.95 55.04 52.47 50.93 50.37 48.30 46.32 46.65 44.45 48.22 47.40 47.14 47.39 45.27 49.91 48.52 47.87 47.28 47.77 47.76 46.61 44.63
57.96 58.14 58.28 58.33 58.41 58.60 58.73 58.77 58.86 58.64 58.30 59.22 57.18 54.75 51.91 56.64 54.86 57.63 56.93 53.56 53.86 54.30 54.02 53.89 54.20 50.99 49.37 46.44 45.40 46.20 43.16 45.02 46.19 47.95 46.87 46.00 46.53 47.49 48.14 48.11 47.91 47.95 47.73 46.56 45.12
57.35 57.73 57.90 58.11 58.25 58.39 58.60 59.13 59.66 57.36 57.47 56.66 55.38 51.55 52.44 50.08 53.20 54.72 55.43 54.91 52.39 52.53 51.24 51.17 50.49 47.38 47.36 46.00 40.87 43.95 43.65 45.15 44.50 46.23 45.56 45.58 45.38 47.47 47.21 47.49 48.35 48.82 47.83 46.37 45.34
57.20 57.63 57.70 57.87 58.22 58.66 58.71 59.40 54.61 53.52 54.32 52.37 52.97 52.47 50.17 50.39 52.89 52.79 53.80 52.27 52.40 50.90 46.67 49.05 45.47 43.19 46.39 47.44 47.46 46.12 44.54 44.05 47.03 46.03 43.95 45.49 46.10 47.94 48.07 47.00 47.51 48.78 47.83 46.32 44.57
57.22 57.68 57.75 57.98 58.52 58.69 59.30 54.63 54.71 53.30 49.63 54.79 54.24 53.05 50.90 51.75 47.10 50.39 52.99 49.26 48.37 45.50 48.29 44.54 42.21 47.93 49.00 47.56 46.12 44.40 43.07 43.54 46.74 45.23 43.18 44.51 44.56 47.42 48.74 47.64 48.17 48.72 48.13 46.46 43.76
57.11 57.35 57.53 57.96 58.29 57.92 56.40 55.93 56.17 55.04 49.74 51.31 53.60 52.43 50.35 49.86 48.75 48.30 50.62 49.74 46.73 45.63 44.87 44.20 45.97 45.95 45.32 43.99 42.55 43.46 42.52 43.43 43.57 43.20 43.52 43.08 41.97 44.53 47.85 49.18 49.12 47.70 49.24 47.17 44.11
57.16 57.04 56.77 57.57 55.71 56.71 54.09 58.29 59.29 55.83 44.20 45.91 47.85 51.90 49.93 50.75 47.19 50.69 51.68 48.70 44.82 44.32 45.57 45.07 47.81 43.67 43.29 43.14 44.24 41.31 46.31 43.80 42.64 40.73 38.38 43.72 36.68 44.87 47.44 45.10 44.60 44.68 45.66 44.90 44.05
56.99 56.85 56.56 57.78 55.84 53.22 55.41 58.95 59.70 55.19 32.25 47.65 46.93 51.04 50.00 48.81 47.18 44.45 49.87 47.00 44.51 43.40 44.08 43.66 41.65 41.34 41.41 43.50 45.28 42.96 44.05 43.26 42.80 40.50 40.31 41.07 36.85 42.98 47.10 45.03 44.11 43.75 43.90 44.13 43.60
56.71 56.57 56.49 56.56 57.43 57.15 57.77 57.84 56.50 41.85 32.20 42.10 44.54 43.92 44.26 47.11 43.99 44.25 44.79 47.75 47.88 44.16 43.04 44.66 44.38 44.34 44.59 42.08 44.23 44.04 42.14 40.85 40.78 40.33 33.40 38.98 38.96 40.84 43.14 42.50 45.72 43.85 43.26 43.10 42.07
56.57 56.44 55.77 57.91 52.20 55.57 56.14 53.37 40.35 34.76 46.06 40.76 41.00 42.78 44.26 42.08 41.53 42.83 40.58 40.16 40.99 37.59 39.19 42.63 42.33 44.04 43.91 40.77 41.24 42.43 40.32 35.68 33.08 31.77 32.20 37.59 37.83 41.63 45.62 43.06 44.77 42.93 42.24 42.04 41.66
56.56 56.44 55.52 56.85 58.14 53.86 54.26 46.65 33.57 39.84 41.80 44.65 43.10 42.46 41.10 41.81 41.24 40.41 39.95 39.31 42.86 43.88 42.98 39.08 37.54 42.90 43.35 44.03 41.79 39.46 41.26 36.78 30.07 31.86 35.20 33.21 32.38 39.84 44.90 43.31 42.02 45.22 42.96 41.73 40.22
56.33 55.34 54.77 56.02 57.72 54.23 49.11 36.31 36.72 40.33 44.82 42.89 41.56 39.68 39.54 40.46 41.28 38.92 39.82 41.94 44.28 44.39 40.10 40.07 40.13 43.76 43.17 44.42 45.57 39.17 36.99 43.26 35.34 30.44 32.10 37.05 39.26 43.78 39.61 38.64 39.71 41.42 41.08 39.49 39.08
54.27 53.02 52.54 56.85 56.77 52.00 44.31 37.86 40.53 46.16 47.17 47.39 39.20 42.49 39.03 39.04 37.91 38.41 39.90 44.33 43.94 45.19 47.02 44.61 38.76 40.59 40.34 41.54 42.13 41.22 43.47 33.95 35.43 30.72 29.55 36.20 37.94 38.83 36.98 38.68 38.79 38.51 38.95 39.16 39.51
53.47 48.69 54.45 57.10 54.08 47.41 38.63 38.34 42.79 48.09 48.78 45.62 43.25 42.38 42.88 41.33 40.07 37.73 41.83 44.91 45.67 43.72 44.92 45.17 41.64 36.54 38.16 37.47 38.56 36.89 36.90 38.22 39.03 37.34 33.20 31.76 37.05 45.45 44.56 43.24 40.20 39.35 40.22 40.25 39.95
51.11 45.04 55.20 56.41 44.30 45.08 40.09 43.40 45.03 44.91 48.65 46.31 46.62 45.15 43.25 43.82 39.54 39.20 40.36 44.74 45.75 43.85 39.06 44.23 41.76 38.20 37.87 40.93 42.89 42.46 40.09 39.44 34.69 31.24 33.96 34.90 36.69 41.41 46.30 46.15 43.30 41.67 41.37 41.99 41.24
47.07 48.11 55.35 53.77 40.34 40.72 43.60 43.30 44.35 44.15 45.12 44.86 43.92 45.79 47.01 43.31 37.88 42.11 43.69 47.74 45.64 43.38 42.01 42.56 38.05 34.95 36.36 36.99 37.13 35.75 38.81 39.44 39.25 36.41 34.25 32.82 36.56 40.52 40.82 43.01 43.41 42.82 41.50 41.57 41.01
47.16 42.39 47.86 50.19 48.05 43.64 40.92 41.21 40.65 45.95 44.99 46.53 45.53 46.37 44.38 43.56 44.05 42.77 43.21 43.78 44.90 44.34 44.24 44.01 39.94 37.83 35.16 38.89 40.16 34.91 36.20 38.08 37.98 33.40 34.79 35.96 39.12 37.22 38.86 39.70 41.11 42.50 41.93 41.43 40.84
45.92 41.39 42.63 41.54 43.77 43.97 43.17 43.27 40.72 40.10 45.40 45.72 43.28 44.26 43.41 39.63 41.55 40.17 43.93 41.05 40.87 42.19 42.29 41.72 36.03 39.69 40.09 41.45 41.87 39.57 37.51 36.66 35.05 37.16 35.02 38.63 39.12 42.96 40.84 41.10 42.34 42.76 42.71 41.20 39.85
38.37 38.75 41.24 39.51 40.99 43.36 42.45 40.70 40.84 43.11 43.08 41.23 41.12 44.16 44.37 41.57 43.13 40.80 42.53 42.37 40.17 39.35 38.37 39.78 34.95 37.79 35.20 39.61 39.78 37.35 39.30 39.05 37.03 37.64 38.22 39.49 39.94 46.90 44.04 43.88 43.19 42.65 41.81 40.61 40.29
41.27 44.14 41.04 36.51 37.67 37.60 40.72 42.02 41.95 44.13 44.62 45.92 44.31 43.13 42.01 44.16 47.48 48.19 47.55 45.35 45.40 40.83 36.00 36.70 35.25 33.74 31.73 36.77 36.03 29.78 35.09 37.63 39.03 39.39 39.58 35.86 40.78 41.32 42.14 40.82 41.30 41.75 40.40 39.94 40.50

GFSSW_sfc_wetblb_036.txt.gz
Wetbulb
58.98 59.09 59.52 59.73 59.86 60.33 60.88 61.18 61.46 61.79 62.02 62.13 62.17 62.20 61.44 61.12 60.76 59.90 55.39 58.12 60.60 63.04 60.28 56.60 56.12 56.11 55.80 53.96 53.55 50.85 42.92 41.05 41.78 42.96 45.00 47.79 45.81 47.21 47.75 46.47 47.63 48.42 46.28 46.93 49.33
58.81 58.64 59.08 59.40 59.55 60.02 60.57 61.03 61.30 61.66 61.93 62.05 62.07 62.10 61.25 60.49 58.65 56.02 59.21 63.27 63.64 63.86 56.85 54.09 52.51 53.53 50.72 51.94 51.40 46.57 43.12 43.99 46.69 46.24 45.38 47.34 46.16 47.42 45.05 46.15 44.80 45.55 47.40 48.67 48.90
58.97 58.68 58.77 59.16 59.41 59.79 60.28 60.85 61.30 61.58 61.85 61.97 62.01 61.82 60.78 59.00 55.98 54.12 61.31 62.84 64.12 60.77 56.74 55.75 54.27 52.42 49.07 49.89 48.59 47.05 42.82 44.96 46.64 48.77 48.85 47.68 45.36 46.91 44.41 43.95 45.99 46.28 46.38 47.64 47.89
59.27 59.07 58.99 59.04 59.29 59.54 60.14 60.68 61.25 61.63 61.53 61.87 61.50 61.11 59.95 58.67 47.75 57.38 62.42 63.33 63.34 57.85 56.32 55.19 52.53 48.76 47.11 46.26 49.58 44.17 46.29 46.94 49.12 48.83 47.80 46.26 47.78 45.35 46.17 44.75 48.09 47.60 47.82 47.41 46.58
59.61 59.41 59.25 58.96 59.07 59.42 59.89 60.41 61.09 61.40 61.45 60.73 60.79 60.31 58.67 54.21 54.30 59.22 60.62 61.88 59.49 56.49 54.53 52.93 49.26 48.69 45.23 46.86 47.97 45.32 46.55 47.99 48.99 47.57 46.46 48.45 45.71 45.73 45.04 46.52 47.08 47.43 47.89 45.92 45.37
59.34 59.08 58.97 58.98 58.95 59.35 59.65 60.08 60.73 60.04 60.35 60.12 60.07 58.72 56.83 49.95 58.56 58.43 56.54 57.30 56.99 54.95 53.00 52.23 50.06 50.41 47.60 46.63 45.30 47.23 47.49 47.14 48.06 47.63 47.15 45.32 44.91 45.24 46.36 46.36 45.22 46.31 45.11 44.32 44.43
59.02 58.96 58.74 58.81 59.01 59.24 59.40 59.59 59.17 58.86 59.63 59.99 60.53 57.70 54.60 53.44 59.54 57.00 55.90 55.00 55.32 54.65 53.03 53.35 52.78 49.73 49.35 46.46 48.50 47.02 42.95 45.51 46.05 46.38 45.05 45.70 42.57 43.64 46.76 46.41 44.94 44.71 43.69 43.74 43.54
58.64 58.53 58.50 58.50 58.84 59.16 59.28 59.38 58.48 58.91 59.47 59.86 60.26 56.77 51.43 56.67 59.24 56.95 56.09 54.28 55.17 55.09 54.31 54.00 53.53 51.73 49.05 48.30 46.50 43.00 42.12 38.67 44.91 46.00 44.09 43.17 39.38 46.02 46.17 44.75 43.95 43.88 42.41 42.37 42.73
57.82 57.87 58.17 58.33 58.30 58.48 58.84 58.95 58.52 59.79 58.64 58.99 56.87 54.88 50.24 57.09 54.65 57.01 56.20 53.24 53.32 53.60 53.19 53.59 53.07 48.64 47.08 42.01 40.15 41.57 36.67 39.69 41.66 45.72 43.75 41.90 40.55 43.71 45.21 44.59 43.21 42.80 42.93 42.87 41.49
57.51 57.39 57.87 58.07 58.05 58.28 58.53 59.05 59.61 59.26 57.79 57.22 55.57 50.28 51.27 49.99 53.34 55.41 55.04 54.41 51.99 51.13 50.25 49.64 47.35 43.28 42.70 40.52 34.85 38.48 37.50 41.00 39.58 42.70 42.66 40.49 40.03 43.84 44.34 44.22 43.45 43.19 42.91 42.24 41.60
57.39 57.25 57.67 57.74 57.94 58.56 57.90 57.01 54.00 52.16 54.02 50.55 51.43 51.48 50.32 50.47 53.61 52.45 53.72 51.81 51.52 48.77 43.35 46.26 41.01 38.75 42.00 43.78 44.17 42.60 40.15 39.42 41.94 42.83 41.02 41.19 41.65 44.32 43.87 43.01 42.54 43.25 42.94 42.12 41.68
57.43 57.36 57.59 57.73 58.07 58.51 57.60 53.44 52.69 52.30 47.55 53.65 53.19 53.12 51.65 51.19 46.83 50.30 52.69 47.59 46.73 42.52 45.33 41.35 38.47 44.95 46.81 45.68 43.49 42.22 39.36 38.80 42.57 42.56 39.92 40.18 40.43 43.61 44.81 43.41 44.15 44.33 43.49 42.46 39.94
57.32 57.09 57.38 57.61 57.89 57.21 54.99 53.98 55.80 54.63 47.75 48.66 53.31 52.12 49.81 49.47 47.47 47.23 49.33 47.73 44.54 42.85 43.42 40.93 43.56 46.31 45.04 41.89 41.33 40.11 38.73 38.63 39.49 40.36 39.07 36.84 35.91 40.46 44.18 46.40 45.25 45.19 44.51 43.98 40.02
57.54 56.92 57.00 57.25 55.13 54.97 52.59 57.13 58.21 55.74 41.19 42.76 48.45 51.10 48.86 49.46 45.43 50.61 50.42 47.66 44.63 42.09 43.47 42.30 46.11 42.88 41.89 41.38 41.90 37.69 42.31 42.19 40.36 36.36 31.91 37.87 29.58 39.02 42.89 43.47 44.96 43.06 41.46 40.97 39.79
57.31 57.05 56.94 57.47 54.07 51.93 54.34 57.53 58.27 54.39 27.02 45.36 46.29 52.00 49.53 47.16 45.56 44.51 48.43 45.69 42.06 41.51 42.91 40.30 40.19 39.62 39.77 41.19 43.41 39.82 41.99 39.82 38.65 36.15 34.37 34.35 32.23 36.65 42.66 41.65 42.55 40.05 40.68 40.22 39.41
57.03 56.77 56.74 55.78 55.40 55.64 56.92 57.36 55.58 40.05 28.76 41.67 43.72 43.43 43.01 45.47 43.38 43.43 43.36 45.46 45.28 42.27 40.83 40.31 42.09 41.53 41.37 40.54 41.52 42.37 39.78 38.10 36.66 35.50 28.22 35.27 34.99 34.23 40.17 42.43 42.38 41.31 40.90 40.25 39.01
56.75 56.48 55.67 56.00 50.36 57.29 57.16 53.67 38.56 31.55 42.26 38.89 39.93 42.98 42.71 41.67 41.12 41.32 39.26 37.97 37.90 34.40 34.48 38.77 39.40 41.13 42.28 37.81 39.36 39.69 36.71 29.47 27.02 25.49 26.55 33.78 33.36 37.25 40.23 39.93 41.61 41.84 40.59 40.02 38.49
56.58 56.37 55.30 55.74 55.93 56.40 54.40 42.59 29.23 35.35 37.04 44.04 43.01 41.96 39.72 41.85 40.81 39.59 37.81 35.61 39.93 39.88 37.39 34.71 33.18 39.88 41.03 41.31 37.37 36.33 37.75 31.09 25.26 25.93 27.69 29.15 27.72 35.10 39.08 39.30 39.96 42.17 41.31 39.38 37.63
56.35 55.37 54.65 55.16 56.70 54.93 48.36 32.75 32.54 36.77 41.63 40.67 41.43 38.13 38.49 40.75 40.01 38.15 37.92 38.12 40.75 40.74 36.99 37.65 37.08 41.80 41.37 42.02 42.06 36.16 33.51 40.74 31.51 23.68 24.42 31.16 33.85 39.06 36.85 36.07 36.80 38.56 38.74 37.69 37.50
53.91 52.77 52.23 56.18 56.93 52.34 44.19 35.04 37.18 42.69 44.27 42.83 37.19 40.11 36.83 38.22 36.62 36.42 36.78 41.41 41.33 42.98 44.24 42.02 35.36 39.44 37.33 39.89 40.32 38.03 40.06 30.67 30.87 20.65 21.58 29.64 32.42 33.91 33.44 35.54 35.63 37.27 37.48 37.74 37.78
52.41 48.23 53.60 56.42 55.47 47.21 35.61 35.94 39.90 45.09 45.16 41.30 40.18 39.20 39.97 39.21 37.60 35.47 38.32 41.25 44.11 43.04 43.70 41.89 38.29 33.06 36.21 34.23 35.63 34.74 33.22 35.38 35.70 32.00 26.11 24.41 30.59 38.74 39.59 39.07 36.19 37.57 38.49 37.80 37.27
50.23 43.83 54.36 55.54 44.93 44.24 40.00 41.65 43.19 43.48 47.09 45.01 44.29 43.16 42.21 41.64 38.22 37.60 37.06 41.71 45.79 44.56 39.41 42.23 39.66 29.75 32.53 36.89 38.26 37.41 36.29 36.42 30.02 28.57 31.69 28.36 33.31 38.57 39.96 40.80 39.31 38.21 38.99 38.51 37.87
45.60 46.20 54.55 53.22 40.29 40.25 42.54 41.47 43.23 42.60 42.62 43.85 43.37 44.24 44.82 42.51 38.80 39.66 40.50 44.41 45.40 43.48 40.49 41.92 36.33 31.56 31.85 33.21 34.61 33.90 36.27 38.62 38.44 33.12 31.87 27.38 31.95 37.36 37.65 38.55 39.26 37.88 38.04 38.53 37.95
46.34 40.77 45.70 49.54 47.85 43.44 39.64 39.52 40.05 44.99 43.63 45.08 44.21 45.34 42.64 41.48 43.83 40.01 40.30 42.82 43.97 43.99 44.20 44.47 38.40 36.01 32.97 34.74 36.97 31.06 33.72 36.99 36.44 30.83 30.68 33.28 35.89 32.34 35.53 36.16 38.02 38.42 39.06 38.88 38.40
45.80 41.61 43.10 39.66 42.60 43.46 42.94 41.14 39.20 39.35 43.60 44.90 42.51 42.83 41.90 38.61 39.99 40.22 41.20 39.18 40.15 42.50 42.31 41.69 34.60 36.98 38.92 40.00 38.12 34.32 33.88 35.14 33.81 35.23 32.17 35.52 35.81 40.02 38.57 36.89 38.72 39.31 38.82 38.26 37.67
39.43 38.62 41.21 39.86 40.74 40.15 43.11 40.50 39.94 41.19 42.14 40.01 40.83 42.80 43.36 40.33 41.02 38.79 42.24 40.17 37.29 38.02 37.71 39.33 34.17 36.40 34.49 37.74 36.84 35.66 38.44 35.63 35.37 35.91 36.43 37.24 36.64 41.26 42.28 40.58 37.81 39.36 38.73 37.79 37.59
42.25 42.74 41.16 38.91 38.97 37.96 35.61 38.68 41.32 43.34 44.14 44.95 43.23 42.44 41.81 43.40 46.03 46.56 45.70 44.51 42.94 37.70 35.40 35.76 34.53 32.72 31.63 34.61 34.06 31.77 35.56 37.64 37.74 37.39 37.27 32.80 38.84 40.97 41.09 38.57 38.63 38.78 39.00 38.26 38.18

GFSSW_sfc_wetblb_039.txt.gz
Wetbulb
59.35 59.43 59.83 59.97 60.05 60.51 60.95 61.34 61.56 61.83 62.10 62.15 62.19 62.29 61.98 61.42 60.84 58.57 53.02 57.00 58.94 62.59 60.52 53.44 52.23 51.22 51.15 48.93 48.27 44.89 38.07 35.75 38.21 39.73 41.49 43.83 42.94 45.12 45.79 45.09 45.13 45.46 43.82 44.86 48.43
59.18 59.04 59.41 59.72 59.85 60.17 60.64 61.07 61.29 61.63 61.86 62.06 62.09 62.12 61.79 60.86 56.97 53.70 59.50 62.57 63.60 62.72 53.91 50.43 48.36 48.63 46.18 46.98 46.96 42.06 37.31 39.03 41.98 41.96 41.86 44.60 43.39 45.11 43.15 42.90 42.02 42.24 44.61 46.38 47.08
59.20 58.99 59.06 59.37 59.63 59.92 60.38 60.77 61.22 61.50 61.73 61.91 61.66 61.38 61.02 59.14 52.76 51.71 61.64 63.11 63.36 59.80 54.45 52.36 50.85 48.24 43.92 44.81 43.46 42.35 38.39 41.40 43.71 45.74 45.74 45.26 43.76 44.94 43.29 40.75 43.24 43.63 44.19 45.62 45.17
59.44 59.11 59.11 59.20 59.34 59.71 60.04 60.69 61.03 61.39 61.46 61.20 60.85 60.52 59.60 55.91 42.79 54.92 61.68 62.80 62.69 55.83 53.54 51.22 48.42 43.57 41.84 41.98 45.76 39.30 42.96 44.20 46.82 46.66 45.56 43.60 45.13 43.23 43.02 42.90 44.97 44.84 45.29 44.53 44.01
59.38 59.14 58.98 58.92 58.96 59.37 59.85 60.22 60.85 60.40 60.32 60.45 60.40 59.93 55.32 49.57 50.94 57.23 60.04 60.53 57.19 53.29 51.02 49.32 45.42 43.93 40.51 42.95 44.26 41.43 43.04 45.49 46.27 45.25 44.05 46.11 43.37 43.46 42.01 42.93 44.95 45.67 45.45 43.56 42.97
58.10 58.87 58.68 58.68 58.68 59.08 59.61 59.85 60.17 58.78 59.21 60.16 60.61 59.78 52.34 44.86 56.14 56.62 55.17 54.95 54.15 51.71 49.43 49.24 46.74 46.62 43.40 42.98 41.92 43.79 44.16 44.38 45.79 45.48 44.70 43.47 42.11 42.78 43.04 42.85 43.46 44.16 42.39 42.07 43.05
58.34 58.23 58.51 58.52 58.64 58.90 59.27 59.46 59.37 58.52 59.06 59.99 60.62 57.03 50.43 49.54 55.40 53.49 53.70 52.11 52.38 51.41 49.50 50.20 49.55 46.29 45.39 42.90 45.50 44.14 39.79 42.13 43.44 44.25 43.14 43.91 40.68 41.83 43.44 42.94 42.40 41.85 40.62 41.20 41.97
58.01 57.73 57.84 58.26 58.43 58.72 59.04 59.27 59.38 59.20 59.81 59.89 60.00 53.53 46.73 54.29 54.27 54.41 52.93 51.09 51.79 51.80 51.41 50.77 50.34 48.08 45.60 45.11 43.40 39.66 38.41 35.49 42.00 43.51 42.63 41.81 37.11 43.95 43.26 42.13 41.04 40.50 39.00 40.03 41.08
57.56 57.50 57.18 57.85 58.04 58.12 58.54 58.79 58.61 59.22 60.30 60.17 53.05 50.10 45.99 55.64 53.00 54.27 52.21 50.22 50.57 50.60 49.85 52.22 49.54 44.80 43.39 38.55 35.95 36.38 32.74 35.29 39.78 42.98 41.71 39.86 37.70 41.92 43.01 42.52 40.55 39.43 39.03 39.57 39.24
57.47 57.12 57.29 57.44 57.82 57.85 58.25 58.87 58.45 58.56 58.16 57.02 54.50 44.96 48.13 47.59 51.43 52.73 51.39 51.59 49.05 48.08 46.99 46.18 43.71 39.19 39.09 35.98 31.20 34.22 33.72 37.32 36.67 40.93 39.85 37.49 37.87 41.20 42.71 42.03 41.05 39.71 39.02 39.00 38.71
57.56 57.20 57.12 57.29 57.64 58.07 56.81 54.43 50.30 48.07 50.68 45.04 46.83 46.89 47.31 48.67 51.48 49.82 51.28 49.73 48.68 45.33 39.65 41.93 37.49 35.45 38.44 39.42 39.72 37.93 36.15 35.54 38.24 41.36 39.15 38.31 38.51 41.07 42.44 40.63 39.54 39.28 39.29 39.68 39.27
57.65 57.52 57.44 57.33 57.73 57.99 55.07 50.73 49.81 49.35 44.08 51.44 50.80 50.53 49.24 49.26 44.94 48.46 50.47 45.18 43.97 39.66 41.26 38.54 35.46 41.16 42.75 41.75 40.62 38.86 36.55 35.95 39.13 40.49 38.88 37.99 38.02 40.77 41.74 41.07 42.23 42.07 41.29 40.89 37.10
57.70 57.30 57.32 57.35 57.44 56.16 52.82 52.35 53.43 51.05 43.85 46.87 50.65 49.93 47.35 48.12 45.33 45.62 47.75 45.09 41.78 39.87 39.89 36.97 40.98 44.07 42.39 40.23 39.39 38.06 36.41 35.61 37.38 37.99 37.37 35.32 33.95 37.63 41.19 42.98 42.03 43.21 43.56 42.47 38.82
57.93 57.35 57.01 57.19 53.85 53.38 51.17 55.35 55.68 52.98 34.56 38.83 45.12 49.19 46.74 47.52 43.20 49.04 48.94 45.95 42.27 39.90 40.31 39.38 43.82 41.84 40.19 39.48 40.23 35.35 39.82 39.96 38.30 34.85 30.61 35.25 28.68 35.77 40.24 40.90 40.65 42.74 40.57 41.46 38.28
57.82 57.40 57.23 56.92 52.69 50.82 52.74 55.42 55.84 50.84 22.01 39.88 44.98 50.16 46.62 45.87 44.03 43.29 46.18 44.16 39.96 40.39 41.28 38.19 39.61 38.98 38.60 39.79 41.27 37.70 39.96 37.90 36.94 33.50 31.76 31.87 29.76 34.25 39.83 39.50 42.94 42.40 41.55 39.46 37.91
57.10 57.17 57.03 55.92 54.95 54.28 55.30 56.44 54.13 37.79 25.99 38.76 42.71 41.79 41.49 43.30 41.33 42.29 42.90 44.49 44.04 40.54 39.32 38.85 40.27 40.48 40.32 38.67 40.22 40.39 38.32 37.25 35.25 33.34 26.40 32.63 32.72 31.40 37.75 40.77 42.26 38.92 38.02 37.81 36.92
56.30 56.80 56.03 56.52 50.95 56.03 56.91 52.64 34.95 29.91 37.89 36.38 37.82 40.63 40.37 39.75 38.85 39.51 38.04 37.24 36.84 33.69 32.64 36.42 37.46 39.05 40.62 37.13 39.01 38.41 35.48 27.67 25.98 24.39 27.02 32.37 30.77 36.45 39.83 40.62 41.41 41.61 38.57 37.22 36.92
55.39 56.48 55.67 56.10 56.02 56.97 54.28 39.09 28.13 33.20 34.59 41.26 40.15 39.56 37.39 39.79 38.09 38.02 36.19 34.73 38.52 37.01 34.07 33.49 30.15 37.86 40.13 38.85 36.28 34.77 35.61 29.23 23.54 23.82 26.12 28.96 27.05 34.31 40.15 40.20 39.00 41.52 40.68 37.25 35.66
54.23 55.17 54.91 55.64 55.95 56.19 44.95 30.82 33.31 35.16 39.20 37.98 38.72 35.61 35.73 38.31 37.49 36.01 34.45 34.16 37.87 39.05 35.68 33.24 33.21 38.67 39.20 41.35 41.58 34.29 32.80 38.58 30.93 19.61 22.29 29.37 32.68 37.34 36.94 36.84 35.64 37.02 37.60 36.82 36.26
51.34 52.63 52.43 56.41 56.21 52.77 43.17 34.19 35.30 42.31 41.69 40.82 35.79 37.65 33.70 35.74 35.21 34.53 34.54 38.36 39.39 41.43 41.75 39.83 34.02 36.72 35.82 40.20 38.08 37.18 38.87 31.62 29.98 20.03 19.13 26.81 29.06 33.91 34.15 36.42 35.30 35.70 36.28 36.52 36.38
49.47 46.88 53.18 56.15 54.83 47.06 37.88 35.65 38.10 42.29 43.79 40.02 37.57 36.77 36.75 35.51 35.79 33.46 35.20 37.68 41.25 39.69 42.61 40.58 38.23 31.70 35.09 33.55 34.70 34.47 32.89 35.23 35.87 30.32 24.89 22.73 29.71 37.03 39.63 39.70 36.08 37.03 37.41 37.12 36.13
46.13 41.75 53.71 55.18 44.11 44.08 40.10 40.58 42.15 40.50 43.56 42.60 42.37 41.42 38.38 38.96 36.64 34.06 34.81 38.91 42.51 41.42 37.16 41.51 38.11 27.07 31.32 35.39 37.18 37.72 35.64 34.19 29.91 28.50 28.09 27.31 33.14 37.17 38.04 39.41 38.09 37.90 38.29 37.99 37.93
42.74 44.31 53.70 52.85 39.46 40.23 42.44 40.68 42.05 40.77 41.53 41.87 41.34 42.73 43.21 40.41 37.01 38.22 38.21 41.84 42.55 41.41 38.51 40.91 36.20 29.08 30.09 32.53 33.67 33.18 35.43 38.41 37.34 31.17 29.35 26.11 32.80 36.36 36.11 37.58 37.52 35.98 36.39 36.97 36.45
42.19 38.37 44.39 48.26 47.37 42.56 40.61 39.34 38.81 42.30 42.40 43.75 42.50 43.99 41.87 40.50 42.49 38.66 37.61 40.97 42.47 42.97 43.80 44.44 37.65 36.11 33.08 33.46 34.45 31.50 34.13 36.80 37.21 29.61 30.88 33.44 36.15 34.86 34.65 36.69 36.59 36.03 37.18 36.29 36.34
42.18 38.45 42.24 38.23 38.83 41.42 42.53 41.52 38.81 38.38 42.26 43.68 41.03 40.94 40.62 38.30 39.39 38.52 41.10 38.92 40.56 42.68 42.93 42.41 34.55 35.49 37.98 37.48 36.62 34.12 33.86 34.95 33.56 35.54 31.92 36.12 35.56 39.82 40.52 37.86 38.68 37.58 36.28 35.86 35.81
38.02 38.06 41.09 39.57 38.03 39.65 39.37 35.93 39.84 40.11 41.17 39.65 39.44 41.36 41.69 39.26 40.61 38.60 40.44 40.18 37.97 38.19 40.36 39.95 34.63 36.56 34.97 35.88 36.09 34.27 35.08 35.51 35.68 36.08 35.89 37.20 36.53 40.33 42.05 41.96 37.23 37.84 37.39 36.56 36.49
42.36 42.64 40.19 37.22 37.28 37.34 37.21 36.73 38.35 42.51 42.91 43.67 42.61 41.10 40.38 42.54 44.93 45.92 44.94 44.58 41.52 38.12 35.96 36.27 34.69 32.72 32.24 35.10 34.00 31.49 35.57 37.55 36.30 37.76 36.68 33.11 38.55 39.83 41.23 41.70 37.92 37.27 37.83 37.81 38.13

GFSSW_sfc_wetblb_042.txt.gz
Wetbulb
59.31 59.42 59.82 59.94 60.02 60.46 60.89 61.21 61.34 61.61 61.81 61.93 62.07 62.17 61.94 61.50 60.55 57.07 50.74 55.54 57.17 62.60 60.53 52.24 50.65 49.73 49.55 47.61 46.79 42.29 36.42 34.48 36.29 37.61 39.77 42.02 41.83 43.49 44.04 43.94 43.07 43.61 42.78 43.72 49.28
58.95 58.94 59.31 59.60 59.77 60.04 60.45 60.76 60.97 61.35 61.60 61.89 61.50 61.51 61.44 60.87 55.72 51.72 59.41 62.37 62.43 61.84 51.53 48.88 46.56 47.02 45.27 45.42 45.21 40.89 35.51 37.94 40.59 39.81 40.23 42.61 42.57 44.11 42.24 41.68 40.17 40.62 42.97 45.04 48.04
58.82 58.72 58.99 59.21 59.46 59.79 60.04 60.40 60.69 61.09 61.30 61.43 60.88 60.71 60.35 58.59 50.58 49.52 62.03 62.21 62.14 59.01 52.93 50.87 49.08 46.46 43.07 43.16 42.47 39.95 37.24 39.95 41.87 43.94 43.71 43.27 41.42 43.20 41.63 39.22 42.42 42.38 43.52 44.53 44.66
58.94 58.61 58.56 58.72 58.89 59.30 59.84 60.08 60.38 60.28 59.06 60.65 60.71 60.53 60.00 54.61 41.07 53.06 61.54 61.45 61.84 55.15 52.00 49.40 46.45 41.87 40.76 40.44 43.89 37.17 41.10 42.66 45.01 44.81 44.06 43.02 43.20 41.84 42.16 42.14 44.55 44.42 44.19 43.33 43.32
59.09 58.92 58.42 58.25 58.41 58.93 59.49 59.77 60.02 58.76 58.67 59.75 60.81 60.30 54.78 47.41 49.36 55.61 59.88 59.31 55.29 51.85 49.05 47.19 43.71 42.40 39.75 41.32 42.46 39.48 41.15 43.61 44.70 44.19 42.60 44.41 42.21 42.18 41.69 41.00 42.67 44.01 44.49 42.91 42.42
57.95 58.50 58.50 58.26 58.17 58.54 59.02 59.39 59.60 59.11 58.88 59.70 60.82 59.79 51.01 42.74 54.75 55.02 54.18 53.31 52.05 49.95 47.45 47.41 45.18 45.12 42.75 41.58 40.27 42.81 42.55 42.93 44.01 43.51 43.27 42.46 40.56 41.54 41.73 41.72 42.24 43.08 42.01 41.50 41.89
57.73 57.60 57.98 58.27 58.16 58.34 58.73 58.99 59.19 59.36 59.29 60.14 60.41 56.66 48.67 48.06 54.38 52.06 52.32 50.61 50.89 49.95 47.67 48.35 48.08 45.17 43.98 41.61 43.98 42.52 38.40 40.15 41.70 42.90 42.16 42.69 39.50 40.84 41.99 41.53 41.25 40.81 40.04 40.62 41.57
58.17 57.57 57.35 57.67 58.10 58.17 58.43 58.75 58.98 59.19 59.41 60.37 60.86 52.01 45.34 53.16 53.07 51.92 51.20 49.69 50.58 50.81 49.99 49.21 49.01 46.94 44.24 43.68 42.39 38.11 37.19 34.32 40.04 42.00 41.59 40.70 35.87 41.46 41.27 40.58 39.82 39.41 38.14 39.11 40.17
57.84 57.36 57.24 57.17 57.56 57.84 58.11 58.46 58.31 58.88 59.81 60.50 52.03 48.49 44.28 55.13 52.12 53.06 50.11 48.69 49.12 49.18 48.85 51.56 48.25 43.14 42.17 37.45 34.96 35.46 32.17 33.10 38.18 41.52 40.24 38.99 36.81 40.93 39.77 40.26 39.26 38.09 37.89 38.56 38.51
57.75 57.19 57.24 57.06 56.72 57.60 57.85 58.44 58.21 57.93 57.03 56.90 53.47 43.61 46.26 46.39 50.56 51.21 50.06 50.16 47.43 46.37 45.29 45.16 41.71 38.39 36.88 35.09 30.70 32.57 31.94 34.41 34.75 39.38 38.00 35.84 37.11 39.92 40.59 40.21 40.14 38.35 37.68 37.89 38.30
57.83 57.48 57.25 57.03 57.15 57.69 56.11 52.55 46.82 44.71 48.56 41.96 44.07 42.77 46.18 47.91 50.42 48.84 50.25 48.45 47.10 43.92 38.42 40.21 36.81 34.61 37.80 37.78 37.81 36.33 34.29 34.18 36.37 40.54 38.23 37.35 37.30 40.01 40.52 39.17 38.67 38.17 38.05 38.55 39.05
58.14 57.72 57.56 57.25 57.35 57.61 54.20 48.89 47.89 48.98 42.62 49.17 49.29 48.63 48.24 48.78 44.43 47.48 49.62 44.68 42.82 38.85 39.78 37.41 35.06 40.49 40.87 39.76 38.13 36.01 34.21 33.98 37.54 39.71 38.04 37.29 36.62 39.25 40.07 40.23 41.33 41.73 39.86 39.97 37.51
58.25 57.90 57.43 57.25 57.42 55.43 51.82 51.28 52.43 50.43 41.82 44.16 48.83 48.41 47.08 47.54 44.91 45.23 47.31 44.17 40.70 38.71 38.63 36.03 40.15 42.47 41.30 38.82 37.43 36.21 34.64 33.94 36.50 36.31 36.05 33.89 32.95 36.91 40.80 40.52 41.21 41.72 43.53 42.07 40.01
57.76 58.01 57.42 57.22 53.62 52.93 50.44 54.37 54.88 51.43 32.39 36.31 43.40 47.40 45.86 46.86 42.90 48.26 47.92 45.04 40.54 38.96 38.93 37.81 42.01 40.72 38.85 38.09 39.10 34.39 39.29 38.59 36.82 34.12 29.92 34.65 28.72 33.53 38.12 39.31 40.05 42.03 40.95 41.65 39.70
56.38 57.71 57.51 56.45 53.28 50.73 52.62 55.33 54.54 47.74 21.62 37.93 43.42 48.79 45.45 44.17 42.51 42.32 45.70 43.27 39.16 39.66 39.66 37.53 38.33 38.56 37.81 38.89 40.70 37.68 39.26 36.97 35.19 31.96 30.21 30.41 28.51 32.36 36.64 36.83 40.59 44.29 41.62 40.51 39.19
54.34 56.33 57.05 55.58 54.91 54.11 54.98 56.02 53.92 35.87 24.13 35.56 42.23 40.65 40.92 41.93 40.29 41.53 42.51 43.62 42.86 39.71 38.24 37.86 39.62 40.41 40.55 39.13 40.51 39.38 37.39 35.76 33.68 31.94 26.26 32.47 31.26 30.36 35.43 39.71 40.05 41.25 40.23 39.53 38.18
53.90 54.18 55.86 56.65 51.30 56.21 57.14 49.51 33.14 28.20 37.94 34.57 37.54 40.28 39.75 38.23 37.83 38.94 37.91 37.21 36.45 33.47 34.05 35.88 36.95 38.18 39.56 37.53 38.25 37.41 34.26 26.64 25.53 24.03 26.33 30.67 28.68 35.97 38.91 40.37 41.70 42.97 41.04 37.07 36.81
53.62 53.51 54.98 56.61 56.37 56.45 53.45 40.00 27.61 34.22 34.47 39.72 39.08 38.12 36.73 39.24 37.79 37.17 35.77 35.17 38.58 36.16 33.03 32.93 30.38 37.26 39.20 38.92 36.62 35.71 34.18 27.76 22.08 22.61 25.17 29.07 26.91 33.58 39.42 42.22 39.30 39.51 39.57 35.80 34.13
53.02 50.82 53.64 55.70 56.24 55.77 45.67 31.62 34.58 34.71 38.47 37.00 38.39 34.97 34.82 37.51 36.77 34.01 33.14 34.12 37.78 37.68 35.22 31.01 31.48 36.17 36.96 38.93 41.21 33.70 32.22 37.15 30.14 17.15 22.09 29.19 32.31 36.94 37.71 37.80 37.78 37.39 36.08 33.32 33.50
47.80 46.26 49.41 56.70 56.15 52.66 41.01 35.64 36.10 40.46 40.91 41.01 36.77 38.34 33.88 34.91 34.73 33.73 32.85 36.60 37.50 39.77 40.25 37.73 30.88 34.42 35.29 38.40 36.62 36.00 38.30 30.08 28.61 19.78 18.68 26.79 27.94 32.91 34.01 36.81 38.99 37.57 35.64 34.72 33.64
47.16 42.39 48.99 56.30 54.42 47.36 36.01 35.48 38.12 40.96 42.03 39.33 38.14 38.03 37.62 35.47 35.82 33.08 34.69 36.98 40.00 38.31 42.05 39.86 37.24 31.04 34.64 33.42 33.71 33.65 32.54 33.36 33.85 28.99 23.66 20.67 28.55 35.56 39.51 39.22 38.69 38.69 37.43 35.46 34.53
44.75 37.53 49.87 55.00 43.09 43.73 40.27 40.31 41.08 39.22 42.72 40.86 40.80 39.96 37.46 38.03 36.08 34.57 34.77 37.03 40.65 40.08 36.49 39.67 37.91 28.93 31.08 34.20 34.55 34.45 33.73 34.25 29.07 26.55 27.78 27.11 33.62 37.17 37.80 38.64 38.55 39.22 37.81 36.07 36.19
40.54 39.02 49.87 52.26 37.68 38.45 42.47 42.32 43.63 40.24 40.35 39.61 40.11 40.99 40.93 38.65 36.29 36.72 36.17 39.81 41.17 39.99 37.22 39.99 34.64 26.25 29.00 32.06 32.16 31.88 34.48 38.21 34.84 30.12 30.35 26.07 32.57 35.61 36.24 36.82 38.33 38.55 36.93 35.53 35.12
39.70 33.38 39.09 46.03 44.48 40.83 38.39 39.82 39.67 43.82 41.68 41.52 41.53 42.16 40.87 39.66 41.22 36.30 36.65 39.72 41.28 41.52 42.94 43.65 37.31 33.29 30.94 32.63 33.51 30.14 32.29 34.86 36.77 31.56 31.60 32.06 36.15 34.59 36.09 38.05 38.61 37.13 35.97 34.66 34.78
38.90 35.68 35.92 35.22 36.50 40.59 39.69 40.35 38.07 38.50 42.13 42.64 39.89 40.60 39.35 37.35 38.34 38.40 40.45 38.39 39.51 41.44 41.55 41.75 35.12 36.74 38.03 36.33 34.48 32.43 34.40 34.82 33.71 35.81 32.13 36.94 36.39 40.50 40.36 38.25 38.56 38.94 36.07 34.30 33.90
35.03 34.30 37.14 35.84 37.54 38.54 37.86 37.50 34.19 40.21 40.90 38.79 38.38 40.25 41.16 38.44 39.67 37.91 40.06 39.68 39.14 38.65 40.06 39.89 35.40 37.27 34.48 37.21 34.71 33.83 33.23 34.50 35.79 36.70 36.33 37.50 36.93 40.89 39.80 39.07 37.23 38.06 36.90 35.32 35.21
38.44 41.49 39.19 35.73 34.64 33.96 35.41 37.67 37.43 39.24 39.52 42.75 41.64 40.18 39.66 41.03 43.62 44.87 43.57 44.01 42.80 40.56 38.39 36.98 36.99 34.62 32.38 35.57 32.92 31.02 35.36 34.43 34.89 37.45 36.70 33.07 38.86 38.46 39.81 40.29 40.27 38.61 37.27 37.34 37.44

GFSSW_sfc_wetblb_045.txt.gz
Wetbulb
59.02 59.29 59.51 59.66 59.78 60.14 60.51 60.71 60.90 61.20 61.58 61.83 61.46 61.26 61.28 61.12 60.32 55.63 48.39 54.45 55.99 62.75 60.26 51.12 48.69 47.92 48.01 45.85 44.76 40.00 35.52 33.43 35.34 36.40 38.66 41.36 40.50 41.75 41.59 42.65 41.03 42.02 42.57 43.30 50.45
58.61 58.67 59.00 59.19 59.45 59.67 60.02 60.28 60.47 60.91 60.56 60.70 61.17 61.01 60.97 60.57 54.48 49.88 58.75 62.26 62.34 61.31 49.97 47.57 44.98 46.01 44.10 43.99 43.33 39.12 34.30 37.54 40.19 38.37 39.08 41.00 40.44 43.18 41.41 40.19 38.34 39.36 41.71 45.46 47.83
58.43 58.31 58.52 58.66 58.91 59.31 59.62 59.89 60.14 59.73 58.83 59.08 60.81 60.87 60.50 57.97 48.72 47.97 61.90 62.49 62.14 58.08 51.36 49.47 47.51 44.83 41.86 42.20 40.96 37.23 36.40 39.04 40.66 42.31 42.45 41.37 39.85 41.13 40.72 38.53 41.63 42.07 43.01 44.91 45.26
58.66 58.30 58.24 58.32 58.45 58.89 59.38 59.63 59.81 58.97 58.80 59.08 60.61 60.76 60.00 53.73 38.53 51.34 61.25 61.50 61.67 54.43 50.56 47.70 44.91 41.13 39.64 39.22 42.06 38.77 39.40 40.48 43.13 43.36 42.01 41.25 42.12 40.53 40.77 41.93 42.43 43.43 44.66 43.37 44.85
58.57 58.53 58.14 58.07 58.25 58.67 59.04 59.33 59.52 59.49 59.44 59.77 61.00 60.10 53.51 45.19 47.24 53.81 59.60 58.39 53.50 50.47 47.32 45.27 42.53 40.85 38.62 40.20 40.78 37.79 39.41 41.94 43.02 42.29 41.30 42.98 40.80 40.94 41.97 41.70 41.24 42.65 43.46 42.99 43.63
58.04 57.89 58.30 58.00 58.04 58.41 58.78 59.01 59.17 59.30 59.45 59.81 60.96 59.40 49.95 40.46 53.28 53.37 52.90 51.84 50.50 48.41 45.91 45.87 43.87 43.45 41.56 39.88 39.14 41.05 41.41 41.17 42.23 41.83 41.54 41.45 39.90 40.10 42.11 40.02 40.08 41.94 41.78 41.63 42.39
57.82 57.33 57.15 58.00 58.00 58.09 58.29 58.65 58.82 58.95 59.12 59.75 60.93 55.59 46.87 45.74 52.94 50.87 51.30 49.28 49.50 48.56 46.37 46.91 46.56 43.93 42.23 40.20 42.50 41.07 37.55 39.13 39.64 41.52 40.71 41.45 38.95 40.11 40.42 40.29 40.43 40.42 39.61 40.32 41.03
58.23 57.47 57.13 57.14 57.51 57.90 58.06 58.29 58.46 58.59 59.05 59.91 60.54 50.27 43.01 51.78 52.50 50.89 49.89 48.44 49.55 49.79 48.58 47.83 47.54 45.96 43.10 42.46 40.97 37.19 36.18 33.73 38.31 40.50 40.00 39.61 34.56 40.81 40.61 40.01 39.72 39.02 38.18 39.12 40.49
57.87 57.32 57.22 57.10 56.95 57.49 57.82 58.16 57.95 58.48 59.25 59.68 50.55 47.03 41.87 54.17 50.94 51.91 48.70 46.99 47.77 47.72 48.25 50.57 46.92 41.44 40.73 36.86 34.23 34.38 31.10 31.84 36.95 40.38 38.73 37.73 35.60 39.30 38.56 39.04 39.11 37.91 37.94 38.44 38.54
57.74 57.37 57.18 57.07 56.48 56.70 57.62 58.13 57.94 57.59 56.46 55.36 52.23 41.13 44.50 44.91 49.08 49.93 48.76 48.90 46.12 44.73 44.23 44.23 40.28 37.48 34.86 34.63 30.09 31.58 31.10 32.33 32.95 37.69 36.80 34.80 36.29 39.39 38.73 38.42 39.42 37.51 37.57 37.44 38.40
58.10 57.56 57.32 57.06 56.84 57.33 55.24 50.44 43.58 42.07 47.54 40.67 41.95 39.89 44.54 47.06 49.29 47.74 48.70 47.24 45.54 42.99 37.60 39.03 35.88 34.08 36.62 36.75 36.03 35.01 32.63 32.82 35.08 38.86 37.02 36.55 36.47 39.65 39.58 37.66 37.46 37.96 37.71 38.35 39.25
58.63 58.09 57.65 57.29 57.03 57.38 53.27 46.51 43.71 46.25 40.01 47.43 47.22 47.05 47.48 47.87 43.84 46.02 48.62 43.93 41.33 37.62 38.51 36.75 34.10 39.24 39.23 37.68 36.16 34.24 32.64 33.02 35.83 37.92 37.12 36.35 36.30 38.72 38.22 38.77 40.43 40.67 40.48 40.17 40.13
56.99 58.25 57.75 57.23 57.04 55.47 51.55 49.25 51.89 49.86 39.41 41.99 47.25 46.82 46.66 46.92 44.06 44.37 46.62 43.18 39.76 37.48 37.65 35.50 38.92 40.74 39.86 36.65 35.75 34.64 33.10 33.01 34.91 35.45 34.67 33.70 32.44 35.86 39.82 39.25 39.70 40.84 43.30 43.33 41.84
56.31 57.00 57.61 57.04 53.13 52.65 49.46 53.22 53.97 49.59 32.16 35.60 40.79 45.69 45.00 46.12 42.12 47.14 46.99 43.87 39.11 38.32 37.80 37.25 40.53 39.52 37.30 36.34 37.66 32.85 37.83 36.86 35.23 33.09 29.19 33.10 27.26 33.07 36.70 38.83 38.72 41.74 41.92 42.32 40.98
54.21 55.52 57.55 56.37 53.10 50.58 52.26 54.97 53.82 45.51 28.70 38.62 41.32 47.46 44.46 42.81 41.33 41.76 44.73 42.89 38.39 38.76 38.90 36.46 37.17 37.22 36.27 37.49 39.12 36.14 37.59 35.73 33.57 31.31 29.05 29.75 27.80 32.13 34.33 36.53 39.93 42.53 43.15 41.45 40.43
53.64 53.97 55.45 55.22 55.03 54.47 55.81 55.36 52.31 36.10 27.46 34.19 41.69 39.65 39.91 40.40 39.23 40.55 41.59 42.77 41.97 38.94 37.11 36.48 38.36 39.47 39.34 38.17 39.54 38.96 36.44 34.42 32.32 30.98 25.59 31.93 30.62 30.57 34.13 38.07 39.42 41.27 42.32 41.28 39.55
53.22 53.36 52.24 56.38 51.32 56.11 56.39 49.53 34.31 29.37 38.27 34.83 36.98 39.05 38.38 36.80 36.78 37.69 37.37 36.46 35.71 32.45 33.09 34.52 36.17 37.31 39.27 36.93 37.36 36.76 33.79 26.28 24.41 23.06 25.65 29.35 28.11 36.01 37.82 39.47 41.31 43.12 41.81 39.84 36.26
52.88 52.24 50.96 54.71 56.41 56.57 51.99 40.29 28.44 34.70 34.83 38.48 37.66 37.89 36.51 37.88 36.11 36.21 35.20 33.98 37.51 34.44 31.30 31.70 29.11 36.60 38.65 39.05 36.41 34.79 34.13 27.75 21.16 21.16 23.99 28.48 26.42 33.35 37.95 40.29 39.87 40.28 40.26 37.40 35.36
51.38 47.30 49.90 53.03 56.53 55.79 46.09 32.70 34.12 35.14 37.72 37.24 37.70 33.63 34.17 36.71 36.71 34.06 33.37 33.97 37.66 37.41 34.34 31.04 31.22 35.50 36.42 37.80 40.60 33.54 30.77 35.80 29.90 17.00 21.65 28.72 31.96 36.22 37.89 37.72 37.85 38.86 37.86 36.64 35.91
46.02 45.37 44.97 54.31 56.08 52.39 41.53 37.18 38.82 39.91 39.45 40.26 36.59 38.45 33.66 34.29 35.24 32.42 32.13 35.91 36.48 39.49 39.20 36.52 30.05 33.61 34.34 37.68 36.15 35.26 37.31 29.52 27.81 18.92 16.67 25.43 27.30 31.92 36.00 37.30 39.80 38.53 38.93 36.31 34.45
44.35 41.67 45.57 54.32 54.36 46.62 37.74 35.54 38.17 40.32 41.74 38.70 38.52 36.93 35.90 34.86 35.91 31.75 34.13 36.03 37.75 36.62 41.45 38.72 35.09 30.14 33.47 32.66 32.61 32.87 31.74 31.94 32.29 28.39 22.97 19.93 28.74 34.73 39.14 38.84 38.90 39.73 40.13 37.37 34.96
39.16 35.61 45.74 54.20 40.41 41.50 37.48 41.36 40.39 38.76 42.40 40.29 39.87 39.91 36.64 36.89 35.21 34.24 34.59 36.95 39.73 39.14 35.81 38.49 36.33 27.58 30.41 33.54 34.52 32.87 32.30 34.25 27.63 25.64 26.89 26.18 31.97 36.08 37.42 39.28 38.45 39.66 39.67 36.04 35.53
34.14 35.71 45.01 50.11 34.24 34.94 39.37 39.56 42.47 39.75 40.98 39.33 39.37 39.50 39.43 39.50 36.13 36.91 35.68 38.88 39.98 39.38 37.34 39.86 34.17 22.54 27.84 31.35 31.61 31.16 33.53 36.55 34.20 29.78 29.74 24.27 32.13 34.24 34.93 36.52 38.10 38.96 37.85 36.96 34.83
33.82 29.15 35.90 39.63 41.21 37.39 35.34 35.93 37.28 43.94 41.82 42.06 40.30 41.23 39.55 38.17 40.87 35.37 35.49 38.47 39.97 40.08 42.57 42.69 36.33 31.36 30.33 30.16 32.42 29.49 31.43 34.56 35.12 29.12 30.96 32.09 35.91 35.40 36.34 35.94 37.74 38.48 38.01 35.52 34.51
35.30 29.60 33.18 32.42 32.68 35.73 37.50 38.50 35.27 36.24 42.89 42.81 39.80 39.85 39.30 36.24 37.04 36.33 37.15 37.18 38.37 40.89 41.15 41.11 34.43 35.19 36.95 37.38 33.33 32.07 31.69 33.57 33.32 35.26 31.43 35.77 35.78 40.32 40.30 38.36 39.05 40.11 37.89 35.72 34.63
33.27 29.30 33.12 32.97 34.11 35.32 33.87 34.62 34.78 36.86 38.41 38.86 38.47 39.56 39.96 37.81 39.10 37.11 38.92 38.34 37.86 37.99 38.55 39.78 34.40 35.99 33.95 36.76 36.11 33.06 32.69 33.78 34.92 36.44 36.62 37.33 37.01 40.08 39.66 38.39 37.61 39.60 38.85 36.65 35.92
38.84 36.25 35.21 30.93 30.37 30.79 32.69 34.36 33.63 36.89 39.72 40.55 40.64 39.92 38.86 40.49 43.03 44.07 43.37 43.87 42.62 40.56 37.36 37.66 35.61 33.14 31.35 34.80 34.48 30.16 34.31 35.74 34.76 36.99 36.84 33.18 38.77 38.56 41.54 41.05 41.71 42.60 37.28 37.60 38.10

GFSSW_sfc_wetblb_048.txt.gz
Wetbulb
59.09 59.21 59.28 59.33 59.45 59.80 60.20 60.27 60.43 60.87 59.76 59.71 61.16 61.16 61.08 61.05 60.22 54.09 46.68 53.47 55.37 62.44 59.64 49.41 47.51 46.55 46.54 44.52 43.02 38.43 35.31 32.60 34.52 35.67 37.29 39.94 39.26 39.27 40.18 41.13 40.08 41.47 42.40 43.66 51.60
58.38 58.61 58.80 58.87 59.16 59.50 59.69 59.81 60.08 59.49 58.82 59.09 59.90 61.15 60.87 60.64 53.18 49.00 58.04 62.11 62.06 60.64 49.07 46.25 43.76 45.22 43.18 42.37 41.59 37.14 33.57 36.28 38.16 36.76 39.21 39.78 39.27 41.70 39.80 38.80 39.94 39.69 40.58 45.83 48.85
58.18 58.09 58.33 58.44 58.76 59.11 59.47 59.53 59.73 59.51 59.39 59.66 60.31 61.15 60.46 57.33 47.14 46.96 60.80 61.80 62.02 57.01 50.11 48.18 46.22 43.65 40.54 42.41 41.58 36.05 34.87 38.10 39.42 40.78 41.06 40.50 38.48 40.82 39.91 37.74 41.20 41.82 42.41 46.04 45.85
58.34 57.97 57.84 57.97 58.24 58.76 59.15 59.37 59.48 59.46 59.81 60.16 60.84 60.87 59.87 51.66 36.65 50.49 59.76 60.71 61.23 52.90 49.13 46.46 43.74 40.70 38.49 39.77 40.40 38.23 37.93 38.54 41.68 42.04 40.47 39.61 40.76 39.85 39.85 41.35 41.15 42.40 43.66 45.17 45.37
57.95 58.08 57.78 57.64 57.80 58.31 58.71 58.96 59.20 59.28 59.52 59.94 60.82 60.75 52.35 44.38 45.91 53.66 58.76 57.47 51.58 48.96 46.00 43.89 41.25 39.91 37.61 39.36 39.31 38.32 37.89 40.51 41.62 40.95 41.26 41.96 40.05 40.20 40.51 41.39 40.79 41.36 44.18 44.77 45.46
57.90 57.79 57.98 57.72 57.71 58.02 58.28 58.52 58.74 58.89 59.13 59.57 60.77 59.64 49.02 38.88 52.29 52.87 51.12 50.23 49.24 47.04 44.84 45.01 42.51 42.53 40.44 38.36 37.71 39.57 39.97 39.73 40.61 40.54 40.20 39.87 40.44 41.70 42.32 39.17 39.19 40.73 41.69 43.04 44.07
57.90 57.59 57.15 57.35 57.72 57.90 57.93 58.18 58.48 58.52 58.70 59.49 60.42 54.92 46.21 43.64 51.94 49.52 50.32 48.19 48.25 47.28 45.24 45.78 44.94 42.75 40.70 38.94 41.07 39.66 37.00 37.95 37.39 39.56 39.33 41.30 38.32 39.92 40.40 39.10 40.04 39.37 39.14 40.07 41.38
58.44 57.67 57.19 57.24 56.98 57.33 57.73 57.96 58.10 58.23 58.75 59.43 60.12 48.77 40.32 50.29 51.86 49.97 48.68 47.32 48.84 48.57 47.56 47.08 46.70 44.83 41.71 40.76 39.85 36.25 35.21 33.27 36.70 39.32 39.04 38.52 33.79 40.03 39.32 39.58 40.42 38.78 38.01 38.88 40.40
58.06 57.58 57.35 57.24 56.94 56.77 57.49 57.79 57.73 58.16 59.07 59.55 49.69 45.44 39.50 53.36 49.46 50.62 47.61 46.41 46.57 46.88 47.26 49.09 45.47 40.12 39.94 36.08 33.95 33.59 30.04 30.40 35.90 39.38 37.49 36.27 34.28 38.41 37.20 37.82 38.93 38.26 38.04 38.41 38.70
58.15 57.54 57.32 57.23 56.93 56.24 57.10 57.78 57.53 57.07 55.37 53.44 51.00 39.58 42.84 42.91 47.98 48.48 47.09 47.99 45.12 43.53 43.36 43.31 39.58 36.53 33.97 34.32 29.15 30.70 29.47 31.10 31.84 36.24 35.20 34.23 35.08 38.74 39.10 37.79 38.44 37.76 37.56 37.48 38.12
58.77 57.93 57.58 57.22 56.97 56.98 54.63 47.92 41.28 40.08 46.33 39.88 40.09 38.49 43.08 46.48 48.43 46.63 47.11 45.95 44.05 42.21 36.94 37.95 35.53 33.59 35.74 35.32 34.83 33.36 31.32 31.97 33.29 37.10 35.09 35.15 35.09 38.01 39.58 36.87 37.66 37.62 37.18 38.62 39.61
57.16 58.72 58.01 57.53 57.25 57.21 52.58 43.80 41.67 44.98 39.35 45.25 44.84 45.21 46.98 47.41 43.33 45.45 47.45 42.62 39.93 36.43 37.28 35.57 33.29 37.95 38.30 36.46 35.19 33.23 31.79 31.78 34.62 36.06 35.36 35.19 35.52 38.83 38.25 37.89 39.26 40.90 39.95 40.23 40.02
56.27 57.02 58.31 57.57 56.97 54.81 50.00 48.33 51.95 48.95 38.25 40.46 45.91 45.16 45.38 46.35 43.46 44.16 45.96 41.98 38.34 36.11 36.23 34.09 37.07 39.09 38.58 35.19 34.83 33.44 32.01 31.56 33.72 34.50 34.08 32.22 31.86 34.45 38.14 37.69 38.54 39.38 42.66 42.29 41.92
54.33 55.82 57.55 57.23 53.27 52.25 49.81 52.93 53.03 48.27 33.51 36.64 39.36 44.51 44.28 45.46 40.94 45.52 45.92 43.37 37.63 37.71 36.18 35.63 38.73 38.17 35.28 34.77 36.52 31.28 36.32 35.30 33.57 31.90 28.09 31.52 26.22 31.67 36.56 38.37 38.61 41.66 40.05 41.41 42.26
53.49 54.15 55.86 56.65 52.99 50.49 52.89 54.29 53.28 45.59 29.86 39.44 39.74 46.40 43.64 40.80 40.31 41.25 43.78 41.88 37.45 37.68 37.69 35.38 36.14 35.62 34.82 36.23 37.74 34.94 36.73 34.79 33.22 30.60 27.72 27.27 27.00 31.06 33.26 35.60 39.24 42.60 41.62 41.08 41.72
53.23 53.24 53.42 55.56 54.55 54.59 56.05 56.02 51.75 37.56 30.11 35.01 40.35 39.42 39.14 39.31 38.52 40.07 40.61 42.17 40.79 37.71 36.09 35.10 37.91 38.25 38.33 37.10 37.91 38.13 35.55 33.45 31.21 30.04 25.15 29.91 29.80 29.92 32.54 36.81 37.54 41.53 42.71 41.43 39.43
52.61 52.75 50.93 50.75 51.54 56.11 56.05 49.35 34.72 30.23 39.97 35.90 36.35 38.07 37.12 35.88 36.15 36.96 36.90 35.31 34.44 31.60 31.64 33.21 34.94 36.35 38.01 35.75 36.14 35.10 33.58 26.47 23.12 21.99 24.64 28.18 27.40 35.59 36.05 39.17 38.31 40.61 41.53 39.14 38.40
51.07 51.72 49.31 51.66 56.42 56.08 51.55 40.61 29.62 33.24 36.49 38.99 37.26 36.77 35.55 36.68 35.11 35.35 34.62 33.12 36.56 33.29 29.47 30.21 27.52 35.42 37.73 38.00 35.18 33.96 33.85 26.72 19.96 19.54 23.03 27.45 26.00 32.21 37.44 38.81 39.07 38.60 39.79 37.78 37.90
50.42 45.43 47.29 50.52 54.12 55.19 46.06 33.73 34.55 35.49 39.86 38.38 38.44 35.05 33.21 35.97 35.31 33.72 32.60 32.91 36.56 35.98 32.51 29.30 29.88 34.48 35.50 36.40 39.60 32.99 31.06 34.95 29.31 15.64 21.32 27.55 29.86 35.49 36.77 37.54 37.99 38.00 37.62 38.35 37.21
42.16 42.23 43.36 51.46 54.35 51.76 42.30 37.09 37.82 40.35 39.84 39.91 35.17 37.86 32.32 33.33 34.08 32.35 32.11 35.76 36.32 38.51 38.04 35.14 29.37 32.74 34.22 36.41 35.55 34.81 36.91 29.44 27.68 19.82 15.98 24.75 26.06 30.33 35.27 37.35 38.48 37.71 38.64 39.06 36.26
39.58 37.25 43.72 50.40 53.06 45.12 36.43 37.28 38.27 40.52 42.56 38.66 36.91 35.66 35.04 33.85 34.80 31.68 33.54 34.87 36.64 36.21 41.31 37.80 34.34 29.65 33.00 32.22 32.13 32.95 31.82 30.95 31.77 27.86 21.62 18.52 28.78 33.49 37.01 38.50 37.93 39.70 39.14 38.00 37.71
36.95 31.79 43.57 51.86 38.64 39.78 35.40 38.04 40.96 38.18 41.74 41.36 40.02 39.42 36.30 35.49 34.36 32.67 33.54 35.90 38.34 38.28 35.15 37.86 35.01 27.22 30.33 32.29 32.97 31.20 31.74 32.23 26.69 23.91 25.50 25.06 31.27 35.90 37.05 38.14 37.32 38.85 38.90 37.33 36.45
32.62 33.24 41.94 47.29 31.61 33.20 36.09 37.07 39.16 39.78 39.94 39.75 39.31 39.78 39.69 38.94 35.60 35.73 34.83 38.42 39.13 39.11 37.09 38.33 34.25 24.33 28.47 30.51 30.64 30.44 32.44 34.34 32.47 29.71 27.93 22.95 31.45 34.56 33.80 35.89 36.57 37.27 38.05 37.83 36.06
34.09 27.00 33.27 39.99 39.76 35.59 34.09 34.03 34.36 40.03 40.10 42.02 40.83 40.99 37.73 38.21 40.57 36.01 35.91 37.16 39.01 39.58 42.36 42.61 36.19 32.80 30.01 30.06 31.60 28.92 30.74 33.74 35.66 29.29 31.25 30.46 35.14 35.49 35.27 36.46 37.64 38.10 38.41 37.57 37.24
35.85 29.22 30.44 29.49 28.36 30.55 35.66 36.53 33.52 32.82 39.88 41.24 39.33 39.74 38.96 36.20 36.90 36.62 36.93 36.75 37.01 39.89 40.11 41.05 33.82 34.06 36.52 34.66 31.96 31.41 30.87 32.61 33.65 34.92 29.74 34.97 34.73 39.28 40.66 40.28 41.43 40.69 38.29 37.94 36.60
33.25 28.80 30.94 28.91 30.52 32.87 32.62 28.77 32.24 35.58 36.77 35.56 37.06 38.66 39.22 36.99 37.45 34.82 37.95 36.35 36.68 36.86 38.10 39.97 33.75 35.58 32.98 35.89 34.53 32.93 31.79 33.76 33.65 35.31 35.64 36.05 35.47 42.91 43.62 39.63 37.82 38.88 40.02 39.91 37.85
38.78 38.60 35.31 30.17 27.69 26.67 27.48 31.19 31.63 33.26 35.66 38.90 38.25 37.50 38.04 39.58 42.21 43.08 42.78 42.15 41.49 39.30 35.96 37.55 34.79 32.90 31.17 34.19 33.63 30.90 33.89 35.73 35.98 37.39 36.59 32.11 37.96 42.23 41.51 41.82 42.28 42.15 39.62 39.52 39.64

GFSSW_sfc_wetblb_051.txt.gz
Wetbulb
59.00 59.23 59.17 59.26 59.53 59.80 60.02 60.07 60.36 59.90 59.41 59.73 60.11 61.17 61.42 61.13 60.42 54.78 46.74 53.36 55.48 62.20 59.86 49.53 48.10 47.61 47.86 46.29 44.91 42.54 38.33 35.63 37.35 37.87 40.90 41.08 42.20 42.62 44.26 44.23 44.84 45.53 46.97 48.85 54.25
58.26 58.54 58.78 58.81 59.09 59.31 59.46 59.52 59.70 59.83 59.97 60.38 60.77 61.30 61.20 60.76 52.50 48.97 57.69 61.69 61.96 60.54 48.99 46.43 44.94 46.07 44.10 44.38 43.16 39.35 36.37 38.11 39.78 39.70 40.72 41.75 42.39 42.66 43.39 43.10 43.61 44.32 45.49 48.86 52.79
57.96 58.06 58.28 58.42 58.69 59.00 59.24 59.34 59.40 59.48 59.91 60.29 60.76 61.43 60.93 57.65 46.77 46.85 60.46 62.02 62.13 57.07 50.12 48.73 46.27 45.45 42.56 42.86 41.44 38.75 36.51 39.45 40.95 42.23 42.72 42.15 41.25 42.80 42.25 41.43 43.95 44.24 45.09 48.07 51.71
58.16 57.88 57.82 57.92 58.18 58.62 58.90 59.04 59.20 59.25 59.61 60.07 60.58 61.10 60.12 51.89 37.26 49.92 59.86 61.72 61.53 52.88 49.15 46.50 44.50 41.93 40.11 39.57 41.93 38.94 39.41 40.17 43.35 43.29 42.11 41.16 42.22 41.57 41.61 44.23 45.10 44.96 45.99 48.11 50.70
57.63 57.90 57.67 57.60 57.80 58.25 58.52 58.67 58.85 58.95 59.22 59.65 60.60 60.71 52.13 43.90 45.80 53.20 59.12 57.25 50.79 48.68 45.89 44.21 42.21 41.37 39.28 40.76 40.83 38.84 39.70 41.39 42.60 41.79 41.25 42.67 41.24 41.78 41.78 43.34 44.17 43.78 45.54 47.51 50.39
57.65 57.62 57.67 57.55 57.81 58.10 58.21 58.39 58.56 58.64 58.85 59.35 60.47 59.58 47.00 38.36 51.92 51.40 49.89 49.66 49.15 47.17 45.23 45.16 43.13 42.91 41.30 39.58 39.11 40.94 41.25 40.72 41.52 41.79 41.53 41.44 40.79 41.59 43.54 42.82 43.13 42.81 44.11 45.98 48.32
57.88 57.62 57.31 57.00 57.08 57.65 57.95 58.13 58.27 58.34 58.47 59.15 60.18 53.93 44.23 42.73 52.01 49.49 50.13 48.07 47.71 47.32 45.55 46.00 45.64 43.21 42.25 40.41 41.83 40.14 37.68 39.78 39.06 40.89 40.90 41.73 39.52 40.66 42.60 42.22 42.85 42.51 42.13 42.72 45.39
58.30 57.67 57.27 57.11 57.25 56.89 57.22 57.83 58.02 57.96 58.55 59.35 60.08 48.31 39.39 49.92 51.76 49.82 48.57 47.31 48.55 48.39 47.47 46.40 46.60 44.77 42.59 41.69 40.27 37.40 36.80 34.67 38.37 39.97 40.27 40.32 36.08 40.82 40.94 41.50 42.70 42.14 41.12 40.72 42.46
58.18 57.60 57.44 57.20 57.03 56.93 56.86 57.38 57.73 57.93 58.96 58.97 48.73 44.98 38.08 53.00 49.27 50.32 47.83 46.57 46.74 46.92 46.58 48.10 44.82 40.47 40.66 37.27 34.93 34.47 31.46 32.37 36.66 39.68 38.79 38.19 36.70 40.08 40.40 39.72 40.58 40.44 40.68 40.49 40.90
58.41 57.76 57.48 57.25 56.99 56.74 57.02 57.55 57.22 56.73 54.51 51.70 49.74 38.99 41.84 42.72 47.82 48.07 47.21 47.28 44.93 43.62 43.55 43.21 39.74 36.78 34.83 35.19 30.07 31.76 31.59 31.97 33.10 36.94 36.63 35.91 36.23 39.53 40.41 39.91 40.84 40.70 40.54 40.22 40.85
58.57 58.48 57.79 57.35 57.05 57.09 54.21 46.78 40.38 38.54 44.73 39.04 38.72 38.56 42.00 46.23 48.08 46.24 46.69 45.38 43.57 42.16 37.19 38.23 36.11 34.40 35.81 35.92 34.53 33.91 32.19 32.35 34.06 37.55 36.62 35.99 35.90 38.32 41.39 38.96 39.14 40.37 40.54 41.31 41.43
56.93 58.05 58.48 57.80 57.35 57.10 52.42 44.09 41.47 43.66 38.78 43.69 43.08 43.61 45.90 47.08 43.07 44.84 46.90 42.32 39.72 36.39 36.73 35.43 33.75 37.31 38.05 36.39 35.68 33.81 31.95 32.90 34.95 36.32 36.64 35.69 36.24 38.91 39.40 42.00 41.78 42.92 43.19 42.51 43.28
55.11 56.57 58.05 57.78 56.98 53.79 49.92 48.18 51.94 48.07 37.11 40.04 44.64 43.89 43.79 46.10 42.68 43.81 45.61 41.44 37.44 35.20 35.54 33.75 36.20 37.93 37.89 34.43 34.51 33.10 32.22 31.76 34.24 34.63 34.55 33.45 33.05 35.26 38.70 39.13 39.98 40.87 43.71 43.90 44.02
53.42 54.49 56.92 56.96 53.56 52.61 50.64 51.99 53.33 49.41 33.68 37.04 38.94 43.34 43.94 44.91 39.85 44.54 44.99 42.87 37.11 37.13 35.11 35.08 37.68 37.11 35.06 34.16 35.81 31.19 35.48 34.73 33.25 32.69 29.11 32.88 26.84 33.13 36.96 37.79 39.10 41.26 41.41 42.42 43.74
52.81 53.20 56.23 57.09 52.01 51.31 52.70 55.17 52.82 47.64 30.67 39.24 38.67 45.57 42.76 39.69 39.74 40.79 43.25 41.35 37.14 37.25 36.85 34.73 35.45 35.15 34.06 35.63 36.94 34.33 35.89 34.40 33.24 31.61 29.96 29.54 28.70 32.96 34.19 36.17 38.74 41.87 43.17 43.97 41.42
52.09 52.56 52.56 54.99 54.28 54.27 55.89 55.19 51.61 38.81 30.22 35.58 39.53 38.24 38.64 38.39 38.20 39.60 40.58 41.80 40.09 37.25 35.59 34.41 36.73 37.41 37.47 36.35 36.59 36.91 34.98 33.25 31.49 30.80 25.70 29.61 30.90 30.11 33.17 36.76 38.69 40.98 42.08 42.01 40.98
50.95 51.82 50.49 51.28 51.48 55.92 55.02 49.99 35.72 30.05 40.90 35.02 35.16 37.70 36.24 34.92 35.66 36.68 36.75 35.27 33.97 31.07 30.69 32.82 34.19 35.81 37.79 35.06 35.82 34.18 32.88 25.97 23.34 22.61 25.29 28.31 28.09 34.81 36.82 38.46 38.92 41.59 42.41 40.78 40.81
49.60 50.71 47.94 50.16 52.25 55.70 51.01 41.40 30.15 33.99 36.22 38.08 37.69 36.10 34.66 36.27 34.33 34.64 34.15 32.99 35.75 32.06 29.06 29.74 27.14 34.84 37.40 37.19 34.65 33.27 33.10 26.52 19.86 19.33 23.02 27.39 25.92 32.73 37.42 39.09 38.97 38.66 39.72 38.69 39.08
48.61 43.79 44.74 48.35 51.95 54.03 45.47 33.00 34.57 34.51 38.07 38.05 38.21 34.77 32.35 34.87 34.92 33.19 32.24 32.50 35.69 35.01 31.47 27.97 28.90 33.90 35.04 36.02 38.77 32.68 30.92 34.21 28.36 15.67 21.62 26.71 29.94 35.09 36.08 37.27 38.20 40.20 37.88 39.00 39.42
40.84 40.48 41.62 48.93 51.51 50.81 42.18 35.48 38.11 40.72 39.48 38.95 36.57 37.83 32.66 34.38 33.33 32.35 31.57 34.91 35.84 37.32 36.39 33.39 28.02 32.00 33.53 36.29 35.16 34.22 36.49 29.53 27.62 19.66 16.71 24.77 26.18 31.58 35.02 37.97 39.37 38.13 39.55 39.18 39.03
37.50 33.52 41.02 48.51 51.49 43.31 35.78 36.66 37.05 40.74 41.54 39.28 36.42 36.72 35.18 34.23 34.67 31.42 33.95 34.32 36.19 35.42 40.47 37.19 33.56 29.17 32.65 31.73 31.82 32.86 31.29 30.56 31.13 27.84 21.50 18.71 28.44 33.24 36.78 37.85 38.14 38.83 38.94 39.15 39.86
35.63 28.06 41.31 49.77 38.29 38.96 34.60 35.90 41.49 39.70 41.18 40.68 39.66 39.97 36.93 36.42 35.04 33.77 32.30 34.61 37.65 37.78 35.18 37.26 34.14 26.24 29.61 31.87 32.85 31.67 31.29 31.95 27.21 23.86 25.37 24.85 30.98 35.23 37.61 38.21 37.64 38.44 39.14 39.12 39.11
31.00 31.39 39.92 45.63 29.36 31.39 33.98 35.49 37.22 38.42 40.09 39.67 38.91 39.12 40.69 37.38 34.93 35.51 35.04 37.82 38.54 38.65 36.40 38.39 33.65 23.24 27.80 30.28 30.16 30.07 31.60 33.14 31.69 29.43 26.27 24.67 31.36 34.71 35.84 37.54 37.97 38.63 38.71 38.74 38.51
35.31 26.33 31.29 37.70 36.86 32.68 31.00 31.48 32.59 37.68 37.57 40.04 39.40 40.31 39.37 37.39 39.96 35.66 34.74 36.78 38.40 38.93 42.09 41.98 36.44 31.89 29.49 29.73 31.27 28.61 30.05 33.21 34.99 28.68 31.44 28.97 34.96 38.28 34.82 36.41 37.99 38.90 39.70 39.55 39.14
36.33 29.87 29.94 24.08 27.82 31.23 34.75 34.50 31.32 30.97 37.30 38.34 36.33 38.59 37.90 35.38 36.85 36.72 37.89 35.19 37.68 39.76 39.63 39.88 33.39 35.22 35.97 35.92 31.97 31.56 30.93 31.67 32.90 34.77 31.25 34.86 34.65 38.67 40.54 39.19 41.71 42.06 40.57 39.84 40.56
33.26 31.09 31.58 28.01 29.98 27.59 28.63 28.00 30.87 33.75 36.17 34.13 33.81 36.08 36.76 35.47 36.89 34.40 36.82 37.27 37.29 35.58 36.93 38.43 33.81 34.06 32.66 35.49 35.37 31.82 31.97 32.13 33.36 35.00 35.08 35.98 35.18 42.50 41.31 40.30 37.55 39.64 39.50 40.04 39.73
38.99 38.58 34.53 29.30 26.90 25.60 25.58 29.26 28.97 30.77 32.66 34.34 33.86 32.30 32.79 36.55 40.65 41.34 41.85 41.07 40.48 39.42 37.31 36.56 33.90 32.90 30.65 34.01 32.26 29.80 33.47 34.62 35.22 35.06 34.95 31.30 37.28 41.33 40.59 41.37 42.30 41.32 38.80 40.97 41.17

GFSSW_sfc_wetblb_057.txt.gz
Wetbulb
59.33 59.13 59.04 59.27 59.44 59.47 59.68 59.71 59.87 60.08 60.51 60.79 61.23 61.47 61.60 61.24 60.64 60.04 52.80 56.89 58.92 62.78 60.14 55.96 55.56 55.23 55.89 54.37 53.91 53.34 48.25 46.20 47.47 47.03 47.93 50.80 49.86 51.05 52.48 51.27 52.46 54.58 53.61 57.92 61.64
59.04 59.01 58.74 58.81 59.02 59.23 59.32 59.43 59.44 59.54 60.00 60.31 60.73 61.19 61.29 60.95 59.36 54.91 58.69 62.20 62.77 61.64 55.66 53.60 52.34 53.43 52.34 52.87 53.21 51.04 47.91 47.81 50.09 50.31 49.37 50.17 50.30 50.74 49.45 50.05 50.93 52.23 54.06 58.61 62.29
58.39 58.58 58.48 58.26 58.44 58.75 58.88 58.94 59.07 59.23 59.60 59.88 60.41 61.13 60.99 60.37 54.01 53.46 60.53 61.88 62.49 59.04 56.36 54.83 53.92 52.38 50.11 51.68 51.49 50.88 47.74 49.22 48.79 49.82 50.35 50.21 49.38 51.04 49.39 48.93 51.26 51.36 53.14 55.41 60.46
58.02 57.81 57.76 57.83 57.97 58.22 58.32 58.59 58.86 58.96 59.18 59.49 60.16 60.79 60.18 59.36 44.89 54.99 60.06 61.47 61.15 58.18 55.50 53.34 52.24 49.56 48.27 47.52 50.10 46.62 48.09 48.63 49.53 50.39 49.21 48.94 50.76 49.22 50.04 51.35 52.84 53.94 54.19 54.54 58.41
58.18 57.79 57.39 57.31 57.54 57.91 58.01 58.26 58.49 58.68 58.91 59.23 60.03 60.60 59.06 52.42 52.04 57.57 59.31 59.75 57.06 55.56 53.57 52.00 50.13 49.86 46.91 48.35 48.21 47.10 47.69 48.54 49.84 49.21 49.33 49.15 48.96 49.51 50.43 52.89 52.94 52.37 52.32 53.84 56.10
57.66 57.89 57.60 57.28 57.39 57.60 57.70 57.99 58.28 58.41 58.52 58.99 60.26 59.96 55.12 47.19 57.24 56.76 55.25 55.12 55.09 54.17 52.55 52.24 50.32 51.08 48.95 48.19 47.64 48.69 48.62 48.65 49.24 49.28 49.05 47.52 49.03 48.52 50.94 53.26 52.78 51.87 51.96 53.26 54.46
57.86 57.77 57.36 56.75 56.52 56.77 56.93 57.31 57.57 57.99 58.24 58.88 60.41 57.12 51.20 50.45 58.14 56.36 54.98 54.80 54.86 54.28 52.17 53.14 52.79 51.08 50.62 47.90 49.89 48.60 45.77 47.54 48.08 48.70 48.14 48.79 46.25 46.69 50.72 51.19 51.11 51.70 51.95 52.92 53.76
58.25 57.77 57.41 56.98 56.89 57.01 57.18 57.22 57.27 57.49 58.13 59.05 59.70 55.64 47.78 55.63 58.94 54.41 55.30 54.06 54.84 55.15 54.37 54.01 54.53 52.25 50.73 50.64 48.56 46.49 46.62 43.46 47.67 47.65 48.25 47.97 43.04 48.61 50.97 50.54 49.89 51.06 52.15 52.77 53.33
58.13 57.68 57.52 57.31 57.04 57.02 57.28 57.72 57.52 57.49 58.21 59.09 55.00 52.47 46.58 57.35 54.43 55.39 54.59 52.63 53.56 53.68 53.15 53.13 53.48 50.53 49.49 46.80 45.00 45.91 41.46 43.19 45.14 47.95 47.33 46.69 45.47 49.57 49.90 49.39 49.14 50.45 51.38 51.95 52.88
58.24 57.75 57.61 57.47 57.13 57.02 57.52 57.76 57.47 57.55 56.81 55.08 53.53 47.76 48.66 48.56 54.25 53.90 54.08 53.58 51.65 51.81 50.56 50.38 49.58 46.79 47.18 45.17 39.16 41.93 41.87 43.22 43.31 45.96 45.54 45.46 45.22 48.56 50.43 49.76 49.90 51.01 51.96 52.78 52.48
57.53 58.50 58.03 57.59 57.30 57.08 58.54 53.44 49.81 47.73 50.50 47.16 46.48 45.84 48.10 52.33 54.22 52.40 53.00 51.50 51.30 50.14 45.66 47.92 43.99 41.79 44.62 45.98 45.80 44.01 43.53 42.49 44.47 45.90 44.23 44.79 45.29 47.19 49.48 49.87 49.75 50.38 50.92 51.51 52.60
55.06 56.66 58.73 57.99 57.56 56.96 57.77 49.70 49.19 52.13 45.96 49.24 47.88 47.45 50.48 53.22 48.54 50.90 52.70 49.42 48.44 45.08 46.77 44.60 41.85 46.46 46.88 46.53 44.51 43.87 42.27 42.34 45.11 45.29 43.22 44.42 44.15 47.29 48.56 49.05 50.03 50.26 50.76 51.58 52.46
53.37 53.81 56.08 58.10 57.05 57.23 57.49 52.37 55.86 54.05 45.45 46.40 48.36 47.33 47.72 51.36 47.94 49.29 50.84 49.71 46.96 45.16 44.52 42.35 44.02 46.48 44.86 43.24 42.37 43.09 42.15 42.34 41.97 43.78 45.21 43.40 42.48 45.04 48.24 49.68 50.14 50.78 51.64 51.84 52.43
52.57 52.89 56.12 57.23 55.12 57.59 56.10 56.96 56.79 55.05 45.53 45.37 44.54 47.81 48.14 50.15 45.21 50.06 52.17 49.27 45.98 43.63 44.49 43.89 45.82 43.44 42.83 42.22 43.52 39.94 45.11 43.66 42.00 40.76 37.69 43.33 36.44 42.59 45.49 46.72 48.87 49.97 51.03 51.37 52.45
51.75 51.68 52.22 55.03 56.59 54.96 56.43 57.89 57.15 54.13 32.78 45.67 43.62 50.51 48.42 45.85 46.04 46.02 49.90 48.20 44.68 44.03 44.25 41.91 42.35 41.42 41.16 42.42 44.68 42.03 44.17 43.11 42.26 40.95 40.41 40.41 37.18 41.54 45.66 44.61 46.79 48.99 51.14 52.20 53.28
50.76 50.88 51.17 55.15 56.63 56.32 58.20 57.63 55.55 41.99 32.53 41.72 44.90 43.70 43.08 43.99 43.93 45.87 46.44 49.02 48.03 44.88 44.17 44.01 44.56 45.04 44.32 43.12 44.80 44.59 43.44 42.79 42.42 40.81 33.98 39.51 38.77 39.67 42.67 44.80 46.89 48.93 50.32 51.51 52.04
49.29 50.02 49.88 51.00 52.11 56.99 56.83 52.81 40.12 32.36 43.88 41.55 40.63 43.14 43.17 41.31 41.43 43.60 42.39 41.82 40.51 36.89 38.08 41.98 41.73 43.99 44.61 41.35 43.21 43.74 40.93 34.60 33.48 33.05 32.77 38.53 37.58 40.56 44.70 46.75 47.56 47.92 49.43 51.06 51.35
48.50 48.74 50.56 48.80 53.54 55.96 52.70 43.57 31.91 38.28 41.42 43.03 42.33 41.64 40.14 42.09 41.49 41.22 41.43 40.05 43.32 42.35 39.08 37.05 35.05 41.51 43.88 43.43 41.10 40.64 41.14 35.56 29.61 31.64 34.74 35.40 33.69 40.41 47.29 48.51 49.13 49.17 49.85 50.81 51.12
47.29 47.71 47.47 50.73 50.97 53.31 46.65 34.03 36.07 39.52 43.82 42.00 41.39 38.81 38.97 40.82 41.22 40.51 40.40 40.87 43.53 43.42 37.55 37.52 36.64 43.33 42.99 44.78 44.80 40.30 37.11 43.38 37.54 33.27 31.89 36.70 40.63 44.62 46.17 45.27 46.78 47.43 48.41 48.97 50.53
45.22 44.09 43.40 50.79 51.88 51.13 42.37 36.82 39.77 44.84 45.21 44.79 38.87 41.60 38.26 39.18 37.74 39.02 40.18 43.34 42.23 44.57 45.44 41.57 35.58 39.33 40.59 42.61 43.13 41.40 43.99 35.57 36.73 30.95 28.28 34.54 36.94 38.73 43.71 45.06 46.63 47.32 48.73 50.09 50.46
44.29 38.78 44.41 49.93 52.51 45.49 36.24 37.92 40.94 45.09 46.25 42.83 40.92 40.66 41.32 39.07 38.40 37.45 39.62 42.39 43.70 43.01 45.08 42.89 39.10 35.84 38.80 37.64 38.27 37.90 37.05 38.13 38.71 36.63 31.53 30.41 35.86 44.70 44.79 46.28 46.48 48.12 48.55 49.44 49.87
41.99 33.26 46.20 50.91 40.97 41.98 37.09 39.63 42.27 42.76 45.72 43.78 44.09 42.82 41.43 41.26 39.29 39.73 39.30 42.42 44.14 43.43 39.29 42.82 39.77 35.18 36.60 41.19 41.38 42.13 39.79 39.09 34.01 32.14 35.02 33.84 35.83 44.54 46.31 47.32 47.54 48.08 48.31 49.76 49.78
37.16 38.58 46.44 47.77 32.87 36.33 39.50 39.67 41.78 41.29 42.17 41.96 41.03 43.31 43.71 40.88 37.18 40.40 41.78 46.04 44.62 43.45 40.84 41.40 35.98 32.42 33.87 37.63 38.75 37.09 40.02 39.71 40.52 37.44 34.29 31.38 35.09 45.51 47.05 46.49 47.78 47.76 49.01 49.33 49.55
37.80 31.72 38.18 41.35 41.97 36.70 35.30 35.66 36.53 41.81 41.62 43.68 42.30 43.44 41.21 39.64 42.02 38.92 40.20 43.74 44.58 45.07 43.63 42.53 37.02 35.16 32.64 37.04 40.03 36.00 37.88 39.81 38.07 33.40 34.35 35.70 38.60 43.26 45.35 46.07 47.56 48.60 48.59 49.50 50.22
38.18 33.74 37.61 31.25 33.21 36.63 36.62 35.51 33.74 33.77 39.98 41.32 39.47 40.57 39.82 36.34 38.02 38.01 40.91 41.85 42.07 42.68 41.50 40.71 32.80 36.35 38.60 39.93 39.68 38.60 38.22 39.14 36.50 37.63 34.22 37.61 38.68 42.60 45.16 46.51 47.98 49.45 49.55 49.17 49.09
35.45 33.53 36.72 35.16 36.36 34.77 34.76 32.66 32.28 34.83 36.16 34.87 35.43 37.87 39.98 36.89 37.91 35.88 37.91 38.87 39.41 42.32 41.22 40.53 34.35 37.05 34.07 39.09 39.69 36.80 39.37 39.63 39.20 38.97 39.22 39.84 39.52 46.13 47.34 48.64 48.09 48.42 48.70 48.43 48.20
39.52 41.04 37.79 33.56 33.23 33.22 32.18 32.96 33.62 35.88 37.40 38.09 37.29 36.39 35.89 37.73 39.38 39.85 40.00 40.03 39.57 37.61 38.53 37.00 34.45 32.45 30.10 35.61 34.88 30.78 36.05 39.13 40.15 41.97 41.00 36.72 42.06 46.23 45.90 46.16 46.96 48.02 48.76 48.49 48.92

GFSSW_sfc_wetblb_060.txt.gz
Wetbulb
58.75 59.27 59.14 59.15 59.30 59.45 59.58 59.47 59.60 59.77 60.17 60.40 60.87 61.34 61.52 61.45 60.13 59.52 54.32 56.83 59.18 62.05 59.07 55.46 54.81 54.20 55.36 53.62 53.28 51.16 43.45 41.57 44.15 43.74 44.29 48.03 46.10 46.73 47.34 47.20 47.51 50.87 48.40 53.01 58.91
59.12 58.91 58.80 58.88 58.98 58.97 59.13 59.10 59.15 59.24 59.64 59.87 60.33 60.84 61.15 60.89 59.47 55.89 58.05 62.60 62.44 61.38 55.92 52.52 51.06 52.12 50.40 51.81 51.01 46.86 43.16 44.41 47.12 46.40 45.07 47.13 46.56 46.73 44.27 45.32 45.48 47.72 50.60 55.34 59.23
58.56 58.48 58.34 58.16 58.40 58.50 58.53 58.58 58.75 58.88 59.26 59.57 60.20 60.70 60.83 59.94 55.21 53.38 61.21 62.44 62.40 59.10 55.92 54.17 52.58 50.88 48.37 49.68 48.76 47.54 43.54 45.80 46.45 48.13 48.07 47.21 45.42 46.72 45.13 43.37 46.45 47.19 48.85 55.31 57.15
58.10 57.96 57.68 57.59 57.80 58.02 58.03 58.16 58.51 58.73 58.98 59.35 59.90 60.48 60.08 59.11 45.87 54.86 60.96 61.60 61.80 57.56 55.21 52.96 50.76 47.61 46.07 45.06 48.69 43.02 46.53 46.38 48.68 48.80 46.91 45.65 47.34 45.06 45.84 45.06 48.38 48.37 50.80 54.35 56.14
58.07 57.74 57.46 57.18 57.40 57.80 57.93 58.17 58.32 58.49 58.69 59.04 60.11 60.38 58.76 52.81 52.41 56.49 59.24 58.78 56.46 55.12 52.76 50.96 48.37 47.58 44.39 45.77 46.31 43.31 44.89 46.50 48.09 46.61 46.04 47.50 44.92 45.14 45.47 48.39 48.80 49.32 50.09 51.02 54.88
58.12 57.78 57.51 57.23 57.35 57.70 57.52 57.81 58.19 58.33 58.51 58.85 60.06 59.94 55.13 46.89 57.50 56.30 54.99 54.74 54.94 53.07 51.05 50.99 48.96 49.07 46.53 45.80 44.49 46.45 46.35 45.66 46.85 46.73 46.27 44.84 44.59 44.40 46.41 48.50 47.74 48.31 47.43 48.30 50.86
57.89 57.59 57.56 57.07 56.79 56.99 57.22 57.53 57.43 57.62 57.98 58.70 60.03 57.37 51.19 50.41 57.49 55.78 54.87 54.14 54.07 53.31 51.13 52.25 51.33 49.35 48.17 45.19 47.98 46.29 42.00 43.97 44.81 45.94 44.64 44.98 42.37 43.05 46.80 46.85 46.81 46.73 46.86 48.15 49.34
58.00 57.70 57.51 57.26 57.19 57.29 57.47 57.65 57.84 57.78 58.01 58.67 59.92 55.63 48.02 56.02 56.94 54.10 54.86 53.26 53.98 54.23 53.27 52.77 52.36 50.61 48.43 47.84 45.95 42.40 41.04 37.65 43.61 45.28 44.56 42.51 36.95 44.59 45.61 45.47 45.49 46.18 45.89 46.97 48.75
57.91 57.51 57.45 57.45 57.25 57.28 57.57 57.92 57.81 57.76 58.00 59.12 54.94 51.68 46.64 56.71 53.76 54.10 53.69 52.12 52.39 52.58 51.76 52.37 52.21 47.90 46.51 41.87 39.48 40.00 34.54 37.16 40.84 45.47 43.83 42.25 39.33 44.42 45.11 43.96 42.88 44.48 45.52 46.63 47.56
58.16 57.66 57.58 57.62 57.37 57.26 57.56 58.20 57.55 56.83 56.96 55.46 52.69 46.77 48.07 48.99 53.88 53.18 52.77 53.27 50.85 50.27 49.31 49.30 46.79 42.89 42.02 39.29 33.19 35.88 35.53 38.16 36.67 41.94 41.13 40.08 39.89 44.66 45.73 45.72 44.95 45.31 45.86 46.35 47.19
56.90 58.27 58.10 57.76 57.59 57.82 57.33 53.84 49.47 47.35 49.87 46.49 46.36 45.60 48.15 51.92 53.85 52.00 52.69 50.37 50.12 47.70 41.75 44.80 39.62 36.65 40.25 41.75 42.03 39.86 38.91 37.59 39.94 42.19 39.58 40.04 40.89 42.92 44.77 44.48 43.91 44.38 45.12 45.92 46.92
54.24 54.96 56.68 58.37 57.97 57.66 56.10 49.86 49.48 51.53 44.68 48.78 47.26 47.51 50.92 52.61 47.91 49.92 51.85 46.73 46.05 41.38 44.02 40.54 36.61 42.88 44.70 44.25 41.85 39.46 37.74 36.99 40.46 42.60 39.19 39.19 39.47 42.35 44.00 44.56 45.26 45.33 45.15 45.92 46.51
53.52 53.63 54.93 58.08 57.57 56.58 56.73 52.71 55.68 53.89 44.59 45.93 48.04 46.50 47.70 50.66 47.25 47.66 49.33 47.58 44.29 42.25 41.93 39.26 41.63 45.07 43.73 40.31 40.09 38.41 37.40 37.35 37.58 39.76 40.32 36.27 36.12 39.68 43.48 44.78 45.08 46.26 46.82 46.68 46.54
52.35 52.35 53.02 57.63 55.27 57.66 55.50 56.03 56.52 54.86 42.67 43.22 43.35 46.93 48.05 49.37 44.35 49.61 50.52 47.43 43.58 41.41 42.17 40.78 43.60 42.17 40.09 39.98 40.78 36.29 41.52 40.80 39.34 35.70 30.73 38.40 28.32 35.55 40.57 40.70 44.05 44.82 44.99 45.33 46.44
51.03 51.22 51.57 54.56 55.16 54.07 55.73 57.79 56.65 52.95 30.52 44.39 42.52 50.43 48.44 44.54 44.46 45.22 48.43 46.37 41.97 41.94 40.91 38.71 39.34 39.04 38.89 40.30 41.98 38.74 41.37 39.56 38.59 35.08 34.58 33.36 29.67 34.64 39.30 38.80 41.55 44.13 44.87 45.65 47.60
49.56 50.15 50.48 54.66 56.24 56.04 57.97 57.46 55.37 40.58 29.97 40.26 44.21 42.80 41.71 43.16 43.58 45.12 44.74 46.57 45.35 42.34 40.83 39.75 41.75 41.42 41.06 41.47 41.66 42.80 40.20 38.95 37.46 35.56 26.73 34.00 32.96 31.85 36.06 38.77 40.31 42.01 43.66 46.16 45.87
48.77 49.19 48.66 50.24 50.80 56.70 56.93 53.02 39.10 32.04 43.69 39.68 39.98 42.65 41.91 39.63 40.88 42.26 40.43 38.92 37.48 33.89 34.37 38.82 38.69 40.73 42.28 38.57 40.61 39.00 35.81 26.91 26.11 25.59 24.31 33.47 31.27 36.17 40.03 42.08 41.45 42.51 42.15 44.39 44.30
48.14 47.91 50.39 49.01 52.58 55.12 53.80 44.71 31.39 37.74 40.41 43.61 42.62 42.18 39.43 41.01 40.14 40.14 39.26 36.70 40.42 37.94 34.39 32.98 30.79 38.40 41.22 40.16 37.13 36.83 36.35 28.23 22.55 24.17 25.91 29.71 27.27 34.79 41.63 41.89 42.37 43.73 43.41 44.47 45.39
47.61 47.16 46.46 51.09 50.89 53.55 47.55 32.79 35.31 38.98 43.60 41.06 41.03 37.58 37.94 40.21 39.64 38.60 37.07 37.50 40.23 40.57 34.58 33.24 33.97 39.33 40.71 41.05 41.35 36.68 33.30 38.44 30.94 22.88 23.54 29.88 34.23 39.54 41.43 41.36 41.76 42.08 42.89 42.93 44.65
44.37 43.66 43.51 51.08 51.58 51.00 42.61 35.96 38.37 43.69 43.85 44.03 37.96 40.82 36.60 37.41 36.26 36.73 37.07 40.37 40.17 42.89 42.63 37.79 32.03 37.00 37.43 39.86 39.38 37.34 40.00 30.68 30.40 19.79 18.94 27.30 29.39 32.66 37.42 40.04 41.79 40.54 41.72 43.64 44.20
43.53 37.35 44.59 50.40 51.69 45.25 35.64 37.24 40.23 44.81 45.32 42.28 40.24 39.79 39.83 39.20 37.26 36.09 37.62 39.15 41.38 40.38 42.09 39.40 36.16 31.87 35.84 34.55 34.77 34.49 33.22 34.69 35.06 31.00 24.42 22.96 28.38 37.53 38.58 41.14 41.66 42.39 44.30 43.90 44.14
41.68 31.18 45.75 50.23 40.58 41.04 36.96 39.25 41.87 41.92 45.66 43.93 43.28 41.93 40.65 40.74 38.60 37.34 36.99 39.15 42.49 41.57 37.69 40.24 37.61 29.61 32.41 36.66 37.42 35.58 35.58 36.11 29.31 27.62 28.70 28.00 31.81 39.92 41.58 43.00 43.79 42.84 43.55 43.48 44.21
36.17 36.91 46.32 47.45 32.42 34.52 38.61 38.77 41.63 40.63 41.22 41.43 40.72 42.28 42.75 40.41 37.15 39.11 39.54 43.52 42.94 42.94 40.32 40.95 34.97 25.54 29.52 33.41 35.10 33.23 36.11 37.14 36.62 31.41 28.01 23.96 30.46 40.86 39.43 41.51 41.71 40.99 41.66 44.52 45.08
37.46 30.23 37.61 40.96 39.73 35.52 34.83 35.35 35.61 41.55 41.05 42.36 41.27 42.23 40.44 38.64 41.51 37.74 39.09 42.68 43.74 43.47 43.38 43.02 36.70 33.22 28.66 34.00 37.28 32.00 33.68 36.47 35.34 27.38 30.74 31.02 34.47 39.46 40.07 40.26 41.46 42.18 42.50 43.33 44.45
37.69 32.03 35.89 29.13 31.07 34.91 35.96 35.38 33.91 34.50 39.75 40.61 39.31 40.01 38.69 35.50 36.97 36.77 39.51 39.35 41.44 42.13 41.95 40.59 32.81 34.98 36.14 37.47 37.88 37.23 36.63 36.55 35.03 34.76 30.58 33.88 34.47 39.01 41.56 41.94 42.66 44.23 44.59 44.62 45.17
34.49 31.96 34.96 33.01 34.20 32.11 34.57 31.54 32.53 35.08 35.96 34.88 35.45 38.43 39.19 36.43 37.11 34.82 37.74 37.91 38.30 39.72 38.89 40.58 33.20 34.80 32.23 36.46 37.09 34.54 36.91 36.70 36.33 36.42 36.14 36.38 35.80 42.76 44.18 44.65 44.09 44.70 44.42 43.91 44.19
40.12 39.65 36.46 32.34 31.03 30.95 30.46 32.09 32.57 34.74 36.85 37.81 37.10 35.50 34.22 36.46 37.96 38.04 38.72 39.78 39.58 37.44 38.29 36.93 33.89 32.03 28.20 32.09 32.70 29.97 33.19 35.32 36.79 38.96 38.13 33.87 38.84 41.60 41.53 43.15 44.17 44.40 43.84 45.23 46.03

GFSSW_sfc_wetblb_063.txt.gz
Wetbulb
58.57 59.38 59.43 59.57 59.34 59.38 59.50 59.47 59.41 59.62 59.83 60.02 60.48 61.02 61.19 61.23 60.59 58.32 52.93 56.32 58.57 61.45 59.46 52.54 51.52 50.51 50.91 49.20 48.37 45.39 39.10 36.80 38.92 39.93 41.08 44.21 42.61 44.94 45.13 46.34 45.90 48.05 49.41 51.34 57.28
58.38 59.24 58.99 59.04 59.17 59.02 58.90 58.95 58.85 59.11 59.43 59.63 60.02 60.63 60.89 60.62 58.34 54.92 58.62 62.26 62.11 61.36 53.63 49.66 47.76 48.67 45.87 46.77 46.35 42.11 37.06 39.05 42.43 41.23 40.99 44.30 43.35 44.11 42.47 42.79 42.41 44.75 49.87 55.33 59.52
58.72 58.77 58.64 58.47 58.56 58.51 58.35 58.61 58.67 58.80 59.19 59.43 59.84 60.35 60.46 59.29 53.46 51.54 61.16 62.40 62.17 59.27 53.92 51.97 49.41 48.12 44.13 44.90 43.82 42.71 39.58 42.79 43.69 44.99 44.83 44.21 42.44 44.46 42.56 39.87 43.64 45.63 50.28 55.35 56.67
58.39 58.24 57.85 57.60 57.77 58.01 58.00 58.17 58.43 58.53 58.87 59.21 59.81 60.28 59.84 56.85 41.00 53.07 60.69 61.54 61.56 55.16 52.77 50.00 47.11 43.48 41.54 41.43 45.16 40.21 43.48 43.79 46.12 46.40 44.74 43.04 44.51 42.40 43.23 43.54 45.85 46.56 53.70 54.98 55.29
58.25 57.99 57.53 57.19 57.27 57.80 58.23 58.32 58.40 58.54 58.71 59.09 59.83 60.14 56.78 49.83 50.29 54.57 58.71 58.53 54.11 52.74 50.07 48.05 44.92 43.91 40.12 42.25 43.73 40.40 41.73 44.69 45.75 44.59 43.00 44.94 41.93 42.54 42.65 45.68 45.55 48.07 51.79 54.69 55.52
58.28 57.88 57.55 57.18 57.22 57.38 57.40 57.65 57.82 57.99 58.44 58.86 59.88 59.85 51.65 44.09 55.39 54.06 53.28 52.94 52.71 50.49 47.91 47.11 45.37 45.49 43.24 42.90 41.21 42.84 43.18 43.36 44.41 44.21 43.69 42.33 41.29 42.10 44.50 45.57 44.51 46.28 47.97 51.47 53.97
57.97 57.67 57.59 57.14 56.68 56.89 57.41 57.74 57.96 57.92 58.00 58.54 59.71 56.50 47.85 47.25 54.52 52.58 53.13 51.79 51.80 50.82 48.07 49.05 47.80 45.37 44.31 41.81 45.01 43.23 38.63 40.22 42.38 43.46 42.12 42.99 38.38 41.02 44.22 44.37 44.55 44.15 43.65 46.55 50.03
57.98 57.20 57.24 57.13 56.94 57.15 57.44 57.84 58.20 58.31 58.30 58.53 59.77 52.50 44.60 53.96 53.36 52.08 52.25 50.53 51.25 51.52 50.55 49.08 49.01 47.70 45.42 44.52 42.72 38.69 38.07 34.82 40.55 42.69 42.31 40.36 33.89 41.11 44.04 43.09 44.03 43.42 42.12 43.64 45.68
57.64 57.16 57.16 57.23 57.08 57.15 57.50 57.90 57.87 58.28 58.10 58.72 52.44 47.76 43.18 55.77 51.08 51.46 50.58 49.77 49.99 49.61 48.79 51.29 49.13 43.87 42.99 38.48 35.25 36.22 30.71 33.87 37.84 42.58 41.78 39.05 35.23 42.31 44.37 41.59 41.41 41.81 42.71 43.34 43.73
57.90 57.45 57.40 57.40 57.37 57.29 57.68 58.24 58.08 56.17 56.52 55.57 51.22 41.92 45.44 47.31 51.62 50.99 49.87 50.75 48.22 47.05 46.36 45.33 42.73 38.61 37.41 35.07 29.71 32.16 32.22 35.20 34.37 39.52 39.60 36.91 37.41 41.29 43.31 42.96 43.13 42.81 42.53 42.89 43.51
55.60 57.59 58.00 57.66 57.66 57.95 55.68 51.30 44.75 42.17 46.25 42.00 43.12 42.93 47.32 50.03 52.05 49.53 50.14 48.14 47.64 44.39 38.46 40.61 36.05 33.17 36.16 37.62 38.13 36.79 35.09 32.86 36.09 40.32 38.36 37.52 37.32 39.99 42.71 41.04 40.69 41.51 41.76 42.63 44.36
54.25 54.76 56.60 58.54 58.11 57.89 54.26 49.05 44.98 46.39 40.21 45.78 44.93 46.01 49.48 50.24 46.02 47.50 49.67 44.11 42.65 38.07 40.24 36.73 33.21 39.18 40.51 40.48 39.16 37.09 34.11 32.90 36.78 39.85 37.30 36.32 37.42 39.24 41.14 42.79 42.26 43.07 41.27 42.23 42.92
53.38 53.19 54.38 57.96 57.88 55.75 53.85 50.76 52.97 50.28 40.87 43.78 45.40 44.53 45.53 48.96 45.00 45.47 47.41 44.65 41.14 38.21 38.61 35.18 38.68 41.39 41.33 37.78 37.75 35.38 34.26 33.73 34.34 37.10 35.99 34.00 33.65 36.07 40.61 41.02 42.08 42.92 43.66 43.64 44.11
51.98 52.24 52.57 55.73 54.58 55.16 53.01 53.85 54.29 51.33 38.81 41.06 41.55 44.56 46.86 47.19 42.28 47.86 47.87 45.28 40.79 39.26 39.42 38.30 41.41 40.60 37.79 37.53 38.27 33.70 37.87 38.36 36.77 33.24 28.83 35.45 26.18 32.25 38.93 39.78 39.53 41.43 42.12 42.52 42.88
50.40 51.05 51.56 53.84 53.64 53.19 55.13 56.23 54.57 50.28 25.31 41.20 41.09 48.44 46.16 41.80 42.46 43.71 46.42 44.11 39.54 39.99 38.69 36.61 37.45 37.10 36.51 38.02 39.52 36.43 39.07 37.32 36.25 32.83 31.08 30.37 27.56 31.65 35.00 36.52 39.56 41.03 41.45 41.42 43.01
48.69 49.50 50.23 53.33 53.75 55.06 56.86 56.07 53.22 36.90 26.32 38.42 42.02 40.68 39.72 41.01 41.65 42.99 42.58 44.47 43.44 39.89 38.79 37.45 39.95 39.29 39.18 39.51 39.64 40.89 38.72 37.48 35.35 32.38 24.46 31.16 30.21 27.78 33.10 37.12 37.16 40.30 40.78 43.30 43.88
48.13 47.89 47.79 50.16 50.81 54.04 56.15 51.62 37.44 31.13 41.06 37.34 37.96 40.36 38.94 37.02 38.73 39.60 38.24 37.30 35.15 32.43 32.07 35.90 36.21 38.53 40.59 37.17 39.51 37.75 32.98 24.90 23.79 23.58 23.44 29.30 27.47 31.65 37.31 40.33 39.18 40.33 40.48 43.48 43.45
48.12 47.79 49.26 49.27 50.88 52.97 52.68 43.42 30.65 35.42 37.56 41.06 40.20 39.25 36.70 38.41 37.92 38.69 36.37 33.86 37.17 34.27 30.79 30.62 28.38 36.94 39.88 37.99 35.97 35.56 33.36 25.58 20.90 22.10 23.83 28.49 26.57 34.14 39.61 40.70 41.19 41.57 41.00 41.42 42.12
48.07 44.48 44.20 49.69 50.32 52.70 46.75 33.36 34.76 37.36 41.13 38.78 38.63 35.24 35.06 37.20 36.95 36.10 34.88 34.69 37.42 37.72 32.58 30.46 30.96 37.31 38.35 39.59 39.63 34.78 31.98 36.31 29.16 18.22 21.61 27.08 31.33 37.32 39.62 40.57 40.88 40.27 41.40 41.46 41.84
40.88 41.00 41.53 50.65 51.68 50.77 40.80 34.09 37.77 42.22 42.89 40.30 34.79 36.76 32.41 34.70 33.94 33.79 33.55 37.26 38.19 39.18 38.73 35.24 30.41 35.10 36.28 38.40 37.78 36.63 38.30 30.26 28.48 18.48 17.37 24.03 26.53 30.77 35.81 38.92 40.00 40.52 41.58 42.53 42.53
39.84 34.44 42.11 48.88 50.45 45.21 34.23 36.76 39.30 43.82 44.41 41.94 39.54 36.99 35.85 34.46 34.49 32.94 34.57 36.04 38.80 38.52 40.03 37.14 34.27 30.25 33.94 33.06 33.28 33.54 32.32 33.20 33.41 28.79 22.76 20.17 26.63 34.71 36.70 38.31 39.68 40.91 42.31 42.64 42.96
37.79 28.43 43.01 47.71 40.02 40.77 37.05 37.74 40.92 40.69 43.77 43.35 43.41 41.50 38.84 37.82 34.46 34.16 35.52 37.00 39.39 39.88 36.64 38.03 35.01 26.50 30.83 34.12 35.18 33.46 33.65 33.88 27.29 25.88 26.49 26.18 30.49 38.75 40.30 40.65 41.53 41.53 42.27 41.38 42.33
32.30 32.56 43.56 46.15 32.12 32.89 36.98 38.95 40.43 39.43 40.26 41.25 40.18 41.90 42.20 39.65 37.05 37.25 37.79 42.00 41.73 40.63 38.44 38.94 32.64 22.03 27.61 32.07 33.95 31.51 33.97 35.21 34.00 29.54 26.97 22.34 30.01 37.93 38.26 40.11 40.47 41.69 42.54 43.61 43.13
34.03 26.92 34.24 38.61 36.91 32.73 32.97 34.04 35.87 40.63 40.01 40.77 39.68 40.97 39.43 39.05 40.85 37.86 39.22 40.50 41.23 42.12 43.06 42.41 34.94 30.00 25.62 31.27 35.54 30.65 33.39 35.66 34.00 26.44 29.06 29.18 33.51 37.52 38.99 39.04 39.19 40.42 41.06 41.78 43.01
34.75 28.40 31.54 25.55 28.65 33.00 33.70 34.15 32.79 33.36 38.63 40.21 37.24 38.39 37.28 34.57 36.36 36.90 39.51 38.38 40.44 42.61 41.29 40.43 33.28 34.54 34.41 36.29 37.36 36.74 35.56 35.84 33.31 32.45 28.81 31.66 32.02 37.12 38.99 40.68 42.10 40.90 42.44 42.32 42.71
30.34 28.12 30.91 29.66 29.98 30.51 31.48 30.52 31.85 33.96 35.29 34.41 34.73 37.77 38.68 35.81 36.39 34.20 37.69 37.84 36.77 39.62 39.51 39.11 31.72 35.40 32.02 35.38 36.08 34.17 36.04 35.48 35.85 35.10 33.92 34.12 33.44 40.53 41.78 42.54 41.68 41.64 41.74 41.95 42.15
39.65 35.68 32.05 29.64 28.59 27.21 27.27 30.18 30.62 34.10 35.77 36.94 35.88 34.97 33.36 35.20 37.55 37.46 38.69 39.07 38.43 37.66 38.08 37.30 33.74 32.02 28.47 31.98 32.22 28.73 32.15 34.20 35.62 37.18 36.99 33.00 37.37 41.24 40.46 40.37 39.91 42.17 42.45 41.98 41.17

GFSSW_sfc_wetblb_066.txt.gz
Wetbulb
58.44 59.64 59.79 60.06 60.02 60.08 59.86 59.56 59.43 59.62 59.74 59.86 60.03 60.63 60.69 60.93 60.59 57.09 52.21 55.54 57.06 61.85 59.52 50.81 50.30 49.16 49.45 47.35 47.16 43.56 38.62 35.32 36.47 38.33 40.11 42.35 42.15 42.94 43.98 44.96 44.66 46.05 48.73 50.67 58.02
58.73 59.24 59.45 59.50 59.44 59.47 59.39 59.02 58.86 58.91 59.10 59.18 59.59 60.26 60.48 60.49 57.04 53.10 58.02 62.22 62.35 61.16 51.55 48.89 47.16 47.47 45.67 45.90 45.75 40.89 36.28 38.23 40.40 40.29 40.92 43.05 41.95 43.99 42.06 41.96 44.50 45.08 50.94 53.96 58.49
58.84 58.69 59.07 59.04 58.97 58.66 58.47 58.36 58.33 58.45 58.79 59.09 59.55 59.94 60.00 58.86 51.58 51.06 60.85 61.91 61.10 58.65 52.56 50.43 47.86 47.20 43.04 43.97 42.62 40.57 38.05 40.78 42.05 42.85 43.73 43.52 40.99 42.94 41.54 39.07 43.23 44.93 50.12 54.66 56.88
58.82 58.78 58.52 58.32 58.36 58.30 58.16 57.97 58.28 58.23 58.44 59.03 59.70 59.95 59.58 56.38 39.27 52.27 60.14 60.52 60.81 53.90 51.31 48.46 45.49 43.23 41.58 41.71 44.16 39.94 41.66 41.98 44.59 44.57 42.93 42.33 42.58 40.69 41.75 42.69 45.02 45.83 53.19 55.47 57.60
58.50 58.37 58.02 57.67 57.62 57.87 57.91 57.92 58.19 58.27 58.54 58.95 59.71 59.84 55.94 48.46 49.47 53.44 58.71 57.79 52.49 51.80 48.81 46.73 44.26 42.30 39.98 41.50 41.92 39.27 40.10 43.50 44.03 43.12 41.93 43.20 40.40 41.03 41.71 44.15 43.85 46.05 53.45 54.95 57.62
58.21 57.92 57.51 57.22 57.35 57.38 57.15 57.25 57.72 57.70 58.02 58.61 59.69 59.59 51.10 42.48 54.35 53.21 52.20 51.68 51.50 49.12 47.42 46.47 44.73 44.78 42.65 41.49 39.68 41.78 41.95 42.10 42.72 41.92 41.88 40.45 39.10 40.35 42.64 43.41 42.88 46.41 51.36 53.05 54.75
58.17 57.76 57.51 57.19 56.62 56.55 57.00 57.56 57.99 58.19 58.37 58.52 59.38 56.13 47.81 45.92 53.26 51.20 52.12 50.65 50.33 49.26 46.59 47.64 46.52 42.98 43.18 41.25 43.62 41.71 37.48 39.12 39.99 41.18 40.29 40.87 36.55 39.66 41.54 42.53 42.19 43.06 45.72 50.63 52.92
57.74 57.21 57.11 57.06 56.80 56.96 57.22 57.54 58.00 58.32 58.49 58.48 59.44 51.76 42.73 52.92 52.70 51.04 51.07 49.33 50.16 50.44 48.81 48.19 48.24 46.70 43.86 42.82 41.69 37.66 36.51 32.31 37.68 40.84 40.68 37.72 33.52 38.46 41.90 39.66 41.75 41.01 40.29 42.78 47.78
57.45 56.82 57.06 57.01 56.85 56.99 57.32 57.76 57.71 58.09 58.05 58.48 51.53 46.58 41.90 55.38 49.57 50.42 49.72 48.67 49.15 48.17 47.89 50.69 47.76 42.71 41.86 37.66 34.14 34.72 29.53 31.36 35.70 41.41 39.75 37.04 34.91 39.41 41.00 41.21 39.45 40.37 40.91 41.37 42.13
57.40 57.07 57.12 57.20 57.17 57.18 57.66 58.22 57.87 56.36 55.88 55.02 50.46 40.40 45.91 45.90 50.85 50.13 49.28 49.93 46.61 45.78 45.42 44.75 40.47 37.34 35.58 33.89 28.16 31.23 31.05 32.54 31.80 37.99 37.50 35.51 37.06 40.01 41.92 40.20 40.98 40.71 40.94 40.91 41.66
56.47 57.56 57.76 57.44 57.46 57.86 55.40 47.96 42.02 41.21 45.37 41.08 42.24 42.37 46.68 49.60 51.42 48.40 49.21 47.70 46.74 43.12 37.57 39.92 35.60 33.25 35.91 36.32 34.74 35.27 33.34 31.72 34.17 38.37 36.59 36.37 36.02 38.80 40.90 39.29 39.35 39.63 40.11 40.42 42.13
54.66 55.71 57.21 58.35 58.00 57.84 53.67 46.09 42.40 44.45 39.40 44.92 44.57 46.59 48.93 50.14 45.55 46.48 48.86 43.29 41.64 36.83 38.55 36.31 33.09 37.68 38.13 37.79 36.25 34.24 32.29 31.72 35.16 38.13 35.99 34.82 36.54 38.65 39.69 39.61 39.80 40.33 39.73 40.44 41.31
53.13 53.48 54.91 57.98 58.05 55.29 52.66 51.70 51.90 49.53 39.47 42.64 44.29 44.22 45.94 48.68 43.92 44.78 46.60 43.40 39.22 37.14 36.72 33.57 36.55 39.64 39.64 37.02 36.47 33.97 32.65 31.98 33.29 35.22 34.05 33.14 32.23 34.02 38.02 38.91 40.38 41.10 41.26 41.18 41.57
51.56 52.04 53.25 55.35 54.91 54.57 52.08 53.25 53.36 50.89 36.64 39.02 41.00 43.50 46.03 46.66 42.16 47.18 46.37 44.29 39.86 37.42 37.85 36.56 39.28 38.19 36.58 36.30 36.85 32.40 37.00 36.13 35.26 31.77 27.78 32.19 25.23 30.72 36.39 37.72 38.03 39.45 38.37 39.61 40.67
49.95 50.65 51.94 55.28 53.78 52.55 54.61 55.99 53.63 48.77 22.63 39.42 40.11 47.33 44.96 41.57 42.43 42.88 45.58 43.56 39.21 38.93 38.72 35.96 36.97 36.81 35.44 36.79 37.91 35.45 37.42 35.65 34.15 31.43 29.12 28.84 26.83 30.41 32.74 35.50 38.06 38.52 38.98 40.61 40.23
48.32 49.12 50.65 53.09 54.08 53.65 56.23 55.36 51.48 36.27 25.03 37.23 40.64 39.71 39.18 39.92 40.68 42.20 41.84 43.79 42.31 38.83 37.55 36.48 38.79 38.04 37.65 38.29 37.52 39.58 36.66 34.55 32.94 29.85 23.66 29.30 28.34 27.32 31.56 35.15 35.75 38.21 39.56 41.60 42.63
47.91 47.40 48.47 50.32 50.78 53.76 55.95 51.10 36.80 26.64 38.58 35.79 37.18 38.34 37.11 36.54 37.89 38.44 38.03 36.66 35.13 31.51 30.98 34.83 34.97 37.46 39.16 36.70 38.24 35.42 31.84 23.95 22.50 21.96 22.36 27.36 26.40 30.11 35.77 37.42 37.61 39.09 39.41 42.11 41.77
48.09 47.80 48.78 49.42 51.00 52.15 52.69 41.98 30.99 33.55 36.10 39.61 39.02 37.86 34.89 37.58 36.44 37.05 35.07 33.64 35.98 33.10 30.53 29.90 28.33 36.22 38.90 37.25 35.49 33.72 31.97 24.70 19.64 19.89 22.70 27.72 25.89 33.27 37.44 39.51 38.99 40.19 39.09 40.57 41.68
47.76 44.28 44.22 49.61 50.35 52.24 46.76 34.62 34.66 35.86 39.89 38.08 38.32 34.15 33.98 36.30 36.46 35.68 33.86 32.88 35.87 35.90 31.71 29.38 29.57 35.97 36.95 37.56 38.48 34.10 30.46 34.03 27.12 15.11 20.79 25.78 29.84 36.13 37.78 37.21 37.84 39.62 41.16 41.30 41.21
40.81 40.71 41.43 50.70 50.92 49.69 38.32 34.60 37.69 41.59 41.36 39.68 34.59 36.38 31.45 33.21 33.19 33.48 33.20 36.81 36.90 38.19 37.11 34.51 28.86 33.52 35.05 36.93 36.26 34.83 37.37 29.79 27.09 17.40 15.77 22.82 24.75 29.50 34.98 37.66 38.29 40.27 40.63 41.10 41.23
38.79 33.08 41.93 49.31 50.74 44.27 32.48 34.69 38.87 42.34 43.18 40.02 36.97 35.41 34.71 33.61 33.39 31.81 33.45 35.33 38.24 37.43 38.69 36.73 33.76 30.09 33.66 33.08 32.97 33.23 31.98 31.88 32.17 27.36 21.50 18.25 25.64 33.38 34.70 36.84 38.81 39.35 40.14 40.19 39.98
36.02 27.32 42.38 47.77 40.31 40.94 35.67 39.10 41.56 41.29 44.23 43.28 42.32 39.87 35.65 35.74 33.38 33.10 33.45 34.45 38.77 38.42 34.25 36.38 33.42 26.38 30.27 32.87 34.20 32.31 32.72 32.46 26.93 24.52 25.17 25.16 27.57 36.60 38.97 38.82 39.71 40.37 41.42 41.34 41.99
31.93 32.21 43.00 45.89 34.04 35.54 38.96 39.23 40.31 39.12 41.46 41.73 40.63 41.97 41.67 38.62 34.19 35.52 36.51 40.14 40.33 39.14 37.07 37.87 30.73 22.48 28.03 31.43 32.92 31.24 32.83 33.64 32.19 28.66 26.60 22.00 26.85 36.16 36.81 37.28 37.43 38.21 38.09 41.31 41.34
31.53 27.06 33.94 39.48 37.92 34.41 35.17 36.07 36.15 40.86 39.93 40.62 40.52 41.43 40.50 39.37 41.13 38.14 38.10 39.74 41.19 41.49 42.60 41.33 33.55 28.74 26.46 29.43 32.13 29.69 31.90 33.53 32.34 25.25 28.80 28.88 31.01 33.88 35.83 36.64 38.87 39.33 38.58 40.68 41.75
31.52 27.68 31.27 26.67 32.00 33.49 34.46 35.78 34.89 33.91 39.07 39.94 36.87 37.14 38.07 35.96 38.28 37.35 39.00 39.36 40.56 42.33 41.16 39.79 30.39 32.82 33.16 35.49 35.61 33.66 33.35 34.06 32.65 30.84 27.75 30.41 30.99 33.85 36.83 38.82 41.01 38.79 39.88 39.59 41.05
29.09 27.64 29.75 28.89 30.62 32.79 32.13 31.36 33.12 34.82 36.04 34.83 34.41 36.79 38.28 35.19 36.91 36.20 38.75 38.14 37.88 39.80 39.31 38.51 30.77 34.32 29.58 34.74 35.65 34.29 35.41 35.00 34.47 33.97 33.73 33.27 33.04 38.59 39.01 38.57 38.32 39.92 39.80 39.50 39.26
38.17 34.77 30.48 28.82 27.82 30.00 29.50 30.75 31.56 35.16 35.79 37.52 36.85 35.14 35.60 36.60 37.21 37.88 38.85 39.65 39.53 37.40 37.38 36.43 32.87 31.79 25.20 31.01 32.20 29.14 32.91 34.33 34.48 35.45 35.23 31.40 37.00 37.62 37.25 37.80 38.13 38.96 38.83 38.73 38.83

GFSSW_sfc_wetblb_069.txt.gz
Wetbulb
58.60 59.23 60.05 60.26 60.53 60.55 60.52 60.26 60.02 60.22 60.44 60.48 60.68 60.67 60.45 60.61 60.24 56.70 50.80 54.48 55.37 60.43 58.74 49.98 49.20 48.13 48.48 46.25 45.71 42.49 37.85 34.93 35.63 36.93 39.00 41.62 40.43 41.29 42.66 43.74 44.73 45.40 49.35 50.44 59.21
58.48 59.45 59.78 60.05 59.93 59.96 59.92 59.66 59.39 59.21 59.44 59.62 59.80 60.29 60.19 60.22 55.77 51.45 59.04 61.46 62.03 60.63 50.85 48.12 46.00 46.94 45.37 44.86 44.34 40.20 36.29 38.10 39.83 39.96 39.79 42.11 40.49 42.98 42.77 41.58 43.43 44.41 49.29 52.80 58.74
58.83 58.92 59.20 59.57 59.52 59.39 59.12 58.77 58.45 58.61 58.88 59.35 59.38 59.73 59.77 58.38 50.53 49.80 60.15 61.51 61.90 58.13 50.72 48.78 47.67 46.29 42.75 42.46 41.81 38.74 37.25 40.04 40.86 41.36 42.47 42.31 39.55 40.76 41.08 40.30 42.87 44.45 48.65 54.29 56.44
58.78 58.86 59.09 59.00 59.01 58.91 58.66 58.22 58.22 58.36 58.27 58.97 59.36 59.69 59.45 56.02 38.34 50.91 59.52 60.50 60.72 52.90 50.76 47.95 45.47 41.87 40.79 40.56 42.84 39.31 40.24 41.21 44.00 43.23 42.34 41.30 41.38 39.33 39.73 42.25 43.28 45.83 51.28 55.00 56.73
58.19 58.50 58.68 58.30 58.33 58.40 58.25 58.18 58.06 58.20 58.24 58.70 59.38 59.70 55.64 48.17 48.27 52.32 58.13 57.51 51.36 51.24 47.88 45.80 43.38 41.94 39.90 40.09 41.17 38.91 39.70 42.96 43.12 42.16 40.63 42.43 39.36 39.94 40.71 42.72 43.03 44.01 52.70 55.26 57.76
58.01 58.01 58.06 57.59 57.60 57.94 58.01 57.42 57.50 57.73 57.87 58.34 59.29 59.49 50.71 41.67 52.97 52.29 51.58 51.27 50.67 48.87 46.72 45.68 44.29 44.00 41.08 39.80 39.28 40.02 41.87 41.15 41.38 40.88 40.59 39.66 37.72 41.48 40.20 41.41 40.54 47.14 50.60 53.08 55.99
57.88 57.71 57.56 57.23 57.25 57.08 56.90 57.41 57.60 58.07 58.22 58.37 58.84 55.89 47.06 44.89 52.69 50.69 51.33 49.97 49.96 48.17 46.00 46.48 45.69 42.44 41.51 40.51 41.94 40.36 36.92 37.41 38.85 40.08 38.97 39.92 35.43 38.60 40.35 39.58 40.75 42.33 47.72 50.93 54.21
57.64 57.62 57.49 57.31 56.99 56.97 57.10 57.28 57.82 58.27 58.47 58.10 59.08 51.82 42.47 52.05 51.84 50.56 50.06 48.62 49.76 49.77 48.25 47.41 47.67 45.52 41.96 41.68 40.12 36.97 34.95 30.95 36.29 39.28 38.98 36.36 32.26 36.30 39.72 37.94 39.69 39.73 40.13 45.17 50.01
57.00 56.83 56.98 56.97 56.81 56.91 57.20 57.72 57.62 57.85 57.59 58.13 51.21 45.16 40.82 54.74 48.54 49.67 48.97 48.04 48.26 47.63 47.75 49.71 46.62 41.23 40.16 35.83 32.44 33.62 28.65 30.51 34.68 39.85 38.27 35.88 34.09 37.91 39.86 39.51 39.46 38.05 39.45 40.10 41.87
57.02 56.65 56.99 57.09 57.02 56.98 57.40 58.07 57.85 56.16 55.05 53.89 49.61 39.61 45.65 46.21 49.89 48.90 48.31 49.41 45.69 45.95 45.22 44.36 40.37 36.54 34.86 32.15 28.17 30.18 29.24 30.96 30.22 35.86 36.47 34.05 36.52 38.69 40.62 38.57 39.75 39.43 39.41 39.52 39.96
57.20 57.11 57.25 57.25 57.21 57.51 55.26 47.21 41.78 41.85 45.23 40.30 41.18 41.41 45.22 49.10 50.32 47.29 48.42 47.30 45.15 42.56 36.98 38.79 35.83 32.78 35.71 34.64 32.12 33.04 31.74 31.25 33.42 37.38 35.56 34.47 34.88 38.03 40.13 37.05 38.37 38.59 39.05 39.01 40.56
55.98 57.41 57.92 57.81 57.79 57.52 53.38 42.39 41.27 44.07 39.62 44.12 43.94 46.24 48.19 49.17 44.27 45.36 47.65 42.28 41.22 36.02 37.81 35.95 32.43 37.22 37.38 36.49 35.30 33.35 31.50 31.09 34.32 36.96 35.65 33.97 35.24 37.54 38.91 38.64 39.15 39.42 39.07 38.89 38.71
53.32 53.76 55.68 58.31 57.84 54.91 51.61 50.38 51.17 48.76 38.85 41.44 43.42 44.39 45.75 47.42 43.07 43.60 45.84 42.26 38.27 36.78 35.59 33.78 36.01 38.50 37.93 34.87 34.39 31.47 31.09 30.97 31.45 33.89 33.49 31.53 31.03 32.10 35.93 36.38 38.88 39.55 39.64 39.29 39.81
51.81 52.24 52.86 57.35 54.39 53.55 51.20 54.31 52.80 49.74 35.05 37.76 40.35 42.24 45.81 46.11 41.80 46.50 45.45 43.50 38.35 36.08 36.80 35.11 37.99 37.11 36.30 35.06 35.67 31.76 36.30 35.26 34.06 30.79 27.11 30.37 25.12 29.74 33.88 35.63 36.87 38.05 36.46 37.55 38.35
49.78 51.02 52.26 55.53 52.84 52.38 54.05 55.20 53.10 46.89 22.31 38.34 39.61 46.70 44.86 41.47 41.43 42.39 45.05 42.49 38.34 37.48 37.32 34.61 36.81 36.04 34.44 35.88 37.07 34.06 36.84 34.99 33.01 30.06 28.98 28.17 26.57 30.00 30.42 34.26 36.09 37.21 38.32 40.31 41.05
47.97 49.01 51.28 53.47 54.68 53.67 54.88 54.19 50.11 35.31 23.55 35.51 39.54 38.99 38.89 39.34 40.61 41.90 42.24 42.94 41.64 38.52 36.85 35.27 37.54 36.34 36.50 36.78 36.31 37.99 35.15 32.91 31.27 28.39 23.25 28.00 26.83 26.64 29.96 31.92 36.20 37.77 39.69 40.56 40.09
48.14 47.81 49.55 50.41 50.89 53.25 54.53 49.48 35.41 23.26 37.02 34.92 35.27 37.50 36.38 35.83 37.67 37.95 37.78 36.69 34.55 30.92 30.37 33.50 34.01 36.56 38.17 35.81 37.07 33.93 30.86 23.76 21.82 21.09 21.59 26.01 25.08 29.24 33.20 35.01 34.63 36.68 38.02 38.69 39.46
48.33 48.06 48.23 49.61 51.28 52.49 52.24 41.77 26.64 31.76 34.03 37.99 37.69 36.08 33.74 36.94 35.77 36.26 35.26 34.36 35.43 33.27 30.15 29.85 28.21 35.81 37.83 36.43 34.68 32.47 31.56 24.65 19.05 18.19 21.83 26.99 24.92 31.80 36.31 36.72 36.34 36.98 38.37 39.32 39.76
47.12 44.51 44.75 49.03 50.34 52.43 46.97 35.11 31.83 34.48 39.01 36.60 36.30 32.48 32.77 35.08 35.68 34.83 33.80 33.00 36.46 35.54 31.58 29.21 29.11 35.34 36.16 36.46 37.85 33.07 28.85 32.23 25.11 13.36 19.73 24.60 28.34 34.83 35.75 34.94 37.97 39.86 40.20 39.78 40.24
40.78 40.79 41.83 50.45 51.02 48.83 40.87 35.88 37.77 40.76 40.18 38.96 33.36 35.11 30.76 32.42 33.00 32.76 32.33 35.56 35.69 37.47 36.05 34.18 28.36 32.86 34.33 36.47 35.53 33.72 36.28 28.52 25.49 16.05 14.50 21.23 23.46 28.16 32.64 35.07 36.80 38.29 38.98 39.45 39.82
39.07 33.78 42.18 50.17 50.16 42.49 33.12 37.17 38.83 41.84 41.73 38.18 35.90 34.62 33.60 32.37 32.96 31.81 33.05 34.51 37.46 36.18 37.31 34.53 32.89 29.40 33.26 32.10 32.03 32.48 30.98 30.59 31.07 26.12 19.84 16.29 24.14 31.66 32.83 36.76 37.26 37.19 39.36 40.06 39.68
36.03 26.82 42.34 48.82 39.30 35.92 34.24 37.14 41.38 41.14 42.80 42.19 40.97 38.18 34.88 34.56 32.15 31.94 32.30 34.71 38.45 37.12 34.09 35.73 32.60 26.30 29.59 32.24 33.46 32.98 31.93 31.59 26.15 23.76 24.02 24.50 26.03 35.44 37.76 37.66 38.78 38.62 39.76 39.46 41.66
32.62 31.69 42.48 45.35 33.13 33.35 37.89 39.34 40.71 40.04 40.86 40.98 40.11 41.26 40.36 35.77 33.09 33.89 34.54 38.35 38.17 37.39 35.81 36.73 30.14 23.03 28.09 30.62 31.85 30.44 31.83 32.58 31.09 28.75 25.41 22.54 25.65 35.43 34.63 35.51 36.55 37.56 37.96 40.53 40.95
32.24 28.38 33.20 39.40 38.59 36.14 36.58 36.90 37.02 41.82 40.98 42.21 40.74 41.56 40.27 38.64 39.99 36.30 36.32 38.91 39.71 39.92 42.10 40.17 31.57 29.37 27.47 28.88 31.78 29.21 30.47 31.87 32.16 25.14 27.87 27.66 29.16 32.19 33.86 34.76 36.28 36.44 36.60 37.66 38.88
30.85 28.44 31.12 25.94 32.78 34.19 36.23 37.58 35.61 35.16 40.18 40.85 38.00 39.53 39.28 36.79 37.64 37.21 38.53 38.21 39.90 41.12 40.23 38.46 28.98 31.35 32.31 34.61 33.67 32.03 31.64 32.80 29.86 32.52 28.05 31.17 30.15 33.09 35.60 36.95 37.26 37.59 38.29 38.90 39.10
28.94 27.45 30.79 28.83 30.24 33.48 33.31 32.57 34.89 35.69 37.20 35.94 35.31 38.27 39.75 36.24 37.39 36.56 38.11 38.62 37.74 38.93 38.73 38.15 30.73 32.93 30.71 34.19 34.26 31.28 33.97 33.49 32.16 31.81 32.52 32.10 33.02 38.32 39.37 37.55 38.54 38.33 38.64 37.86 37.64
35.87 33.71 31.03 28.93 27.70 30.95 31.55 31.27 32.74 36.16 36.62 38.02 38.25 36.86 36.93 37.13 39.78 40.20 42.09 41.15 40.85 38.56 37.70 36.75 33.45 29.62 27.84 32.38 32.88 29.58 31.87 33.07 33.16 34.90 34.59 31.31 35.34 36.72 35.64 36.58 37.08 36.82 36.63 36.21 36.73

GFSSW_sfc_wetblb_072.txt.gz
Wetbulb
58.86 59.37 59.79 60.26 60.03 60.71 61.06 60.97 60.77 60.56 60.67 61.58 60.83 61.25 60.82 60.38 60.02 56.57 49.65 53.30 55.72 60.51 58.28 49.79 48.42 47.22 47.76 45.21 43.97 41.32 37.31 34.42 35.82 36.37 38.13 39.08 39.60 39.78 41.61 42.52 43.13 45.55 47.89 48.87 58.95
58.37 58.72 59.67 59.50 60.05 60.44 60.41 60.24 59.96 59.76 59.91 60.32 59.98 60.44 60.23 60.09 54.61 50.66 57.96 61.25 60.99 59.68 49.45 47.75 45.65 46.92 44.49 43.26 42.61 39.67 36.01 37.82 39.04 38.46 38.27 40.21 39.33 41.81 41.82 42.02 42.28 43.29 47.20 51.65 58.72
58.23 58.68 59.13 58.78 59.93 59.96 59.85 59.63 59.11 58.92 59.00 59.38 59.36 59.59 59.74 58.30 50.54 49.36 61.16 60.97 60.22 57.08 49.97 47.65 47.42 46.04 42.44 41.52 40.96 37.90 37.21 38.98 39.61 40.48 42.22 41.87 38.70 39.81 40.78 39.46 42.52 43.74 46.38 54.28 56.31
58.53 58.67 58.99 59.56 59.45 59.48 59.21 58.77 58.45 58.39 58.52 58.57 58.93 59.49 59.33 54.99 37.91 50.43 60.24 60.38 59.55 52.83 49.86 47.14 44.73 41.53 40.43 40.04 41.69 38.08 39.07 39.39 42.15 41.91 41.52 41.64 41.26 38.75 39.86 42.43 41.54 43.78 48.75 54.37 57.10
58.27 58.31 58.74 59.10 58.97 58.92 58.64 58.26 58.26 58.19 57.93 58.16 58.77 59.45 55.53 48.80 48.49 52.33 58.65 57.87 51.12 50.77 47.63 44.92 42.91 41.44 40.56 40.53 40.57 37.67 38.38 40.92 41.58 41.69 40.88 41.99 38.85 39.70 40.24 41.80 41.82 42.75 51.68 54.89 57.60
57.82 57.84 58.20 58.49 58.29 58.41 58.32 58.11 57.74 57.60 57.39 57.69 58.50 59.07 50.73 41.65 51.60 51.63 50.96 50.78 49.85 47.99 45.61 45.46 44.48 43.02 40.76 39.45 39.07 39.50 39.48 39.78 39.98 40.11 40.41 39.24 37.24 40.89 40.84 41.13 39.84 43.75 48.13 52.56 56.03
57.75 57.72 57.75 57.79 57.60 57.88 57.75 57.38 57.60 57.66 57.85 57.91 58.38 55.30 47.13 44.42 51.29 50.45 50.59 48.83 49.74 47.96 46.03 45.69 44.71 42.60 42.26 39.33 41.48 39.64 37.02 36.23 37.13 38.67 38.86 39.32 35.73 38.19 38.84 38.36 38.81 39.61 43.90 48.75 52.34
57.41 57.26 57.35 57.44 57.33 57.01 57.07 57.43 57.70 57.98 58.07 58.28 58.77 50.89 42.70 51.38 50.89 49.71 49.29 47.78 49.04 48.98 47.63 46.79 46.87 44.56 41.13 41.44 39.38 36.14 33.51 31.08 34.07 38.32 37.71 36.01 32.26 35.06 38.08 38.19 38.53 38.42 38.65 41.98 48.77
56.78 56.76 57.19 57.25 57.02 57.14 57.34 57.60 57.60 57.64 58.06 58.24 50.77 44.46 39.86 54.08 47.40 48.47 48.36 47.62 47.13 46.67 47.41 48.51 45.15 40.43 39.78 35.76 32.44 32.17 28.47 28.68 31.63 37.57 36.82 34.87 34.06 36.94 38.36 38.18 38.83 38.34 38.34 39.35 40.79
56.45 56.59 56.91 56.93 56.78 56.91 57.27 57.75 57.66 55.98 54.59 53.76 48.75 39.98 45.23 45.26 48.70 48.40 47.63 47.89 45.67 45.49 44.57 43.23 38.81 36.68 34.15 32.68 28.16 29.07 28.79 28.81 29.04 33.71 36.15 33.59 35.71 37.75 39.56 38.44 39.43 38.53 38.21 38.25 39.08
56.54 56.54 56.85 57.07 57.12 57.38 55.24 48.71 43.34 42.35 44.15 40.43 40.98 40.56 44.42 48.09 48.64 46.20 47.58 46.17 43.94 41.76 36.46 37.56 34.53 32.84 35.32 34.52 32.17 32.02 30.22 29.47 32.86 35.48 34.19 33.38 34.01 37.17 39.19 37.26 37.65 38.11 38.08 38.08 39.14
56.76 56.99 57.34 57.46 57.63 57.48 51.72 41.26 41.73 44.14 39.11 43.59 43.48 45.53 48.06 48.24 42.89 44.20 47.09 41.93 40.32 35.21 36.38 34.99 31.97 35.71 37.11 36.08 35.28 32.97 31.23 30.27 33.00 35.45 34.99 32.41 34.49 36.94 38.02 38.34 38.60 38.25 37.98 37.75 37.36
54.66 56.00 57.62 57.73 57.69 54.76 50.85 49.11 51.34 48.26 38.37 40.86 43.20 44.56 45.95 46.82 42.25 43.03 44.72 41.11 37.55 35.96 33.87 32.96 35.01 37.72 36.63 33.11 34.25 31.11 31.05 29.99 31.04 32.03 31.59 29.49 30.49 31.50 34.03 35.02 37.09 37.18 37.38 36.92 37.59
52.19 53.22 54.16 57.75 54.76 52.99 50.86 53.37 53.64 49.80 33.85 36.50 39.97 41.85 45.95 45.78 40.81 45.45 44.47 42.24 36.98 35.35 35.15 34.38 36.18 36.03 34.75 32.53 33.73 30.47 34.92 34.07 33.63 29.96 27.12 29.72 24.94 30.00 32.95 34.72 35.53 36.14 35.77 37.35 38.83
49.42 50.87 53.08 56.28 52.47 52.14 52.74 54.60 52.94 45.58 23.94 37.74 38.93 45.93 44.39 41.02 40.94 41.68 43.75 41.45 36.54 36.01 35.37 33.59 35.38 34.92 33.85 34.92 35.88 33.01 35.51 33.79 31.44 29.29 28.11 27.36 26.21 30.26 29.84 32.59 35.00 37.88 38.04 37.80 37.64
48.95 49.52 51.55 53.59 54.24 52.58 54.28 53.52 49.08 33.37 22.34 34.88 38.77 38.48 38.47 39.06 39.23 41.31 41.01 42.29 40.40 37.02 35.48 34.38 37.19 35.97 35.72 35.83 35.34 36.66 33.69 31.83 29.50 27.57 22.79 26.66 26.07 27.56 30.14 31.09 33.00 34.44 35.87 37.82 38.52
48.29 48.84 49.92 51.06 50.92 52.55 53.50 48.25 33.47 23.24 35.35 33.56 34.04 36.76 35.73 35.61 37.06 37.12 37.53 35.26 33.60 30.25 29.56 32.21 33.26 36.42 37.52 35.12 36.02 32.36 30.18 23.56 21.84 20.86 21.26 25.12 24.43 29.09 32.52 34.39 33.49 35.02 36.53 38.15 38.02
47.76 48.04 47.78 49.94 50.99 52.13 50.31 40.49 23.42 29.79 32.50 37.16 36.25 35.31 33.46 36.55 35.55 35.43 34.93 33.82 35.18 33.07 30.10 29.19 27.38 35.18 37.37 35.74 34.18 31.21 30.63 24.92 19.03 17.23 21.35 26.14 23.83 30.14 33.40 35.14 34.97 36.83 37.58 37.96 38.91
47.25 45.28 45.12 48.61 50.92 52.12 46.32 33.52 29.78 32.04 37.44 35.01 34.75 31.79 30.78 33.76 35.34 35.00 33.24 34.53 36.02 34.97 31.75 28.98 27.99 34.46 35.37 36.13 37.65 32.41 28.42 30.96 23.54 12.07 18.67 23.44 27.10 32.15 33.60 36.19 36.70 37.91 38.64 38.25 38.57
41.90 41.46 42.07 48.53 51.42 48.93 42.92 34.92 35.28 39.67 38.87 36.79 31.17 33.39 29.11 31.14 31.93 31.86 32.66 34.87 35.19 36.92 35.77 34.42 27.86 32.35 33.95 35.97 35.77 33.33 34.77 28.03 24.61 14.61 14.71 20.43 22.68 26.48 30.07 33.84 35.12 37.30 37.73 38.22 38.39
38.97 34.75 42.52 49.37 50.61 42.15 36.35 36.85 37.80 41.14 41.42 37.48 34.85 33.01 31.94 31.70 32.46 31.53 32.71 34.13 36.64 35.87 35.90 34.34 32.97 29.53 33.32 31.86 30.94 31.43 29.80 29.37 29.49 25.56 18.97 15.29 23.35 29.56 34.31 34.97 35.17 35.79 37.04 38.74 38.80
35.88 27.77 42.03 48.44 37.30 33.14 33.59 36.95 41.13 39.95 41.59 40.68 39.32 36.75 33.43 33.46 31.75 31.83 32.26 33.57 38.07 37.62 34.09 35.20 32.38 27.59 30.08 32.36 32.89 31.98 31.04 30.47 24.70 22.30 21.92 22.74 23.98 33.15 35.54 35.66 37.16 36.96 37.98 37.55 38.59
32.66 31.95 42.01 44.90 32.09 32.47 36.37 38.15 40.40 40.18 40.21 40.26 39.50 39.85 37.95 34.50 31.49 32.61 33.55 37.39 37.62 37.28 35.49 35.74 29.34 20.72 26.90 30.26 30.83 28.89 30.35 30.27 29.64 28.15 23.67 20.96 23.62 34.35 33.09 34.89 35.50 36.88 38.13 38.50 37.76
30.92 28.05 33.41 38.80 38.90 35.80 35.83 36.57 36.59 42.02 41.51 42.34 40.58 40.75 39.06 36.98 38.83 34.03 34.68 37.77 38.92 37.46 41.59 39.56 30.68 28.07 26.25 27.19 31.04 28.96 30.25 31.14 31.76 25.44 26.95 26.15 28.02 31.89 33.44 34.37 35.61 35.47 36.48 36.21 38.29
30.01 28.14 30.90 27.70 32.17 34.70 38.26 37.51 36.18 36.21 40.61 41.64 38.83 39.74 39.02 36.15 36.92 35.78 37.07 37.69 39.30 40.91 38.86 36.71 28.24 30.63 31.86 31.90 31.38 30.39 30.31 30.14 29.65 32.24 28.64 29.65 29.93 35.63 36.21 33.50 36.60 36.56 37.42 37.95 37.84
27.96 27.44 29.95 28.47 29.37 34.20 34.93 34.95 35.00 36.39 37.84 36.10 35.60 39.11 39.47 37.58 37.61 35.63 37.34 37.26 37.08 38.75 38.43 37.68 30.45 31.36 28.79 32.70 32.56 31.35 32.10 31.17 31.41 31.40 30.12 30.63 30.69 35.90 37.46 37.84 36.57 37.42 37.68 36.80 36.38
34.04 34.09 30.24 28.70 28.13 32.15 33.19 33.69 35.90 37.14 38.19 39.40 38.49 37.30 37.27 38.99 40.37 40.68 41.81 40.88 40.41 38.25 37.22 36.22 32.25 27.39 23.04 30.80 31.16 26.69 31.08 31.56 32.02 33.23 33.09 30.31 34.76 36.60 35.62 36.91 37.13 35.63 35.19 35.17 35.81

GFSSW_sfc_wetblb_075.txt.gz
Wetbulb
59.68 60.17 60.09 59.96 60.72 60.74 61.20 61.80 62.14 62.25 62.32 62.16 62.28 61.89 61.15 60.88 60.21 57.02 49.91 54.08 55.65 60.92 57.36 50.06 49.86 49.25 49.36 47.01 46.54 44.69 39.87 36.97 38.54 38.52 40.87 42.04 43.34 43.94 45.45 46.06 47.00 50.69 50.63 53.59 60.59
59.99 59.18 59.16 60.08 60.05 60.75 61.27 61.45 61.54 61.40 61.54 61.65 61.42 60.65 60.38 59.91 55.15 51.04 57.77 61.46 62.16 60.89 49.41 48.38 46.41 47.77 45.85 45.49 44.87 42.27 38.61 40.01 40.75 40.82 41.07 41.91 42.81 43.86 44.50 44.30 45.26 46.90 50.90 56.23 60.58
59.50 59.01 59.01 59.96 59.74 60.50 60.67 60.83 60.68 60.47 60.33 60.44 60.05 59.91 59.66 58.45 51.20 49.87 62.03 62.58 61.48 58.40 49.92 48.82 47.84 47.10 43.95 44.71 43.25 40.82 39.63 40.77 41.16 42.19 42.70 42.49 41.60 43.30 43.17 42.27 45.18 45.93 48.30 56.39 59.25
58.94 58.73 58.76 59.45 59.98 60.15 60.19 59.96 59.53 59.15 59.25 59.42 59.49 59.23 59.01 54.60 38.11 49.88 62.60 62.40 60.72 52.42 48.99 47.24 45.66 43.62 42.36 42.08 43.31 40.64 40.29 41.43 43.79 42.96 42.43 42.08 42.41 41.51 42.53 44.95 45.02 45.69 50.29 56.75 58.46
58.39 57.91 58.49 58.93 59.75 59.69 59.61 59.13 58.71 58.58 58.60 58.93 59.30 59.22 55.46 48.77 49.48 52.86 59.97 59.65 52.29 50.60 47.30 45.61 44.10 43.16 40.95 41.94 42.16 40.12 40.39 42.23 42.59 42.32 41.65 42.65 40.83 41.79 42.24 43.68 43.65 45.25 52.24 56.61 58.75
57.92 57.61 57.98 58.55 59.32 59.30 59.05 58.65 58.53 58.38 58.30 58.53 59.47 59.01 51.04 42.38 51.48 52.20 51.28 50.19 49.97 48.31 46.20 46.11 44.70 44.15 41.52 40.25 40.63 40.32 41.11 41.33 41.58 41.13 41.28 40.39 39.37 41.26 41.82 42.18 42.44 45.59 49.04 53.62 57.48
57.65 57.58 57.64 58.24 58.73 58.82 58.70 58.43 58.22 58.12 58.23 58.49 59.23 54.43 47.59 45.48 50.15 50.11 50.47 49.18 49.72 48.35 45.97 45.71 45.12 43.94 42.22 40.55 41.70 40.13 38.59 38.81 39.77 40.26 39.67 40.38 37.32 39.46 41.59 40.64 41.48 42.72 45.45 48.95 54.03
57.33 57.17 57.37 57.69 57.94 58.27 58.15 57.91 58.14 58.33 58.41 58.58 59.18 50.21 43.66 50.77 50.07 49.46 49.19 47.50 48.37 48.55 47.38 46.99 46.42 44.43 41.76 41.56 39.36 36.41 35.78 34.41 36.82 39.82 39.69 37.84 34.61 36.86 40.38 40.13 40.95 41.45 41.64 42.21 47.92
56.87 56.69 57.01 57.17 57.45 57.45 57.66 57.85 57.68 58.05 58.31 58.78 50.07 44.61 39.28 53.49 46.82 48.63 48.44 47.34 46.57 47.11 47.12 47.79 45.20 40.83 39.58 36.51 33.72 34.41 30.96 31.32 33.90 39.01 38.33 36.45 34.63 38.15 40.32 40.24 40.13 40.77 40.97 40.59 41.57
56.60 56.48 56.72 57.05 57.02 57.06 57.49 57.64 57.73 56.24 54.51 53.97 48.19 40.94 44.62 45.24 47.55 47.97 47.31 47.37 45.31 45.47 44.29 43.15 39.64 36.25 34.16 33.84 30.42 30.90 30.23 30.85 31.17 35.81 36.29 34.28 36.15 38.27 40.04 39.40 40.44 40.30 40.32 40.26 40.77
56.37 56.32 56.79 56.96 56.91 57.14 56.53 51.30 43.00 41.45 43.04 41.25 40.49 39.90 43.66 47.49 48.14 45.46 47.35 45.57 43.88 41.95 36.67 37.33 35.56 33.21 35.45 34.42 32.80 32.39 30.95 30.70 32.69 36.46 35.62 34.55 34.87 37.43 39.43 39.22 39.79 40.25 40.16 40.03 40.44
56.27 56.42 56.76 56.99 57.23 57.79 48.61 40.94 42.00 44.17 38.14 43.17 43.05 44.86 47.50 47.23 42.51 43.40 46.46 41.81 39.90 34.70 35.98 35.03 32.16 36.22 36.49 35.13 34.12 32.98 31.85 31.09 34.24 35.89 35.60 33.32 35.45 37.49 38.03 38.75 39.37 39.83 39.81 39.34 39.36
56.13 56.25 56.66 57.13 57.53 55.01 49.68 47.26 50.91 47.96 38.46 40.28 43.48 44.35 45.61 46.15 41.78 42.69 44.27 40.18 37.30 35.21 33.35 32.74 34.51 36.94 36.00 33.63 34.02 30.57 31.80 31.47 32.75 33.05 32.84 30.70 31.81 33.00 35.01 36.05 37.12 37.79 37.97 38.47 38.50
54.13 55.79 56.79 57.19 54.08 53.26 50.05 52.97 52.53 48.64 33.95 35.67 39.40 41.98 45.75 44.78 40.22 45.22 43.99 41.30 36.90 34.27 35.06 33.73 35.05 35.11 33.17 32.64 33.79 30.92 34.80 33.88 33.36 30.99 28.08 31.23 27.25 31.60 33.39 34.74 36.47 38.04 38.31 38.74 39.33
51.15 52.53 54.07 56.99 51.61 51.55 52.39 53.85 52.28 44.86 23.30 37.75 38.40 45.42 44.10 40.53 40.59 40.72 43.68 41.02 35.98 35.37 35.63 32.97 33.62 34.02 32.41 33.72 34.72 32.12 35.05 33.62 31.44 30.15 28.84 29.10 28.15 31.63 31.23 32.27 35.99 37.30 37.97 38.68 39.38
50.03 50.68 53.97 54.19 54.19 52.09 53.89 52.89 48.24 33.08 22.85 34.13 38.65 38.50 38.09 38.68 38.69 40.77 40.88 41.82 39.84 37.24 35.34 33.80 36.84 35.73 35.41 35.00 34.82 35.64 33.24 31.55 30.33 28.63 24.04 27.88 27.01 28.72 31.09 32.51 34.44 35.76 37.64 39.51 39.73
48.69 49.89 50.63 51.87 50.98 52.86 52.91 47.48 32.68 23.41 35.24 32.82 33.29 36.61 35.63 34.84 36.57 36.65 36.51 34.96 33.12 29.35 28.63 32.24 32.69 35.44 36.63 34.08 35.84 32.48 30.56 24.58 23.31 22.07 22.37 25.88 25.56 30.23 33.18 34.30 34.71 36.00 38.59 38.70 39.52
47.91 48.20 48.45 50.27 51.34 52.92 48.99 38.64 21.25 29.80 31.12 35.70 35.35 35.34 33.16 36.14 34.92 35.69 34.39 32.55 33.70 32.84 29.52 28.76 27.49 34.62 36.53 34.85 33.25 31.51 30.69 25.64 20.18 18.74 22.57 26.03 24.56 30.52 33.61 35.78 35.63 38.09 37.82 38.81 39.37
46.74 45.34 45.95 48.38 51.56 52.21 45.31 31.00 28.34 31.00 36.56 33.34 34.02 31.61 31.08 34.09 35.23 34.37 34.09 34.58 34.82 34.35 30.95 28.57 27.97 34.28 34.88 35.42 36.80 32.00 28.74 31.03 23.68 12.38 19.42 24.30 27.93 32.59 34.71 36.03 36.80 37.58 38.17 38.04 38.43
42.51 41.78 43.04 48.53 51.31 49.54 41.36 32.90 33.09 37.42 37.72 36.34 30.01 32.28 28.20 31.12 32.24 32.14 32.58 35.02 34.98 35.96 35.08 33.73 27.77 32.33 34.05 35.78 35.17 32.66 33.87 28.06 24.72 15.27 15.24 20.97 23.10 27.00 32.52 34.36 35.73 36.58 37.29 38.20 38.91
39.43 37.26 42.97 47.82 50.13 42.42 35.40 33.02 36.89 40.75 39.56 36.38 33.18 31.55 30.79 31.40 32.07 31.76 32.62 32.74 36.55 35.35 35.18 33.89 32.34 29.38 33.13 32.20 31.10 31.48 29.80 29.21 29.52 26.34 19.97 15.98 23.78 29.41 33.35 35.31 35.92 36.54 37.51 38.28 38.53
35.82 31.12 42.18 47.62 35.11 33.32 36.11 37.83 40.68 39.21 41.01 40.52 37.95 35.82 32.62 33.11 31.50 31.88 31.99 34.08 37.97 37.45 33.66 35.04 32.58 27.53 30.00 32.28 32.92 31.08 31.23 30.85 26.13 22.43 21.48 22.33 24.87 33.12 35.32 35.77 36.42 36.60 37.70 37.75 37.98
32.42 32.79 42.17 45.02 30.69 31.52 34.25 38.42 39.43 38.64 38.99 39.72 38.66 38.18 36.48 33.72 31.11 32.66 33.47 36.73 37.32 37.67 35.69 35.90 30.49 24.19 28.49 31.46 31.46 29.33 30.11 29.70 28.98 28.10 22.95 21.69 24.83 33.33 34.00 35.15 36.60 36.78 36.62 37.15 37.76
32.09 28.25 33.78 38.78 37.54 35.10 33.65 35.53 37.21 40.80 40.17 40.94 39.77 40.72 36.97 34.35 36.97 32.21 33.31 36.99 37.13 36.91 41.08 39.38 30.38 28.58 27.13 27.58 30.61 28.81 29.56 29.95 31.10 26.22 25.18 26.07 27.34 30.73 33.37 34.58 36.23 37.58 36.88 37.27 37.79
31.61 28.85 31.00 29.18 32.14 34.82 37.66 36.53 35.49 36.32 40.83 41.47 38.49 38.41 37.45 34.15 35.12 33.34 35.61 35.93 37.54 40.54 37.19 36.53 28.97 28.77 30.11 29.51 29.98 29.54 29.62 29.67 29.88 32.33 28.59 28.96 29.43 34.02 35.75 34.95 36.78 37.60 37.04 37.62 36.80
29.85 28.67 30.86 28.34 30.04 34.43 36.24 35.00 35.21 37.30 38.45 37.17 35.88 38.33 38.77 36.42 36.49 34.44 35.86 36.02 35.51 36.86 35.79 35.89 26.52 30.73 27.95 31.78 31.87 29.88 30.38 31.51 33.44 29.64 28.56 27.86 29.87 35.78 38.76 36.11 36.21 37.43 37.53 36.62 35.81
32.63 32.98 31.18 29.39 29.35 33.00 33.47 34.96 35.90 37.90 39.30 39.98 38.89 37.99 37.77 38.83 39.76 40.73 41.06 40.49 39.63 37.47 35.87 34.08 30.50 24.24 19.82 30.11 30.24 24.90 30.70 30.63 31.41 31.92 33.54 29.57 33.90 36.12 34.96 36.35 35.52 36.46 36.73 35.64 35.40

GFSSW_sfc_wetblb_078.txt.gz
Wetbulb
60.48 60.16 60.52 61.18 61.62 61.83 62.10 62.26 61.84 60.14 59.62 60.95 60.15 59.14 60.22 61.36 60.37 57.99 52.13 56.12 58.01 61.82 58.09 54.10 54.30 53.74 54.20 52.04 51.69 51.52 48.31 45.51 45.17 45.32 46.32 48.77 49.18 49.27 50.63 51.57 53.91 55.99 55.11 59.68 65.25
59.98 59.87 60.48 60.59 60.72 61.40 61.79 62.06 62.04 61.91 61.52 60.67 60.26 61.10 61.17 60.68 56.03 52.30 59.02 61.96 62.03 61.91 53.00 52.46 51.12 52.92 51.45 50.54 50.40 50.38 47.58 47.35 48.53 48.43 48.02 49.19 49.78 49.92 49.66 49.92 50.82 52.86 55.79 62.70 64.64
59.69 59.78 59.76 59.91 60.30 60.45 61.31 61.60 61.49 61.71 61.73 61.10 60.36 61.17 60.73 59.55 51.50 50.40 61.92 62.72 63.50 61.07 54.56 52.73 53.54 52.51 49.73 50.19 48.93 47.64 47.04 47.40 46.28 47.68 48.88 49.29 48.37 49.54 49.27 47.92 51.02 51.26 53.93 61.52 63.58
59.56 59.21 59.25 59.54 59.94 60.23 60.97 61.14 60.90 60.85 61.18 61.01 61.10 60.40 59.45 56.83 40.24 52.59 62.11 63.70 62.96 56.04 52.23 51.43 50.68 49.15 48.33 47.35 48.33 46.23 45.20 47.00 47.77 47.88 47.72 48.47 49.11 48.19 49.12 50.11 50.26 52.04 55.13 60.96 62.50
59.04 58.46 58.50 59.27 59.71 60.07 60.67 60.63 60.23 60.11 60.29 60.58 60.25 60.00 56.59 49.68 50.71 55.53 61.31 61.80 56.96 52.86 51.68 50.76 47.85 48.93 46.91 48.12 47.58 46.68 45.61 46.88 47.13 47.07 47.33 47.55 47.28 47.93 48.01 50.10 49.17 50.07 54.60 59.23 62.06
58.54 57.90 57.96 58.73 59.15 60.05 60.30 59.81 59.64 59.62 59.85 60.14 60.10 59.81 53.67 44.04 54.29 55.57 56.16 53.18 53.63 52.36 50.58 50.68 50.27 49.91 46.43 47.33 47.13 46.51 47.08 46.44 46.35 46.48 46.55 46.74 46.00 46.93 47.84 48.11 48.36 49.89 53.20 57.59 60.99
58.19 57.73 57.66 58.19 58.92 59.55 59.76 59.40 59.38 59.41 59.51 59.74 60.27 56.63 51.04 48.20 54.32 54.58 53.53 52.64 52.52 51.19 49.38 50.33 50.36 49.32 48.77 45.76 46.41 46.01 44.32 45.24 45.74 45.97 45.46 46.04 43.52 44.62 47.31 46.63 47.54 48.88 51.36 54.77 59.23
57.76 57.25 57.22 57.88 58.38 58.95 59.08 59.00 58.97 59.02 59.18 59.68 60.12 54.99 47.08 54.22 54.41 52.04 53.06 51.86 52.48 51.99 51.58 50.78 50.49 48.12 48.21 46.81 45.08 43.23 44.34 41.93 42.43 44.74 45.17 43.83 42.21 42.78 46.47 46.10 46.92 48.25 49.84 49.91 54.12
57.16 56.81 57.06 57.45 57.60 58.17 58.43 58.26 58.24 58.80 58.75 59.42 54.31 49.97 45.51 55.02 49.79 52.55 52.73 50.51 50.80 51.24 50.65 49.39 50.12 46.58 45.67 44.22 42.40 41.65 39.43 39.86 38.53 43.65 44.15 43.09 42.57 43.82 46.21 46.44 46.90 47.54 48.18 48.34 49.37
56.79 56.61 56.89 57.06 57.19 57.52 57.86 58.06 57.96 58.31 56.90 55.62 50.56 46.03 47.87 48.10 50.13 50.95 51.78 51.38 49.76 49.71 49.04 48.56 47.85 42.57 42.44 42.59 37.08 36.72 37.65 37.05 38.92 42.01 42.33 42.02 42.02 44.60 46.14 45.69 47.83 48.61 49.32 49.53 49.28
56.57 56.61 56.78 56.79 57.19 57.62 57.46 55.05 47.45 45.00 49.20 44.75 45.30 44.88 46.22 49.87 51.20 49.15 50.78 49.18 49.00 48.36 44.26 44.54 43.55 40.81 42.68 43.52 41.35 41.78 38.95 38.69 39.21 41.01 41.24 41.47 42.10 44.38 46.55 46.45 47.55 48.70 49.07 49.02 49.03
56.54 56.59 56.68 56.82 57.18 57.55 56.25 47.00 47.00 47.89 41.79 45.62 45.02 47.84 49.61 49.55 45.16 47.09 50.41 47.01 45.82 42.18 43.21 42.64 40.30 43.90 41.12 39.71 39.59 39.97 38.89 38.71 39.87 40.84 41.03 40.28 41.73 44.97 45.76 45.78 46.34 46.97 47.56 47.38 47.06
56.12 56.18 56.33 56.81 56.97 56.11 52.35 47.99 52.18 50.64 41.90 41.96 45.96 47.04 47.89 48.78 44.26 45.49 47.99 45.26 43.58 40.76 41.21 40.59 40.46 41.20 40.29 39.30 39.01 38.72 39.32 38.06 39.39 39.38 39.67 38.89 40.01 40.81 40.42 42.09 42.83 44.76 44.79 45.41 46.24
55.91 55.87 56.06 56.49 53.55 53.08 51.24 54.76 53.87 51.34 36.60 37.26 41.12 44.62 47.86 47.61 43.00 47.76 47.60 45.81 41.80 40.26 40.39 40.43 39.30 39.89 39.96 38.92 41.03 36.87 40.00 40.06 38.61 39.39 36.64 38.36 35.53 40.17 40.24 41.38 43.43 44.84 45.66 46.30 46.82
54.58 55.77 56.06 56.35 53.66 50.11 53.25 55.20 54.03 48.26 25.75 39.08 39.71 47.47 46.78 44.21 44.34 44.66 48.19 45.62 40.70 39.18 40.62 38.03 37.22 38.27 38.55 39.83 40.72 38.29 40.64 39.75 38.99 38.94 37.82 37.14 36.18 39.46 38.62 40.17 42.74 43.41 44.80 46.39 46.91
51.54 53.46 56.09 55.43 55.98 54.57 55.94 54.58 51.16 35.62 27.07 35.37 40.13 40.43 40.80 42.28 42.38 44.08 44.91 46.03 44.42 40.98 41.45 39.13 41.19 40.94 40.02 38.73 40.21 39.98 39.80 39.06 38.69 38.21 32.84 36.06 35.56 37.25 38.61 39.63 41.54 42.83 44.96 45.37 46.57
50.06 51.36 54.43 54.78 51.85 55.55 55.01 51.04 35.50 29.73 38.01 33.44 35.44 39.55 40.65 38.32 39.68 41.60 40.84 39.61 38.72 35.45 35.63 37.91 38.51 40.81 41.23 38.53 40.07 39.98 39.50 32.56 31.36 31.44 30.82 31.75 32.43 38.69 38.81 39.93 41.43 42.74 44.55 45.56 46.67
48.61 48.86 50.62 51.75 52.61 55.43 52.10 42.55 29.36 34.04 34.43 38.05 37.89 39.09 36.85 38.70 38.03 38.76 38.83 37.50 39.53 38.91 36.19 34.23 31.68 38.49 41.06 40.27 38.53 39.32 38.74 33.71 26.63 26.57 30.90 30.31 31.57 38.42 39.16 40.36 40.85 44.09 44.69 45.43 45.87
47.18 45.94 47.09 49.00 52.37 54.09 46.68 32.91 32.43 34.86 38.12 35.91 37.42 34.92 34.35 37.00 38.10 38.82 38.72 38.76 40.71 40.12 36.51 34.35 32.85 38.78 39.10 40.26 41.23 37.13 34.71 37.27 29.95 22.75 30.66 33.76 36.14 39.77 39.81 40.37 41.79 43.07 44.76 45.15 45.54
43.14 42.86 44.10 47.84 51.28 50.87 42.67 35.18 36.46 39.02 39.09 39.19 33.17 36.41 32.88 35.08 36.09 37.00 36.97 41.03 39.73 40.05 40.67 37.97 32.05 35.98 38.02 40.42 39.98 38.87 38.71 33.84 33.84 27.78 26.78 30.56 31.30 36.74 37.66 39.19 41.47 42.01 43.42 43.99 44.79
41.86 38.14 43.52 46.70 50.06 45.86 36.21 37.28 38.97 42.26 40.55 37.43 35.10 33.40 35.46 34.44 36.98 35.75 36.62 38.39 41.97 39.03 40.00 39.16 37.92 33.22 36.71 36.22 36.39 35.25 35.08 34.61 36.10 34.02 30.54 28.19 33.13 38.94 41.22 42.12 42.18 43.47 44.04 44.34 44.76
38.60 33.75 43.02 47.31 39.37 37.95 38.53 40.13 41.54 41.29 42.85 41.63 39.30 36.94 35.44 35.85 35.02 35.31 34.58 39.69 41.74 40.64 37.03 39.37 36.18 32.06 34.45 36.83 37.56 36.57 36.85 37.27 34.16 28.63 30.27 30.56 34.63 38.29 42.40 43.91 44.29 43.03 42.75 44.21 44.93
33.91 35.70 43.48 44.78 32.35 32.52 36.72 40.01 41.72 40.49 40.66 41.05 38.93 39.31 37.85 36.05 33.29 36.20 37.15 39.83 39.86 39.95 38.06 38.86 35.48 29.36 30.64 35.29 35.91 35.45 36.02 37.10 35.86 34.73 29.26 31.92 35.09 38.21 40.58 41.51 42.81 42.94 42.75 43.23 43.55
34.89 30.21 35.65 37.08 34.37 34.61 34.18 37.33 37.98 42.29 41.48 42.51 41.00 41.43 37.72 35.11 37.73 34.73 36.05 38.38 39.33 40.25 41.40 41.45 34.31 34.59 31.33 34.61 37.39 32.96 33.91 34.60 36.62 32.44 32.20 32.84 34.99 37.07 38.78 40.61 41.51 42.32 43.04 43.68 43.36
34.79 30.73 32.69 31.68 32.96 33.60 36.91 36.21 37.60 37.49 41.66 42.82 40.08 40.34 38.38 34.32 35.43 33.98 37.15 38.21 39.83 40.67 39.60 39.97 33.30 34.00 35.25 35.39 36.32 36.28 34.51 33.84 34.51 37.55 33.68 37.02 35.93 39.27 40.75 41.55 42.72 43.36 42.75 41.79 41.17
33.00 30.89 33.04 30.19 32.57 34.29 34.40 33.45 34.96 38.64 39.76 39.29 39.03 40.55 40.42 37.15 37.87 35.08 37.18 37.85 37.21 39.27 38.01 38.10 33.25 35.14 32.55 34.34 34.42 33.32 36.04 35.46 36.47 37.73 36.74 36.03 36.33 42.29 44.22 44.12 42.09 41.67 41.61 41.23 40.58
36.18 36.54 34.52 30.65 30.64 33.49 33.80 34.56 35.84 37.46 39.28 41.35 41.57 40.52 39.65 39.36 41.35 41.47 42.85 42.80 41.57 38.50 36.84 36.28 33.87 32.49 30.65 33.48 34.13 30.80 33.69 35.44 36.99 39.15 37.95 33.91 38.93 40.16 40.44 39.96 41.85 42.48 42.33 41.55 40.49

GFSSW_sfc_wetblb_081.txt.gz
Wetbulb
60.48 60.98 60.73 60.83 61.40 61.95 62.28 61.59 60.79 60.35 59.44 59.43 59.07 58.59 58.49 59.46 57.96 56.55 50.41 56.14 58.55 62.30 60.95 55.54 55.37 55.42 55.83 53.68 54.60 54.76 48.67 46.67 47.29 46.74 48.02 51.51 50.22 52.06 53.15 52.96 55.12 56.35 56.84 60.61 65.48
60.23 60.35 60.45 60.51 60.71 61.29 61.93 61.64 60.88 60.82 60.48 60.27 59.60 59.02 59.04 59.04 54.29 50.88 57.39 60.29 62.62 62.91 53.60 52.69 52.39 53.73 51.93 52.14 52.59 50.84 48.42 48.66 50.89 50.11 49.42 51.07 51.26 51.06 50.60 51.48 51.77 54.16 59.31 63.69 64.74
59.71 59.72 60.16 60.32 60.51 61.21 61.20 61.64 61.03 60.42 60.50 60.16 60.66 59.67 60.10 58.43 49.96 50.75 58.92 60.91 61.81 62.15 55.93 54.29 54.17 53.08 50.42 52.00 51.32 50.92 48.60 50.29 49.31 50.00 51.68 51.01 50.63 52.16 50.42 48.95 51.72 52.48 56.88 62.09 63.15
59.28 59.52 59.90 60.09 60.20 60.82 61.05 61.04 61.17 61.16 61.14 59.77 58.50 58.69 59.68 55.68 43.21 53.21 59.06 59.98 61.48 60.26 54.95 52.32 51.82 50.18 49.23 47.67 50.96 47.39 47.69 49.26 49.20 49.28 50.47 50.09 51.63 49.95 51.03 51.05 53.07 54.14 57.63 61.77 61.75
58.81 58.87 59.09 59.21 59.76 60.09 60.62 61.16 61.09 61.12 61.13 60.23 59.08 58.55 56.39 49.33 48.51 56.30 60.44 58.89 60.21 57.32 52.51 51.45 49.81 49.72 47.51 49.20 48.96 48.88 47.38 48.94 49.16 48.66 50.28 50.51 49.75 49.60 50.17 52.12 52.20 52.31 56.30 59.94 61.38
58.56 58.47 58.40 58.73 59.36 59.97 60.39 60.88 60.71 60.59 60.89 60.63 60.24 59.63 53.31 42.86 54.48 57.41 59.32 58.78 55.46 53.54 52.29 52.80 50.93 51.78 49.15 49.07 48.46 49.34 48.90 48.12 48.51 48.51 48.37 48.59 48.40 48.54 49.97 51.51 50.78 51.83 54.37 58.08 60.23
58.57 58.28 58.09 58.31 59.01 59.35 59.81 60.30 60.02 59.91 60.30 60.55 60.30 56.85 49.57 47.12 55.33 56.34 56.75 54.83 54.04 53.07 51.30 53.20 52.81 50.11 50.77 47.53 48.92 49.29 45.86 47.28 47.58 47.82 47.19 48.32 45.57 46.52 49.06 49.44 49.60 50.24 53.26 55.58 58.97
58.41 57.68 57.51 58.04 58.32 58.93 59.36 59.48 59.42 59.41 59.71 60.19 60.17 55.06 45.71 55.44 56.11 53.66 55.37 53.53 54.32 53.77 52.64 53.20 52.69 50.71 50.23 49.23 47.33 45.88 47.01 43.07 46.36 46.97 47.14 45.99 44.34 48.48 48.01 47.60 47.96 49.79 51.61 53.84 56.86
57.75 56.93 57.12 57.52 57.80 58.26 58.74 58.80 58.66 59.12 59.34 60.00 55.44 51.45 44.06 54.20 50.25 53.30 54.18 51.38 52.46 52.52 51.77 51.48 52.28 49.17 47.53 44.79 42.71 43.50 40.87 43.02 41.82 46.43 45.83 44.50 44.69 45.32 48.05 47.39 47.24 48.50 50.10 51.20 52.71
57.22 56.56 56.86 57.30 57.51 57.80 58.13 58.12 58.40 58.23 57.58 56.47 52.21 46.12 48.47 47.36 51.41 52.17 54.00 53.08 50.57 50.66 48.73 48.73 48.51 45.23 45.86 44.25 38.76 40.55 41.17 41.91 42.60 43.76 43.87 44.07 43.58 46.01 47.49 47.60 48.21 49.03 49.32 50.34 50.64
57.06 56.52 56.77 57.14 57.45 57.90 57.48 55.75 49.75 48.39 50.07 44.10 44.57 45.54 46.76 50.88 52.86 50.21 52.20 50.46 50.52 48.72 44.04 47.34 43.42 40.60 43.20 45.09 45.81 44.22 42.80 41.13 42.71 43.15 43.19 43.62 44.03 45.57 47.09 47.06 47.89 48.90 49.85 50.52 51.09
56.95 56.54 56.68 57.02 57.37 57.45 56.23 49.01 48.26 49.59 42.11 47.62 45.75 47.73 50.17 50.60 45.38 48.58 51.80 46.79 46.17 42.76 46.28 43.60 40.82 44.93 46.02 43.25 42.86 43.05 41.57 40.95 41.68 42.74 42.65 43.13 42.16 45.30 46.42 47.06 48.01 48.72 49.72 50.13 50.17
56.50 56.37 56.48 56.65 56.78 55.87 53.17 50.34 53.03 52.10 41.60 42.44 46.01 46.84 47.42 49.04 45.69 45.83 48.79 47.90 45.12 43.29 43.31 41.20 43.38 44.75 42.71 41.16 41.12 41.61 40.25 40.65 40.42 41.57 42.56 41.14 40.67 43.56 44.15 44.39 45.34 46.27 47.83 47.66 48.28
56.29 56.10 55.99 56.11 52.47 53.18 51.43 53.04 54.19 51.95 36.19 37.39 40.91 45.69 48.01 48.70 43.69 48.75 49.33 47.41 45.39 42.26 42.82 42.87 41.76 42.09 42.01 41.17 42.43 38.21 42.23 42.53 40.71 40.02 36.60 41.61 36.32 42.04 43.79 43.08 44.47 46.66 47.88 48.42 49.01
55.94 55.75 55.76 55.41 52.39 49.73 52.33 55.94 54.82 49.55 25.22 39.72 40.80 48.21 48.59 44.41 45.16 44.70 49.34 46.32 41.88 42.61 42.67 39.32 39.00 40.05 40.75 41.90 43.05 40.40 43.28 42.79 42.15 40.85 39.16 38.72 37.13 41.41 41.65 41.14 44.07 46.50 47.88 48.77 49.42
55.43 55.32 55.27 54.58 54.80 53.35 56.60 55.75 52.07 35.46 25.09 34.66 40.44 40.93 41.58 43.24 43.63 45.08 45.65 47.26 46.28 41.90 42.74 40.23 42.53 43.28 42.85 41.91 42.77 43.15 42.18 41.90 41.90 40.25 33.18 38.97 37.62 39.20 40.50 42.02 44.05 45.44 47.26 47.93 48.63
53.75 54.84 54.02 55.91 50.02 56.56 56.62 50.94 35.80 29.24 39.13 34.19 35.01 40.81 40.87 39.37 40.93 42.61 41.39 40.28 39.12 35.46 36.19 38.83 38.74 41.80 42.80 39.52 42.44 42.86 39.84 33.52 32.00 32.10 31.36 34.73 34.50 39.52 41.22 43.74 44.62 45.42 46.48 47.63 48.69
50.39 54.33 52.98 53.05 55.77 56.84 53.43 41.75 29.73 34.78 35.64 40.19 38.61 40.05 37.29 40.27 40.23 41.05 39.89 38.34 41.82 41.07 37.46 34.90 31.88 39.35 42.54 41.75 39.00 39.94 39.73 34.84 27.54 28.99 33.04 31.94 32.13 38.95 43.02 43.02 43.96 46.76 47.75 47.46 47.59
48.29 48.17 50.03 48.36 52.79 56.19 46.52 33.73 33.70 37.03 40.05 37.28 37.98 35.85 36.22 38.98 39.29 39.61 39.56 39.25 41.43 42.20 36.98 35.51 34.73 40.40 41.07 42.12 42.71 39.63 36.54 40.56 32.27 27.40 32.65 35.36 38.22 41.98 41.64 41.51 43.46 45.18 46.29 46.47 46.83
44.05 45.32 44.41 46.92 49.00 52.55 42.41 35.68 37.90 42.05 41.24 40.23 33.94 37.23 33.64 36.40 36.96 38.00 38.05 42.20 41.28 43.14 43.10 40.30 32.95 38.51 38.84 41.76 41.18 40.31 41.50 33.84 36.01 28.23 28.38 33.36 34.86 37.78 37.75 39.81 42.57 43.97 45.74 46.40 46.73
42.24 39.15 43.08 47.01 49.13 46.53 36.62 37.84 40.35 42.56 42.31 39.35 37.67 35.74 37.13 36.36 37.95 36.78 37.98 41.24 43.59 41.78 41.90 41.24 39.37 34.35 38.35 37.26 37.25 36.50 36.03 37.33 38.23 36.52 32.88 29.98 34.20 40.85 42.48 42.38 42.78 44.43 45.77 45.31 46.26
40.58 33.18 42.53 46.96 40.74 42.61 38.83 40.90 42.24 41.48 43.15 41.19 40.98 38.96 38.23 38.37 36.53 37.13 37.58 40.61 44.61 42.53 37.91 41.10 38.09 32.61 35.18 38.58 39.48 39.97 38.95 38.43 34.41 30.22 32.99 32.50 35.76 39.94 43.13 44.68 45.56 45.28 45.60 46.64 47.15
35.68 35.25 43.38 44.20 33.62 35.91 41.21 40.77 42.72 41.13 40.79 41.08 38.62 39.83 40.15 37.98 34.50 38.19 39.56 40.42 43.58 40.93 39.72 40.18 36.18 29.67 30.96 35.78 36.73 35.80 38.49 40.02 39.60 37.54 30.83 31.81 35.17 40.38 43.87 45.06 45.98 45.03 45.22 45.71 45.89
36.55 31.89 36.24 35.94 34.10 37.51 37.67 38.96 38.48 43.72 42.41 43.38 40.94 40.66 38.28 37.05 39.56 36.38 37.68 38.99 40.80 41.81 42.10 42.53 37.46 35.55 31.47 34.97 38.53 34.50 37.06 37.71 37.98 33.52 34.45 34.67 37.57 38.33 41.26 43.35 44.66 44.64 44.98 45.41 45.33
36.15 32.03 34.05 32.37 32.78 33.71 39.35 39.53 37.44 38.00 42.86 44.04 40.41 39.98 38.02 34.50 36.15 35.81 38.46 37.57 39.16 40.63 41.12 41.58 35.04 37.29 38.53 37.72 39.58 37.61 36.74 36.86 35.07 37.81 35.00 37.75 37.37 41.09 41.60 43.35 44.63 45.63 45.43 44.76 44.17
33.49 31.67 34.37 33.13 35.92 34.29 32.68 34.83 37.88 39.25 40.93 39.91 39.80 41.31 40.25 37.20 37.51 34.85 38.16 38.50 36.96 39.32 39.01 40.52 35.33 37.50 33.68 35.95 36.14 35.40 38.03 37.91 36.81 37.66 38.21 38.80 38.35 43.52 45.21 46.13 45.43 44.67 44.36 43.77 43.35
38.00 37.54 35.55 31.67 33.74 33.53 33.83 33.82 34.93 40.18 42.48 43.01 42.58 41.38 39.87 40.84 43.23 42.85 43.28 42.64 41.37 38.28 37.34 36.94 34.87 33.62 31.01 35.04 34.26 30.73 34.15 37.12 37.36 39.38 39.41 36.09 40.69 42.63 43.56 43.87 44.64 44.53 44.15 44.12 43.91

GFSSW_sfc_wetblb_084.txt.gz
Wetbulb
60.49 60.45 60.90 61.01 61.64 62.10 62.03 61.04 61.20 60.92 59.94 59.35 58.73 58.32 59.20 57.63 59.14 56.47 49.95 54.81 57.54 63.54 60.90 55.03 54.21 53.87 54.40 53.86 54.26 52.59 44.28 42.37 44.53 43.94 45.09 48.91 46.38 48.79 49.14 50.08 51.02 53.03 55.29 59.63 62.67
59.93 60.32 60.51 60.63 61.22 61.40 61.84 61.52 61.16 60.89 59.87 59.39 59.25 58.71 59.38 57.67 53.95 50.90 56.62 57.71 59.44 62.60 55.98 51.76 50.60 52.35 50.04 50.98 50.44 47.16 43.44 45.75 48.57 46.19 46.54 48.23 48.10 47.75 46.26 48.74 48.95 51.97 58.90 61.84 62.01
59.54 59.86 59.97 60.42 60.72 61.05 61.33 61.40 60.84 60.85 60.29 60.01 59.07 58.78 58.33 56.87 50.20 50.69 58.72 58.70 58.98 60.41 57.50 55.28 52.45 51.19 48.70 49.99 48.72 47.28 44.34 48.26 47.23 48.19 49.68 48.39 47.21 48.86 46.34 44.89 48.86 50.35 56.78 59.84 60.20
59.48 59.26 59.52 59.90 60.25 60.91 61.07 61.23 60.79 60.84 60.56 60.43 59.03 59.04 57.70 55.13 43.23 54.72 59.09 59.30 59.62 59.12 56.33 53.07 50.02 47.86 47.02 46.15 49.20 45.17 46.40 47.76 48.41 47.74 48.64 47.84 48.46 45.95 45.89 45.03 50.27 52.98 58.27 59.16 59.33
59.15 58.71 59.14 59.32 59.94 60.47 60.89 61.06 60.66 60.47 60.77 59.90 59.97 59.41 56.08 48.72 49.85 58.63 59.14 58.51 57.78 56.72 53.94 51.03 47.79 48.28 45.53 47.26 48.05 45.28 45.90 47.82 47.79 46.38 47.19 48.90 46.58 45.87 45.83 47.49 48.78 53.06 58.06 57.68 58.43
58.85 58.34 58.71 59.12 59.56 60.14 60.53 60.72 60.80 60.53 60.44 59.15 58.81 58.27 52.61 43.93 55.09 58.86 56.35 56.50 54.52 53.41 52.79 51.75 49.20 49.78 47.03 47.13 45.91 47.52 46.88 46.00 46.64 46.28 46.19 46.00 44.95 44.73 46.07 47.62 47.60 49.19 52.91 56.54 57.83
58.44 58.34 58.36 58.82 59.04 59.67 59.61 60.16 60.32 60.19 60.11 59.62 58.38 55.63 49.61 47.67 54.91 58.51 57.69 56.72 55.42 53.04 50.03 52.03 51.82 48.80 48.95 45.73 48.18 47.16 43.10 44.24 44.94 45.80 44.61 44.78 42.53 42.86 44.99 46.79 46.05 46.79 49.31 53.21 56.39
58.02 58.07 58.06 58.15 58.36 59.33 59.26 59.24 59.52 59.95 59.69 59.53 58.73 53.91 45.36 54.71 54.35 56.23 57.49 56.12 56.23 54.83 52.11 52.01 52.07 49.09 47.72 46.99 45.25 44.01 43.05 38.42 43.38 44.52 43.89 43.21 39.37 44.21 45.02 43.86 44.42 45.22 46.15 49.82 54.13
57.06 57.78 57.62 57.61 57.67 58.33 58.76 58.57 58.48 59.57 59.46 59.12 54.40 51.75 42.60 54.34 50.17 52.89 54.96 51.75 52.20 52.30 51.13 50.89 50.26 47.10 45.80 41.28 38.95 40.74 36.02 38.49 39.29 44.86 43.42 40.75 38.85 41.76 43.95 43.10 42.10 43.44 45.55 48.88 50.42
56.84 57.63 57.25 57.32 57.41 57.91 58.03 58.25 58.19 58.23 57.51 56.56 53.75 47.54 47.45 45.03 51.07 51.93 53.52 52.78 49.61 49.00 47.23 46.55 45.91 42.51 41.87 39.52 33.69 36.09 37.20 39.18 37.28 40.83 40.36 38.57 38.50 41.55 43.36 43.45 42.20 42.63 43.90 46.23 47.15
57.06 57.33 57.07 57.07 57.51 58.18 56.82 54.14 49.26 47.72 50.92 44.70 45.02 45.50 45.99 49.74 52.17 49.83 51.86 50.19 49.27 46.41 40.30 43.65 39.69 37.31 39.83 41.78 42.18 41.37 38.72 37.55 38.87 41.14 39.52 39.00 38.67 41.52 43.30 42.63 42.12 43.11 42.89 44.68 45.89
56.74 57.06 57.06 57.29 57.75 57.58 55.16 48.51 48.61 49.96 42.92 47.52 46.65 47.55 49.46 49.82 45.07 47.54 51.17 45.20 44.46 39.63 43.08 40.53 37.15 42.62 44.14 42.61 41.38 39.53 39.04 36.60 38.44 41.36 38.71 38.84 38.69 41.06 42.45 42.46 43.31 44.45 44.52 44.94 46.18
54.58 56.80 56.77 57.10 57.19 55.49 52.15 50.20 53.84 52.39 41.74 43.50 45.62 45.44 46.99 48.38 44.75 44.74 47.94 46.03 42.87 40.41 41.16 37.87 40.86 44.57 41.96 39.17 38.94 38.42 38.61 36.43 37.11 38.42 37.97 34.35 34.25 38.30 41.13 43.10 41.64 40.35 41.59 43.34 44.66
55.67 56.26 56.39 56.62 53.21 53.03 50.24 53.43 53.28 51.42 35.57 36.58 40.95 44.39 47.59 47.78 43.23 48.34 48.62 45.72 43.21 39.90 41.72 40.79 42.51 41.45 39.68 38.77 39.85 35.83 39.57 40.20 37.73 34.98 30.77 35.70 27.74 33.83 36.98 38.05 40.01 41.35 41.79 42.65 44.55
54.64 56.04 56.14 56.20 51.90 50.01 52.17 53.66 53.62 49.01 23.32 38.56 40.67 48.03 48.08 43.96 43.64 43.72 48.05 44.69 40.90 41.44 41.05 37.58 38.33 38.87 38.58 39.71 41.08 38.22 41.10 40.07 38.26 35.04 32.76 32.05 29.38 33.09 37.19 36.26 38.56 42.03 43.30 43.37 44.68
54.01 55.59 55.53 54.07 52.83 52.71 55.01 54.30 50.67 34.30 25.48 34.33 39.77 40.22 40.97 42.61 42.81 43.93 44.16 45.66 44.84 41.14 40.01 37.84 40.39 40.36 40.47 40.50 40.87 41.81 39.68 39.28 37.42 35.28 26.46 33.17 30.91 30.71 34.59 37.17 39.41 41.52 43.10 43.99 43.79
50.34 55.36 54.21 53.83 48.54 54.13 54.71 49.17 32.66 27.21 38.46 32.90 34.41 39.27 39.20 38.41 39.96 40.67 39.42 37.65 36.15 33.27 33.26 36.20 36.83 39.34 40.73 37.39 38.81 38.81 35.06 25.84 25.01 24.09 24.46 29.95 28.98 33.18 35.89 39.30 40.28 41.09 41.75 42.82 44.03
48.59 55.02 53.44 52.86 54.05 54.42 50.86 39.18 26.12 32.71 33.76 38.25 37.44 38.31 36.07 38.97 38.69 38.94 37.81 35.52 39.19 37.88 34.83 30.90 28.06 36.26 39.64 37.54 35.40 36.31 34.91 27.73 22.90 22.32 24.15 27.08 25.54 33.24 36.76 39.31 41.32 43.31 42.94 43.24 42.84
47.94 52.48 49.91 48.58 53.56 54.58 44.13 30.58 29.71 34.09 38.90 36.17 37.31 34.03 34.86 37.75 37.60 37.64 37.04 36.50 38.70 39.70 33.80 32.66 31.39 37.79 38.99 39.40 39.05 34.95 32.25 35.93 27.36 20.29 24.02 27.00 31.56 34.67 37.20 37.09 39.89 41.41 42.19 41.91 42.36
42.56 47.46 43.86 47.87 49.99 51.03 39.49 33.49 36.42 40.48 40.26 38.93 32.47 36.00 31.85 34.76 34.96 35.80 35.90 39.59 38.85 41.03 40.49 37.31 29.40 36.56 37.05 38.80 37.85 35.92 38.18 29.88 29.97 17.79 19.56 25.57 27.09 30.82 33.25 35.17 38.49 39.92 40.48 41.30 41.96
41.35 41.38 42.49 47.35 50.14 45.11 33.99 34.88 38.96 42.23 42.01 37.99 36.23 34.85 35.28 34.33 35.89 35.19 35.91 38.96 41.53 39.37 39.19 38.18 35.48 31.85 35.44 34.11 33.78 33.73 32.34 33.13 34.17 31.13 24.39 20.75 26.10 33.07 37.02 38.08 38.51 40.09 41.92 41.27 41.38
36.89 32.82 42.51 46.20 40.00 40.53 35.38 38.70 42.12 40.09 42.21 40.57 40.20 38.12 36.57 36.76 34.92 35.27 35.56 37.89 43.18 40.73 35.94 38.63 35.32 28.44 31.64 35.57 36.60 35.15 35.07 35.00 29.09 26.03 27.36 27.34 28.18 36.94 36.63 39.97 41.27 41.38 42.08 41.63 42.64
33.12 33.53 42.75 42.53 32.80 35.11 39.28 39.80 42.13 39.58 39.49 39.83 37.89 39.05 39.04 36.88 32.94 36.17 37.32 39.01 40.75 39.81 37.00 38.67 33.14 26.24 28.74 33.38 34.66 32.48 34.79 35.64 35.00 31.18 26.12 23.16 27.08 37.26 37.28 39.82 42.02 41.73 41.87 42.58 42.47
36.22 32.15 34.00 36.52 36.15 37.48 36.37 37.18 37.76 43.48 40.94 42.50 39.34 39.33 37.37 36.38 38.08 35.35 36.25 38.20 39.22 39.84 42.36 41.63 35.42 31.94 27.77 30.16 34.62 31.31 33.82 34.61 34.57 27.40 26.92 28.36 30.64 32.55 37.87 39.04 40.68 41.27 41.74 41.98 42.76
35.63 32.33 31.93 30.82 32.74 36.10 38.78 38.26 36.73 37.41 42.14 43.17 39.46 38.10 36.88 33.73 34.98 34.81 37.13 35.95 38.06 39.83 39.22 38.93 30.99 33.76 34.21 35.94 35.64 33.84 33.18 33.56 32.80 35.12 30.76 33.49 32.90 35.96 38.10 39.95 41.29 41.41 42.25 41.99 42.06
33.37 32.20 34.55 32.66 33.41 35.57 37.89 36.08 36.72 38.47 40.15 39.10 38.90 39.20 38.13 35.08 36.20 33.67 37.05 36.43 35.09 36.90 36.82 38.09 28.92 33.23 29.85 33.86 34.14 31.84 34.48 35.09 35.29 34.99 33.66 33.60 33.83 38.86 40.55 41.77 41.59 42.06 42.34 41.76 41.94
37.87 37.84 35.79 32.98 33.11 33.18 32.84 36.88 36.86 39.73 41.49 41.91 41.61 39.76 38.00 39.95 41.48 41.14 41.41 40.52 39.19 36.77 36.16 35.36 31.29 27.30 21.56 30.92 31.03 25.18 31.92 34.80 35.29 36.81 36.68 32.91 37.83 38.73 38.58 41.51 42.09 41.93 42.63 42.34 42.21

GFSSW_sfc_wetblb_087.txt.gz
Wetbulb
58.89 60.77 61.04 61.10 61.39 61.52 62.51 62.60 62.31 61.77 61.61 60.55 59.40 58.74 59.59 58.38 59.45 56.78 50.14 55.78 57.97 62.93 61.31 54.13 52.96 52.23 50.98 49.16 50.15 48.19 41.23 38.83 40.99 41.10 41.77 45.09 43.88 45.73 47.70 49.02 50.04 53.06 53.01 57.00 62.27
55.68 60.35 60.47 60.76 60.71 60.91 62.05 61.76 61.69 61.28 60.95 60.57 59.26 58.59 59.57 58.29 53.70 50.39 56.39 57.69 59.44 61.58 55.56 52.81 49.79 50.60 46.93 47.98 48.21 43.83 40.81 42.52 44.80 43.70 43.54 45.29 45.34 45.59 46.32 46.75 47.09 54.93 57.98 60.47 61.26
55.90 59.31 60.22 60.34 60.53 60.80 61.61 61.23 61.18 61.04 60.60 60.25 59.51 58.97 58.70 57.20 49.33 49.95 58.78 59.54 58.41 59.87 57.21 55.39 52.72 49.84 46.03 46.33 45.83 45.06 42.08 44.29 44.99 45.84 47.31 45.88 44.58 45.94 46.02 43.03 47.67 54.68 56.80 58.56 57.82
56.82 59.23 59.71 60.09 60.31 60.84 61.19 61.13 61.00 60.59 60.57 60.32 59.49 59.30 58.03 54.74 41.94 54.47 59.81 60.46 58.85 58.41 55.37 52.65 49.86 45.56 44.86 44.11 46.98 42.81 44.28 45.17 46.91 46.36 47.20 45.95 46.52 44.58 44.86 45.08 49.93 57.88 59.03 58.53 57.74
56.77 59.10 59.02 59.80 60.08 60.48 60.88 60.85 60.78 60.51 60.42 60.34 59.77 58.58 54.86 48.82 49.50 58.11 60.03 60.89 55.82 54.77 51.74 50.30 47.82 46.20 43.88 45.88 46.17 43.29 43.69 46.04 45.57 45.23 46.32 47.20 44.78 44.30 44.07 44.23 50.85 57.90 58.85 57.97 57.88
56.22 57.93 58.41 58.87 59.35 60.34 60.49 60.84 60.66 60.43 60.50 60.26 59.61 58.56 52.02 44.90 56.73 58.07 57.40 55.08 53.93 53.04 50.97 50.91 49.09 48.85 45.45 45.80 44.51 45.46 45.30 44.72 44.96 43.75 44.53 44.40 41.97 43.92 44.30 44.81 51.19 56.23 55.73 57.37 57.63
56.02 57.11 58.12 58.57 58.91 59.95 59.79 60.40 60.32 60.23 60.37 60.19 59.47 55.47 49.98 48.13 57.99 57.86 56.55 54.09 54.05 52.70 49.57 51.50 50.17 46.49 46.25 44.04 47.10 44.81 41.83 41.56 42.99 43.66 42.90 44.28 40.54 40.97 44.79 44.95 45.82 49.14 52.48 54.53 56.85
55.47 56.68 57.93 58.13 58.57 59.27 59.33 59.59 59.82 59.87 59.68 59.79 58.46 53.49 45.73 54.80 58.10 55.84 56.82 55.04 54.95 53.70 51.82 51.80 51.46 47.15 45.78 46.02 44.36 42.11 39.95 36.72 40.69 43.48 43.51 41.40 36.61 42.46 44.41 43.89 42.90 44.08 45.72 51.27 54.45
54.66 56.35 57.75 57.81 57.88 58.08 58.80 58.96 58.93 59.59 59.48 59.17 52.72 50.07 43.58 54.56 50.33 56.41 56.78 53.24 53.00 52.85 51.66 52.70 49.78 44.56 44.76 39.79 38.11 38.17 32.57 34.38 37.78 42.67 41.04 38.62 36.16 40.87 43.01 42.80 41.29 40.91 42.55 46.04 50.41
54.51 56.30 57.49 57.55 57.66 57.71 58.34 58.75 58.61 58.59 56.89 55.40 53.52 43.65 46.80 44.86 50.48 52.47 57.04 55.85 50.21 49.29 47.06 46.51 44.37 39.92 38.35 35.57 32.74 33.11 33.16 34.88 35.02 39.57 38.56 36.70 36.43 40.11 42.55 41.42 40.49 39.74 41.62 45.01 47.90
52.66 56.39 57.55 57.35 57.56 57.91 57.24 54.51 49.35 48.33 50.91 46.14 45.46 43.90 45.14 48.70 52.26 49.65 53.16 50.82 48.70 45.69 39.48 43.03 38.37 34.69 35.59 37.12 38.24 38.22 36.75 36.52 35.78 39.90 38.34 36.94 37.00 39.78 41.29 40.10 40.02 38.86 39.31 42.41 45.54
53.04 56.58 57.50 57.28 57.33 57.50 54.72 47.47 46.62 47.73 43.40 46.55 46.77 46.29 47.41 49.26 44.22 47.13 50.75 44.84 43.37 38.11 41.27 38.48 34.34 39.96 41.84 40.42 39.05 37.73 36.46 33.38 36.75 39.59 38.21 36.56 37.80 39.28 40.10 40.17 40.99 41.72 40.37 42.16 42.21
52.20 56.17 57.07 56.99 57.21 55.11 50.95 47.76 52.20 50.85 40.03 42.08 45.02 45.26 45.56 46.57 43.55 44.28 47.60 45.44 41.19 37.74 38.32 35.51 38.90 42.55 40.94 39.37 37.62 36.84 35.41 33.39 35.00 36.70 36.97 34.99 32.85 37.46 40.58 39.95 40.50 40.73 41.51 41.84 42.77
51.67 55.02 56.76 56.65 53.44 52.86 48.98 51.61 52.98 47.12 32.06 35.15 38.52 42.34 45.45 45.66 41.95 48.16 49.14 45.34 41.90 37.71 39.09 38.11 42.49 40.75 39.44 38.05 38.13 34.25 38.11 38.25 36.10 33.64 30.70 34.28 28.33 33.39 36.40 38.23 39.32 39.98 39.95 40.95 43.12
50.98 52.79 56.35 56.44 52.59 49.58 50.76 51.27 49.43 44.13 19.35 35.85 38.75 46.95 45.53 41.60 42.60 43.03 47.37 43.96 39.51 39.49 39.27 36.68 38.59 38.58 37.29 38.15 39.01 36.16 39.26 37.66 36.11 34.31 31.33 30.32 28.39 31.33 35.64 35.29 36.56 37.51 39.72 40.74 42.22
48.72 51.55 56.02 54.94 53.66 53.17 53.33 51.62 46.28 32.32 22.64 32.87 38.08 38.66 38.84 40.62 40.92 42.98 43.19 44.22 43.64 40.49 38.87 37.31 39.86 40.15 39.79 39.32 39.96 39.82 38.30 37.15 35.39 31.79 25.30 29.96 28.81 28.14 32.38 36.51 35.56 37.84 39.78 41.75 42.35
48.49 50.06 54.83 55.25 49.83 54.16 52.71 46.00 31.02 24.79 35.74 30.93 32.48 38.02 37.13 36.19 37.76 39.19 38.50 37.45 35.23 33.00 32.99 35.16 36.24 38.36 40.11 37.65 37.99 38.23 34.08 24.42 24.31 23.02 23.30 27.18 26.92 31.16 35.22 37.54 38.73 40.46 40.09 40.57 42.40
48.16 48.43 54.26 53.51 54.35 53.72 49.31 37.44 24.32 30.02 31.35 35.56 35.38 36.83 34.02 37.79 36.65 37.91 36.95 34.75 37.44 37.03 31.08 29.64 27.69 35.73 38.88 37.95 34.78 34.33 32.45 24.60 21.25 20.42 22.91 26.65 26.26 32.42 35.20 37.45 40.18 41.49 40.84 41.24 41.22
46.54 49.16 51.79 50.11 53.57 52.00 41.95 29.35 27.21 31.70 35.75 33.68 35.14 32.26 32.57 37.00 36.27 36.23 36.01 35.39 37.67 37.72 33.71 30.90 30.73 37.12 37.81 38.04 38.51 33.76 31.23 34.45 26.41 16.75 22.25 24.97 28.37 34.44 34.76 36.52 38.74 39.32 40.06 39.67 40.54
41.03 44.41 43.93 49.84 53.37 48.67 36.98 31.68 32.92 38.28 37.22 37.02 29.73 33.27 30.47 33.66 32.57 34.29 34.35 38.56 37.45 39.45 39.39 35.82 29.09 35.47 36.30 37.97 36.39 35.37 37.12 29.48 26.89 17.69 17.85 22.76 24.36 29.24 31.49 34.05 37.62 38.23 38.61 39.19 40.05
38.24 39.48 42.46 47.84 51.64 43.36 31.64 32.16 35.52 39.08 39.76 35.15 32.49 31.85 32.65 33.20 33.13 33.41 34.06 37.43 39.94 38.05 39.46 37.90 34.40 31.50 34.81 33.25 32.22 32.31 29.92 31.12 31.82 27.09 21.84 18.93 25.14 32.66 35.58 35.46 37.01 38.16 39.55 39.83 39.91
32.98 31.80 42.53 46.16 40.06 39.49 34.14 35.45 40.16 37.42 39.57 37.87 37.36 35.99 35.01 35.88 33.18 33.42 33.60 36.26 42.50 39.16 35.85 37.89 33.71 28.07 30.37 34.76 35.34 32.85 33.01 32.87 27.66 25.09 26.23 24.83 27.48 35.02 34.62 36.68 38.88 39.38 40.28 39.83 40.67
32.02 32.24 42.53 45.97 33.36 34.31 37.86 37.32 39.96 37.55 37.53 36.98 35.97 37.18 38.45 36.31 32.26 34.93 36.10 39.06 40.20 39.69 37.08 38.40 31.65 25.21 28.46 32.36 33.79 32.32 33.79 33.95 32.85 28.08 25.57 22.88 26.66 35.58 35.05 36.08 39.30 39.14 40.00 40.71 40.66
33.04 30.68 34.50 38.88 35.77 37.32 35.26 35.26 36.96 41.34 38.90 40.02 37.09 37.61 36.50 35.38 37.48 34.48 35.04 37.56 38.92 39.11 41.63 41.08 34.16 30.30 26.48 29.36 32.79 30.25 32.35 33.03 32.61 25.25 25.24 25.79 29.02 32.41 35.23 36.41 37.80 39.03 40.30 40.25 40.89
32.89 30.67 30.93 32.54 34.13 37.35 37.47 36.77 36.32 35.83 40.11 41.23 36.92 36.60 36.07 32.78 34.63 34.67 36.07 35.44 37.73 39.86 39.01 38.10 30.29 33.17 33.42 34.63 34.52 32.82 32.76 32.13 32.49 34.18 30.89 32.54 31.56 34.30 36.31 37.47 39.67 40.28 40.20 40.34 40.39
32.04 31.61 33.14 31.99 34.31 36.68 37.21 34.80 35.32 38.15 38.64 37.90 36.02 37.04 36.95 34.79 35.73 33.04 35.50 35.34 35.18 36.25 36.21 37.01 29.25 32.06 29.58 33.08 33.92 30.92 33.69 34.40 33.91 31.45 31.62 30.54 31.54 36.48 37.46 38.61 38.59 40.36 40.82 40.47 40.62
36.92 37.64 34.18 31.92 32.33 35.10 35.44 34.75 36.17 39.30 40.00 41.47 40.19 37.91 36.75 38.25 39.54 39.97 39.73 39.64 38.26 36.18 34.98 34.48 29.79 26.08 22.96 29.89 30.41 26.23 30.69 33.27 34.39 33.30 35.86 30.25 36.53 36.75 35.27 39.51 40.17 40.33 41.70 41.67 41.73

GFSSW_sfc_wetblb_090.txt.gz
Wetbulb
57.90 57.23 60.79 61.12 61.01 61.20 62.14 62.38 62.75 62.75 62.23 61.73 60.79 60.59 60.38 60.42 59.59 57.07 51.53 56.22 58.28 62.12 62.35 53.75 52.74 51.89 50.42 48.26 49.14 46.68 39.97 37.33 40.53 39.77 41.69 44.72 43.67 44.66 46.84 48.00 50.38 52.60 54.48 57.63 61.29
56.67 56.92 57.11 60.75 60.64 60.79 61.75 61.86 62.42 62.53 61.85 61.16 60.12 60.35 60.40 59.58 53.95 49.92 57.12 59.84 59.49 61.64 55.16 51.08 49.60 50.10 46.31 46.77 46.42 43.30 39.53 41.61 44.98 42.99 43.43 44.41 44.73 45.59 45.84 45.38 50.81 52.30 55.84 61.19 60.60
56.71 56.96 57.86 60.12 60.34 60.88 61.18 61.18 61.75 62.21 61.39 60.89 59.73 59.91 59.51 56.94 49.10 48.89 60.67 60.05 58.64 59.94 57.00 53.89 52.88 49.60 46.27 46.48 43.86 43.39 41.67 44.66 44.70 45.12 45.88 44.99 43.60 44.12 45.55 42.31 51.03 53.02 56.84 59.36 59.31
55.94 56.97 56.87 57.58 59.93 60.71 61.03 61.61 61.30 61.18 61.32 60.33 59.58 60.13 58.58 53.61 42.35 52.08 61.22 61.18 59.03 57.23 54.75 52.55 52.79 49.56 45.45 43.03 46.05 40.68 43.78 44.59 46.04 45.84 45.82 44.63 45.40 43.21 43.34 44.49 51.86 57.18 59.01 59.15 58.63
56.31 57.10 55.80 58.32 59.43 60.21 60.84 61.52 60.83 60.48 60.53 60.08 59.62 59.07 54.31 47.30 47.93 57.02 61.05 59.79 55.63 54.90 52.28 50.79 50.95 47.02 46.09 44.55 45.57 43.27 42.79 45.10 45.28 45.18 45.37 45.28 43.44 43.23 43.50 43.66 56.72 57.29 58.07 58.35 58.95
55.43 55.40 56.28 58.01 59.26 60.10 60.88 61.42 60.70 60.30 60.48 60.06 59.51 58.55 51.52 43.97 55.54 58.03 56.97 53.70 54.40 53.15 51.54 51.39 49.60 48.49 45.63 43.91 42.57 45.19 43.71 44.22 44.97 44.45 44.24 43.70 41.47 43.06 42.77 48.26 55.48 56.64 56.35 57.40 58.34
54.61 55.39 55.75 56.01 58.69 59.60 60.66 60.81 60.54 60.35 60.21 60.04 59.23 55.30 49.75 48.27 56.36 57.19 56.37 53.06 54.20 53.16 50.13 51.02 51.23 47.69 45.63 41.99 46.17 45.07 40.77 41.24 42.40 43.35 43.09 43.55 39.46 40.87 43.60 50.81 54.47 54.83 54.87 56.32 57.21
53.68 55.17 55.39 55.63 58.23 59.07 59.77 60.13 60.17 60.11 60.16 59.91 59.07 53.36 46.94 55.46 56.11 56.02 55.20 53.14 54.18 53.95 52.07 52.91 51.72 47.74 44.59 45.31 43.28 41.70 39.81 36.01 40.95 42.73 41.77 41.87 37.30 41.82 42.87 48.22 49.68 51.71 51.92 54.48 55.71
53.45 54.72 54.64 55.45 57.42 58.41 59.37 59.40 59.36 60.18 60.20 59.65 54.12 49.74 43.45 57.45 52.67 54.79 54.53 51.06 52.06 52.31 52.87 53.36 50.68 44.97 44.18 39.30 37.95 39.03 32.03 34.07 37.05 41.87 40.00 38.65 36.42 41.24 42.00 43.61 45.39 45.94 47.73 50.79 52.93
51.73 53.66 54.66 55.33 57.33 57.87 58.61 59.34 59.43 59.31 58.07 55.69 52.93 43.83 45.59 45.62 51.75 54.50 56.68 53.62 50.64 49.88 48.90 48.34 45.70 42.31 40.53 36.66 32.77 33.86 33.72 34.72 34.91 39.50 38.22 35.92 37.34 38.23 40.89 40.98 40.84 41.33 42.05 44.10 48.98
51.31 53.01 55.25 55.05 57.30 58.18 58.00 56.85 52.56 49.29 49.66 44.66 44.98 42.52 44.85 48.29 53.87 53.43 53.46 51.07 50.31 47.49 42.25 45.39 40.24 36.53 38.99 39.72 38.49 38.25 36.64 36.07 36.49 39.38 37.37 37.41 37.40 38.41 40.61 38.00 37.75 38.71 39.81 40.77 45.07
51.10 52.78 55.43 55.01 57.28 57.76 56.52 51.50 50.15 50.46 42.85 46.95 47.16 45.12 46.34 49.34 44.55 50.56 51.61 45.32 44.86 40.83 42.52 40.87 38.41 41.33 42.97 40.53 38.39 37.45 36.47 34.43 35.43 38.64 37.90 35.78 36.61 37.71 37.82 38.99 39.40 40.12 38.81 40.30 43.42
50.51 52.35 54.59 56.09 57.09 55.96 53.40 51.09 53.72 51.63 41.37 43.08 45.76 44.57 44.14 48.04 43.31 45.48 47.74 45.24 42.59 39.90 40.40 38.45 40.85 43.48 40.97 38.91 36.64 36.97 34.36 33.18 34.04 35.72 36.03 35.44 34.69 35.08 38.83 38.09 39.41 40.64 39.99 39.44 42.79
50.10 51.91 54.63 56.59 53.65 53.67 50.48 52.05 54.19 46.90 34.09 36.12 39.42 43.30 44.34 45.52 41.79 48.19 49.30 45.35 41.03 38.49 39.83 39.72 43.59 41.40 38.43 37.50 38.64 33.78 38.00 37.29 35.44 33.50 30.34 33.02 27.53 32.81 36.55 37.47 38.12 39.63 40.20 40.16 40.25
49.59 50.36 54.11 56.62 52.38 50.29 50.83 53.13 49.85 43.67 23.04 36.70 37.47 46.05 44.76 40.65 41.57 43.24 49.06 44.85 39.25 38.27 38.25 36.07 38.50 39.36 36.49 37.87 40.45 36.38 38.92 37.41 35.24 31.98 31.48 28.68 27.56 30.49 32.16 34.65 36.82 39.07 38.92 39.39 40.41
48.69 49.63 51.13 54.84 53.50 53.22 52.64 52.00 46.42 31.78 20.60 31.77 37.66 37.56 38.22 39.21 39.28 42.13 43.05 44.76 45.04 39.64 39.17 37.89 42.50 40.82 39.34 41.20 40.84 39.47 37.49 35.29 34.32 31.80 25.66 29.47 28.68 28.67 30.72 34.85 37.14 36.64 38.73 39.69 40.32
48.31 49.39 48.68 55.67 49.82 53.09 51.88 46.75 31.17 22.32 34.09 30.04 32.31 37.41 37.06 34.60 36.10 38.52 37.41 36.67 34.43 32.88 32.23 35.81 35.81 38.81 41.18 37.55 38.54 38.67 35.15 25.50 25.12 24.44 25.37 26.05 25.53 31.89 33.68 35.52 37.78 39.49 39.23 40.17 41.79
48.04 48.69 49.07 54.40 54.91 52.61 48.99 38.15 18.50 28.05 30.46 34.58 35.03 36.41 32.88 35.49 34.29 35.36 35.67 34.09 37.45 35.43 33.05 30.01 27.76 35.52 38.84 38.81 34.91 34.96 34.45 24.99 20.87 20.73 21.75 26.53 24.98 31.67 34.38 36.76 37.79 39.44 40.44 40.73 40.97
46.94 45.16 50.21 53.45 54.50 51.86 42.52 29.77 27.28 31.42 33.89 33.01 34.65 32.04 30.44 35.04 34.13 33.67 34.13 34.34 36.77 37.90 32.34 30.89 30.69 36.57 37.90 38.65 38.87 34.02 32.64 33.36 25.91 16.64 21.95 24.42 27.97 34.19 33.98 34.86 36.34 37.95 40.17 39.71 40.40
41.02 40.13 46.16 53.90 53.87 49.03 38.15 31.44 31.21 36.64 36.60 36.94 29.74 33.12 29.19 32.54 30.78 32.02 32.64 37.32 36.75 39.36 41.11 34.97 29.00 35.14 36.48 37.68 37.36 35.54 37.30 29.76 27.78 19.60 17.71 21.85 23.14 28.38 31.06 34.40 36.21 37.10 38.99 38.91 40.16
38.82 37.71 44.18 51.42 52.49 43.02 32.93 32.62 34.98 37.66 39.35 34.74 31.85 31.40 32.02 32.17 31.45 31.92 32.39 35.06 39.90 38.15 40.43 36.66 34.54 31.70 35.13 33.46 33.01 32.50 31.01 31.13 31.83 27.67 21.57 17.94 24.17 31.93 35.08 36.65 37.36 38.59 38.76 39.05 39.33
35.01 31.72 43.51 46.96 39.41 38.30 34.74 34.81 39.38 36.57 38.24 36.92 36.22 33.85 34.20 34.53 31.02 31.35 31.19 33.74 41.55 38.87 35.34 37.77 33.90 28.87 30.87 34.94 35.46 33.05 33.10 33.08 28.84 25.13 24.88 24.45 26.56 32.49 33.21 35.03 37.77 37.58 39.19 39.07 39.82
32.11 32.28 41.79 42.95 31.78 32.14 37.32 37.14 39.39 36.56 36.60 36.06 34.30 35.96 37.38 35.53 30.77 32.72 34.08 39.56 41.01 38.57 37.08 37.68 31.89 25.84 28.20 32.19 33.45 31.90 33.16 33.57 31.92 28.83 25.10 23.61 26.34 33.86 33.09 33.39 36.69 38.91 38.37 39.22 39.55
33.52 30.41 33.30 39.89 38.86 36.28 33.98 34.78 35.01 39.63 38.63 37.75 36.07 37.25 36.26 34.58 34.98 32.68 33.48 37.22 38.99 40.59 41.83 41.18 33.60 31.20 27.61 29.02 32.07 29.32 31.47 31.74 32.77 26.54 25.51 26.31 28.95 31.97 33.82 33.84 35.76 37.83 38.88 38.91 39.97
33.36 30.36 31.36 30.75 34.06 37.39 36.85 35.49 34.75 34.51 38.71 38.88 34.73 36.91 35.66 31.26 32.62 33.90 35.06 35.48 37.34 40.71 39.42 38.24 30.69 32.26 34.78 34.33 34.74 32.42 34.13 32.24 32.53 34.85 31.28 32.95 31.08 35.08 35.43 35.29 37.55 38.04 38.23 38.53 39.10
32.38 31.13 32.26 31.72 36.30 37.03 36.97 33.72 33.85 36.72 37.11 35.36 33.49 35.16 37.39 33.11 35.02 31.77 33.75 34.50 33.77 35.45 38.31 35.93 28.91 31.71 29.05 32.48 33.23 31.51 33.70 33.23 33.93 31.11 32.01 29.56 29.50 34.58 34.06 37.19 37.27 38.74 38.83 38.92 39.28
36.90 35.65 32.44 31.83 35.26 35.90 34.75 34.63 34.79 37.80 38.67 39.92 37.24 36.46 35.15 36.10 38.55 41.16 40.48 38.92 37.72 36.45 35.97 33.92 30.16 26.65 23.71 29.61 30.64 27.17 30.71 32.83 34.35 32.05 34.53 29.49 36.03 33.98 33.55 36.54 37.67 38.13 39.36 39.90 40.47

GFSSW_sfc_wetblb_093.txt.gz
Wetbulb
59.12 58.85 59.38 61.02 61.38 61.16 61.55 61.89 61.82 62.59 62.88 62.83 62.53 61.51 61.55 61.52 60.70 56.05 50.78 55.88 56.86 62.14 61.21 56.19 51.98 50.75 50.91 49.04 47.72 44.66 38.75 36.27 38.29 38.15 39.55 43.18 42.13 44.74 46.41 47.23 49.15 52.03 54.00 57.47 60.78
57.88 57.56 57.74 58.25 58.26 60.84 61.01 61.57 61.25 61.72 62.51 62.31 61.84 61.16 60.52 59.77 53.57 50.60 56.66 61.61 60.98 61.24 54.45 50.80 48.45 49.36 47.19 47.23 46.21 42.32 37.99 39.87 42.77 41.41 41.90 43.69 43.70 45.17 46.02 48.45 47.62 50.04 54.23 60.01 61.16
57.64 57.10 56.93 57.49 57.11 60.31 60.51 61.08 60.85 61.31 62.25 61.60 61.22 60.76 60.32 55.69 48.74 48.95 59.43 61.81 60.61 59.01 56.53 54.26 52.07 49.89 46.57 46.31 45.04 41.74 39.64 43.12 43.49 43.84 44.69 44.37 43.17 45.17 45.41 43.58 49.87 50.68 56.14 59.11 60.35
56.91 56.76 56.97 57.34 57.73 58.39 60.22 60.49 60.60 60.99 61.97 60.87 60.52 60.34 59.17 51.67 41.89 51.17 60.81 62.21 60.26 56.78 54.79 52.36 52.38 48.77 47.15 44.16 45.94 39.51 42.63 43.21 44.86 45.39 44.61 43.25 44.44 44.79 44.74 45.09 50.38 54.55 59.09 59.12 59.90
56.58 56.36 56.45 56.76 57.11 58.02 59.94 60.21 60.43 60.79 61.25 60.38 60.08 59.49 54.33 47.66 46.72 56.52 61.12 60.49 54.41 54.06 52.80 50.67 51.24 50.09 47.29 46.13 44.54 42.76 42.49 43.75 43.49 44.27 43.37 44.71 42.86 44.03 43.41 43.67 54.50 57.02 59.18 58.42 59.55
54.88 55.66 56.27 56.60 56.22 58.43 59.60 60.11 60.43 60.99 60.82 60.07 59.82 58.78 50.46 43.98 54.48 58.02 55.26 53.08 53.28 52.98 51.75 52.33 50.33 50.75 47.50 46.63 43.72 44.17 43.95 43.40 42.97 42.83 43.20 43.48 41.49 43.09 42.61 51.17 54.13 56.70 57.52 58.21 58.27
53.64 54.88 55.31 56.18 56.68 58.46 59.31 60.16 60.40 60.62 60.27 60.08 59.72 54.92 49.40 46.72 55.49 55.31 53.60 52.19 53.91 53.16 50.07 51.83 51.49 49.26 47.40 45.69 45.78 44.04 40.60 41.21 41.07 41.59 42.08 43.38 38.85 40.62 42.01 53.41 53.47 54.23 56.13 57.15 57.86
52.67 53.86 55.10 55.81 55.48 57.71 59.22 59.74 60.15 60.21 59.89 59.90 58.56 52.99 47.20 54.96 56.40 55.24 53.80 53.04 54.48 54.03 52.96 52.80 52.31 48.02 45.51 46.10 44.87 40.27 40.27 35.87 39.77 40.87 40.79 41.07 37.21 41.70 44.48 52.53 52.21 52.51 52.61 54.35 55.45
51.76 53.47 54.87 55.49 54.88 56.60 58.75 59.80 59.38 59.96 60.11 59.35 53.25 49.96 43.97 57.59 52.78 54.50 54.15 50.36 52.52 53.34 53.47 53.70 50.58 46.19 46.07 42.30 38.87 39.78 33.58 33.32 37.73 40.40 39.04 38.77 38.09 41.73 42.31 51.17 51.21 52.09 52.57 53.85 54.90
51.76 52.05 54.27 54.20 54.88 55.71 58.34 59.51 59.36 59.31 58.00 55.33 53.51 44.56 49.38 47.37 52.62 53.36 54.55 53.33 50.53 50.61 49.43 48.66 46.25 42.48 42.01 40.03 34.27 35.97 32.64 34.45 35.95 38.87 36.41 36.44 36.84 37.13 40.18 46.19 49.25 50.38 50.15 51.44 53.49
51.47 51.45 53.63 53.68 54.75 54.68 57.88 57.27 52.23 50.87 50.23 45.79 46.37 42.30 46.14 50.62 54.78 52.47 53.43 51.33 50.63 48.72 43.12 45.66 41.08 38.44 39.90 41.61 39.14 36.18 36.20 35.72 36.95 39.48 37.12 37.21 38.99 39.14 38.61 37.16 40.76 41.84 43.71 47.40 51.06
50.93 51.32 52.91 53.07 54.81 54.94 56.71 51.95 51.52 51.62 43.64 47.77 47.29 44.43 47.45 51.79 47.17 50.23 53.29 47.04 46.14 42.43 43.86 41.78 39.15 43.45 43.72 42.62 39.68 37.47 34.43 35.30 36.69 38.47 37.18 35.65 37.89 37.82 37.37 38.42 39.97 42.10 40.63 42.88 44.68
50.07 50.54 52.24 53.18 54.95 53.70 53.84 53.20 54.20 53.18 40.87 43.30 46.04 43.07 45.20 47.64 45.39 46.73 49.47 46.64 44.07 41.11 41.52 39.17 42.09 45.13 42.63 39.92 37.67 37.95 33.95 35.45 36.17 36.51 36.47 33.69 34.85 35.46 37.78 36.45 38.35 39.10 38.56 39.76 42.04
49.20 50.24 52.02 53.65 50.99 52.93 51.96 53.71 54.65 50.71 35.15 36.90 41.41 42.70 44.95 46.56 42.64 49.93 49.12 45.39 41.47 40.37 41.66 41.11 44.68 41.86 40.87 38.73 39.80 35.20 39.50 37.53 35.63 35.44 31.71 33.67 28.66 32.05 35.88 37.20 37.52 38.45 38.21 38.51 39.16
48.56 49.64 50.76 53.96 52.23 50.44 53.03 54.36 49.55 47.19 25.34 37.63 39.18 46.27 44.29 41.79 42.58 44.84 48.94 45.22 38.93 39.22 39.62 37.51 40.89 40.01 38.16 38.55 40.57 37.25 38.55 36.84 35.98 33.14 30.09 29.59 26.68 30.27 31.31 36.41 36.72 38.11 38.34 38.83 38.11
47.96 49.02 50.54 50.71 51.02 53.93 54.03 53.19 47.92 32.08 23.98 33.10 37.66 37.32 39.65 39.18 39.51 43.15 43.58 45.56 44.61 39.78 39.53 37.44 42.92 42.66 41.57 41.38 41.97 39.84 37.27 35.97 35.02 31.96 27.02 30.84 28.94 28.53 29.63 34.31 39.04 39.85 40.29 39.17 39.01
47.57 48.06 48.91 51.32 49.17 53.57 52.97 47.43 31.30 27.27 33.99 29.78 32.00 37.21 37.49 35.47 37.11 39.48 38.78 37.55 36.37 32.11 32.86 35.67 37.58 39.63 42.38 38.30 40.56 37.79 33.80 26.75 25.64 24.68 25.33 26.01 26.06 36.53 32.34 34.58 36.85 40.82 40.66 38.61 39.56
47.41 48.09 48.48 50.17 54.64 52.60 48.88 39.02 26.12 28.30 29.75 33.76 34.70 36.40 33.69 35.91 35.60 37.47 36.97 34.73 37.59 33.48 31.59 30.64 28.43 36.18 39.88 39.48 35.63 34.87 33.69 26.67 21.40 22.85 26.07 25.51 24.33 31.09 34.16 34.46 36.66 36.72 36.97 37.60 39.18
47.17 44.21 46.67 50.09 53.61 51.99 42.48 31.57 30.52 30.81 32.44 32.56 34.14 31.89 31.63 35.15 34.15 34.28 34.93 34.75 36.03 34.94 29.41 28.75 29.64 38.03 38.48 39.86 40.28 35.34 31.88 36.18 26.94 18.15 21.39 24.59 27.99 33.53 32.84 34.19 35.99 36.43 36.65 38.52 39.82
39.74 40.24 45.66 52.89 53.59 48.13 38.25 33.42 29.57 34.60 35.91 36.28 29.09 32.20 29.15 32.36 30.53 32.03 32.66 36.57 35.37 38.40 37.57 32.89 26.12 34.09 35.22 39.81 39.72 36.62 38.80 29.17 28.34 20.56 16.11 21.66 22.68 30.19 30.89 34.09 34.94 35.81 36.27 38.10 39.66
37.04 38.61 44.09 52.98 51.70 42.90 33.02 33.63 32.94 36.58 38.69 33.96 30.49 30.04 31.56 32.06 31.49 31.64 32.09 33.76 38.42 37.44 38.81 33.19 31.91 29.83 34.50 33.61 33.76 33.70 32.30 32.34 33.24 28.14 21.91 17.68 24.39 30.83 34.80 36.69 35.83 37.48 37.83 38.51 39.48
35.72 32.87 42.90 47.10 38.94 39.81 35.58 35.44 37.96 36.18 36.53 35.25 34.96 32.71 33.00 34.10 29.86 32.11 30.49 32.91 40.43 39.45 33.89 35.23 32.46 26.18 30.25 34.87 36.77 36.41 35.19 34.20 30.08 24.97 24.46 24.75 26.02 32.65 32.69 34.17 36.46 36.34 37.50 37.89 39.28
32.53 32.78 41.66 43.09 31.74 32.33 38.77 37.17 36.36 35.36 34.71 34.06 33.18 34.30 35.99 34.22 29.70 32.57 32.82 38.08 39.16 38.68 34.59 35.93 29.58 24.08 29.27 33.04 34.24 32.20 33.26 33.73 32.54 29.78 27.50 24.29 27.31 33.27 33.24 33.97 34.83 37.19 37.64 38.42 38.84
34.28 29.37 34.87 38.14 36.23 35.52 36.01 35.31 33.52 38.59 36.00 35.81 34.37 36.55 35.48 34.11 33.73 31.70 32.88 35.62 37.83 37.48 40.99 39.98 31.88 29.00 27.65 30.28 33.79 29.17 30.51 31.50 33.09 28.02 27.21 26.74 28.72 33.52 34.46 34.52 33.67 36.50 37.97 38.45 38.96
33.34 29.64 31.04 29.70 31.34 35.78 37.83 35.90 33.22 32.61 36.42 36.69 32.77 36.43 35.35 31.76 31.08 30.96 33.01 33.81 35.98 39.60 38.48 38.23 28.29 30.04 32.74 34.16 35.41 32.61 32.64 31.85 30.97 33.66 29.84 31.16 30.89 35.06 36.45 35.72 35.54 37.12 37.27 37.10 38.37
31.17 30.10 32.46 30.77 33.22 35.55 37.13 34.68 33.81 35.36 35.29 33.54 32.66 35.32 36.21 31.92 33.87 30.05 32.71 32.64 34.48 33.60 35.14 34.33 26.26 31.50 26.51 32.07 33.16 32.47 34.36 34.47 34.08 34.44 33.19 30.22 31.35 36.78 34.67 36.26 36.14 37.15 37.83 37.91 38.71
36.62 35.25 33.00 32.06 31.60 34.32 34.30 34.89 34.59 37.09 37.36 37.33 35.35 35.17 33.56 34.73 37.48 38.86 39.01 38.29 36.62 35.10 35.29 32.08 28.50 25.80 24.69 29.58 30.43 26.46 31.94 32.89 34.54 34.65 35.58 28.70 36.56 34.69 35.04 36.44 37.03 37.19 38.48 39.21 39.50

GFSSW_sfc_wetblb_096.txt.gz
Wetbulb
59.75 59.71 59.83 59.70 59.42 60.96 61.79 61.56 61.73 62.33 62.65 62.70 63.03 62.60 62.04 61.67 61.39 56.03 51.12 55.28 56.15 61.87 60.78 54.21 51.96 50.85 50.76 48.11 47.22 43.64 38.59 35.53 38.00 36.97 39.97 42.01 41.76 42.19 45.38 50.36 50.12 52.59 52.86 54.91 60.34
59.16 59.20 59.31 59.52 59.19 59.10 61.53 61.30 61.48 61.92 62.32 62.53 62.81 62.20 61.78 61.43 54.04 51.40 56.90 60.98 62.15 61.59 53.67 49.61 48.08 49.21 46.59 46.78 45.57 41.68 37.70 39.53 42.70 40.31 40.53 42.66 42.80 43.77 45.14 47.52 48.93 48.94 55.25 59.16 60.88
58.46 58.73 58.55 58.67 58.47 57.68 58.44 60.62 60.70 61.32 62.01 62.14 62.37 61.39 60.53 56.05 49.99 50.25 59.66 60.86 61.95 59.17 55.24 52.71 51.32 48.84 46.51 46.02 43.08 41.52 40.03 42.20 43.27 42.25 43.31 42.80 41.07 44.47 45.42 43.97 48.90 49.96 55.09 58.09 59.58
57.34 57.80 57.51 57.34 57.39 57.43 56.97 56.42 60.53 60.84 61.59 61.73 61.73 60.61 59.31 52.42 42.34 50.98 60.75 62.70 61.67 55.69 53.63 51.57 51.12 47.44 46.15 44.90 45.21 41.22 43.28 43.11 44.61 43.61 43.19 42.01 43.35 43.11 45.49 45.44 48.71 52.66 57.82 58.32 58.63
56.60 56.96 57.02 57.20 57.12 57.08 57.83 56.96 60.31 60.49 61.08 61.38 61.22 60.14 55.05 47.95 47.61 55.25 60.92 61.36 55.30 53.04 51.14 49.81 49.79 48.63 45.88 45.63 45.35 42.77 42.83 43.13 43.88 42.71 42.15 43.31 41.32 42.21 43.76 44.76 52.19 56.47 58.42 58.18 58.44
54.90 56.45 56.41 57.11 57.09 57.28 56.77 57.95 59.64 60.11 60.85 61.27 60.82 58.81 51.17 44.93 54.11 57.28 56.93 52.81 52.22 51.17 52.22 51.54 51.31 51.17 47.40 46.15 44.48 44.17 44.35 42.95 43.31 42.14 41.99 41.96 38.97 41.53 42.60 52.27 54.18 56.78 56.98 58.22 58.55
54.19 54.94 55.61 56.23 56.58 56.90 56.65 57.73 59.41 59.92 60.47 61.11 60.30 55.16 49.42 47.95 55.26 54.10 53.48 52.09 52.62 52.85 50.45 51.65 51.15 50.25 47.71 45.78 45.50 46.09 43.33 43.69 42.67 42.01 41.16 41.02 37.71 39.98 41.22 52.08 53.24 54.50 56.03 56.98 58.17
53.23 53.46 54.25 55.51 56.19 56.77 56.39 58.61 59.21 59.65 59.86 60.49 59.12 52.87 46.30 54.65 53.75 53.08 53.45 52.73 54.70 54.59 52.68 52.80 52.89 48.47 46.72 46.69 44.57 45.76 43.75 38.41 41.73 41.76 40.90 40.22 36.82 40.61 44.92 51.19 51.62 52.08 53.52 55.55 56.22
52.31 52.94 53.67 55.20 55.73 56.47 56.31 58.55 58.49 59.38 60.13 59.77 53.35 50.38 44.19 57.19 51.35 53.15 52.68 50.52 52.87 53.28 53.45 54.01 51.58 47.02 47.92 44.32 42.26 41.00 39.30 37.21 41.09 41.79 39.39 37.96 37.27 40.52 45.03 49.90 49.48 50.83 51.09 53.70 55.14
52.12 51.77 52.47 54.83 55.24 55.50 56.26 58.17 58.37 59.12 58.76 55.91 53.48 46.35 49.83 47.37 51.39 52.97 53.85 53.63 50.98 50.71 50.16 49.37 47.29 43.14 42.98 43.79 36.73 37.02 38.04 34.78 39.33 40.32 37.91 34.97 37.07 38.12 39.49 48.79 49.51 50.52 50.55 51.88 53.71
51.57 51.53 51.66 54.27 54.83 55.33 55.38 55.22 51.10 50.84 51.64 46.50 46.41 42.80 47.16 51.31 53.11 51.43 52.83 51.31 50.84 48.49 42.99 45.79 42.59 40.17 42.52 45.22 43.97 42.86 40.41 39.48 36.45 39.97 37.60 36.59 38.15 40.86 38.78 37.98 45.48 48.62 50.36 51.42 53.18
51.50 51.37 51.34 53.58 53.84 54.77 54.25 50.83 51.14 52.49 43.44 48.71 46.64 46.37 50.40 51.53 47.36 49.14 52.88 46.83 45.74 40.33 44.33 42.40 40.00 44.67 44.59 44.99 40.73 39.24 38.20 38.25 37.69 38.66 36.94 36.52 36.78 39.42 36.95 38.54 43.31 47.26 47.64 49.53 49.58
50.88 50.51 50.48 52.28 52.97 52.03 50.99 51.64 55.16 52.67 42.21 44.47 44.86 46.63 48.55 49.78 46.67 47.50 50.03 47.57 44.11 41.17 41.58 39.82 42.27 44.96 43.48 41.49 38.14 37.77 37.55 37.67 35.45 36.69 36.49 34.67 35.82 35.20 36.94 36.28 37.99 38.90 41.95 45.25 48.82
49.38 49.30 50.26 51.97 47.07 48.55 49.12 53.87 54.32 51.37 35.29 38.62 40.99 43.21 45.68 47.58 45.25 50.47 50.27 46.44 42.82 41.29 42.09 41.99 45.04 42.45 41.48 40.11 41.31 36.04 40.52 38.38 35.38 34.67 32.49 33.95 30.56 34.68 35.58 37.43 36.41 39.10 37.67 39.77 39.44
48.70 48.59 50.06 51.91 49.06 46.71 52.06 55.01 53.16 49.28 25.21 38.01 40.42 47.20 45.49 42.32 45.15 45.88 48.92 45.55 40.28 41.08 41.74 38.78 41.47 41.06 38.86 39.78 41.94 38.97 39.86 37.22 36.01 32.86 31.01 33.64 26.60 32.14 30.16 34.60 37.03 37.91 37.95 39.41 39.50
48.05 48.16 49.51 49.92 49.08 50.20 54.84 52.11 49.83 32.53 24.44 33.77 38.83 39.01 39.13 39.38 39.94 45.23 43.77 45.92 44.89 40.37 39.65 38.30 42.44 43.60 42.29 42.88 42.37 40.54 38.31 37.08 35.95 33.71 26.88 31.72 28.72 30.76 33.89 32.97 37.06 39.84 40.44 40.54 38.71
47.71 47.85 47.61 50.31 43.19 49.87 53.33 47.50 32.38 28.81 33.86 30.97 34.37 38.70 37.21 36.57 39.54 41.13 39.35 37.30 36.53 32.69 33.08 36.56 38.37 39.81 43.20 38.72 39.84 38.26 35.97 28.06 27.05 26.20 25.77 29.04 27.09 34.25 35.51 34.82 38.72 41.90 41.77 40.34 39.24
46.68 47.28 47.16 48.05 50.45 49.74 49.36 39.85 28.42 30.70 31.56 33.82 37.03 38.13 34.50 36.81 37.10 39.07 37.61 35.07 37.48 33.78 33.77 31.93 30.06 36.50 41.22 39.85 36.45 35.97 36.42 29.11 22.62 22.15 23.94 26.40 26.33 33.75 35.60 35.72 36.02 36.22 36.30 36.23 36.75
46.46 43.65 45.07 47.38 50.28 48.53 43.54 32.38 31.36 31.76 32.39 33.06 36.83 33.55 32.34 34.82 35.54 36.69 36.24 35.71 37.55 35.19 31.75 30.48 31.17 37.96 39.09 40.77 40.01 34.68 32.95 35.19 27.03 20.43 23.09 26.78 28.85 33.59 33.26 34.45 35.02 36.09 35.79 36.49 36.74
39.93 40.76 43.78 50.62 50.14 45.32 39.24 33.75 30.36 34.17 35.85 37.33 32.06 34.31 30.17 32.27 32.15 32.59 34.70 37.94 37.13 37.01 36.41 33.34 27.79 35.05 36.66 40.14 39.70 37.77 39.28 31.34 29.03 20.53 18.28 22.12 23.46 32.22 32.62 34.40 34.87 35.25 36.66 38.13 37.38
39.74 37.94 43.81 49.64 49.06 41.53 32.41 33.14 32.96 37.50 39.41 34.68 30.51 29.94 31.84 31.07 30.22 31.38 33.33 34.04 38.02 36.64 38.21 34.73 31.20 29.07 34.91 35.17 34.80 34.57 33.97 32.55 32.43 26.97 21.36 17.86 24.34 31.03 36.34 36.62 36.98 38.01 39.25 39.11 37.14
36.43 32.60 42.71 47.34 34.38 33.18 34.59 35.20 38.14 36.67 37.22 34.05 33.90 31.72 32.76 33.24 29.15 30.97 31.18 33.66 40.60 39.51 34.18 36.32 31.83 25.99 28.52 32.25 36.38 36.66 34.10 33.89 30.35 24.73 24.40 24.20 25.14 31.69 33.25 33.29 35.13 36.27 37.04 36.52 37.68
32.71 32.82 42.10 44.24 30.23 31.22 38.03 36.27 37.03 35.49 33.43 33.52 32.23 33.58 36.23 33.75 29.99 32.35 32.06 36.78 39.97 38.67 35.86 35.73 29.70 24.35 28.36 32.24 32.18 33.44 33.31 36.88 34.14 29.65 27.76 23.64 26.94 32.93 32.63 33.36 34.94 35.80 37.56 38.04 38.54
34.14 26.98 35.21 37.14 33.57 34.94 34.68 34.26 32.77 37.93 34.58 34.68 33.47 36.50 35.19 32.98 33.03 31.82 32.63 35.49 38.88 39.46 41.27 40.16 30.92 28.23 25.03 26.71 31.38 28.04 34.28 32.95 34.59 28.53 28.13 28.18 27.93 35.91 38.15 35.28 35.34 35.63 37.59 38.09 38.49
33.10 29.23 30.31 29.45 30.87 35.02 38.30 35.53 32.53 31.76 34.54 35.29 31.84 35.13 33.54 29.64 30.81 29.46 31.99 32.87 35.54 39.66 37.92 36.30 27.11 29.16 30.64 31.57 32.08 30.75 31.56 32.97 31.35 33.06 28.76 32.92 31.01 33.13 36.41 36.59 36.59 35.81 37.40 37.50 38.12
30.75 28.96 32.21 30.15 32.47 34.76 37.00 34.27 33.44 33.23 33.24 31.73 32.61 34.83 34.19 31.12 32.65 28.53 31.69 32.11 31.78 32.98 36.12 33.31 26.30 30.17 26.95 29.97 30.40 29.65 31.35 33.86 33.34 32.95 33.00 32.85 31.20 33.77 34.48 36.86 36.24 37.06 37.31 37.47 38.50
36.33 35.62 32.25 30.67 31.09 32.43 34.07 34.77 34.49 36.40 36.85 36.26 35.45 34.14 31.90 33.51 37.33 38.44 39.41 38.45 36.63 35.32 32.77 34.09 28.12 26.60 21.51 28.50 30.17 26.66 30.70 32.83 33.54 32.71 35.50 31.10 35.70 34.62 34.75 36.13 37.37 38.19 37.79 38.40 39.17

GFSSW_sfc_wetblb_099.txt.gz
Wetbulb
57.79 59.53 60.08 60.78 60.64 60.77 61.43 61.89 61.89 62.37 62.60 62.75 63.47 62.81 62.86 62.32 61.92 57.43 52.43 56.11 56.75 61.74 61.07 53.80 52.25 51.76 51.42 48.72 49.90 47.70 40.98 38.44 40.69 40.08 42.83 44.26 44.49 45.79 49.51 52.21 52.54 54.37 54.58 57.56 62.18
57.89 59.04 59.47 60.14 60.05 60.78 61.14 61.65 61.54 61.62 62.26 62.30 62.83 62.56 62.35 61.85 56.70 53.36 57.15 61.24 62.17 61.72 54.48 49.50 48.11 49.07 46.59 47.53 47.39 44.12 40.66 41.99 44.58 42.65 42.55 43.96 45.09 45.26 48.72 50.01 50.87 52.74 57.34 60.21 62.35
57.31 58.15 59.42 59.50 60.07 59.94 59.63 60.76 61.29 61.15 61.58 61.66 62.12 62.23 61.63 58.32 51.63 52.57 60.58 61.28 63.29 60.27 54.81 52.47 51.50 49.57 46.02 47.18 45.35 43.72 42.09 45.00 45.07 44.50 44.12 44.16 43.35 46.25 47.42 47.05 49.99 51.16 55.35 58.85 60.42
56.86 57.85 59.03 58.97 59.10 59.13 58.37 59.26 57.56 59.61 61.24 61.12 61.60 61.59 59.90 55.91 44.52 52.62 61.54 62.30 63.18 55.81 53.87 51.38 50.32 46.50 45.95 43.46 45.87 42.99 43.46 43.62 44.71 43.95 43.56 42.86 44.14 44.78 47.06 47.90 49.80 53.57 57.94 58.73 59.05
56.87 57.67 57.82 58.30 58.46 58.42 58.59 58.24 56.96 56.95 60.51 61.03 61.17 60.45 55.64 48.90 49.43 54.19 59.48 61.89 57.50 53.11 51.00 49.57 48.94 47.75 44.77 45.93 44.35 43.02 44.01 44.60 44.36 44.06 43.78 43.49 43.15 44.29 45.23 46.65 51.31 56.41 58.37 58.38 58.78
56.35 56.93 57.37 57.64 57.42 57.78 57.58 58.16 57.81 56.40 59.30 60.77 60.76 58.97 52.89 46.08 54.92 57.09 57.02 54.46 52.12 50.90 50.35 51.56 50.35 51.67 48.01 45.84 44.63 44.63 46.00 45.10 45.44 43.66 44.19 42.22 41.19 43.18 44.57 52.20 53.69 56.59 57.32 58.34 59.00
55.45 55.60 57.14 57.18 57.01 57.63 57.82 58.03 58.03 57.43 56.91 60.60 60.87 57.32 51.62 49.78 55.61 56.15 53.36 51.25 52.20 52.18 50.21 51.82 52.60 51.43 48.80 45.09 46.36 47.06 45.12 47.39 47.79 43.26 43.20 42.52 40.04 41.29 44.13 52.16 53.08 54.76 56.82 57.63 58.55
54.85 55.03 55.41 56.62 56.92 57.37 57.57 57.16 57.07 57.20 58.42 60.21 60.57 54.68 48.39 55.20 54.12 53.30 53.43 52.57 53.82 53.75 52.42 52.38 52.96 48.81 47.41 46.91 46.08 45.19 44.42 41.31 47.13 43.70 42.86 42.87 38.22 43.05 45.82 51.07 51.69 53.27 54.82 57.40 57.88
54.01 53.72 54.41 54.75 56.21 56.61 57.18 56.87 57.10 56.97 59.65 60.43 55.50 52.19 46.01 55.66 51.26 52.44 52.84 50.66 52.41 53.44 53.81 54.56 52.95 48.09 48.24 43.93 42.67 41.11 38.84 38.48 41.94 44.82 42.01 40.49 39.10 42.20 44.99 49.49 49.59 52.01 53.70 55.56 57.01
53.06 52.62 53.58 53.76 55.20 56.16 56.46 56.75 57.29 56.33 58.13 57.93 54.71 47.34 50.05 48.18 50.41 51.96 53.67 53.67 51.09 51.19 50.54 49.89 48.00 44.84 45.43 42.79 36.56 38.12 38.47 38.63 40.34 43.08 39.06 38.37 38.17 41.02 41.73 48.25 47.89 50.30 52.32 54.18 55.41
52.64 52.41 52.15 52.79 54.87 55.64 54.84 53.14 49.90 49.03 52.46 47.94 47.03 45.62 48.19 51.33 53.06 50.42 52.91 51.62 50.81 48.74 43.20 46.40 43.39 40.38 43.74 44.59 44.65 42.27 40.92 39.50 38.37 40.89 40.68 38.10 38.55 41.69 40.66 43.42 46.48 48.18 50.54 52.60 54.61
51.87 52.15 51.91 52.11 54.49 54.98 53.81 48.15 49.28 51.85 45.48 49.52 48.85 48.53 50.38 51.33 46.21 48.58 52.72 46.61 45.92 42.22 44.47 42.38 40.12 44.98 45.65 46.16 43.94 42.16 41.34 40.90 41.00 39.81 39.52 40.92 41.54 41.56 38.55 39.16 42.84 47.30 48.82 50.96 52.29
51.79 51.86 51.32 51.39 53.60 52.24 50.38 49.66 55.48 54.11 45.17 45.85 47.24 47.71 48.13 49.88 46.00 46.01 49.43 47.33 43.61 41.81 42.73 40.95 42.74 46.11 44.94 43.80 42.88 40.62 40.66 40.15 39.25 37.62 37.91 35.42 35.88 39.61 38.63 37.90 38.65 42.12 47.23 49.51 51.53
51.29 51.29 50.82 51.05 49.04 48.36 47.03 52.60 55.67 52.49 35.18 38.79 42.60 46.88 48.25 48.95 45.12 50.12 51.01 47.13 44.51 40.59 41.25 42.05 44.97 43.57 43.17 42.05 43.67 37.03 40.84 38.77 37.13 36.16 33.92 36.78 27.51 38.64 39.58 38.13 36.73 40.03 39.40 44.52 48.03
50.80 50.04 50.01 52.13 46.24 44.81 48.09 53.90 53.70 49.98 24.93 37.51 40.99 50.19 49.11 43.95 45.72 46.29 49.59 45.92 41.78 42.07 42.02 38.78 41.48 41.57 40.66 42.27 43.90 39.96 41.20 38.00 37.02 34.56 34.20 32.89 30.89 35.64 36.93 35.85 37.75 38.88 39.42 41.74 43.70
49.67 49.36 49.39 48.60 48.98 49.29 50.08 53.97 50.45 32.86 24.36 33.19 39.88 40.12 42.37 44.62 43.26 44.74 44.07 46.20 45.33 42.14 40.07 38.81 42.30 43.74 42.22 42.34 44.15 41.53 38.80 37.59 36.58 35.45 28.52 33.48 32.48 32.33 36.24 37.44 38.59 40.60 41.73 42.10 42.21
49.11 48.74 47.80 49.33 44.04 49.71 51.52 48.97 32.77 26.79 33.31 29.63 33.72 40.25 39.90 39.74 40.57 40.98 39.08 38.75 37.52 34.54 34.68 38.01 39.28 40.32 43.41 38.24 40.21 39.81 37.38 29.16 26.96 26.59 26.89 29.14 29.49 36.96 39.61 37.02 39.54 41.67 41.32 42.74 42.73
48.31 47.89 46.78 47.35 49.21 49.01 46.57 37.16 26.45 30.13 31.52 36.39 37.77 38.74 35.74 39.01 39.29 39.16 38.59 36.61 38.88 35.69 35.51 33.15 31.31 37.59 41.44 38.51 36.10 37.28 37.11 30.29 24.78 23.01 24.90 26.50 28.11 33.33 39.92 45.92 45.08 39.45 39.44 39.53 39.92
46.67 43.95 44.07 45.61 48.01 48.89 37.47 29.76 30.25 32.56 34.01 36.03 36.81 33.71 34.05 35.35 38.02 37.71 36.52 37.03 37.70 35.63 32.54 33.43 31.38 38.66 40.68 40.82 39.78 35.32 34.16 35.47 28.33 18.32 21.35 25.30 29.56 34.96 34.92 35.41 35.47 35.77 37.29 38.97 39.14
39.52 40.06 40.98 47.85 48.78 43.92 32.11 29.50 32.49 36.76 37.69 38.28 32.11 34.38 31.28 31.91 34.47 35.49 35.52 37.71 35.97 36.57 36.93 34.34 29.60 36.09 38.09 40.79 39.76 37.88 38.56 31.40 30.91 24.82 19.66 24.15 24.63 32.07 32.36 34.90 36.15 35.92 37.53 39.47 39.25
40.66 36.89 42.92 49.02 47.61 34.62 27.94 32.22 32.95 37.77 40.76 37.13 34.28 31.53 33.01 32.21 31.62 34.33 34.85 34.37 37.44 35.41 35.78 33.10 31.70 31.15 36.59 35.73 35.14 35.65 34.78 34.65 33.04 27.51 23.18 18.86 26.48 31.81 37.56 38.61 37.11 38.84 38.51 39.75 40.05
36.92 31.45 42.89 46.26 33.14 32.15 31.49 34.04 36.97 37.31 40.60 34.82 35.01 33.50 34.28 33.69 31.40 32.88 33.39 32.73 39.01 37.63 32.97 34.28 30.92 28.84 29.88 33.58 39.75 36.86 35.78 34.23 28.94 25.56 24.80 24.25 25.19 33.53 32.79 34.87 35.38 36.80 37.20 38.60 39.14
33.29 32.91 41.68 44.48 28.84 30.63 35.96 35.71 37.25 37.82 35.78 34.07 32.77 34.39 37.53 33.76 31.01 31.76 32.93 36.96 38.53 38.83 35.02 34.70 28.60 22.02 27.71 32.10 31.79 34.26 35.06 36.42 32.94 30.50 27.50 23.49 31.78 32.92 32.52 34.59 35.56 36.33 37.12 38.40 38.85
32.88 28.38 35.25 37.72 35.08 34.06 32.25 33.10 33.71 39.54 34.62 34.07 33.23 37.36 34.81 33.14 32.79 30.60 32.09 33.97 38.79 39.46 41.10 38.06 30.03 26.54 25.46 26.97 31.25 28.83 33.58 35.53 35.79 30.35 29.76 29.85 34.23 36.99 36.09 35.31 35.52 36.27 36.84 38.07 38.73
31.53 29.30 30.37 28.99 30.74 33.87 34.72 34.08 33.29 32.15 35.77 36.81 33.96 35.88 32.73 29.85 29.42 29.30 31.52 33.00 36.44 40.02 37.98 34.73 26.06 28.43 29.75 30.62 30.74 30.58 31.68 33.17 33.21 34.98 31.35 34.85 33.74 36.28 38.23 38.26 35.94 36.09 36.40 37.61 38.17
30.88 30.28 32.18 30.31 32.60 33.41 33.79 32.67 33.37 32.73 32.09 31.07 32.49 35.55 34.92 31.86 32.54 28.95 30.81 30.95 31.91 32.98 32.94 32.94 24.96 29.42 26.79 29.94 31.23 28.90 31.76 33.73 33.33 34.93 35.05 34.78 32.47 35.34 34.79 35.67 36.23 37.91 37.60 37.77 38.16
36.14 36.03 30.28 30.31 31.55 32.32 32.23 33.42 34.28 35.31 34.54 34.47 36.21 34.29 31.37 33.15 36.03 37.97 39.50 37.75 36.46 36.47 35.41 31.24 28.30 22.65 16.75 28.10 30.22 23.72 29.28 31.70 34.05 35.00 34.59 29.72 36.22 34.83 33.95 36.60 36.52 37.77 38.27 39.03 39.50

GFSSW_sfc_wetblb_102.txt.gz
Wetbulb
58.15 58.82 58.75 60.46 61.42 62.04 62.45 62.65 62.77 63.00 63.18 62.96 63.41 63.21 62.99 62.75 62.22 58.70 55.64 59.60 59.96 61.78 60.52 56.31 55.48 54.02 52.76 51.70 52.80 51.51 48.58 45.82 46.78 45.68 47.74 51.61 50.15 50.79 54.59 55.68 57.15 58.27 57.55 61.13 64.68
57.62 58.07 58.58 60.05 60.82 61.35 61.93 62.01 62.08 62.35 62.76 62.70 62.84 62.88 62.62 62.00 58.11 55.22 60.14 60.62 62.16 62.35 56.78 54.94 55.36 55.61 49.59 50.82 51.87 50.04 48.23 46.88 48.90 48.82 48.58 50.97 51.54 50.61 52.81 53.85 54.63 56.00 59.49 63.42 63.64
57.15 57.71 58.39 59.72 60.36 60.56 60.74 61.36 61.28 61.47 62.09 62.34 62.25 62.35 62.11 60.85 54.06 53.95 62.28 61.45 63.02 61.86 56.77 55.67 56.02 53.98 49.06 50.48 50.84 49.71 48.28 48.64 47.20 49.16 48.65 49.18 49.72 52.44 51.91 51.21 54.13 54.89 57.98 61.17 61.91
56.72 57.42 57.81 59.03 60.22 60.05 60.75 60.87 61.04 60.94 61.68 61.93 61.81 61.71 60.79 58.93 46.16 57.26 62.74 62.96 63.03 60.25 56.35 53.89 51.43 47.87 47.36 47.10 50.46 47.72 47.25 47.80 47.34 47.57 48.06 47.82 49.52 49.78 52.27 52.54 54.34 57.73 60.36 60.28 60.49
56.74 57.19 57.85 58.64 59.73 59.91 60.00 59.58 60.35 60.10 60.98 61.55 61.43 61.02 58.19 52.66 52.39 57.40 62.00 62.42 60.99 58.50 54.08 52.48 49.69 48.86 46.06 48.98 48.85 48.42 46.42 47.79 47.18 48.19 47.94 47.48 48.13 49.75 50.70 52.59 54.09 58.69 60.20 59.96 60.39
56.23 56.97 57.50 58.24 59.09 59.60 59.76 59.18 58.43 57.99 59.60 61.17 61.10 60.34 55.18 47.67 56.17 58.30 57.95 60.04 59.16 56.24 54.85 53.37 51.30 52.98 49.26 48.40 47.94 50.93 48.61 48.88 48.33 47.70 47.08 46.81 47.34 47.82 50.48 54.22 55.10 58.30 59.31 60.23 60.75
56.01 56.54 57.04 56.93 58.06 58.73 58.78 59.22 59.15 57.99 57.66 60.25 60.93 58.42 53.01 50.59 58.48 59.44 59.38 58.64 56.24 56.32 53.91 54.25 55.18 52.04 50.93 47.15 49.27 49.82 46.94 49.18 49.74 48.91 45.91 47.12 46.55 46.07 50.45 54.17 54.74 57.03 59.11 60.14 60.18
55.56 56.11 56.54 56.63 57.24 57.70 58.09 58.19 58.50 58.91 58.27 57.69 60.29 56.91 49.49 55.89 58.75 56.96 56.91 55.02 55.97 56.01 55.61 55.69 55.86 50.70 49.63 49.03 49.10 47.30 47.90 43.99 48.48 48.22 49.15 48.52 43.58 49.68 50.33 53.34 53.52 56.10 58.28 59.53 59.92
54.92 55.56 56.09 56.97 56.95 57.08 57.40 57.69 57.52 58.30 58.30 58.00 55.33 53.85 48.10 55.88 52.93 56.45 56.78 52.82 54.09 54.46 55.05 55.99 54.56 50.36 47.90 46.62 43.38 44.26 41.76 43.34 45.43 49.11 50.13 46.94 45.31 49.45 48.07 51.72 52.50 55.39 57.17 58.55 59.70
54.58 54.94 55.50 55.73 56.53 56.78 56.81 57.45 57.22 56.89 56.13 55.99 55.26 49.41 49.93 48.85 51.91 53.63 56.10 54.88 52.06 52.43 51.08 51.01 50.51 47.09 46.30 43.99 38.68 40.13 40.72 42.31 43.92 46.39 46.28 47.81 46.34 46.76 50.42 48.84 50.67 53.36 56.42 57.67 58.81
54.10 54.21 54.36 54.47 54.82 56.02 55.40 53.25 49.18 47.80 49.94 46.61 48.40 47.98 49.08 51.78 53.36 51.27 53.62 52.70 52.28 49.93 44.90 47.92 43.44 41.72 44.35 46.02 46.94 47.39 45.07 44.10 46.28 45.67 46.52 46.44 46.91 47.39 50.22 48.19 48.69 51.50 53.59 56.55 57.97
53.65 53.33 53.13 53.67 54.02 55.49 54.54 47.51 48.27 51.55 44.04 48.42 50.24 50.51 50.91 51.82 46.17 49.20 53.77 47.98 47.28 42.68 46.51 44.34 41.82 47.08 47.48 47.05 46.41 44.81 44.28 44.20 43.64 43.09 45.13 46.66 45.35 49.79 51.59 51.53 49.80 49.50 51.73 54.27 56.99
53.27 53.21 52.77 52.84 53.83 53.36 50.38 49.30 55.23 53.99 43.84 45.02 49.46 48.39 48.23 50.90 45.91 46.44 50.29 48.89 45.56 42.84 42.96 42.06 44.17 48.15 46.88 44.80 42.86 43.92 43.65 43.96 42.42 42.23 42.17 37.88 40.64 45.81 49.33 52.16 52.81 48.95 49.94 53.23 55.63
52.88 52.94 52.43 52.25 50.00 50.26 47.79 52.84 55.27 53.88 36.06 38.50 44.08 47.40 48.74 49.57 44.43 50.39 51.28 48.53 44.97 42.25 43.62 43.27 47.21 45.64 44.73 44.51 44.97 38.82 43.90 43.23 39.32 39.28 36.50 41.58 34.88 45.69 47.40 48.62 50.00 47.71 47.86 50.56 53.99
52.46 52.51 51.90 52.76 48.89 46.24 48.79 53.96 54.04 50.06 25.11 39.87 42.60 51.63 49.74 45.05 44.93 45.91 50.49 48.12 42.15 42.58 42.92 41.35 43.28 43.86 42.81 44.21 47.44 40.46 43.18 42.08 39.94 37.52 36.12 36.95 33.18 42.83 47.10 44.78 47.97 50.82 49.78 49.26 51.42
51.96 52.01 51.33 49.66 49.03 50.10 52.22 53.74 48.62 32.12 25.59 33.31 41.92 42.42 43.34 44.30 44.29 46.48 45.57 48.05 49.27 44.23 43.32 41.52 44.16 46.14 46.04 47.36 47.47 42.38 39.76 39.01 37.50 36.39 30.50 37.78 36.20 40.33 44.91 44.99 47.48 50.28 48.97 48.76 49.27
51.22 50.83 49.66 49.46 43.91 50.89 51.69 46.47 30.48 26.34 33.73 30.71 35.59 42.15 40.94 40.32 41.17 42.26 40.71 40.50 39.54 35.69 36.30 39.64 41.29 41.77 45.39 40.51 42.64 41.96 39.28 31.20 29.53 29.81 32.16 34.66 37.17 40.91 47.29 49.60 48.79 49.10 49.90 49.04 49.59
50.02 49.59 48.71 48.64 51.02 51.17 47.37 34.42 23.38 31.56 32.27 35.97 39.19 41.03 37.33 40.32 39.66 40.91 40.17 38.36 41.63 41.87 37.54 34.44 32.74 39.20 42.77 42.79 37.91 38.53 39.50 33.71 27.87 29.28 33.81 32.68 32.93 40.06 45.82 48.94 50.10 46.85 47.99 49.12 49.06
49.20 47.07 44.71 46.62 48.85 49.22 38.52 26.06 29.48 32.95 35.03 35.57 39.07 35.64 36.19 38.83 38.75 39.59 38.87 39.26 41.58 43.38 36.90 34.83 33.79 40.20 42.26 42.51 42.74 36.68 35.84 38.33 32.55 25.52 30.20 35.20 37.75 41.63 42.97 43.60 41.68 45.31 48.81 47.51 46.92
44.03 41.39 41.03 47.27 48.60 43.95 33.75 27.57 31.53 36.22 38.63 39.16 33.53 37.00 32.91 34.88 35.98 37.57 37.47 41.64 40.90 42.17 45.37 40.03 32.50 37.00 39.08 41.64 41.07 40.95 41.37 33.91 35.19 29.17 27.31 35.18 33.47 36.91 41.69 43.53 43.87 42.49 43.50 46.97 49.06
42.26 35.44 44.02 48.78 46.84 38.19 29.01 28.53 34.04 36.87 40.29 38.32 35.58 35.47 35.75 35.25 37.80 37.46 37.37 40.50 42.16 39.97 43.53 42.16 37.35 32.54 37.40 36.79 35.65 36.80 35.81 36.81 36.87 35.56 31.11 29.80 36.01 42.50 41.71 43.54 43.22 43.83 43.30 43.86 45.41
39.07 31.84 44.42 47.46 34.49 33.64 32.05 32.98 36.93 35.25 38.30 39.73 39.63 39.77 37.66 38.74 36.37 36.81 36.10 39.55 43.35 40.92 38.06 38.44 36.30 30.95 32.24 36.55 41.47 40.58 37.90 37.79 34.36 30.48 32.61 32.05 34.83 40.28 39.89 39.57 40.25 42.23 43.01 43.94 44.05
34.19 35.82 42.91 44.67 29.06 30.80 34.78 34.83 36.81 34.83 35.17 38.01 36.16 39.68 40.95 37.41 34.36 35.57 37.96 41.09 43.35 41.62 38.97 38.38 33.91 27.75 28.70 32.51 35.26 36.69 38.77 39.54 39.32 35.41 31.43 31.81 36.19 38.52 40.26 41.61 41.35 42.24 43.66 44.10 43.64
36.49 30.97 36.02 38.55 37.15 34.03 32.85 33.71 33.62 38.18 35.07 37.30 36.93 40.76 38.44 35.36 37.11 33.35 37.02 38.68 42.74 43.61 41.02 40.91 34.56 34.08 31.01 33.81 35.47 32.59 36.30 38.52 37.85 32.46 34.62 35.37 38.67 43.47 44.68 43.22 42.17 42.26 44.69 45.93 44.21
35.64 31.95 33.08 29.14 31.61 34.75 35.99 35.30 33.25 32.92 35.29 37.16 36.25 37.91 36.75 32.05 33.02 34.06 36.04 36.66 40.45 42.23 41.03 40.29 32.35 34.24 34.24 35.56 35.87 36.50 36.47 36.70 35.71 37.93 34.41 38.03 38.68 42.10 44.72 46.16 47.42 45.47 43.75 43.45 44.12
32.41 31.69 33.37 31.83 34.41 34.03 34.34 32.16 33.33 33.74 33.81 33.91 35.54 37.44 37.96 34.51 35.51 33.88 36.58 37.02 36.13 39.60 38.86 37.52 32.02 35.21 30.28 34.77 35.25 33.57 36.13 38.09 37.86 38.57 38.76 39.31 38.52 45.57 45.38 43.48 42.50 42.86 42.42 43.04 44.39
36.73 36.78 35.49 32.86 32.85 32.27 32.72 33.27 34.36 36.15 37.02 38.45 39.65 37.50 36.43 37.59 40.08 41.79 41.86 40.63 39.99 38.80 37.27 36.07 33.35 32.80 29.24 33.11 33.32 30.20 33.85 36.38 37.51 39.39 39.68 35.70 40.74 44.96 43.16 43.45 44.91 45.68 44.31 42.80 44.62

GFSSW_sfc_wetblb_105.txt.gz
Wetbulb
58.01 58.50 58.74 58.92 60.03 61.21 62.20 62.86 62.93 63.09 63.25 63.35 63.57 63.62 63.46 62.59 61.95 60.11 56.32 60.25 60.63 62.61 60.86 59.08 59.62 58.68 55.13 53.18 54.29 54.72 48.35 46.60 48.53 48.91 49.78 53.78 52.77 54.16 56.53 56.19 57.76 59.32 57.79 62.03 65.42
58.01 58.34 58.84 59.28 59.73 61.24 61.93 62.31 62.31 62.60 62.86 62.81 62.96 63.08 63.09 62.33 59.43 57.13 61.86 61.16 62.08 62.97 59.47 58.65 56.16 57.74 54.95 51.00 53.30 51.27 48.77 48.87 51.58 51.52 50.30 52.59 53.14 53.05 53.24 54.49 55.48 57.16 60.36 64.33 63.90
57.61 58.27 58.47 58.97 59.24 60.72 61.54 61.98 61.73 62.01 62.36 62.14 62.21 62.46 62.21 62.12 55.30 55.26 63.61 62.51 62.72 62.54 60.62 60.03 58.91 56.39 53.55 50.50 51.80 52.25 49.28 52.12 49.76 51.24 50.73 50.92 52.62 53.95 52.77 52.01 54.56 54.82 58.30 62.35 61.86
56.80 57.80 58.52 58.85 59.30 60.45 61.20 61.46 61.49 61.32 61.68 61.52 61.56 61.57 61.22 59.58 46.59 58.24 63.87 63.46 63.45 61.79 58.78 57.11 56.45 49.63 46.40 48.16 52.08 48.90 52.70 51.99 49.25 49.46 49.90 49.52 52.13 51.57 53.08 53.82 54.73 57.13 60.33 61.85 60.65
56.64 57.33 58.09 58.33 58.80 60.28 60.82 60.78 61.06 61.02 61.13 61.50 61.02 60.98 59.31 52.63 52.57 59.31 62.67 62.89 61.58 60.12 56.26 55.47 54.47 52.09 47.23 49.16 52.88 50.58 50.95 49.50 49.40 49.79 49.70 49.65 49.46 50.12 51.81 55.32 55.29 58.33 60.29 60.78 61.11
56.33 56.74 57.36 57.82 58.37 59.50 60.50 60.36 60.59 60.66 60.89 61.08 60.74 60.37 55.80 47.77 59.52 60.87 60.57 60.86 60.11 59.02 56.24 56.22 55.35 56.95 51.80 49.84 49.87 52.04 51.88 49.01 48.92 50.88 48.49 49.07 49.76 49.18 52.08 54.55 54.92 58.12 59.46 60.84 61.40
56.14 56.60 56.79 57.32 58.51 59.29 59.68 59.94 59.65 59.22 60.32 60.99 60.75 58.16 52.97 51.58 60.09 60.56 58.71 59.50 60.44 59.42 55.91 57.12 56.98 55.12 54.19 49.61 51.64 51.18 48.86 49.56 49.39 52.33 51.24 49.59 48.75 47.34 52.39 53.87 54.29 56.71 58.90 60.37 61.44
55.79 55.97 56.43 57.10 57.79 58.78 58.90 59.01 59.11 58.41 58.67 59.48 60.25 56.82 49.47 58.96 61.01 58.78 59.43 59.15 60.53 60.37 58.44 58.80 57.07 53.41 51.00 51.80 49.10 47.21 47.62 44.32 49.92 50.75 51.23 50.53 45.90 51.82 53.27 52.37 52.84 55.05 57.27 59.36 60.87
55.22 55.49 56.27 56.38 57.13 57.94 58.04 58.31 58.15 58.93 58.41 58.20 55.18 53.85 47.98 56.85 54.84 58.44 59.15 56.33 56.31 56.98 56.92 56.97 54.91 50.87 49.73 45.80 45.27 46.40 42.33 43.73 46.76 51.20 50.12 50.04 47.36 53.00 51.59 50.92 51.74 53.61 55.95 57.90 59.90
54.85 55.26 55.96 56.34 56.53 56.74 57.13 57.22 56.93 57.31 57.01 56.43 54.46 48.15 50.28 49.45 54.36 56.76 58.04 57.10 53.83 53.81 51.58 50.96 50.10 47.61 46.54 46.00 38.94 42.15 42.11 43.37 44.03 48.47 48.03 48.10 47.68 52.23 52.56 51.60 51.14 51.99 54.02 56.71 58.32
54.72 55.17 55.75 55.99 56.47 56.86 55.82 53.41 47.99 48.35 50.27 46.22 46.26 46.79 48.82 53.55 56.23 53.86 55.93 53.91 53.35 51.36 45.21 47.39 42.71 42.11 45.57 45.85 47.17 46.57 44.39 43.59 46.47 47.99 48.05 46.87 47.40 50.27 53.30 53.93 52.98 51.65 52.15 53.72 57.19
54.53 55.00 55.55 55.76 56.52 56.56 55.32 48.77 49.14 50.89 43.28 49.43 49.36 50.10 52.07 53.06 47.69 50.87 54.27 48.33 47.57 43.57 47.10 44.01 40.45 46.20 48.88 48.68 46.90 45.26 44.05 44.28 46.52 46.70 46.61 47.41 47.16 50.14 52.18 53.07 54.39 53.34 53.46 52.80 54.54
54.22 54.50 54.75 55.01 55.14 54.42 51.38 50.37 54.96 54.37 43.88 45.63 48.38 48.03 49.06 50.77 46.93 47.52 51.04 49.35 46.27 44.06 44.62 41.97 44.09 47.80 46.62 45.64 44.40 45.40 44.14 45.13 44.09 44.71 45.15 44.89 44.34 47.32 50.90 52.86 54.45 55.60 55.92 54.57 53.26
53.83 53.82 53.78 53.85 50.18 51.43 47.93 53.67 55.34 54.17 37.14 38.35 43.69 46.47 49.61 49.42 44.99 51.97 52.77 49.08 46.34 43.32 44.80 43.74 47.18 45.90 44.64 43.39 45.71 41.42 47.10 47.16 42.77 42.38 38.39 44.87 36.26 46.04 49.60 50.82 52.60 54.20 55.16 55.78 53.83
53.41 53.45 53.47 53.24 48.96 47.35 50.09 53.98 54.36 49.84 22.85 40.57 42.84 52.04 49.73 45.13 45.89 46.48 52.58 47.99 43.33 44.54 44.96 41.19 43.68 43.69 43.83 44.12 46.59 42.97 47.30 45.68 43.72 39.96 38.10 38.60 34.85 43.44 48.35 47.49 50.62 52.25 54.27 56.23 55.12
52.95 53.07 52.90 51.05 51.36 51.00 53.13 53.70 50.74 32.17 24.51 36.28 43.40 43.23 43.25 44.27 44.67 46.93 46.76 48.55 49.17 45.13 45.15 43.95 47.48 47.09 45.58 47.36 48.16 44.77 41.36 40.72 38.22 37.78 32.85 40.31 37.79 40.63 44.89 47.68 50.28 52.22 53.19 55.28 54.62
52.62 52.61 51.30 50.81 45.56 53.05 53.24 48.23 30.73 24.71 34.99 32.80 37.12 41.44 41.15 40.20 41.20 42.86 41.28 41.27 38.86 36.17 36.44 41.39 43.03 44.96 47.24 43.50 44.55 44.19 40.28 32.83 31.56 32.00 32.63 39.25 38.57 40.61 47.15 50.27 51.22 52.12 52.90 54.12 55.63
52.19 52.09 50.06 49.81 51.94 52.45 49.61 35.92 22.42 31.24 32.36 35.87 37.16 40.77 37.89 40.02 40.23 41.14 39.59 38.47 42.97 42.15 38.56 35.30 31.89 41.88 46.21 44.18 38.29 40.57 42.02 35.15 27.37 29.72 34.10 36.25 34.58 40.77 47.83 50.38 50.50 52.29 52.26 51.47 53.58
51.24 49.73 47.58 49.20 51.69 51.75 41.24 27.12 27.41 31.85 36.97 34.44 36.12 35.69 36.23 39.13 38.87 39.49 38.82 38.73 41.94 44.34 37.70 35.84 34.80 41.75 44.88 45.44 44.41 37.52 37.79 43.45 34.30 29.09 32.83 36.95 40.22 44.25 46.24 45.91 47.54 47.56 49.29 51.91 50.99
45.72 43.35 43.33 49.31 50.75 47.30 35.43 29.10 31.51 36.69 35.58 36.19 32.64 36.77 33.56 35.14 35.99 37.21 37.17 41.90 42.39 46.23 46.92 41.71 33.23 37.65 39.77 42.94 42.75 42.99 43.04 34.54 36.64 30.21 28.55 35.72 37.41 38.70 43.79 45.82 47.50 47.67 47.93 48.96 50.29
43.38 36.86 43.96 48.93 48.76 39.19 29.51 30.11 32.93 37.00 36.32 33.37 35.52 32.92 36.79 34.97 36.95 36.90 37.32 41.59 45.39 45.03 45.89 43.71 38.54 33.15 38.70 37.34 36.73 38.62 37.54 40.15 39.84 38.54 32.22 31.30 37.07 45.80 44.87 41.76 42.76 44.88 45.49 45.90 46.28
42.93 33.00 45.49 48.36 34.06 35.09 31.63 33.32 36.39 35.13 38.09 34.80 32.91 36.96 37.78 38.46 37.63 37.39 36.90 42.29 47.31 46.29 40.64 43.24 39.06 31.65 34.09 37.10 42.75 42.63 39.63 40.28 34.42 32.47 35.31 34.20 35.62 42.00 42.96 43.50 43.47 43.87 44.67 45.80 46.14
36.68 35.82 44.35 44.78 29.86 29.93 34.24 33.25 35.65 34.18 35.06 33.90 33.89 39.41 41.48 38.56 35.72 39.03 40.30 45.96 47.27 44.60 41.56 41.46 35.86 27.38 29.07 34.33 37.70 37.91 40.64 41.66 41.19 37.60 34.09 32.30 35.89 45.47 45.94 42.89 43.84 43.97 44.47 47.58 47.02
39.78 30.31 36.56 38.39 39.44 33.70 31.33 31.76 31.84 37.67 36.03 35.47 34.10 34.24 39.86 38.07 40.97 37.96 38.31 43.90 45.59 44.49 43.11 43.14 38.09 35.26 30.90 34.28 36.81 34.21 38.12 40.35 39.95 34.24 35.22 35.98 39.53 41.60 42.75 43.32 43.87 45.18 48.58 48.01 48.12
40.86 33.92 33.88 29.00 31.62 34.74 34.48 33.59 31.85 32.23 37.06 35.91 34.09 33.91 38.46 33.14 35.73 36.63 36.92 39.31 41.93 42.25 41.36 41.56 34.18 37.06 38.58 40.36 38.91 38.02 37.89 38.33 37.15 39.18 36.11 39.35 39.91 43.41 45.99 46.84 47.97 49.24 49.18 47.30 46.84
34.38 33.34 34.22 33.89 35.30 32.66 34.63 32.42 31.39 32.71 34.27 33.51 32.43 35.76 40.10 36.22 37.92 36.27 38.33 39.04 37.92 39.86 39.58 41.40 33.81 34.93 32.40 37.82 38.93 36.70 38.58 39.50 39.58 40.06 40.17 40.71 40.17 46.28 47.42 48.17 46.19 46.84 47.21 47.03 46.39
38.27 38.58 39.26 34.21 33.74 32.22 32.19 33.95 34.02 36.26 37.01 38.53 36.80 35.89 39.11 40.36 43.53 44.21 42.61 42.27 43.00 40.23 38.74 37.41 35.36 34.29 29.45 35.11 34.34 30.59 36.30 38.95 39.37 41.10 40.96 37.00 41.89 45.57 45.05 45.68 46.25 46.76 47.35 47.54 47.01

GFSSW_sfc_wetblb_108.txt.gz
Wetbulb
59.16 59.11 59.39 59.74 59.77 60.37 61.59 62.87 63.04 63.24 63.46 63.45 63.75 63.80 63.53 62.82 62.59 59.97 56.36 60.38 61.50 62.19 60.61 61.94 61.05 57.42 57.09 52.47 52.98 52.88 46.05 43.94 46.88 47.39 47.77 51.13 49.51 51.52 52.95 53.80 53.14 55.71 56.36 60.46 63.50
58.69 58.71 59.04 59.32 59.01 60.12 61.26 62.34 62.56 62.87 63.04 63.22 63.15 63.25 63.04 62.07 59.40 56.77 62.76 63.92 63.38 62.40 58.00 58.56 57.47 57.02 53.58 50.50 50.94 48.66 46.07 47.42 50.21 48.84 47.32 50.52 49.57 51.01 49.77 51.06 50.83 54.18 58.99 62.87 62.92
57.88 58.00 58.50 58.54 58.96 59.84 60.78 61.67 62.00 62.29 62.46 62.59 62.56 62.58 62.38 61.56 55.01 54.61 64.40 64.24 63.71 62.18 59.07 58.27 59.90 57.54 53.10 53.59 50.58 49.61 45.62 51.30 48.79 49.44 49.44 49.73 49.11 51.02 48.98 47.82 51.65 52.47 57.54 60.68 62.29
57.53 57.60 58.19 58.68 59.41 59.64 59.92 61.32 61.66 61.80 62.08 62.10 62.12 61.82 61.52 59.35 45.27 57.76 64.14 64.28 64.14 61.04 58.44 56.50 57.08 52.40 49.16 48.94 50.46 45.83 50.73 52.03 50.69 49.93 49.04 47.78 49.64 48.48 49.19 48.55 51.31 53.21 59.69 59.83 59.57
56.97 56.92 57.53 58.32 58.85 59.50 59.73 61.04 61.18 61.33 61.60 61.28 61.40 61.00 58.73 52.35 52.24 59.27 63.00 63.46 61.25 59.30 56.34 54.16 53.04 52.26 46.77 48.99 49.97 47.88 49.10 49.91 48.94 48.25 48.69 49.15 46.71 46.26 47.08 50.62 52.23 56.78 59.45 59.10 59.41
56.50 56.38 56.60 57.84 58.70 58.86 59.76 60.86 60.90 60.68 61.14 61.02 60.92 60.51 54.50 47.11 59.27 60.75 61.31 60.87 59.39 57.97 56.39 55.09 53.28 55.13 51.98 50.22 48.97 51.18 51.08 48.65 47.70 48.21 48.29 48.24 48.06 47.09 47.63 49.69 51.30 56.41 56.20 58.71 59.14
56.28 56.29 56.87 57.57 58.24 58.54 58.96 59.94 60.21 60.22 60.54 61.19 60.82 57.83 52.46 50.80 59.56 60.15 60.62 59.59 59.88 58.50 55.28 56.12 56.08 53.68 53.56 50.22 52.81 51.26 47.44 48.96 45.82 47.45 49.03 50.00 48.33 48.00 48.01 50.34 49.87 52.89 55.47 57.35 59.11
56.02 56.06 56.39 56.94 57.46 57.91 58.70 58.84 59.20 59.48 59.51 60.49 60.36 56.42 49.17 57.86 59.34 58.72 58.25 58.41 60.28 60.07 58.41 57.87 56.99 53.20 50.92 51.16 49.11 45.28 45.65 40.96 46.45 47.64 49.79 49.49 42.65 51.01 52.25 46.99 48.47 50.31 52.88 55.94 58.43
55.43 55.64 56.18 56.53 56.70 57.32 58.34 58.30 58.19 58.13 58.97 59.30 55.59 52.99 47.11 57.77 54.30 58.29 57.97 56.06 57.61 58.36 58.49 56.88 55.07 50.13 48.67 45.32 41.80 43.69 39.14 40.24 44.07 48.59 46.92 46.98 43.99 50.23 53.70 48.63 46.03 48.04 49.68 54.48 56.51
55.00 55.38 55.97 56.24 56.29 56.67 57.58 57.68 57.58 57.78 56.91 56.53 54.84 48.68 50.28 48.92 54.34 56.52 58.60 57.91 54.18 54.26 52.07 50.90 48.84 45.58 46.38 42.94 36.78 38.87 39.84 42.28 41.25 46.50 46.63 44.35 44.56 48.51 50.14 47.85 46.56 46.71 47.69 49.89 54.76
54.80 55.19 55.85 55.95 56.18 56.77 56.07 52.96 47.96 46.84 50.24 46.11 47.15 46.61 49.46 53.52 56.41 54.08 56.42 54.89 53.53 50.48 44.77 47.97 43.07 39.90 42.43 45.57 45.75 44.56 42.43 42.02 43.92 47.74 45.00 43.90 45.32 46.85 49.85 49.17 48.54 48.29 47.51 47.98 51.24
54.52 55.22 55.84 55.75 56.09 56.20 54.47 47.94 47.89 50.07 42.52 48.90 48.91 49.25 51.74 52.94 47.91 51.31 55.78 49.17 48.08 43.80 46.60 44.07 39.68 44.18 46.40 47.54 45.56 44.75 43.39 41.90 44.76 44.86 44.01 44.37 44.67 48.05 48.98 49.23 50.83 51.60 50.63 48.24 49.02
54.26 54.67 55.47 55.40 55.71 54.12 51.21 50.10 54.48 54.18 42.13 44.45 48.18 47.35 48.73 50.90 47.10 48.20 51.91 49.43 46.19 43.55 44.02 40.47 42.44 46.28 45.13 44.22 43.66 43.79 41.78 41.95 41.65 42.28 43.21 41.20 40.51 44.41 48.45 50.32 51.18 52.15 52.72 52.16 49.75
54.09 54.67 55.01 55.05 51.07 51.01 48.62 53.32 54.91 54.73 36.07 38.09 42.73 45.88 48.55 49.30 44.19 51.82 52.73 49.19 45.47 43.12 44.32 42.94 45.59 43.84 42.99 41.77 45.26 41.02 46.29 45.65 42.29 40.49 36.91 41.80 34.48 41.86 46.54 47.28 49.27 51.10 51.74 52.97 53.11
54.18 54.55 54.46 54.03 48.03 47.05 50.16 53.71 54.36 49.62 21.51 38.72 42.51 51.27 48.73 44.58 45.82 46.82 52.37 49.35 43.82 42.65 44.55 40.76 41.74 41.68 40.41 42.17 46.17 41.92 47.07 44.54 42.96 40.10 38.21 38.64 35.60 38.38 44.83 44.70 48.10 50.75 52.14 52.86 54.08
53.91 53.88 53.64 51.11 50.06 50.64 53.16 53.13 49.76 31.29 18.88 34.20 41.87 41.68 42.34 43.45 44.05 47.12 47.21 50.06 49.04 44.67 44.56 43.68 46.26 45.25 43.86 45.56 46.43 44.98 41.91 40.40 39.27 38.67 32.87 38.05 36.23 37.04 41.19 44.21 46.31 49.03 50.62 51.24 53.41
53.37 53.24 51.36 50.90 45.34 52.19 52.44 47.10 30.45 23.30 34.15 31.09 36.79 40.82 39.84 38.32 40.46 43.01 42.61 41.97 38.93 35.80 36.85 41.20 41.76 44.69 46.73 42.84 44.11 43.61 40.19 32.30 31.56 31.21 31.45 38.32 36.27 39.14 43.96 46.09 46.65 46.74 48.27 49.90 50.73
52.99 51.94 50.64 50.89 52.34 51.77 48.33 35.81 22.45 27.13 29.47 36.50 36.87 38.91 35.08 39.12 38.62 39.16 39.25 38.30 42.00 40.58 37.33 33.64 32.29 41.35 44.83 43.86 39.23 40.68 40.33 31.14 25.55 25.92 27.95 31.91 30.40 37.62 46.66 48.73 48.00 48.19 47.79 48.96 46.71
51.74 48.58 47.75 49.78 52.15 50.57 39.93 25.24 23.46 29.53 34.68 34.37 34.79 31.49 35.20 38.43 38.94 38.34 36.37 34.15 41.32 42.41 35.60 35.52 35.10 43.18 44.51 45.58 43.73 39.97 37.69 41.17 31.39 23.34 26.78 31.21 35.47 41.07 43.17 43.15 43.59 43.99 44.57 45.99 47.52
46.16 44.38 44.54 50.30 51.03 45.78 34.05 28.32 29.14 36.18 37.05 36.23 29.66 33.33 31.83 35.18 35.20 36.26 36.22 38.85 37.46 44.21 44.93 39.56 32.55 38.89 40.94 44.03 44.07 41.57 42.33 34.00 33.09 23.42 22.60 29.16 31.01 34.19 37.78 40.34 42.36 42.47 42.36 43.72 44.25
43.32 37.52 44.75 50.06 48.44 39.24 28.26 29.23 33.18 38.13 37.55 33.90 32.59 33.12 33.36 34.20 36.35 34.96 36.47 39.95 40.22 42.32 44.99 42.23 37.01 33.29 39.01 37.79 36.59 37.93 37.57 37.59 37.44 33.95 27.47 25.00 30.10 39.83 39.66 37.63 39.73 40.53 40.91 40.07 40.17
40.92 31.88 44.63 47.05 33.59 34.14 29.04 32.40 36.69 35.52 37.72 34.24 33.96 32.48 32.76 34.59 34.78 36.31 36.26 39.48 44.03 43.71 40.38 42.72 38.05 30.90 35.00 36.89 40.08 40.98 39.34 38.64 32.76 29.72 31.53 29.74 30.14 38.03 38.33 38.79 39.93 40.21 41.85 41.17 40.25
34.35 35.45 44.85 43.23 26.92 27.60 33.19 33.12 34.69 33.27 33.37 34.03 32.18 34.28 35.77 33.33 31.88 37.28 38.46 43.16 44.75 44.26 41.70 41.56 35.29 27.62 29.71 35.33 37.67 37.44 39.38 40.75 39.42 34.49 30.82 27.42 30.38 39.43 38.25 38.46 40.11 40.06 40.85 43.01 42.45
37.36 29.27 35.32 38.19 36.63 30.80 28.77 30.07 30.32 36.37 34.98 35.65 33.89 35.27 32.75 31.04 33.32 33.83 38.36 42.36 45.12 45.33 44.15 43.25 36.15 33.49 29.94 33.06 36.26 35.18 37.56 39.44 39.16 30.78 31.29 33.09 34.21 36.41 38.86 39.32 39.25 40.22 41.29 43.14 43.33
39.36 31.13 31.15 27.07 29.50 32.62 31.89 31.10 29.16 28.69 35.40 36.27 33.05 32.34 31.15 28.18 30.40 31.46 39.70 40.97 43.56 44.67 43.06 41.06 32.30 35.78 35.70 38.29 37.48 36.77 37.06 37.73 36.90 38.10 33.50 35.89 36.24 39.91 39.70 40.13 41.51 43.18 43.62 43.37 43.52
34.48 32.39 33.61 31.13 32.22 31.61 32.94 28.96 29.28 30.59 34.16 31.99 31.68 33.45 33.52 31.26 32.58 31.01 38.86 39.76 39.51 39.50 40.16 40.52 32.29 33.63 30.39 37.46 37.73 35.25 37.77 38.61 38.83 38.80 38.55 38.11 36.77 42.54 43.30 42.10 41.20 42.31 43.93 43.92 44.35
38.75 39.85 34.99 33.06 29.88 29.87 29.33 31.23 31.29 34.40 35.76 36.49 34.80 33.65 32.39 33.76 37.44 38.13 41.80 43.64 41.75 39.76 38.19 37.56 31.65 30.87 28.47 34.75 34.72 31.47 35.84 37.69 38.28 40.15 39.70 35.13 40.16 40.96 40.89 41.88 40.94 41.30 43.49 43.17 43.53

GFSSW_sfc_wetblb_111.txt.gz
Wetbulb
59.91 59.86 59.87 60.13 60.70 61.03 61.29 62.52 62.75 63.34 63.56 63.44 63.86 63.66 63.47 63.15 62.30 59.21 55.53 60.24 61.09 62.49 61.52 60.07 58.64 55.57 55.90 51.65 53.35 53.25 43.11 42.78 45.06 44.80 44.71 48.55 47.11 50.09 51.49 52.61 53.09 54.88 55.04 58.27 62.09
59.44 59.60 59.65 59.68 59.78 60.23 61.22 62.27 62.32 62.26 63.42 63.24 63.23 63.34 63.10 62.39 58.42 55.86 62.01 64.32 63.21 62.02 57.61 57.33 54.93 54.86 49.27 51.04 50.08 50.07 44.63 46.10 50.40 44.70 43.58 48.33 47.72 49.28 49.10 49.51 50.19 56.20 59.71 61.22 61.50
58.87 59.07 59.32 59.41 59.44 59.51 60.54 61.56 61.79 61.91 62.58 62.84 62.76 62.46 62.06 61.38 54.37 54.36 63.97 64.71 63.85 61.73 58.00 56.81 58.49 55.67 51.03 50.41 49.64 49.18 45.92 49.05 47.36 47.94 47.89 47.93 47.46 49.10 48.20 46.19 50.71 53.29 58.02 59.78 59.27
58.61 58.53 58.72 58.87 59.06 59.19 59.67 60.89 61.47 61.89 61.75 62.10 62.46 62.15 61.11 58.52 44.64 56.40 63.47 64.70 64.07 59.68 57.29 55.18 54.92 50.26 47.32 46.42 50.46 44.01 49.86 50.87 50.92 49.14 48.19 46.73 46.71 46.22 47.27 47.57 50.67 57.85 60.04 59.97 59.32
57.99 57.67 57.85 58.10 58.70 59.08 59.44 59.85 61.05 61.38 61.31 61.58 61.90 61.62 58.38 52.45 50.97 58.31 62.17 64.00 61.19 58.15 54.94 52.54 53.06 49.42 45.73 48.17 50.07 47.55 49.54 50.36 50.10 47.97 47.68 47.65 44.98 44.48 44.66 47.10 51.35 59.30 59.83 58.47 58.82
57.52 57.24 57.17 57.57 58.40 59.34 59.40 59.73 60.92 60.99 60.86 61.04 61.21 60.88 53.61 46.78 57.55 61.47 61.75 60.15 58.67 56.50 54.87 53.19 51.35 53.03 48.78 46.90 48.77 51.58 51.06 50.03 47.60 46.51 47.52 46.65 46.09 46.55 46.26 47.89 54.12 58.52 57.33 57.30 57.89
57.29 57.06 56.91 57.46 57.92 58.64 59.16 59.55 60.65 60.64 60.88 60.71 60.99 58.07 52.60 50.21 57.15 60.14 60.95 59.15 58.50 57.07 53.84 54.94 53.65 51.00 50.67 47.66 50.49 50.36 47.25 49.16 45.57 45.02 45.69 47.94 44.71 46.95 47.13 48.79 51.44 53.51 56.30 57.07 57.69
56.83 56.54 56.39 56.91 57.44 58.03 58.63 58.99 59.66 60.08 60.11 60.14 60.26 55.65 49.16 56.95 56.28 57.13 59.08 58.27 59.24 58.34 56.87 56.08 54.60 50.34 48.82 48.92 46.76 45.19 43.72 41.73 48.35 44.46 45.60 46.65 40.85 49.34 51.86 47.32 47.07 50.09 52.01 56.58 57.82
56.32 55.99 56.04 56.80 57.05 57.37 57.78 58.07 58.51 59.25 59.47 59.34 55.07 52.21 47.29 57.68 53.18 56.02 56.49 56.12 57.30 57.69 56.96 56.28 52.85 47.70 46.25 42.79 38.71 39.41 34.83 37.25 41.49 44.80 44.92 45.21 42.97 49.04 51.47 48.07 45.73 45.68 48.59 53.80 56.63
55.86 55.66 56.03 56.73 56.89 56.89 57.14 58.02 58.01 58.18 56.23 55.51 54.04 47.09 50.28 49.19 53.15 55.31 55.24 57.16 54.36 54.07 51.98 50.63 46.45 42.86 42.28 39.86 34.75 34.91 36.71 38.66 39.51 43.74 43.65 42.53 43.36 46.54 48.46 46.72 45.37 45.43 45.84 50.21 55.21
55.57 55.63 55.99 56.46 56.61 56.98 55.56 52.02 48.11 46.73 50.28 44.36 46.67 45.74 48.02 51.98 55.09 53.42 55.57 54.48 52.01 49.85 44.53 47.84 42.65 39.36 41.08 42.46 42.07 40.37 39.46 39.62 41.39 45.48 42.96 41.47 41.32 43.82 47.15 44.50 43.84 44.06 45.32 45.73 52.79
55.38 55.57 56.04 56.33 56.41 56.81 53.04 46.08 46.08 47.12 42.82 48.30 48.41 48.58 50.64 51.67 47.82 50.56 55.52 49.63 47.83 43.25 45.93 43.75 39.92 43.20 44.37 44.95 43.85 42.37 39.51 38.59 42.40 43.72 42.87 41.81 42.26 46.08 45.55 46.45 47.33 47.19 47.39 46.56 46.67
55.02 55.15 55.67 55.94 55.82 53.52 49.58 47.69 51.77 49.80 40.94 43.79 46.67 46.98 46.80 49.16 45.11 46.94 51.58 49.09 46.73 43.28 43.29 40.24 42.20 45.08 43.38 41.91 41.86 41.82 39.84 40.09 39.37 40.58 40.77 39.72 39.27 41.96 45.11 46.77 48.22 49.15 50.04 50.87 49.10
54.70 54.87 55.21 55.15 50.34 49.09 47.69 51.88 51.99 51.29 30.00 36.81 41.08 44.72 47.92 47.16 43.99 50.15 52.07 47.74 45.34 43.11 43.61 42.30 44.66 43.00 41.46 40.43 42.66 38.81 43.69 43.74 40.81 38.02 34.35 40.53 33.82 40.84 43.65 45.62 47.75 49.37 49.31 50.95 51.10
54.22 54.47 54.68 53.84 46.48 46.23 49.31 52.61 52.22 46.46 20.67 34.72 40.93 49.10 47.63 42.84 43.32 44.88 51.55 47.91 41.80 42.00 44.04 40.74 42.04 40.83 39.45 40.58 43.34 40.12 45.27 43.38 40.67 37.62 38.22 38.37 35.63 37.67 43.13 42.06 44.74 48.42 50.25 51.20 51.25
53.90 53.88 53.90 50.02 48.44 49.10 52.21 53.03 47.99 31.47 18.71 30.16 40.83 40.63 41.13 42.09 41.88 45.68 45.73 47.74 48.76 43.29 42.61 42.17 46.59 44.48 42.42 43.88 44.14 43.87 41.09 39.97 39.69 38.86 33.16 38.55 36.82 36.06 39.57 41.95 45.56 48.26 49.42 50.32 51.45
53.27 53.42 51.33 49.32 44.29 51.00 51.43 47.41 31.91 22.76 29.90 31.95 36.04 40.03 38.14 37.72 39.36 40.86 41.53 40.94 37.53 35.69 36.12 39.58 40.81 44.79 44.33 41.05 42.82 42.59 39.45 32.66 31.91 31.45 29.68 38.02 34.96 38.85 42.85 44.74 45.84 46.37 46.47 47.28 47.84
53.04 53.39 50.80 48.22 51.22 51.33 47.78 37.01 22.41 19.85 21.42 37.13 37.63 37.71 35.36 37.68 37.23 38.38 37.41 35.61 40.61 38.67 35.24 33.76 31.66 40.90 44.55 41.04 38.92 40.30 39.96 31.13 25.59 26.45 29.21 32.88 31.12 36.97 45.29 48.29 48.45 46.94 46.35 46.78 46.65
52.97 48.86 47.05 47.78 51.45 49.97 40.41 28.82 23.44 24.36 33.25 34.39 34.77 33.62 33.57 36.34 36.40 37.25 35.71 34.88 38.03 40.26 33.81 33.16 34.42 42.77 43.33 43.16 42.87 37.62 37.20 40.57 30.54 19.63 25.13 29.62 33.31 39.65 42.02 44.50 44.12 43.57 43.39 43.21 44.68
46.04 44.90 44.28 49.51 50.64 45.76 34.44 26.99 23.12 34.54 35.12 33.99 23.45 28.62 27.46 34.01 34.37 34.87 34.58 36.42 39.25 43.01 43.15 37.81 33.59 40.17 41.97 43.85 43.25 41.02 43.26 34.25 33.53 20.52 20.46 26.49 28.90 32.32 36.97 40.75 42.49 41.27 41.25 42.44 42.08
44.92 39.68 45.63 50.44 48.69 39.32 28.72 28.02 30.25 36.59 36.38 31.48 29.55 29.68 29.28 32.64 34.95 34.78 34.73 35.45 38.64 40.25 44.04 41.50 37.81 34.78 39.20 38.89 38.12 37.09 37.83 37.39 37.03 31.84 25.39 22.42 27.70 37.39 39.89 39.73 39.30 39.34 39.55 38.43 38.38
39.61 32.43 46.21 48.72 34.87 32.73 28.97 30.15 36.32 34.75 35.36 32.87 32.66 31.45 32.10 32.29 30.67 34.81 34.47 36.34 40.60 42.18 39.93 42.67 38.48 32.27 34.93 37.95 39.89 40.52 39.27 38.80 32.95 29.08 30.02 28.44 29.02 38.65 37.91 37.92 38.92 38.79 40.53 40.22 39.90
34.43 35.59 44.86 43.43 26.02 24.72 30.70 31.18 32.64 33.14 32.38 31.47 29.64 32.98 33.59 32.25 28.30 32.68 34.26 39.80 41.75 40.55 39.69 41.79 33.42 30.75 31.10 35.13 37.99 38.48 38.74 40.89 37.09 33.93 30.63 26.72 28.97 37.85 35.40 36.54 37.75 38.96 40.17 41.20 40.99
33.20 29.25 34.54 37.59 30.61 29.47 25.98 27.77 28.04 33.69 32.47 33.74 32.05 34.05 31.50 30.67 33.18 29.36 31.10 35.96 40.94 41.88 43.55 43.08 35.36 32.74 29.89 33.23 37.19 35.90 37.33 39.65 38.84 31.14 31.90 33.02 32.97 35.36 35.88 37.12 37.75 38.94 40.26 40.83 41.90
32.98 28.10 27.81 28.51 24.38 28.91 29.24 28.51 27.68 25.48 32.46 33.84 30.66 31.23 29.66 23.41 29.56 29.56 32.53 34.38 38.27 41.87 41.80 41.14 32.37 34.86 36.21 37.15 38.05 37.35 37.41 37.56 36.75 37.74 32.92 35.72 34.81 37.80 38.74 37.64 38.81 38.80 39.18 42.28 42.15
29.81 29.34 30.87 22.83 29.74 28.93 29.37 23.88 27.93 28.68 30.19 29.15 27.89 31.59 31.71 28.39 29.85 25.58 32.85 34.92 34.82 40.87 41.41 41.97 32.93 35.68 33.48 36.61 37.12 35.83 37.67 38.23 38.38 39.19 38.55 38.16 36.19 40.54 42.22 40.70 39.64 41.43 42.21 42.15 43.18
34.76 35.73 31.10 30.62 26.08 26.68 26.26 26.15 28.01 30.69 31.51 33.91 33.09 31.57 30.74 32.34 35.05 35.59 37.47 37.65 36.93 34.38 34.20 39.20 34.48 32.73 30.54 34.54 35.24 31.54 35.81 37.42 38.15 39.95 39.67 35.23 39.63 40.35 39.83 41.22 40.84 41.86 43.08 42.31 42.27

GFSSW_sfc_wetblb_114.txt.gz
Wetbulb
60.31 60.31 60.62 60.88 61.31 61.50 61.98 62.44 62.39 63.56 63.46 63.43 63.69 63.67 63.66 63.36 62.00 58.54 54.87 59.74 60.25 62.67 61.50 58.82 57.28 55.25 54.95 49.55 52.26 50.63 43.24 42.82 45.17 42.31 43.41 46.78 45.70 49.19 50.63 51.77 53.86 56.06 55.07 56.98 61.08
60.06 59.80 59.93 60.32 60.51 61.33 61.20 62.47 62.06 62.45 63.21 63.29 63.27 63.22 63.05 62.22 57.98 55.11 61.19 64.27 63.60 62.37 58.24 56.45 52.90 53.90 48.24 48.33 48.84 46.99 42.06 45.29 49.97 43.97 41.98 46.55 45.89 48.45 49.04 48.76 50.86 54.48 58.09 59.49 60.35
59.18 59.24 59.67 59.65 59.86 60.54 60.74 61.40 61.82 61.80 62.26 63.01 62.91 62.95 61.97 60.88 53.45 53.43 63.45 64.92 63.99 60.97 57.40 56.53 57.09 54.81 49.52 48.29 46.87 47.68 44.83 48.90 48.02 47.38 45.81 46.57 45.72 47.60 48.34 46.24 50.62 53.12 56.91 58.16 58.65
58.87 58.93 59.26 59.47 59.49 59.86 60.15 60.79 61.48 61.37 61.87 62.05 62.42 62.37 61.17 57.22 43.46 55.25 63.76 64.91 63.88 58.94 56.50 55.69 54.03 49.34 47.81 44.30 48.05 43.90 50.38 51.46 52.31 49.84 47.36 45.11 45.52 45.08 45.98 47.01 50.22 55.69 58.75 58.85 58.54
58.45 58.44 58.69 58.93 59.34 59.45 59.38 59.93 60.96 61.15 61.36 61.50 61.63 61.40 57.97 52.71 50.06 57.62 61.20 64.06 60.13 56.82 53.91 52.40 52.04 48.74 46.28 47.79 48.28 44.49 47.89 51.92 53.41 50.05 46.73 46.52 44.08 44.04 43.59 45.65 52.66 59.04 58.87 58.49 58.99
58.02 57.96 57.69 58.32 58.81 59.34 59.19 59.65 60.03 61.22 60.83 61.35 61.45 60.55 54.87 47.17 56.85 61.69 61.74 60.60 58.18 55.59 53.98 52.69 53.25 51.92 48.14 47.76 46.95 49.18 49.46 50.29 50.50 47.38 46.48 45.30 44.93 45.93 44.66 47.77 55.83 58.07 57.27 57.74 58.01
57.81 57.79 57.59 57.54 58.27 58.52 58.76 59.16 59.22 60.65 60.84 60.86 61.47 58.09 52.91 49.37 56.54 60.73 60.31 58.19 58.18 56.21 53.06 54.35 52.68 50.51 49.26 45.82 50.01 49.40 46.30 48.57 50.04 46.68 44.08 46.92 43.30 44.79 46.07 51.75 54.98 55.39 55.35 56.39 57.45
56.58 57.32 56.99 57.28 57.60 58.26 58.23 58.67 59.47 60.15 60.47 60.47 60.72 55.98 49.53 56.36 56.19 59.11 58.76 57.59 58.20 57.71 55.87 55.46 54.07 49.42 47.63 48.53 45.87 44.87 42.45 38.32 45.34 45.25 45.68 44.92 40.38 46.96 49.26 46.35 50.99 52.73 53.77 55.57 56.84
56.35 56.39 56.53 56.72 56.92 57.59 57.83 57.68 58.63 59.83 60.05 59.50 55.16 52.46 47.41 57.04 52.93 56.01 57.39 55.17 56.44 56.80 56.57 56.03 52.90 46.82 45.59 41.49 37.43 38.46 34.48 36.46 41.33 45.16 43.93 44.24 41.71 46.96 49.00 48.72 45.87 47.96 51.51 54.90 55.87
56.02 56.01 56.12 56.46 56.44 57.48 57.35 57.19 57.62 57.67 56.02 54.94 54.53 47.62 49.98 48.72 52.58 54.49 55.20 56.61 54.02 53.44 51.85 50.19 45.73 42.51 40.94 38.76 33.63 33.09 33.33 36.58 38.01 43.20 42.09 41.86 41.78 44.51 46.78 46.91 45.97 44.31 45.81 51.62 55.10
55.76 55.99 56.03 56.33 56.29 57.43 55.83 51.89 47.39 46.00 50.26 44.66 44.97 44.53 47.84 52.12 54.28 52.10 54.08 53.31 51.41 48.74 44.82 47.86 42.87 39.86 41.02 40.73 41.05 38.79 37.67 37.45 38.93 44.24 40.23 40.66 42.56 42.98 46.20 44.14 44.03 43.07 43.17 44.98 52.67
55.09 55.92 55.90 56.00 56.68 56.93 52.91 45.42 45.11 45.60 42.79 47.18 48.26 48.17 49.88 51.72 47.14 49.81 54.09 47.89 46.35 42.49 44.82 43.64 40.77 43.23 43.88 42.91 41.89 39.81 36.75 36.11 40.71 42.87 40.73 40.05 40.25 44.35 43.42 43.94 44.81 44.51 44.10 44.06 44.83
55.24 55.50 55.41 55.94 56.13 54.14 49.21 46.18 50.57 49.86 41.09 43.25 46.55 46.53 46.83 48.79 44.44 47.01 51.09 48.55 45.26 42.95 43.15 40.45 41.47 45.56 42.67 41.48 40.50 40.26 38.01 37.33 38.30 39.96 40.08 37.67 38.14 40.91 43.49 45.20 45.85 46.63 47.82 47.51 47.22
55.00 55.00 55.25 55.25 50.98 50.20 47.63 50.04 50.85 47.06 32.97 36.73 41.22 44.15 46.76 46.83 42.06 49.18 52.04 48.54 45.56 42.45 43.59 42.41 43.79 43.33 40.61 39.77 41.12 36.29 42.22 42.38 41.02 38.20 33.10 38.88 32.31 38.93 42.94 43.97 44.92 47.37 48.00 48.65 49.05
54.65 55.08 55.18 54.06 47.69 46.79 49.39 51.18 50.36 43.21 16.91 35.62 39.36 48.33 46.89 41.67 42.31 44.89 50.35 46.74 42.05 42.64 43.78 40.46 41.53 41.45 39.73 40.02 42.52 38.16 43.22 42.18 40.98 38.55 37.79 37.51 34.93 36.35 41.16 40.47 43.69 46.93 49.12 50.19 50.87
54.31 54.55 54.18 50.09 48.70 49.45 52.18 50.34 46.67 30.01 14.96 33.01 40.02 40.04 40.23 40.97 40.74 44.91 45.33 46.90 45.93 41.37 41.73 41.54 46.72 44.44 42.10 43.04 43.30 43.39 40.57 39.58 36.89 38.20 33.46 36.50 35.86 34.25 38.84 41.43 43.49 46.28 47.64 48.99 49.33
54.06 54.04 51.49 49.17 44.34 51.57 51.41 45.60 31.37 24.16 28.02 32.68 35.32 39.36 37.87 37.76 38.44 39.84 40.67 40.90 37.57 34.68 34.70 38.60 39.71 44.02 44.88 40.77 42.16 42.55 38.35 31.45 30.63 30.46 28.10 35.59 33.75 37.38 41.40 43.31 46.08 46.84 47.10 46.33 46.93
53.83 53.21 50.41 47.72 51.02 51.66 47.66 37.14 25.00 20.76 22.49 37.27 37.40 37.82 33.71 36.71 36.65 36.81 37.56 36.72 40.75 36.24 34.15 30.84 27.99 39.05 43.87 41.86 38.27 38.91 38.36 29.35 24.44 25.32 27.39 34.30 32.11 36.56 43.37 47.74 48.69 47.90 46.41 45.44 45.40
53.21 49.43 46.71 49.25 51.71 50.80 41.35 28.86 27.54 24.83 33.37 35.02 36.15 33.27 32.30 35.39 35.42 35.07 34.84 35.34 38.35 39.50 33.71 34.07 33.68 39.51 41.81 44.05 42.67 37.39 35.85 38.73 29.26 19.14 24.22 29.49 32.97 37.42 40.78 42.53 45.53 45.50 44.46 44.65 44.05
47.67 45.24 44.29 50.71 51.68 47.17 36.34 30.37 29.24 33.77 35.49 36.00 29.98 33.54 30.11 33.26 32.99 33.13 33.82 37.34 36.50 40.07 39.47 35.06 30.74 39.06 40.15 42.79 42.77 41.19 41.94 34.40 34.34 22.58 19.92 25.94 27.37 33.30 35.25 40.08 44.26 41.85 41.88 42.31 42.54
45.69 39.96 45.85 50.99 49.28 41.23 31.24 31.17 30.93 36.86 35.76 32.05 28.41 30.26 32.42 32.72 33.96 32.45 33.62 34.41 38.70 37.97 41.13 37.01 34.65 33.13 39.92 38.62 37.44 38.15 37.11 37.87 36.77 30.21 25.54 21.82 27.87 35.84 40.17 42.28 43.62 42.16 41.00 40.27 39.18
39.93 33.07 46.79 48.71 35.26 34.69 30.34 31.02 36.61 33.81 34.37 32.68 32.52 31.76 30.28 32.93 33.87 33.26 31.85 34.32 38.78 40.30 36.98 39.80 35.27 29.23 33.71 39.01 40.58 41.03 38.04 38.55 32.84 30.17 29.25 27.77 30.11 37.10 36.02 38.00 39.32 38.96 38.92 38.11 38.80
35.99 37.82 45.71 44.78 28.03 30.30 31.53 31.50 33.16 32.35 31.01 30.63 30.46 32.40 33.66 31.12 27.87 32.07 35.64 37.43 39.43 40.94 37.72 40.52 35.20 28.85 31.67 35.09 38.17 36.62 38.95 39.80 39.32 32.58 31.17 29.15 30.84 37.06 35.13 33.54 35.57 37.65 38.83 39.51 39.60
36.81 31.72 33.21 36.97 33.73 31.34 29.33 28.43 27.98 33.29 32.32 32.26 31.23 33.20 30.59 31.19 31.69 28.41 31.50 34.95 37.98 39.51 42.92 42.42 34.55 32.59 28.85 31.91 35.89 34.92 37.88 38.81 38.13 32.21 32.45 32.34 34.58 36.10 35.31 35.21 35.81 37.73 39.31 39.93 40.23
31.93 29.78 32.35 28.01 27.03 30.48 30.96 29.74 27.33 25.23 31.95 32.33 30.46 30.32 28.98 21.69 26.87 28.55 31.20 32.60 35.25 39.41 40.53 40.90 33.81 34.09 34.65 35.56 36.93 36.77 37.31 38.57 37.00 37.18 33.02 35.76 35.33 39.20 37.79 36.28 36.93 38.30 39.36 39.94 41.02
28.56 29.23 28.25 29.37 30.85 30.35 31.16 25.51 28.07 28.26 30.01 28.61 27.79 30.55 30.16 25.88 28.21 26.17 30.56 31.65 32.19 37.71 36.42 39.88 32.86 35.68 32.46 35.39 36.25 34.17 37.69 38.51 38.70 38.75 38.78 38.31 35.17 42.74 42.28 38.95 36.52 37.65 38.04 39.42 41.60
32.85 32.59 32.32 30.22 24.38 26.14 24.40 27.36 29.04 31.02 30.99 32.63 31.18 30.24 29.00 31.18 32.35 32.15 33.61 34.74 34.36 33.97 35.08 32.91 32.18 31.73 28.66 32.96 34.03 30.49 34.55 37.03 37.61 39.83 39.52 35.36 40.09 38.39 39.79 38.95 37.88 37.65 38.97 39.36 41.74

GFSSW_sfc_wetblb_117.txt.gz
Wetbulb
60.57 60.75 61.03 61.44 61.56 62.28 62.50 62.63 62.89 63.35 63.37 63.22 64.02 63.81 63.75 63.13 61.73 58.03 54.65 59.00 59.58 63.34 61.58 58.44 56.82 54.80 53.68 49.64 50.57 48.66 41.02 39.73 42.56 42.87 43.21 47.99 45.60 48.71 50.07 50.92 53.73 55.60 55.21 55.76 60.55
59.97 60.44 60.36 60.64 61.05 61.24 61.61 62.00 62.17 62.77 63.30 63.22 63.23 63.33 62.90 62.04 58.00 55.52 61.02 63.95 64.13 63.04 57.88 55.47 52.16 53.33 48.92 47.87 48.12 45.20 40.81 42.89 47.62 43.69 41.03 43.31 45.19 48.47 48.64 49.00 49.54 51.82 57.10 58.36 59.75
59.62 59.73 60.03 59.82 60.57 60.91 60.91 61.11 61.47 61.96 62.53 63.01 62.85 62.95 62.15 60.35 53.52 53.92 63.35 64.52 63.70 60.75 56.89 56.17 55.86 53.55 47.81 47.35 46.45 46.14 42.54 46.22 46.80 47.06 45.35 44.02 44.60 46.22 47.65 46.28 50.37 51.49 55.06 57.31 57.43
59.00 59.28 59.49 59.54 59.90 60.53 60.91 60.73 61.11 61.55 61.70 62.75 62.63 62.45 61.13 55.63 44.15 54.12 62.93 64.79 64.12 58.01 55.54 56.17 53.43 49.06 45.23 44.21 46.68 43.81 48.35 49.49 51.71 51.20 49.84 44.19 45.12 44.05 46.49 47.28 49.27 53.66 57.19 57.79 57.95
58.28 58.59 58.78 59.04 59.26 59.79 60.32 60.40 60.50 61.27 61.69 61.69 62.01 61.53 57.30 52.40 49.90 56.52 61.95 64.29 59.56 56.29 53.39 54.19 51.18 48.65 45.60 45.36 46.46 43.20 45.09 49.76 52.38 52.13 47.51 46.04 44.01 43.64 43.34 44.44 52.20 56.90 57.54 57.63 58.33
57.95 57.75 57.95 58.30 58.75 59.62 59.66 59.97 60.12 60.55 61.45 61.44 61.46 60.83 54.84 47.25 56.20 59.99 59.13 60.12 57.24 54.87 52.69 53.42 52.26 51.19 47.18 46.66 44.69 46.68 47.10 48.31 49.48 47.89 45.96 43.79 43.42 46.00 44.51 46.72 54.19 56.37 56.04 56.89 58.06
57.78 57.81 57.46 57.85 58.50 58.92 59.08 59.16 59.35 60.11 60.96 61.82 61.66 58.53 53.31 50.13 56.29 60.07 60.48 58.08 57.79 55.96 52.56 52.76 52.22 50.27 48.26 44.58 49.28 48.52 44.70 46.99 48.19 49.00 46.18 44.17 41.88 43.50 46.43 51.51 53.42 54.56 54.28 55.64 57.35
57.46 57.28 57.26 57.40 58.07 58.35 58.59 58.61 58.82 59.39 60.22 60.89 61.05 56.05 49.51 56.70 57.55 58.79 58.04 56.26 57.32 57.19 56.00 55.25 52.96 48.94 47.44 47.31 45.60 43.30 40.96 37.87 44.35 47.23 47.68 44.63 40.24 45.75 47.65 50.75 51.09 52.89 52.93 54.49 56.45
56.42 56.64 57.06 57.06 57.24 57.61 58.22 58.43 58.15 59.36 59.69 59.56 55.54 52.91 47.25 57.02 53.16 57.32 56.90 54.61 55.65 55.73 55.74 56.36 52.55 46.11 45.27 40.89 37.11 37.34 33.00 34.85 40.74 44.89 44.74 43.65 40.56 46.37 47.37 45.57 46.78 50.32 52.30 54.40 55.26
53.67 56.41 56.77 56.81 57.02 56.84 57.56 58.33 57.48 57.57 55.24 55.30 54.67 47.86 49.03 48.64 52.08 54.39 55.08 56.09 53.18 52.81 51.20 50.07 47.55 43.57 39.63 38.43 32.49 33.05 32.71 35.32 36.67 41.47 40.36 40.21 40.24 43.46 45.26 45.93 45.83 44.79 49.78 52.74 54.68
53.97 54.30 56.58 56.67 56.66 57.24 56.62 51.35 45.94 43.95 49.58 44.43 45.34 44.30 47.39 51.50 54.15 51.96 54.00 52.48 50.96 47.80 44.21 46.55 42.73 39.90 40.69 39.24 39.37 37.27 36.15 36.32 37.07 42.90 39.53 39.24 41.57 45.24 46.64 43.42 44.05 43.80 43.04 46.79 52.56
52.80 55.85 56.35 56.54 56.58 56.85 52.66 44.79 44.52 44.07 41.71 46.34 46.86 47.63 49.62 50.97 47.61 50.13 53.82 46.94 44.97 42.73 45.62 43.39 40.11 43.03 43.54 42.45 40.48 38.13 35.16 34.44 39.22 42.24 39.52 38.91 38.88 41.88 43.28 43.33 44.65 45.45 44.45 44.10 43.74
52.76 54.43 55.93 55.91 56.09 53.69 48.68 45.91 49.75 49.52 39.73 43.00 45.90 46.71 47.34 48.96 44.59 47.41 50.62 47.09 43.54 42.27 42.39 39.98 41.43 45.40 42.44 40.43 39.43 38.54 37.49 35.48 36.69 39.92 38.57 36.19 36.94 40.62 41.99 43.85 44.81 44.63 47.09 46.82 46.40
52.97 50.94 55.26 55.45 51.96 49.73 47.22 49.10 50.38 46.52 29.36 36.89 40.81 44.68 46.36 46.30 41.78 49.46 51.18 47.14 43.08 40.74 41.50 40.99 42.78 42.87 40.46 39.82 40.61 36.22 40.75 40.84 39.20 37.10 31.89 36.25 30.25 36.81 40.18 42.58 43.44 46.18 46.68 46.61 46.34
51.41 50.88 55.23 54.80 49.33 45.89 48.96 50.15 48.15 42.48 18.05 35.98 40.67 47.90 46.17 41.67 42.21 43.38 50.04 47.06 41.23 41.15 41.33 37.19 39.71 40.90 38.94 39.25 41.75 38.09 41.91 40.94 39.79 36.88 35.66 34.57 34.09 34.89 39.21 39.94 41.62 45.19 47.28 48.05 48.76
51.75 49.21 54.88 52.26 49.80 48.91 51.27 49.91 45.64 29.47 14.14 33.46 39.67 39.90 39.85 40.37 39.69 46.46 47.36 47.99 46.78 40.82 39.51 39.96 45.99 43.18 40.70 41.80 42.73 42.10 39.48 38.24 36.46 36.02 30.25 34.75 34.00 33.39 37.80 39.26 41.73 44.42 46.45 48.19 48.94
48.57 49.32 53.38 50.64 45.47 51.40 50.51 45.21 30.47 23.45 27.46 32.54 35.00 38.49 37.64 37.96 37.72 39.75 41.13 40.22 37.65 34.21 34.82 39.21 40.33 43.81 43.68 39.86 41.07 41.85 36.68 31.22 29.99 29.57 26.19 32.52 32.00 36.28 39.35 41.25 42.91 44.88 45.75 47.21 46.84
47.98 53.73 51.91 50.03 51.30 51.07 47.69 36.34 24.40 19.55 24.14 35.56 37.03 37.03 34.37 37.10 36.06 36.04 38.22 36.63 40.19 34.69 32.35 32.58 29.78 38.99 43.37 41.36 38.19 38.93 38.29 30.39 23.33 24.59 26.27 30.78 29.33 34.47 41.84 45.79 46.72 46.45 46.56 45.03 45.51
48.05 51.15 47.72 49.46 51.79 50.42 40.56 28.03 23.50 24.91 29.73 34.99 35.89 32.79 32.87 34.88 35.51 34.28 33.49 34.76 37.87 37.71 30.85 29.84 30.85 37.92 40.22 42.51 41.98 37.73 35.74 38.56 31.25 18.59 22.88 28.42 32.99 37.46 39.42 40.18 43.06 45.01 46.22 45.19 45.61
45.63 45.71 45.37 50.85 51.73 46.47 34.75 28.46 24.60 31.58 35.32 36.90 30.59 33.42 29.67 32.78 30.47 32.58 32.23 35.30 35.09 40.19 38.16 34.04 31.82 37.10 37.62 41.15 41.46 39.80 41.53 33.84 34.39 24.94 20.34 25.32 26.94 31.85 34.21 38.36 42.23 44.65 44.35 43.39 43.48
45.33 39.77 47.01 51.16 49.86 40.61 29.05 26.15 29.11 35.48 35.23 34.06 29.92 30.76 32.40 32.48 31.40 31.59 31.65 32.17 37.26 36.71 39.49 37.98 33.59 30.08 39.40 37.45 36.28 38.02 36.34 37.78 36.49 31.26 24.63 22.11 28.12 34.53 38.90 40.27 41.66 43.32 42.84 41.91 41.61
40.66 32.95 48.45 49.52 36.68 35.55 30.92 30.06 36.35 32.95 34.08 32.54 31.95 30.32 31.08 33.47 30.81 31.32 29.74 32.39 37.88 38.74 34.96 38.16 35.12 25.93 30.36 39.42 41.53 40.48 37.83 38.18 32.83 27.76 29.80 26.98 30.63 36.70 37.28 37.25 37.75 40.32 40.80 39.45 38.51
38.14 40.13 47.99 46.11 30.06 31.73 33.33 31.79 33.57 31.93 32.45 31.37 30.53 32.42 32.61 31.91 28.61 32.23 32.61 36.06 37.74 37.88 35.49 38.65 32.70 27.07 24.83 31.59 37.59 37.54 39.24 39.39 38.07 34.13 30.70 25.45 31.46 37.50 33.06 34.93 36.60 37.07 37.46 38.40 38.57
40.39 33.24 38.13 37.30 33.12 33.12 30.42 28.87 28.42 33.16 31.78 31.65 31.49 32.50 30.74 29.85 30.47 32.17 34.98 35.08 37.48 38.33 41.78 41.27 32.13 28.85 24.33 26.01 31.93 32.24 35.94 37.93 37.71 33.22 32.40 32.62 34.53 37.39 36.82 34.61 35.82 36.10 37.50 38.06 39.56
35.02 32.21 33.07 29.18 28.26 32.25 30.10 29.23 28.49 26.53 31.95 31.85 30.59 30.92 29.06 28.29 26.96 28.43 33.19 33.09 35.83 39.59 39.83 39.72 32.42 32.72 33.62 33.85 33.91 35.25 33.97 35.46 35.14 36.08 32.70 35.58 35.55 39.07 40.22 38.85 38.40 37.14 37.12 37.93 39.47
32.41 32.91 33.37 30.59 33.00 31.51 32.11 28.81 28.79 28.58 28.95 28.17 28.61 30.15 29.28 27.33 29.21 26.97 30.62 30.29 30.60 35.47 36.95 39.04 30.12 33.63 31.35 34.79 34.21 32.47 35.22 36.59 36.46 36.06 35.67 36.76 36.66 42.59 40.82 39.68 36.48 37.18 37.13 37.65 39.27
33.00 33.20 34.03 33.63 31.65 29.78 24.92 29.49 28.77 30.31 31.00 31.21 31.45 30.62 29.03 29.43 31.68 33.63 33.49 33.58 33.33 32.88 32.60 32.71 31.54 29.36 22.33 31.86 31.23 28.82 32.61 34.22 35.80 38.20 38.97 34.79 39.22 40.64 39.93 40.05 40.19 37.46 37.29 38.18 38.50

GFSSW_sfc_wetblb_120.txt.gz
Wetbulb
60.74 60.95 61.44 61.64 61.96 62.09 62.40 62.99 63.41 63.05 63.29 63.55 63.39 63.03 64.11 63.25 61.66 58.12 54.77 59.06 59.33 62.55 61.62 57.76 56.15 55.22 53.32 50.20 51.06 47.23 40.65 38.82 40.61 39.55 41.34 43.95 45.21 47.77 49.86 50.89 52.08 54.65 52.68 53.73 60.46
60.25 60.33 60.79 61.20 61.40 61.41 61.85 62.08 62.33 62.73 62.92 63.20 63.75 63.33 63.21 61.95 58.21 54.93 60.67 63.44 63.93 63.01 57.31 54.93 51.40 52.77 50.52 49.04 48.73 45.82 39.70 40.99 45.70 41.22 41.06 43.57 45.16 48.10 48.68 48.90 48.59 50.60 55.00 56.99 60.75
59.73 59.93 60.27 60.71 60.80 61.21 61.07 61.32 61.43 62.05 62.25 62.86 62.86 63.16 61.78 60.44 54.71 54.27 63.65 64.39 63.83 61.13 57.17 55.91 55.27 52.31 47.98 47.55 46.27 45.92 42.80 44.36 46.49 44.34 44.34 43.54 44.63 46.05 47.66 45.37 49.06 50.85 54.36 56.66 57.77
59.59 59.23 59.66 60.22 60.17 60.75 60.91 60.73 60.91 61.19 61.67 62.23 62.70 61.72 60.65 56.94 45.40 54.60 63.42 64.81 63.67 57.60 56.21 55.49 53.06 47.86 44.13 44.54 46.75 43.88 47.89 47.56 49.03 50.32 48.32 45.69 44.96 43.82 47.26 48.29 47.74 52.45 55.80 56.80 57.47
58.88 58.71 58.75 59.31 59.52 60.19 60.41 60.50 60.39 60.57 61.17 61.64 61.88 61.50 57.23 51.37 50.27 56.01 61.55 64.33 59.10 55.74 53.80 53.95 50.38 48.32 43.93 43.93 45.75 43.64 44.63 47.44 49.97 50.76 49.23 46.83 44.73 43.21 43.76 46.65 50.83 54.07 56.59 56.68 57.80
58.34 58.47 58.27 58.54 59.02 59.85 60.14 60.24 60.08 59.98 60.83 61.22 61.85 60.67 55.02 47.33 55.98 58.19 60.12 59.04 56.20 54.67 52.58 54.55 51.57 50.67 46.19 45.05 43.93 46.01 45.10 46.78 48.50 48.12 47.23 45.05 43.41 44.15 44.97 46.57 52.28 54.61 54.72 55.51 57.11
58.14 58.15 57.86 58.22 58.72 59.03 59.37 59.60 59.64 59.69 60.11 61.36 61.25 58.98 53.63 49.95 55.69 59.04 60.04 56.94 56.02 55.41 52.16 53.34 54.15 49.37 48.24 43.84 48.29 47.24 44.34 45.68 46.06 47.10 45.23 42.98 42.11 41.80 46.18 48.36 50.90 53.18 53.09 54.17 55.48
56.44 57.43 57.49 57.75 58.18 58.26 58.76 59.02 59.10 59.32 59.48 60.44 60.44 57.05 49.30 57.71 58.09 58.18 57.52 55.72 56.49 56.21 54.82 54.75 52.81 49.17 46.48 46.72 45.06 41.61 40.19 36.73 44.12 46.78 47.37 41.92 40.78 45.19 46.19 48.76 48.37 51.72 52.45 53.60 54.85
54.30 54.73 56.97 57.13 57.29 57.35 58.28 58.00 58.33 58.78 59.45 59.25 56.10 52.81 47.83 57.92 54.84 56.88 56.70 54.21 54.84 55.07 54.89 55.38 52.38 46.32 44.75 40.30 37.06 37.10 31.56 33.77 39.75 43.98 44.50 41.07 38.86 45.20 46.23 46.89 47.03 49.19 51.84 53.06 54.22
53.46 54.73 56.52 56.75 56.99 56.98 57.71 57.88 57.79 57.31 55.11 55.40 54.46 48.00 50.53 49.33 53.45 55.84 55.24 56.22 53.12 52.33 52.21 49.09 47.77 43.24 39.38 38.13 31.75 33.70 34.23 33.84 35.38 39.67 40.48 40.30 40.27 43.14 43.56 43.48 43.43 43.99 47.02 51.10 53.43
53.01 54.57 54.20 56.42 56.82 57.36 56.34 53.33 46.81 44.48 49.58 44.27 45.54 43.92 47.17 51.16 54.24 52.90 54.74 52.29 50.26 48.50 45.21 47.28 42.81 40.12 40.17 39.13 38.54 36.83 34.25 34.49 35.55 41.91 38.54 37.89 39.64 43.31 45.66 42.99 42.53 43.73 44.28 45.15 51.29
52.65 52.85 53.81 55.77 56.81 56.87 54.23 45.70 44.16 43.11 39.44 45.77 45.97 48.20 49.31 50.10 47.58 49.81 53.92 47.46 45.19 40.10 45.33 43.22 40.32 41.95 43.07 42.12 40.36 37.81 33.93 33.15 38.24 40.78 39.04 38.56 38.73 42.61 42.07 42.98 45.04 46.61 45.30 45.98 44.67
52.27 52.65 53.51 53.70 56.39 54.84 50.82 46.18 49.85 47.74 37.22 42.48 46.17 46.74 47.47 48.61 44.53 47.20 50.52 46.90 43.40 40.80 42.35 40.49 41.41 44.90 42.10 39.73 38.84 37.58 39.33 37.48 35.42 39.21 37.90 35.67 35.62 38.79 41.43 42.04 44.54 43.98 46.81 47.38 47.24
51.46 52.11 52.95 54.06 52.33 52.16 47.88 49.74 50.39 46.09 28.62 35.91 39.49 43.70 46.22 46.09 43.44 49.70 51.10 47.06 42.98 41.02 42.61 41.42 43.52 41.40 39.10 38.94 40.31 36.14 40.12 39.77 38.52 36.52 30.43 34.55 29.15 35.60 38.25 40.31 42.02 44.15 44.38 45.52 46.89
51.01 51.91 52.54 53.62 49.99 48.52 48.68 50.14 48.80 43.98 18.38 34.81 38.97 47.11 45.28 41.65 42.10 46.18 50.14 46.88 41.18 39.83 41.68 36.95 39.95 40.70 38.04 38.38 40.76 36.96 40.87 39.65 38.70 36.88 34.23 33.88 32.84 33.97 36.32 36.69 39.82 42.78 43.97 46.06 46.41
50.80 51.44 52.07 50.87 52.05 51.29 51.16 50.09 46.19 28.41 18.39 33.52 38.58 39.52 39.02 39.42 39.24 46.90 47.28 47.13 45.38 41.27 40.13 38.15 42.20 41.82 40.31 40.88 41.73 41.20 38.54 37.06 34.97 35.54 30.42 33.22 32.08 30.85 34.56 36.58 39.70 42.44 43.96 45.34 46.10
50.74 51.19 50.49 48.38 46.99 51.34 50.29 45.39 30.26 23.04 26.99 31.88 34.92 38.80 37.08 37.00 39.21 41.33 41.20 40.76 38.21 34.90 34.61 38.61 38.48 40.86 42.29 38.75 39.97 39.54 35.10 26.28 29.21 29.24 25.82 30.28 29.93 34.46 37.70 39.31 41.11 42.47 43.68 45.09 45.06
50.63 50.72 50.57 47.52 51.59 50.64 47.48 36.66 23.82 19.23 25.85 35.29 36.64 37.46 34.32 36.56 37.08 36.06 37.94 37.23 40.98 35.57 34.48 32.83 30.81 39.36 42.24 41.03 38.18 38.78 35.61 27.93 23.91 23.44 24.91 29.53 27.11 32.11 39.90 43.74 44.79 45.54 45.89 45.73 44.32
50.50 47.21 46.13 45.85 51.32 50.06 40.84 28.47 24.45 27.13 29.92 34.28 35.75 32.71 33.03 36.02 36.45 36.35 35.72 35.62 39.41 39.20 32.39 31.32 31.75 37.50 40.96 41.80 41.81 37.95 35.06 37.75 31.29 16.64 23.98 27.09 31.07 36.60 38.35 39.61 40.92 42.12 43.89 44.21 45.47
44.22 43.50 43.25 50.14 51.37 46.07 35.37 28.96 24.71 31.07 35.20 36.13 30.21 32.80 28.87 33.14 31.71 31.77 33.78 35.99 36.95 41.07 39.57 34.79 28.59 35.01 37.09 41.75 42.01 40.22 41.69 32.31 33.70 23.88 19.33 25.08 25.79 30.57 34.10 37.47 39.92 41.04 43.43 43.81 41.91
43.05 37.01 44.92 51.35 49.57 39.99 30.26 27.63 29.47 34.51 37.70 32.93 31.50 32.03 30.23 32.54 32.42 30.04 32.68 31.09 36.72 37.63 41.07 37.87 31.40 31.66 37.67 36.63 35.31 37.63 35.61 36.53 35.89 32.48 24.37 19.77 26.33 33.59 37.63 39.83 39.12 40.11 41.51 40.91 41.80
39.68 31.52 47.21 49.51 35.92 34.72 31.03 30.66 35.75 31.70 33.68 31.92 32.04 30.28 30.93 33.07 32.36 29.91 29.55 30.81 37.09 39.04 35.84 38.35 33.91 26.03 28.69 39.19 37.94 38.72 36.60 36.44 31.27 26.90 31.84 29.34 30.83 36.66 36.60 37.03 37.60 37.86 38.73 38.27 39.23
34.87 38.69 48.23 45.88 30.27 31.07 32.79 32.97 33.05 31.25 31.08 31.50 30.83 32.08 32.99 31.70 30.16 31.12 31.18 34.30 37.20 38.25 36.08 36.85 29.29 25.80 26.56 29.15 36.22 35.33 37.95 38.81 37.08 33.64 29.74 27.55 30.30 36.17 34.55 36.10 36.04 35.38 36.23 36.89 37.14
38.55 32.87 39.17 39.10 37.98 32.55 31.74 32.14 29.08 32.34 30.53 31.88 31.08 34.04 31.19 30.64 32.12 32.09 31.38 34.05 36.63 37.36 41.10 40.67 30.50 26.18 23.26 23.86 29.61 30.26 33.97 36.58 35.56 30.29 31.33 31.65 33.28 36.71 37.48 37.31 38.95 40.40 37.08 36.21 36.89
37.40 32.83 33.01 29.50 32.84 33.21 31.45 31.55 29.71 28.49 30.64 31.47 30.80 33.19 31.60 29.08 30.42 30.53 33.18 32.44 34.57 39.20 39.16 37.79 30.81 29.85 30.32 30.84 31.18 31.25 31.24 33.94 34.17 33.59 29.57 31.96 33.29 37.99 40.12 40.86 40.88 42.39 41.09 37.27 37.69
33.92 33.29 35.37 34.16 34.30 32.27 32.94 30.15 30.95 28.51 28.35 27.00 30.00 31.24 30.07 29.57 29.56 29.83 31.36 31.69 32.13 34.22 36.88 39.24 31.48 34.41 30.52 32.82 33.88 31.40 33.40 33.52 33.86 34.67 34.59 34.50 33.35 38.78 41.43 42.49 41.85 39.24 40.40 39.16 37.23
33.60 34.66 37.68 34.79 32.41 31.22 24.90 29.64 29.90 29.83 30.01 30.79 32.27 29.65 29.07 30.26 33.26 34.18 33.91 33.04 32.64 32.58 32.66 33.59 31.93 26.05 13.91 28.54 29.66 22.01 30.66 32.54 33.64 36.37 36.78 32.85 37.07 40.94 40.03 40.06 39.70 40.66 40.27 40.13 38.12